<?xml version='1.0' encoding='UTF-8'?><gpx version="1.1" creator="JPX - https://github.com/jenetics/jpx" xmlns="http://www.topografix.com/GPX/1/1"><trk><trkseg><trkpt lat="46.1742353" lon="11.1820098"><ele>864.9999999999999</ele><time>2026-05-01T20:44:13.118Z</time></trkpt><trkpt lat="46.174172" lon="11.1819914"><ele>865.0</ele><time>2026-05-01T20:44:16.118Z</time></trkpt><trkpt lat="46.1740831" lon="11.1819996"><ele>865.0</ele><time>2026-05-01T20:44:19.117Z</time></trkpt><trkpt lat="46.1740127" lon="11.1820022"><ele>865.0</ele><time>2026-05-01T20:44:22.118Z</time></trkpt><trkpt lat="46.173919" lon="11.182005"><ele>864.9999999999999</ele><time>2026-05-01T20:44:25.117Z</time></trkpt><trkpt lat="46.1738424" lon="11.1819938"><ele>865.0</ele><time>2026-05-01T20:44:27.118Z</time></trkpt><trkpt lat="46.1737598" lon="11.1819399"><ele>861.8571428571429</ele><time>2026-05-01T20:44:29.118Z</time></trkpt><trkpt lat="46.1736907" lon="11.1818967"><ele>858.7142857142858</ele><time>2026-05-01T20:44:31.117Z</time></trkpt><trkpt lat="46.1736261" lon="11.1818948"><ele>855.5714285714286</ele><time>2026-05-01T20:44:33.118Z</time></trkpt><trkpt lat="46.1735546" lon="11.1818985"><ele>852.4285714285714</ele><time>2026-05-01T20:44:35.118Z</time></trkpt><trkpt lat="46.1734887" lon="11.1819105"><ele>849.2857142857142</ele><time>2026-05-01T20:44:37.117Z</time></trkpt><trkpt lat="46.1734137" lon="11.1820052"><ele>846.1428571428571</ele><time>2026-05-01T20:44:40.118Z</time></trkpt><trkpt lat="46.173409" lon="11.182096"><ele>843.0</ele><time>2026-05-01T20:44:42.117Z</time></trkpt><trkpt lat="46.1734397" lon="11.1821916"><ele>843.0</ele><time>2026-05-01T20:44:44.117Z</time></trkpt><trkpt lat="46.173489" lon="11.1822954"><ele>843.0</ele><time>2026-05-01T20:44:46.118Z</time></trkpt><trkpt lat="46.1735308" lon="11.182374"><ele>843.0</ele><time>2026-05-01T20:44:48.117Z</time></trkpt><trkpt lat="46.1735973" lon="11.1824532"><ele>843.0</ele><time>2026-05-01T20:44:50.118Z</time></trkpt><trkpt lat="46.1736643" lon="11.1825352"><ele>843.0</ele><time>2026-05-01T20:44:52.118Z</time></trkpt><trkpt lat="46.1737142" lon="11.1826371"><ele>843.0</ele><time>2026-05-01T20:44:55.118Z</time></trkpt><trkpt lat="46.1737744" lon="11.1827548"><ele>840.0</ele><time>2026-05-01T20:44:58.118Z</time></trkpt><trkpt lat="46.1738095" lon="11.1828786"><ele>837.0</ele><time>2026-05-01T20:45:00.118Z</time></trkpt><trkpt lat="46.173813" lon="11.1829981"><ele>834.0</ele><time>2026-05-01T20:45:02.117Z</time></trkpt><trkpt lat="46.1738259" lon="11.1831565"><ele>831.0</ele><time>2026-05-01T20:45:04.118Z</time></trkpt><trkpt lat="46.1738415" lon="11.1832761"><ele>828.0</ele><time>2026-05-01T20:45:06.117Z</time></trkpt><trkpt lat="46.1738743" lon="11.1833746"><ele>825.0</ele><time>2026-05-01T20:45:08.118Z</time></trkpt><trkpt lat="46.1739149" lon="11.1834612"><ele>826.3333333333334</ele><time>2026-05-01T20:45:10.118Z</time></trkpt><trkpt lat="46.1739594" lon="11.1835522"><ele>827.6666666666667</ele><time>2026-05-01T20:45:12.118Z</time></trkpt><trkpt lat="46.174032" lon="11.1836422"><ele>829.0</ele><time>2026-05-01T20:45:14.117Z</time></trkpt><trkpt lat="46.1741134" lon="11.183706"><ele>830.3333333333334</ele><time>2026-05-01T20:45:16.117Z</time></trkpt><trkpt lat="46.1741844" lon="11.1837329"><ele>831.6666666666667</ele><time>2026-05-01T20:45:18.118Z</time></trkpt><trkpt lat="46.1742571" lon="11.1837411"><ele>833.0</ele><time>2026-05-01T20:45:20.117Z</time></trkpt><trkpt lat="46.1743292" lon="11.1837883"><ele>833.0000000000001</ele><time>2026-05-01T20:45:22.117Z</time></trkpt><trkpt lat="46.1743968" lon="11.1838732"><ele>833.0</ele><time>2026-05-01T20:45:24.118Z</time></trkpt><trkpt lat="46.1744394" lon="11.183985"><ele>833.0</ele><time>2026-05-01T20:45:26.118Z</time></trkpt><trkpt lat="46.1744695" lon="11.1840705"><ele>833.0</ele><time>2026-05-01T20:45:28.118Z</time></trkpt><trkpt lat="46.1745209" lon="11.1841701"><ele>833.0000000000001</ele><time>2026-05-01T20:45:30.117Z</time></trkpt><trkpt lat="46.1745867" lon="11.184271"><ele>833.0</ele><time>2026-05-01T20:45:32.118Z</time></trkpt><trkpt lat="46.1746189" lon="11.184384"><ele>827.6666666666667</ele><time>2026-05-01T20:45:34.118Z</time></trkpt><trkpt lat="46.1745985" lon="11.1845026"><ele>822.3333333333334</ele><time>2026-05-01T20:45:36.118Z</time></trkpt><trkpt lat="46.1745721" lon="11.1846505"><ele>817.0</ele><time>2026-05-01T20:45:38.117Z</time></trkpt><trkpt lat="46.1745851" lon="11.1847671"><ele>811.6666666666667</ele><time>2026-05-01T20:45:41.117Z</time></trkpt><trkpt lat="46.1746559" lon="11.1848039"><ele>806.3333333333334</ele><time>2026-05-01T20:45:43.117Z</time></trkpt><trkpt lat="46.1747306" lon="11.1848475"><ele>801.0</ele><time>2026-05-01T20:45:45.117Z</time></trkpt><trkpt lat="46.1747658" lon="11.1849662"><ele>796.1999999999999</ele><time>2026-05-01T20:45:47.117Z</time></trkpt><trkpt lat="46.1747822" lon="11.1851019"><ele>791.4</ele><time>2026-05-01T20:45:49.117Z</time></trkpt><trkpt lat="46.174827" lon="11.1852323"><ele>786.6</ele><time>2026-05-01T20:45:51.118Z</time></trkpt><trkpt lat="46.1748638" lon="11.1853143"><ele>781.8</ele><time>2026-05-01T20:45:52.118Z</time></trkpt><trkpt lat="46.1749319" lon="11.1854414"><ele>777.0</ele><time>2026-05-01T20:45:54.117Z</time></trkpt><trkpt lat="46.174997" lon="11.1855544"><ele>781.8</ele><time>2026-05-01T20:45:56.117Z</time></trkpt><trkpt lat="46.1751003" lon="11.1856432"><ele>786.6</ele><time>2026-05-01T20:45:58.117Z</time></trkpt><trkpt lat="46.1751908" lon="11.1857318"><ele>791.4</ele><time>2026-05-01T20:46:00.118Z</time></trkpt><trkpt lat="46.1752851" lon="11.1857765"><ele>796.1999999999999</ele><time>2026-05-01T20:46:02.117Z</time></trkpt><trkpt lat="46.1753807" lon="11.1857921"><ele>801.0</ele><time>2026-05-01T20:46:04.117Z</time></trkpt><trkpt lat="46.1754734" lon="11.1858297"><ele>801.0</ele><time>2026-05-01T20:46:06.118Z</time></trkpt><trkpt lat="46.1755559" lon="11.1858666"><ele>801.0</ele><time>2026-05-01T20:46:08.117Z</time></trkpt><trkpt lat="46.1756547" lon="11.1859509"><ele>801.0</ele><time>2026-05-01T20:46:10.117Z</time></trkpt><trkpt lat="46.1756959" lon="11.1860245"><ele>801.0</ele><time>2026-05-01T20:46:11.118Z</time></trkpt><trkpt lat="46.1757629" lon="11.1861291"><ele>801.0</ele><time>2026-05-01T20:46:13.117Z</time></trkpt><trkpt lat="46.175848" lon="11.1862073"><ele>809.8</ele><time>2026-05-01T20:46:15.117Z</time></trkpt><trkpt lat="46.1759491" lon="11.1862634"><ele>818.5999999999999</ele><time>2026-05-01T20:46:17.118Z</time></trkpt><trkpt lat="46.1760458" lon="11.1863059"><ele>827.4</ele><time>2026-05-01T20:46:19.118Z</time></trkpt><trkpt lat="46.1761717" lon="11.1863542"><ele>836.2</ele><time>2026-05-01T20:46:21.117Z</time></trkpt><trkpt lat="46.1762712" lon="11.1863902"><ele>845.0</ele><time>2026-05-01T20:46:23.117Z</time></trkpt><trkpt lat="46.1763885" lon="11.1864157"><ele>845.0</ele><time>2026-05-01T20:46:25.117Z</time></trkpt><trkpt lat="46.1765001" lon="11.1864099"><ele>845.0</ele><time>2026-05-01T20:46:27.118Z</time></trkpt><trkpt lat="46.1766164" lon="11.1864157"><ele>845.0</ele><time>2026-05-01T20:46:29.117Z</time></trkpt><trkpt lat="46.1767314" lon="11.1864265"><ele>845.0</ele><time>2026-05-01T20:46:31.118Z</time></trkpt><trkpt lat="46.1767971" lon="11.1864193"><ele>845.0</ele><time>2026-05-01T20:46:32.118Z</time></trkpt><trkpt lat="46.1768627" lon="11.1864259"><ele>845.6666666666667</ele><time>2026-05-01T20:46:33.118Z</time></trkpt><trkpt lat="46.1769877" lon="11.1864535"><ele>846.3333333333334</ele><time>2026-05-01T20:46:35.118Z</time></trkpt><trkpt lat="46.1770905" lon="11.1864715"><ele>847.0</ele><time>2026-05-01T20:46:37.118Z</time></trkpt><trkpt lat="46.1771538" lon="11.1864829"><ele>847.6666666666667</ele><time>2026-05-01T20:46:38.117Z</time></trkpt><trkpt lat="46.1772149" lon="11.1865125"><ele>848.3333333333334</ele><time>2026-05-01T20:46:39.118Z</time></trkpt><trkpt lat="46.1772756" lon="11.1865513"><ele>849.0</ele><time>2026-05-01T20:46:40.118Z</time></trkpt><trkpt lat="46.1774121" lon="11.1866356"><ele>849.0</ele><time>2026-05-01T20:46:42.118Z</time></trkpt><trkpt lat="46.1774909" lon="11.1866699"><ele>849.0</ele><time>2026-05-01T20:46:43.117Z</time></trkpt><trkpt lat="46.177617" lon="11.1866837"><ele>849.0</ele><time>2026-05-01T20:46:45.118Z</time></trkpt><trkpt lat="46.1776808" lon="11.1866719"><ele>849.0</ele><time>2026-05-01T20:46:46.118Z</time></trkpt><trkpt lat="46.1777959" lon="11.1866736"><ele>849.0</ele><time>2026-05-01T20:46:48.117Z</time></trkpt><trkpt lat="46.1779107" lon="11.1866852"><ele>849.0</ele><time>2026-05-01T20:46:50.118Z</time></trkpt><trkpt lat="46.1780194" lon="11.1867509"><ele>849.0</ele><time>2026-05-01T20:46:52.117Z</time></trkpt><trkpt lat="46.1781056" lon="11.1868315"><ele>849.0</ele><time>2026-05-01T20:46:54.117Z</time></trkpt><trkpt lat="46.1782037" lon="11.1869154"><ele>849.0</ele><time>2026-05-01T20:46:56.118Z</time></trkpt><trkpt lat="46.1782957" lon="11.1869902"><ele>849.0</ele><time>2026-05-01T20:46:58.118Z</time></trkpt><trkpt lat="46.1784014" lon="11.1870539"><ele>852.5</ele><time>2026-05-01T20:47:00.117Z</time></trkpt><trkpt lat="46.1784718" lon="11.1870917"><ele>856.0</ele><time>2026-05-01T20:47:01.117Z</time></trkpt><trkpt lat="46.1785327" lon="11.187126"><ele>859.5</ele><time>2026-05-01T20:47:02.117Z</time></trkpt><trkpt lat="46.1786675" lon="11.1871518"><ele>863.0</ele><time>2026-05-01T20:47:04.118Z</time></trkpt><trkpt lat="46.1787364" lon="11.1871793"><ele>866.5</ele><time>2026-05-01T20:47:05.118Z</time></trkpt><trkpt lat="46.1788084" lon="11.1872004"><ele>870.0</ele><time>2026-05-01T20:47:06.118Z</time></trkpt><trkpt lat="46.1788734" lon="11.1872149"><ele>870.0</ele><time>2026-05-01T20:47:07.117Z</time></trkpt><trkpt lat="46.1789384" lon="11.1872113"><ele>870.0</ele><time>2026-05-01T20:47:08.118Z</time></trkpt><trkpt lat="46.1790686" lon="11.1872023"><ele>870.0</ele><time>2026-05-01T20:47:10.117Z</time></trkpt><trkpt lat="46.1791953" lon="11.1871756"><ele>870.0</ele><time>2026-05-01T20:47:12.117Z</time></trkpt><trkpt lat="46.179321" lon="11.1871541"><ele>876.8</ele><time>2026-05-01T20:47:14.117Z</time></trkpt><trkpt lat="46.1794799" lon="11.1871546"><ele>883.6</ele><time>2026-05-01T20:47:17.117Z</time></trkpt><trkpt lat="46.1795759" lon="11.1871695"><ele>890.4000000000001</ele><time>2026-05-01T20:47:19.118Z</time></trkpt><trkpt lat="46.179671" lon="11.187189"><ele>897.2</ele><time>2026-05-01T20:47:21.118Z</time></trkpt><trkpt lat="46.1797381" lon="11.1871753"><ele>904.0</ele><time>2026-05-01T20:47:22.118Z</time></trkpt><trkpt lat="46.1798327" lon="11.1871592"><ele>906.0</ele><time>2026-05-01T20:47:24.118Z</time></trkpt><trkpt lat="46.1799139" lon="11.1871201"><ele>908.0000000000001</ele><time>2026-05-01T20:47:26.117Z</time></trkpt><trkpt lat="46.1800282" lon="11.1870241"><ele>910.0000000000001</ele><time>2026-05-01T20:47:28.118Z</time></trkpt><trkpt lat="46.1801259" lon="11.1869324"><ele>912.0</ele><time>2026-05-01T20:47:30.118Z</time></trkpt><trkpt lat="46.1802021" lon="11.1868292"><ele>914.0</ele><time>2026-05-01T20:47:32.117Z</time></trkpt><trkpt lat="46.1802606" lon="11.1867663"><ele>914.0000000000001</ele><time>2026-05-01T20:47:33.117Z</time></trkpt><trkpt lat="46.1803384" lon="11.1866762"><ele>914.0</ele><time>2026-05-01T20:47:34.117Z</time></trkpt><trkpt lat="46.180393" lon="11.1866227"><ele>914.0</ele><time>2026-05-01T20:47:35.117Z</time></trkpt><trkpt lat="46.1804461" lon="11.1865641"><ele>914.0</ele><time>2026-05-01T20:47:36.118Z</time></trkpt><trkpt lat="46.1805126" lon="11.1865047"><ele>914.0000000000001</ele><time>2026-05-01T20:47:37.117Z</time></trkpt><trkpt lat="46.1805787" lon="11.1864394"><ele>914.0</ele><time>2026-05-01T20:47:38.118Z</time></trkpt><trkpt lat="46.1806341" lon="11.186386"><ele>918.2</ele><time>2026-05-01T20:47:39.117Z</time></trkpt><trkpt lat="46.1806996" lon="11.1863464"><ele>922.4000000000001</ele><time>2026-05-01T20:47:40.118Z</time></trkpt><trkpt lat="46.180816" lon="11.1862459"><ele>926.6</ele><time>2026-05-01T20:47:42.117Z</time></trkpt><trkpt lat="46.180879" lon="11.1862053"><ele>930.8</ele><time>2026-05-01T20:47:43.118Z</time></trkpt><trkpt lat="46.1810028" lon="11.1861529"><ele>935.0</ele><time>2026-05-01T20:47:45.117Z</time></trkpt><trkpt lat="46.1810705" lon="11.1861406"><ele>935.0</ele><time>2026-05-01T20:47:46.118Z</time></trkpt><trkpt lat="46.1811438" lon="11.1861268"><ele>935.0</ele><time>2026-05-01T20:47:47.117Z</time></trkpt><trkpt lat="46.1812591" lon="11.1860872"><ele>935.0</ele><time>2026-05-01T20:47:49.117Z</time></trkpt><trkpt lat="46.1813324" lon="11.1860444"><ele>935.0</ele><time>2026-05-01T20:47:50.117Z</time></trkpt><trkpt lat="46.1814145" lon="11.1859981"><ele>935.0</ele><time>2026-05-01T20:47:52.118Z</time></trkpt><trkpt lat="46.181528" lon="11.1859745"><ele>935.6666666666667</ele><time>2026-05-01T20:47:54.117Z</time></trkpt><trkpt lat="46.1816416" lon="11.1859869"><ele>936.3333333333334</ele><time>2026-05-01T20:47:56.117Z</time></trkpt><trkpt lat="46.1817069" lon="11.1860024"><ele>937.0</ele><time>2026-05-01T20:47:57.117Z</time></trkpt><trkpt lat="46.1817705" lon="11.1860188"><ele>937.6666666666667</ele><time>2026-05-01T20:47:58.118Z</time></trkpt><trkpt lat="46.1818337" lon="11.1860276"><ele>938.3333333333334</ele><time>2026-05-01T20:47:59.117Z</time></trkpt><trkpt lat="46.1818981" lon="11.1860637"><ele>939.0</ele><time>2026-05-01T20:48:00.117Z</time></trkpt><trkpt lat="46.1820362" lon="11.1861456"><ele>939.0</ele><time>2026-05-01T20:48:02.117Z</time></trkpt><trkpt lat="46.1820972" lon="11.1861753"><ele>939.0000000000001</ele><time>2026-05-01T20:48:03.117Z</time></trkpt><trkpt lat="46.1822508" lon="11.1862028"><ele>939.0000000000001</ele><time>2026-05-01T20:48:06.118Z</time></trkpt><trkpt lat="46.1823513" lon="11.1862262"><ele>939.0</ele><time>2026-05-01T20:48:08.118Z</time></trkpt><trkpt lat="46.1824242" lon="11.1862879"><ele>939.0</ele><time>2026-05-01T20:48:09.118Z</time></trkpt><trkpt lat="46.1825098" lon="11.1862938"><ele>940.6</ele><time>2026-05-01T20:48:11.118Z</time></trkpt><trkpt lat="46.182623" lon="11.1863207"><ele>942.2</ele><time>2026-05-01T20:48:13.118Z</time></trkpt><trkpt lat="46.1827409" lon="11.1863113"><ele>943.8000000000001</ele><time>2026-05-01T20:48:15.117Z</time></trkpt><trkpt lat="46.1828368" lon="11.186386"><ele>945.4000000000001</ele><time>2026-05-01T20:48:16.117Z</time></trkpt><trkpt lat="46.1828965" lon="11.1864904"><ele>947.0</ele><time>2026-05-01T20:48:18.118Z</time></trkpt><trkpt lat="46.1828306" lon="11.1866004"><ele>948.4000000000001</ele><time>2026-05-01T20:48:20.118Z</time></trkpt><trkpt lat="46.1827312" lon="11.1866533"><ele>949.8000000000001</ele><time>2026-05-01T20:48:22.118Z</time></trkpt><trkpt lat="46.1826402" lon="11.186697"><ele>951.2</ele><time>2026-05-01T20:48:24.118Z</time></trkpt><trkpt lat="46.1825503" lon="11.1867485"><ele>952.6</ele><time>2026-05-01T20:48:26.118Z</time></trkpt><trkpt lat="46.1824531" lon="11.1868001"><ele>954.0</ele><time>2026-05-01T20:48:28.117Z</time></trkpt><trkpt lat="46.1823825" lon="11.18686"><ele>952.6666666666666</ele><time>2026-05-01T20:48:30.117Z</time></trkpt><trkpt lat="46.1823298" lon="11.1869519"><ele>951.3333333333333</ele><time>2026-05-01T20:48:32.118Z</time></trkpt><trkpt lat="46.1822998" lon="11.1870887"><ele>950.0</ele><time>2026-05-01T20:48:34.117Z</time></trkpt><trkpt lat="46.1822842" lon="11.1871797"><ele>948.6666666666666</ele><time>2026-05-01T20:48:35.118Z</time></trkpt><trkpt lat="46.1822621" lon="11.187271"><ele>947.3333333333333</ele><time>2026-05-01T20:48:36.118Z</time></trkpt><trkpt lat="46.18224" lon="11.1873582"><ele>946.0</ele><time>2026-05-01T20:48:37.118Z</time></trkpt><trkpt lat="46.182175" lon="11.1875226"><ele>946.0</ele><time>2026-05-01T20:48:39.117Z</time></trkpt><trkpt lat="46.1821403" lon="11.1876012"><ele>945.9999999999999</ele><time>2026-05-01T20:48:40.117Z</time></trkpt><trkpt lat="46.1821133" lon="11.1876886"><ele>945.9999999999999</ele><time>2026-05-01T20:48:41.118Z</time></trkpt><trkpt lat="46.1820747" lon="11.1878278"><ele>946.0</ele><time>2026-05-01T20:48:43.117Z</time></trkpt><trkpt lat="46.1820397" lon="11.1879846"><ele>946.0</ele><time>2026-05-01T20:48:45.118Z</time></trkpt><trkpt lat="46.1819905" lon="11.1881166"><ele>950.1999999999999</ele><time>2026-05-01T20:48:47.118Z</time></trkpt><trkpt lat="46.1819899" lon="11.1882534"><ele>954.3999999999999</ele><time>2026-05-01T20:48:49.118Z</time></trkpt><trkpt lat="46.1820884" lon="11.1883433"><ele>958.6</ele><time>2026-05-01T20:48:52.117Z</time></trkpt><trkpt lat="46.1821946" lon="11.1883987"><ele>962.8</ele><time>2026-05-01T20:48:54.118Z</time></trkpt><trkpt lat="46.1822681" lon="11.1884607"><ele>967.0</ele><time>2026-05-01T20:48:56.118Z</time></trkpt><trkpt lat="46.1823004" lon="11.1885818"><ele>967.0</ele><time>2026-05-01T20:48:59.118Z</time></trkpt><trkpt lat="46.1822156" lon="11.188758"><ele>967.0</ele><time>2026-05-01T20:49:01.117Z</time></trkpt><trkpt lat="46.182178" lon="11.1888456"><ele>967.0</ele><time>2026-05-01T20:49:02.118Z</time></trkpt><trkpt lat="46.1821285" lon="11.188927"><ele>967.0</ele><time>2026-05-01T20:49:03.118Z</time></trkpt><trkpt lat="46.1820844" lon="11.1890036"><ele>967.0</ele><time>2026-05-01T20:49:04.118Z</time></trkpt><trkpt lat="46.1820145" lon="11.1891207"><ele>969.6666666666666</ele><time>2026-05-01T20:49:06.118Z</time></trkpt><trkpt lat="46.1819419" lon="11.1892028"><ele>972.3333333333333</ele><time>2026-05-01T20:49:08.117Z</time></trkpt><trkpt lat="46.1818791" lon="11.1892527"><ele>975.0</ele><time>2026-05-01T20:49:10.117Z</time></trkpt><trkpt lat="46.1818026" lon="11.1892993"><ele>977.6666666666667</ele><time>2026-05-01T20:49:12.118Z</time></trkpt><trkpt lat="46.1817177" lon="11.1893764"><ele>980.3333333333334</ele><time>2026-05-01T20:49:14.117Z</time></trkpt><trkpt lat="46.1816295" lon="11.1894351"><ele>983.0</ele><time>2026-05-01T20:49:16.118Z</time></trkpt><trkpt lat="46.1815224" lon="11.1894968"><ele>975.5</ele><time>2026-05-01T20:49:18.118Z</time></trkpt><trkpt lat="46.1813886" lon="11.1896025"><ele>968.0</ele><time>2026-05-01T20:49:20.118Z</time></trkpt><trkpt lat="46.1813332" lon="11.1896703"><ele>960.5</ele><time>2026-05-01T20:49:21.118Z</time></trkpt><trkpt lat="46.1812288" lon="11.1897603"><ele>953.0</ele><time>2026-05-01T20:49:23.118Z</time></trkpt><trkpt lat="46.1811333" lon="11.1898336"><ele>956.8333333333334</ele><time>2026-05-01T20:49:25.118Z</time></trkpt><trkpt lat="46.1810146" lon="11.189895"><ele>960.6666666666667</ele><time>2026-05-01T20:49:27.118Z</time></trkpt><trkpt lat="46.1809502" lon="11.189928"><ele>964.5</ele><time>2026-05-01T20:49:28.118Z</time></trkpt><trkpt lat="46.1808888" lon="11.1899606"><ele>968.3333333333333</ele><time>2026-05-01T20:49:29.117Z</time></trkpt><trkpt lat="46.1808242" lon="11.1900028"><ele>972.1666666666666</ele><time>2026-05-01T20:49:30.117Z</time></trkpt><trkpt lat="46.1807473" lon="11.1900887"><ele>976.0</ele><time>2026-05-01T20:49:32.117Z</time></trkpt><trkpt lat="46.180696" lon="11.1901553"><ele>973.3333333333333</ele><time>2026-05-01T20:49:33.118Z</time></trkpt><trkpt lat="46.1806552" lon="11.190226"><ele>970.6666666666666</ele><time>2026-05-01T20:49:34.117Z</time></trkpt><trkpt lat="46.1806273" lon="11.1903122"><ele>968.0</ele><time>2026-05-01T20:49:35.117Z</time></trkpt><trkpt lat="46.1806142" lon="11.1904101"><ele>965.3333333333333</ele><time>2026-05-01T20:49:36.118Z</time></trkpt><trkpt lat="46.1805586" lon="11.1905005"><ele>962.6666666666666</ele><time>2026-05-01T20:49:37.118Z</time></trkpt><trkpt lat="46.1804545" lon="11.1905822"><ele>960.0</ele><time>2026-05-01T20:49:39.118Z</time></trkpt><trkpt lat="46.1803706" lon="11.1905974"><ele>960.0</ele><time>2026-05-01T20:49:40.117Z</time></trkpt><trkpt lat="46.1802326" lon="11.190645"><ele>960.0</ele><time>2026-05-01T20:49:42.117Z</time></trkpt><trkpt lat="46.1801661" lon="11.1906726"><ele>960.0</ele><time>2026-05-01T20:49:43.117Z</time></trkpt><trkpt lat="46.1800985" lon="11.1906976"><ele>960.0</ele><time>2026-05-01T20:49:44.117Z</time></trkpt><trkpt lat="46.1800387" lon="11.1907272"><ele>960.0</ele><time>2026-05-01T20:49:45.118Z</time></trkpt><trkpt lat="46.1799286" lon="11.1907771"><ele>962.0</ele><time>2026-05-01T20:49:47.118Z</time></trkpt><trkpt lat="46.1798502" lon="11.1908837"><ele>964.0</ele><time>2026-05-01T20:49:49.117Z</time></trkpt><trkpt lat="46.1797606" lon="11.1909599"><ele>966.0</ele><time>2026-05-01T20:49:51.118Z</time></trkpt><trkpt lat="46.1797004" lon="11.1909927"><ele>968.0</ele><time>2026-05-01T20:49:52.118Z</time></trkpt><trkpt lat="46.1795586" lon="11.1910088"><ele>970.0</ele><time>2026-05-01T20:49:54.118Z</time></trkpt><trkpt lat="46.1794448" lon="11.1910215"><ele>970.0</ele><time>2026-05-01T20:49:56.117Z</time></trkpt><trkpt lat="46.179359" lon="11.1911012"><ele>970.0</ele><time>2026-05-01T20:49:58.117Z</time></trkpt><trkpt lat="46.179301" lon="11.1911466"><ele>970.0</ele><time>2026-05-01T20:49:59.118Z</time></trkpt><trkpt lat="46.1792031" lon="11.1912047"><ele>970.0</ele><time>2026-05-01T20:50:01.117Z</time></trkpt><trkpt lat="46.1790981" lon="11.1912289"><ele>970.0</ele><time>2026-05-01T20:50:03.117Z</time></trkpt><trkpt lat="46.1790231" lon="11.191234"><ele>965.8333333333333</ele><time>2026-05-01T20:50:04.118Z</time></trkpt><trkpt lat="46.1789589" lon="11.1912336"><ele>961.6666666666666</ele><time>2026-05-01T20:50:05.118Z</time></trkpt><trkpt lat="46.1788866" lon="11.1912709"><ele>957.5</ele><time>2026-05-01T20:50:06.117Z</time></trkpt><trkpt lat="46.178818" lon="11.1912873"><ele>953.3333333333333</ele><time>2026-05-01T20:50:07.121Z</time></trkpt><trkpt lat="46.1787137" lon="11.1913415"><ele>949.1666666666666</ele><time>2026-05-01T20:50:09.121Z</time></trkpt><trkpt lat="46.1786504" lon="11.191374"><ele>945.0</ele><time>2026-05-01T20:50:10.121Z</time></trkpt><trkpt lat="46.1785624" lon="11.1914488"><ele>947.0</ele><time>2026-05-01T20:50:12.121Z</time></trkpt><trkpt lat="46.1784787" lon="11.1915401"><ele>949.0</ele><time>2026-05-01T20:50:14.12Z</time></trkpt><trkpt lat="46.1784236" lon="11.1916096"><ele>951.0</ele><time>2026-05-01T20:50:15.121Z</time></trkpt><trkpt lat="46.1783368" lon="11.1917394"><ele>953.0</ele><time>2026-05-01T20:50:17.12Z</time></trkpt><trkpt lat="46.1782908" lon="11.1918088"><ele>955.0</ele><time>2026-05-01T20:50:18.121Z</time></trkpt><trkpt lat="46.1781983" lon="11.1919146"><ele>953.0</ele><time>2026-05-01T20:50:20.12Z</time></trkpt><trkpt lat="46.1781079" lon="11.191973"><ele>951.0</ele><time>2026-05-01T20:50:22.12Z</time></trkpt><trkpt lat="46.1780112" lon="11.1920092"><ele>949.0</ele><time>2026-05-01T20:50:24.12Z</time></trkpt><trkpt lat="46.1779169" lon="11.1920441"><ele>947.0</ele><time>2026-05-01T20:50:26.12Z</time></trkpt><trkpt lat="46.1778284" lon="11.1920654"><ele>945.0</ele><time>2026-05-01T20:50:28.121Z</time></trkpt><trkpt lat="46.1777302" lon="11.1920653"><ele>945.0</ele><time>2026-05-01T20:50:30.12Z</time></trkpt><trkpt lat="46.1776323" lon="11.192061"><ele>945.0</ele><time>2026-05-01T20:50:32.121Z</time></trkpt><trkpt lat="46.1775269" lon="11.1920516"><ele>945.0</ele><time>2026-05-01T20:50:34.12Z</time></trkpt><trkpt lat="46.1774018" lon="11.1920704"><ele>945.0</ele><time>2026-05-01T20:50:36.12Z</time></trkpt><trkpt lat="46.1772897" lon="11.192093"><ele>945.0</ele><time>2026-05-01T20:50:38.121Z</time></trkpt><trkpt lat="46.1772316" lon="11.1921287"><ele>940.3333333333334</ele><time>2026-05-01T20:50:39.12Z</time></trkpt><trkpt lat="46.1771233" lon="11.1921879"><ele>935.6666666666667</ele><time>2026-05-01T20:50:41.12Z</time></trkpt><trkpt lat="46.1770339" lon="11.1922585"><ele>931.0</ele><time>2026-05-01T20:50:43.12Z</time></trkpt><trkpt lat="46.1769614" lon="11.1923179"><ele>926.3333333333334</ele><time>2026-05-01T20:50:45.12Z</time></trkpt><trkpt lat="46.1769218" lon="11.1923995"><ele>921.6666666666667</ele><time>2026-05-01T20:50:47.121Z</time></trkpt><trkpt lat="46.1769319" lon="11.1924894"><ele>917.0</ele><time>2026-05-01T20:50:49.12Z</time></trkpt><trkpt lat="46.1769809" lon="11.1926126"><ele>917.0</ele><time>2026-05-01T20:50:51.121Z</time></trkpt><trkpt lat="46.1770133" lon="11.1927504"><ele>917.0</ele><time>2026-05-01T20:50:53.12Z</time></trkpt><trkpt lat="46.1770031" lon="11.1929058"><ele>917.0</ele><time>2026-05-01T20:50:55.12Z</time></trkpt><trkpt lat="46.1769804" lon="11.1930409"><ele>917.0</ele><time>2026-05-01T20:50:57.121Z</time></trkpt><trkpt lat="46.176987" lon="11.1931793"><ele>917.0</ele><time>2026-05-01T20:50:59.12Z</time></trkpt><trkpt lat="46.1769646" lon="11.1933093"><ele>918.8</ele><time>2026-05-01T20:51:01.12Z</time></trkpt><trkpt lat="46.1769487" lon="11.1934509"><ele>920.6</ele><time>2026-05-01T20:51:03.12Z</time></trkpt><trkpt lat="46.1769474" lon="11.1935814"><ele>922.3999999999999</ele><time>2026-05-01T20:51:05.121Z</time></trkpt><trkpt lat="46.1769697" lon="11.193696"><ele>924.1999999999999</ele><time>2026-05-01T20:51:07.12Z</time></trkpt><trkpt lat="46.1770077" lon="11.1938662"><ele>926.0</ele><time>2026-05-01T20:51:09.121Z</time></trkpt><trkpt lat="46.1770275" lon="11.1939568"><ele>926.1999999999999</ele><time>2026-05-01T20:51:10.12Z</time></trkpt><trkpt lat="46.1770521" lon="11.1941218"><ele>926.3999999999999</ele><time>2026-05-01T20:51:12.12Z</time></trkpt><trkpt lat="46.1770542" lon="11.1942528"><ele>926.6</ele><time>2026-05-01T20:51:14.12Z</time></trkpt><trkpt lat="46.1770425" lon="11.1943479"><ele>926.8</ele><time>2026-05-01T20:51:16.121Z</time></trkpt><trkpt lat="46.1770061" lon="11.1944849"><ele>927.0</ele><time>2026-05-01T20:51:18.121Z</time></trkpt><trkpt lat="46.176948" lon="11.1946208"><ele>927.0</ele><time>2026-05-01T20:51:20.121Z</time></trkpt><trkpt lat="46.1768754" lon="11.194726"><ele>927.0</ele><time>2026-05-01T20:51:22.121Z</time></trkpt><trkpt lat="46.1768206" lon="11.194827"><ele>927.0</ele><time>2026-05-01T20:51:24.12Z</time></trkpt><trkpt lat="46.176781" lon="11.1949176"><ele>927.0</ele><time>2026-05-01T20:51:26.121Z</time></trkpt><trkpt lat="46.1767126" lon="11.1950442"><ele>927.0</ele><time>2026-05-01T20:51:28.121Z</time></trkpt><trkpt lat="46.1766577" lon="11.1951247"><ele>926.8</ele><time>2026-05-01T20:51:29.121Z</time></trkpt><trkpt lat="46.1765736" lon="11.1952467"><ele>926.6</ele><time>2026-05-01T20:51:31.121Z</time></trkpt><trkpt lat="46.1764858" lon="11.1953454"><ele>926.3999999999999</ele><time>2026-05-01T20:51:33.121Z</time></trkpt><trkpt lat="46.1764101" lon="11.1954403"><ele>926.1999999999999</ele><time>2026-05-01T20:51:35.121Z</time></trkpt><trkpt lat="46.1763334" lon="11.1955462"><ele>926.0</ele><time>2026-05-01T20:51:37.121Z</time></trkpt><trkpt lat="46.1762559" lon="11.1956515"><ele>922.8</ele><time>2026-05-01T20:51:39.121Z</time></trkpt><trkpt lat="46.1761803" lon="11.1957838"><ele>919.5999999999999</ele><time>2026-05-01T20:51:41.12Z</time></trkpt><trkpt lat="46.1761302" lon="11.1959288"><ele>916.4</ele><time>2026-05-01T20:51:43.12Z</time></trkpt><trkpt lat="46.1760985" lon="11.196061"><ele>913.2</ele><time>2026-05-01T20:51:45.121Z</time></trkpt><trkpt lat="46.1760299" lon="11.1961273"><ele>910.0</ele><time>2026-05-01T20:51:47.121Z</time></trkpt><trkpt lat="46.1759227" lon="11.1961552"><ele>910.0</ele><time>2026-05-01T20:51:49.121Z</time></trkpt><trkpt lat="46.1758134" lon="11.1961806"><ele>910.0</ele><time>2026-05-01T20:51:51.121Z</time></trkpt><trkpt lat="46.1757087" lon="11.196239"><ele>910.0</ele><time>2026-05-01T20:51:53.121Z</time></trkpt><trkpt lat="46.1755896" lon="11.1963147"><ele>910.0</ele><time>2026-05-01T20:51:55.121Z</time></trkpt><trkpt lat="46.1755218" lon="11.1963684"><ele>910.0</ele><time>2026-05-01T20:51:56.121Z</time></trkpt><trkpt lat="46.1754532" lon="11.1964333"><ele>914.6</ele><time>2026-05-01T20:51:57.12Z</time></trkpt><trkpt lat="46.1753708" lon="11.1965058"><ele>919.2</ele><time>2026-05-01T20:51:58.121Z</time></trkpt><trkpt lat="46.1752722" lon="11.1965783"><ele>923.8</ele><time>2026-05-01T20:51:59.12Z</time></trkpt><trkpt lat="46.1751762" lon="11.1966582"><ele>928.4</ele><time>2026-05-01T20:52:00.12Z</time></trkpt><trkpt lat="46.1750891" lon="11.19673"><ele>933.0</ele><time>2026-05-01T20:52:01.121Z</time></trkpt><trkpt lat="46.175016" lon="11.1968076"><ele>933.0</ele><time>2026-05-01T20:52:02.121Z</time></trkpt><trkpt lat="46.1749475" lon="11.1968843"><ele>933.0</ele><time>2026-05-01T20:52:03.121Z</time></trkpt><trkpt lat="46.1748848" lon="11.1969791"><ele>933.0</ele><time>2026-05-01T20:52:04.12Z</time></trkpt><trkpt lat="46.174827" lon="11.1970824"><ele>933.0</ele><time>2026-05-01T20:52:05.121Z</time></trkpt><trkpt lat="46.1747767" lon="11.1971511"><ele>933.0</ele><time>2026-05-01T20:52:06.121Z</time></trkpt><trkpt lat="46.1746763" lon="11.19721"><ele>933.0</ele><time>2026-05-01T20:52:08.12Z</time></trkpt><trkpt lat="46.174611" lon="11.1971395"><ele>940.2</ele><time>2026-05-01T20:52:10.121Z</time></trkpt><trkpt lat="46.1746048" lon="11.1970044"><ele>947.4</ele><time>2026-05-01T20:52:12.12Z</time></trkpt><trkpt lat="46.1746754" lon="11.1968689"><ele>954.6000000000001</ele><time>2026-05-01T20:52:14.12Z</time></trkpt><trkpt lat="46.1747442" lon="11.1967091"><ele>961.8000000000001</ele><time>2026-05-01T20:52:16.12Z</time></trkpt><trkpt lat="46.1747715" lon="11.1965978"><ele>969.0</ele><time>2026-05-01T20:52:17.121Z</time></trkpt><trkpt lat="46.1747886" lon="11.1964458"><ele>970.25</ele><time>2026-05-01T20:52:18.121Z</time></trkpt><trkpt lat="46.1748106" lon="11.1962727"><ele>971.5</ele><time>2026-05-01T20:52:19.121Z</time></trkpt><trkpt lat="46.1748441" lon="11.1960956"><ele>972.75</ele><time>2026-05-01T20:52:20.121Z</time></trkpt><trkpt lat="46.1748759" lon="11.1959174"><ele>974.0</ele><time>2026-05-01T20:52:21.121Z</time></trkpt><trkpt lat="46.1749021" lon="11.1957513"><ele>965.6666666666667</ele><time>2026-05-01T20:52:22.121Z</time></trkpt><trkpt lat="46.1749337" lon="11.1956393"><ele>957.3333333333334</ele><time>2026-05-01T20:52:23.121Z</time></trkpt><trkpt lat="46.1749594" lon="11.1955428"><ele>949.0</ele><time>2026-05-01T20:52:24.12Z</time></trkpt><trkpt lat="46.1749813" lon="11.1954465"><ele>940.6666666666667</ele><time>2026-05-01T20:52:25.121Z</time></trkpt><trkpt lat="46.174994" lon="11.1953066"><ele>932.3333333333334</ele><time>2026-05-01T20:52:27.121Z</time></trkpt><trkpt lat="46.1749709" lon="11.1951434"><ele>924.0</ele><time>2026-05-01T20:52:29.121Z</time></trkpt><trkpt lat="46.1749127" lon="11.1950038"><ele>927.6</ele><time>2026-05-01T20:52:31.12Z</time></trkpt><trkpt lat="46.1748349" lon="11.1948786"><ele>931.2</ele><time>2026-05-01T20:52:33.12Z</time></trkpt><trkpt lat="46.1747429" lon="11.194759"><ele>934.8000000000001</ele><time>2026-05-01T20:52:35.12Z</time></trkpt><trkpt lat="46.1746955" lon="11.1946945"><ele>938.4000000000001</ele><time>2026-05-01T20:52:36.12Z</time></trkpt><trkpt lat="46.174595" lon="11.1945889"><ele>942.0</ele><time>2026-05-01T20:52:38.276Z</time></trkpt><trkpt lat="46.1745279" lon="11.1945516"><ele>942.0000000000001</ele><time>2026-05-01T20:52:39.264Z</time></trkpt><trkpt lat="46.1744693" lon="11.1945165"><ele>942.0</ele><time>2026-05-01T20:52:40.251Z</time></trkpt><trkpt lat="46.1744005" lon="11.1944562"><ele>942.0000000000001</ele><time>2026-05-01T20:52:41.254Z</time></trkpt><trkpt lat="46.1743547" lon="11.1943683"><ele>942.0000000000001</ele><time>2026-05-01T20:52:42.27Z</time></trkpt><trkpt lat="46.1743129" lon="11.1942841"><ele>942.0</ele><time>2026-05-01T20:52:43.264Z</time></trkpt><trkpt lat="46.1742636" lon="11.1941949"><ele>942.0000000000001</ele><time>2026-05-01T20:52:44.262Z</time></trkpt><trkpt lat="46.1742188" lon="11.1941057"><ele>942.0000000000001</ele><time>2026-05-01T20:52:45.25Z</time></trkpt><trkpt lat="46.174177" lon="11.1940104"><ele>944.6666666666666</ele><time>2026-05-01T20:52:46.251Z</time></trkpt><trkpt lat="46.1741413" lon="11.1939152"><ele>947.3333333333333</ele><time>2026-05-01T20:52:47.236Z</time></trkpt><trkpt lat="46.174109" lon="11.1938198"><ele>950.0</ele><time>2026-05-01T20:52:48.266Z</time></trkpt><trkpt lat="46.1740808" lon="11.193728"><ele>952.6666666666666</ele><time>2026-05-01T20:52:49.261Z</time></trkpt><trkpt lat="46.1740513" lon="11.19364"><ele>955.3333333333333</ele><time>2026-05-01T20:52:50.271Z</time></trkpt><trkpt lat="46.1739905" lon="11.1934991"><ele>958.0</ele><time>2026-05-01T20:52:52.265Z</time></trkpt><trkpt lat="46.1739298" lon="11.1934042"><ele>958.0</ele><time>2026-05-01T20:52:54.251Z</time></trkpt><trkpt lat="46.1738346" lon="11.1932725"><ele>958.0</ele><time>2026-05-01T20:52:56.248Z</time></trkpt><trkpt lat="46.1737331" lon="11.1931547"><ele>958.0</ele><time>2026-05-01T20:52:58.254Z</time></trkpt><trkpt lat="46.1736758" lon="11.1930862"><ele>958.0</ele><time>2026-05-01T20:52:59.263Z</time></trkpt><trkpt lat="46.1736208" lon="11.1930141"><ele>958.0</ele><time>2026-05-01T20:53:00.283Z</time></trkpt><trkpt lat="46.1735653" lon="11.1929385"><ele>952.9999999999999</ele><time>2026-05-01T20:53:01.271Z</time></trkpt><trkpt lat="46.1735005" lon="11.1928537"><ele>948.0</ele><time>2026-05-01T20:53:02.254Z</time></trkpt><trkpt lat="46.173438" lon="11.1927548"><ele>943.0</ele><time>2026-05-01T20:53:03.26Z</time></trkpt><trkpt lat="46.1733948" lon="11.1926616"><ele>938.0</ele><time>2026-05-01T20:53:04.251Z</time></trkpt><trkpt lat="46.173345" lon="11.1925522"><ele>932.9999999999999</ele><time>2026-05-01T20:53:05.265Z</time></trkpt><trkpt lat="46.1732997" lon="11.1924303"><ele>928.0</ele><time>2026-05-01T20:53:06.263Z</time></trkpt><trkpt lat="46.1732542" lon="11.1923185"><ele>928.6666666666666</ele><time>2026-05-01T20:53:07.255Z</time></trkpt><trkpt lat="46.1732128" lon="11.1922239"><ele>929.3333333333333</ele><time>2026-05-01T20:53:08.318Z</time></trkpt><trkpt lat="46.1731764" lon="11.1921486"><ele>930.0</ele><time>2026-05-01T20:53:09.265Z</time></trkpt><trkpt lat="46.1731348" lon="11.1920717"><ele>930.6666666666667</ele><time>2026-05-01T20:53:10.276Z</time></trkpt><trkpt lat="46.1730682" lon="11.1919389"><ele>931.3333333333334</ele><time>2026-05-01T20:53:12.273Z</time></trkpt><trkpt lat="46.1729628" lon="11.1918396"><ele>932.0</ele><time>2026-05-01T20:53:14.295Z</time></trkpt><trkpt lat="46.1728939" lon="11.1917774"><ele>932.0000000000001</ele><time>2026-05-01T20:53:15.282Z</time></trkpt><trkpt lat="46.1728296" lon="11.1917168"><ele>932.0</ele><time>2026-05-01T20:53:16.276Z</time></trkpt><trkpt lat="46.1727355" lon="11.1916386"><ele>932.0</ele><time>2026-05-01T20:53:18.291Z</time></trkpt><trkpt lat="46.1726722" lon="11.1915915"><ele>932.0</ele><time>2026-05-01T20:53:19.309Z</time></trkpt><trkpt lat="46.1726031" lon="11.1915328"><ele>932.0000000000001</ele><time>2026-05-01T20:53:20.306Z</time></trkpt><trkpt lat="46.1725336" lon="11.1914783"><ele>932.0</ele><time>2026-05-01T20:53:21.315Z</time></trkpt><trkpt lat="46.1724726" lon="11.191432"><ele>928.0000000000001</ele><time>2026-05-01T20:53:22.291Z</time></trkpt><trkpt lat="46.172416" lon="11.1913881"><ele>924.0</ele><time>2026-05-01T20:53:23.318Z</time></trkpt><trkpt lat="46.1723079" lon="11.1913119"><ele>920.0</ele><time>2026-05-01T20:53:25.291Z</time></trkpt><trkpt lat="46.1722294" lon="11.1912539"><ele>916.0</ele><time>2026-05-01T20:53:27.322Z</time></trkpt><trkpt lat="46.1721643" lon="11.1912141"><ele>912.0000000000001</ele><time>2026-05-01T20:53:29.298Z</time></trkpt><trkpt lat="46.1720652" lon="11.1911684"><ele>908.0</ele><time>2026-05-01T20:53:31.288Z</time></trkpt><trkpt lat="46.1719499" lon="11.1911487"><ele>908.0000000000001</ele><time>2026-05-01T20:53:33.305Z</time></trkpt><trkpt lat="46.1718818" lon="11.1911476"><ele>908.0</ele><time>2026-05-01T20:53:34.301Z</time></trkpt><trkpt lat="46.1718098" lon="11.1911517"><ele>908.0</ele><time>2026-05-01T20:53:35.331Z</time></trkpt><trkpt lat="46.1717468" lon="11.1911568"><ele>908.0</ele><time>2026-05-01T20:53:36.314Z</time></trkpt><trkpt lat="46.1716755" lon="11.1911511"><ele>908.0000000000001</ele><time>2026-05-01T20:53:37.306Z</time></trkpt><trkpt lat="46.1715654" lon="11.1911606"><ele>908.0</ele><time>2026-05-01T20:53:39.287Z</time></trkpt><trkpt lat="46.171455" lon="11.1911976"><ele>907.6666666666667</ele><time>2026-05-01T20:53:41.285Z</time></trkpt><trkpt lat="46.1713801" lon="11.1912275"><ele>907.3333333333334</ele><time>2026-05-01T20:53:42.326Z</time></trkpt><trkpt lat="46.1713044" lon="11.1912524"><ele>907.0</ele><time>2026-05-01T20:53:43.302Z</time></trkpt><trkpt lat="46.1712329" lon="11.1912741"><ele>906.6666666666667</ele><time>2026-05-01T20:53:44.291Z</time></trkpt><trkpt lat="46.171155" lon="11.1912937"><ele>906.3333333333334</ele><time>2026-05-01T20:53:45.302Z</time></trkpt><trkpt lat="46.171058" lon="11.1913095"><ele>906.0</ele><time>2026-05-01T20:53:46.319Z</time></trkpt><trkpt lat="46.1709765" lon="11.1913193"><ele>906.0</ele><time>2026-05-01T20:53:47.297Z</time></trkpt><trkpt lat="46.1708624" lon="11.1913204"><ele>905.9999999999999</ele><time>2026-05-01T20:53:49.249Z</time></trkpt><trkpt lat="46.1707894" lon="11.1913199"><ele>905.9999999999999</ele><time>2026-05-01T20:53:51.248Z</time></trkpt><trkpt lat="46.1707433" lon="11.1913937"><ele>906.0</ele><time>2026-05-01T20:53:54.254Z</time></trkpt><trkpt lat="46.170847" lon="11.1914251"><ele>906.0</ele><time>2026-05-01T20:53:57.27Z</time></trkpt><trkpt lat="46.1709864" lon="11.1914123"><ele>906.0</ele><time>2026-05-01T20:53:59.255Z</time></trkpt><trkpt lat="46.1710639" lon="11.1914133"><ele>906.0</ele><time>2026-05-01T20:54:00.262Z</time></trkpt><trkpt lat="46.1711756" lon="11.1914148"><ele>906.0</ele><time>2026-05-01T20:54:01.245Z</time></trkpt><trkpt lat="46.1712615" lon="11.1914213"><ele>906.0</ele><time>2026-05-01T20:54:02.266Z</time></trkpt><trkpt lat="46.171344" lon="11.1914359"><ele>906.0</ele><time>2026-05-01T20:54:03.258Z</time></trkpt><trkpt lat="46.1714282" lon="11.1914521"><ele>906.0</ele><time>2026-05-01T20:54:04.261Z</time></trkpt><trkpt lat="46.1715218" lon="11.1914659"><ele>906.4</ele><time>2026-05-01T20:54:05.402Z</time></trkpt><trkpt lat="46.171667" lon="11.1914944"><ele>906.8</ele><time>2026-05-01T20:54:07.288Z</time></trkpt><trkpt lat="46.1717384" lon="11.1915113"><ele>907.1999999999999</ele><time>2026-05-01T20:54:08.256Z</time></trkpt><trkpt lat="46.1718145" lon="11.1915371"><ele>907.5999999999999</ele><time>2026-05-01T20:54:09.262Z</time></trkpt><trkpt lat="46.1718946" lon="11.1915692"><ele>908.0</ele><time>2026-05-01T20:54:10.257Z</time></trkpt><trkpt lat="46.1719807" lon="11.1916103"><ele>912.0000000000001</ele><time>2026-05-01T20:54:11.281Z</time></trkpt><trkpt lat="46.1720695" lon="11.1916653"><ele>916.0</ele><time>2026-05-01T20:54:12.253Z</time></trkpt><trkpt lat="46.1721494" lon="11.1917248"><ele>920.0</ele><time>2026-05-01T20:54:13.258Z</time></trkpt><trkpt lat="46.1722195" lon="11.19178"><ele>924.0</ele><time>2026-05-01T20:54:14.257Z</time></trkpt><trkpt lat="46.1722858" lon="11.1918404"><ele>928.0000000000001</ele><time>2026-05-01T20:54:15.221Z</time></trkpt><trkpt lat="46.1723578" lon="11.1919073"><ele>932.0</ele><time>2026-05-01T20:54:16.243Z</time></trkpt><trkpt lat="46.1724256" lon="11.1919736"><ele>932.0000000000001</ele><time>2026-05-01T20:54:17.262Z</time></trkpt><trkpt lat="46.1724892" lon="11.192032"><ele>932.0</ele><time>2026-05-01T20:54:18.267Z</time></trkpt><trkpt lat="46.1725424" lon="11.192102"><ele>932.0</ele><time>2026-05-01T20:54:19.295Z</time></trkpt><trkpt lat="46.1726072" lon="11.1921778"><ele>932.0</ele><time>2026-05-01T20:54:20.313Z</time></trkpt><trkpt lat="46.1726608" lon="11.1922566"><ele>932.0000000000001</ele><time>2026-05-01T20:54:21.269Z</time></trkpt><trkpt lat="46.1727279" lon="11.1923655"><ele>932.0</ele><time>2026-05-01T20:54:22.307Z</time></trkpt><trkpt lat="46.1727834" lon="11.1924841"><ele>941.0</ele><time>2026-05-01T20:54:23.276Z</time></trkpt><trkpt lat="46.1728502" lon="11.1926167"><ele>950.0</ele><time>2026-05-01T20:54:24.411Z</time></trkpt><trkpt lat="46.172958" lon="11.1928946"><ele>959.0</ele><time>2026-05-01T20:54:26.285Z</time></trkpt><trkpt lat="46.1730229" lon="11.193052"><ele>958.8000000000001</ele><time>2026-05-01T20:54:27.277Z</time></trkpt><trkpt lat="46.1730945" lon="11.1932042"><ele>958.6000000000001</ele><time>2026-05-01T20:54:28.299Z</time></trkpt><trkpt lat="46.1731487" lon="11.1933437"><ele>958.4</ele><time>2026-05-01T20:54:29.315Z</time></trkpt><trkpt lat="46.1732017" lon="11.1934763"><ele>958.2</ele><time>2026-05-01T20:54:30.313Z</time></trkpt><trkpt lat="46.1732564" lon="11.1935977"><ele>958.0</ele><time>2026-05-01T20:54:31.353Z</time></trkpt><trkpt lat="46.1732985" lon="11.1937025"><ele>957.9999999999999</ele><time>2026-05-01T20:54:32.297Z</time></trkpt><trkpt lat="46.1733273" lon="11.1937915"><ele>958.0</ele><time>2026-05-01T20:54:33.298Z</time></trkpt><trkpt lat="46.1733745" lon="11.1939546"><ele>958.0</ele><time>2026-05-01T20:54:35.305Z</time></trkpt><trkpt lat="46.1733905" lon="11.1940589"><ele>958.0</ele><time>2026-05-01T20:54:36.294Z</time></trkpt><trkpt lat="46.1734044" lon="11.1941522"><ele>957.9999999999999</ele><time>2026-05-01T20:54:37.299Z</time></trkpt><trkpt lat="46.1734226" lon="11.1942666"><ele>958.0</ele><time>2026-05-01T20:54:38.278Z</time></trkpt><trkpt lat="46.1734458" lon="11.1944039"><ele>963.2</ele><time>2026-05-01T20:54:39.305Z</time></trkpt><trkpt lat="46.1734995" lon="11.1946119"><ele>968.4</ele><time>2026-05-01T20:54:41.285Z</time></trkpt><trkpt lat="46.1735333" lon="11.1947187"><ele>973.6000000000001</ele><time>2026-05-01T20:54:42.28Z</time></trkpt><trkpt lat="46.1735807" lon="11.1948201"><ele>978.8000000000001</ele><time>2026-05-01T20:54:43.303Z</time></trkpt><trkpt lat="46.173614" lon="11.1949067"><ele>984.0</ele><time>2026-05-01T20:54:44.283Z</time></trkpt><trkpt lat="46.1736593" lon="11.1950456"><ele>987.25</ele><time>2026-05-01T20:54:46.253Z</time></trkpt><trkpt lat="46.1736953" lon="11.1951903"><ele>990.5</ele><time>2026-05-01T20:54:48.289Z</time></trkpt><trkpt lat="46.173707" lon="11.1953521"><ele>993.75</ele><time>2026-05-01T20:54:50.297Z</time></trkpt><trkpt lat="46.1737053" lon="11.1955483"><ele>997.0</ele><time>2026-05-01T20:54:52.297Z</time></trkpt><trkpt lat="46.1736617" lon="11.1956702"><ele>998.0</ele><time>2026-05-01T20:54:54.319Z</time></trkpt><trkpt lat="46.1736501" lon="11.195819"><ele>999.0</ele><time>2026-05-01T20:54:56.322Z</time></trkpt><trkpt lat="46.1736222" lon="11.1959592"><ele>1000.0</ele><time>2026-05-01T20:54:58.326Z</time></trkpt><trkpt lat="46.1735628" lon="11.1960803"><ele>1001.0</ele><time>2026-05-01T20:55:00.315Z</time></trkpt><trkpt lat="46.1734707" lon="11.1961747"><ele>1002.0</ele><time>2026-05-01T20:55:02.321Z</time></trkpt><trkpt lat="46.1733926" lon="11.1962448"><ele>1002.0</ele><time>2026-05-01T20:55:04.315Z</time></trkpt><trkpt lat="46.1732689" lon="11.1963345"><ele>1002.0</ele><time>2026-05-01T20:55:06.341Z</time></trkpt><trkpt lat="46.1731743" lon="11.1963655"><ele>1002.0</ele><time>2026-05-01T20:55:07.326Z</time></trkpt><trkpt lat="46.1730837" lon="11.1964021"><ele>1002.0</ele><time>2026-05-01T20:55:08.323Z</time></trkpt><trkpt lat="46.1730111" lon="11.1964396"><ele>1002.0</ele><time>2026-05-01T20:55:09.306Z</time></trkpt><trkpt lat="46.172912" lon="11.1964884"><ele>1002.5</ele><time>2026-05-01T20:55:11.33Z</time></trkpt><trkpt lat="46.1728135" lon="11.1965065"><ele>1003.0</ele><time>2026-05-01T20:55:13.323Z</time></trkpt><trkpt lat="46.1727114" lon="11.1965487"><ele>1003.5</ele><time>2026-05-01T20:55:15.329Z</time></trkpt><trkpt lat="46.1726522" lon="11.1965877"><ele>1004.0</ele><time>2026-05-01T20:55:16.312Z</time></trkpt><trkpt lat="46.1725793" lon="11.1966687"><ele>1004.5</ele><time>2026-05-01T20:55:18.313Z</time></trkpt><trkpt lat="46.1725142" lon="11.1967312"><ele>1005.0</ele><time>2026-05-01T20:55:20.314Z</time></trkpt><trkpt lat="46.1724209" lon="11.1968109"><ele>1004.6</ele><time>2026-05-01T20:55:23.299Z</time></trkpt><trkpt lat="46.1723465" lon="11.1968762"><ele>1004.2</ele><time>2026-05-01T20:55:25.3Z</time></trkpt><trkpt lat="46.1722786" lon="11.1969405"><ele>1003.8</ele><time>2026-05-01T20:55:27.298Z</time></trkpt><trkpt lat="46.1721806" lon="11.1970276"><ele>1003.4</ele><time>2026-05-01T20:55:29.352Z</time></trkpt><trkpt lat="46.1720921" lon="11.1971186"><ele>1003.0</ele><time>2026-05-01T20:55:31.338Z</time></trkpt><trkpt lat="46.1720016" lon="11.1972192"><ele>1003.0</ele><time>2026-05-01T20:55:33.309Z</time></trkpt><trkpt lat="46.1719148" lon="11.197328"><ele>1003.0</ele><time>2026-05-01T20:55:35.331Z</time></trkpt><trkpt lat="46.1718431" lon="11.1974053"><ele>1003.0</ele><time>2026-05-01T20:55:37.322Z</time></trkpt><trkpt lat="46.1717509" lon="11.1974825"><ele>1003.0</ele><time>2026-05-01T20:55:39.298Z</time></trkpt><trkpt lat="46.1716727" lon="11.1975701"><ele>1003.0</ele><time>2026-05-01T20:55:41.308Z</time></trkpt><trkpt lat="46.1716088" lon="11.1976503"><ele>1001.5999999999999</ele><time>2026-05-01T20:55:43.307Z</time></trkpt><trkpt lat="46.1715141" lon="11.1977417"><ele>1000.1999999999999</ele><time>2026-05-01T20:55:45.304Z</time></trkpt><trkpt lat="46.1714261" lon="11.1977913"><ele>998.8</ele><time>2026-05-01T20:55:47.304Z</time></trkpt><trkpt lat="46.1713645" lon="11.1978716"><ele>997.4</ele><time>2026-05-01T20:55:49.3Z</time></trkpt><trkpt lat="46.1713187" lon="11.1979651"><ele>996.0</ele><time>2026-05-01T20:55:51.322Z</time></trkpt><trkpt lat="46.1712602" lon="11.1980719"><ele>996.5</ele><time>2026-05-01T20:55:53.353Z</time></trkpt><trkpt lat="46.1711912" lon="11.1981798"><ele>997.0</ele><time>2026-05-01T20:55:55.329Z</time></trkpt><trkpt lat="46.1711045" lon="11.1983056"><ele>997.5</ele><time>2026-05-01T20:55:57.306Z</time></trkpt><trkpt lat="46.1710651" lon="11.19838"><ele>998.0</ele><time>2026-05-01T20:55:58.309Z</time></trkpt><trkpt lat="46.171029" lon="11.1984984"><ele>998.5</ele><time>2026-05-01T20:56:00.307Z</time></trkpt><trkpt lat="46.1710288" lon="11.198594"><ele>999.0</ele><time>2026-05-01T20:56:02.342Z</time></trkpt><trkpt lat="46.1710597" lon="11.1987205"><ele>999.0</ele><time>2026-05-01T20:56:04.307Z</time></trkpt><trkpt lat="46.1711117" lon="11.198863"><ele>999.0000000000001</ele><time>2026-05-01T20:56:06.289Z</time></trkpt><trkpt lat="46.1711352" lon="11.1989554"><ele>999.0000000000001</ele><time>2026-05-01T20:56:07.31Z</time></trkpt><trkpt lat="46.1711545" lon="11.199075"><ele>999.0</ele><time>2026-05-01T20:56:09.288Z</time></trkpt><trkpt lat="46.1712075" lon="11.1992299"><ele>999.0</ele><time>2026-05-01T20:56:11.319Z</time></trkpt><trkpt lat="46.1712621" lon="11.1993796"><ele>999.0</ele><time>2026-05-01T20:56:13.317Z</time></trkpt><trkpt lat="46.1713227" lon="11.1994959"><ele>999.0000000000001</ele><time>2026-05-01T20:56:15.313Z</time></trkpt><trkpt lat="46.1713919" lon="11.199611"><ele>999.0000000000001</ele><time>2026-05-01T20:56:17.333Z</time></trkpt><trkpt lat="46.171456" lon="11.199688"><ele>999.0</ele><time>2026-05-01T20:56:19.335Z</time></trkpt><trkpt lat="46.1715262" lon="11.1997693"><ele>999.0</ele><time>2026-05-01T20:56:21.318Z</time></trkpt><trkpt lat="46.1716561" lon="11.1998505"><ele>1000.6</ele><time>2026-05-01T20:56:23.297Z</time></trkpt><trkpt lat="46.1717417" lon="11.1998953"><ele>1002.2</ele><time>2026-05-01T20:56:24.317Z</time></trkpt><trkpt lat="46.1718223" lon="11.1999229"><ele>1003.8000000000001</ele><time>2026-05-01T20:56:25.311Z</time></trkpt><trkpt lat="46.1718969" lon="11.1999488"><ele>1005.4000000000001</ele><time>2026-05-01T20:56:26.369Z</time></trkpt><trkpt lat="46.1719951" lon="11.1999982"><ele>1007.0</ele><time>2026-05-01T20:56:28.299Z</time></trkpt><trkpt lat="46.1720874" lon="11.2000747"><ele>1007.0</ele><time>2026-05-01T20:56:30.314Z</time></trkpt><trkpt lat="46.1721613" lon="11.2001413"><ele>1007.0</ele><time>2026-05-01T20:56:32.293Z</time></trkpt><trkpt lat="46.172259" lon="11.2002388"><ele>1007.0</ele><time>2026-05-01T20:56:34.323Z</time></trkpt><trkpt lat="46.1723469" lon="11.2002902"><ele>1007.0</ele><time>2026-05-01T20:56:36.31Z</time></trkpt><trkpt lat="46.1724395" lon="11.2003107"><ele>1007.0</ele><time>2026-05-01T20:56:38.306Z</time></trkpt><trkpt lat="46.1725346" lon="11.2003206"><ele>1008.0</ele><time>2026-05-01T20:56:40.27Z</time></trkpt><trkpt lat="46.1726227" lon="11.2003205"><ele>1009.0</ele><time>2026-05-01T20:56:42.305Z</time></trkpt><trkpt lat="46.1727273" lon="11.200314"><ele>1010.0</ele><time>2026-05-01T20:56:44.335Z</time></trkpt><trkpt lat="46.1728509" lon="11.2003333"><ele>1011.0</ele><time>2026-05-01T20:56:46.307Z</time></trkpt><trkpt lat="46.1729266" lon="11.2003498"><ele>1012.0</ele><time>2026-05-01T20:56:47.338Z</time></trkpt><trkpt lat="46.1729978" lon="11.2003788"><ele>1012.0</ele><time>2026-05-01T20:56:48.283Z</time></trkpt><trkpt lat="46.1730743" lon="11.2004062"><ele>1012.0</ele><time>2026-05-01T20:56:49.308Z</time></trkpt><trkpt lat="46.1731577" lon="11.2004232"><ele>1012.0</ele><time>2026-05-01T20:56:50.318Z</time></trkpt><trkpt lat="46.173226" lon="11.2004277"><ele>1012.0</ele><time>2026-05-01T20:56:51.274Z</time></trkpt><trkpt lat="46.1733263" lon="11.2004313"><ele>1012.0</ele><time>2026-05-01T20:56:53.28Z</time></trkpt><trkpt lat="46.1734472" lon="11.2004441"><ele>1011.8333333333333</ele><time>2026-05-01T20:56:55.283Z</time></trkpt><trkpt lat="46.1735252" lon="11.2004589"><ele>1011.6666666666666</ele><time>2026-05-01T20:56:56.293Z</time></trkpt><trkpt lat="46.1736042" lon="11.2004587"><ele>1011.5</ele><time>2026-05-01T20:56:57.298Z</time></trkpt><trkpt lat="46.1736768" lon="11.2004586"><ele>1011.3333333333333</ele><time>2026-05-01T20:56:58.317Z</time></trkpt><trkpt lat="46.1737443" lon="11.2004583"><ele>1011.1666666666666</ele><time>2026-05-01T20:56:59.259Z</time></trkpt><trkpt lat="46.173824" lon="11.200467"><ele>1011.0</ele><time>2026-05-01T20:57:00.248Z</time></trkpt><trkpt lat="46.1739026" lon="11.2004791"><ele>1011.0</ele><time>2026-05-01T20:57:01.274Z</time></trkpt><trkpt lat="46.1739913" lon="11.2004992"><ele>1010.9999999999999</ele><time>2026-05-01T20:57:02.418Z</time></trkpt><trkpt lat="46.1741068" lon="11.2004967"><ele>1010.9999999999999</ele><time>2026-05-01T20:57:04.324Z</time></trkpt><trkpt lat="46.1741722" lon="11.2004755"><ele>1011.0</ele><time>2026-05-01T20:57:05.332Z</time></trkpt><trkpt lat="46.1742623" lon="11.2004444"><ele>1011.0</ele><time>2026-05-01T20:57:06.315Z</time></trkpt><trkpt lat="46.1743576" lon="11.200418"><ele>1013.0</ele><time>2026-05-01T20:57:07.33Z</time></trkpt><trkpt lat="46.174435" lon="11.2003808"><ele>1015.0</ele><time>2026-05-01T20:57:08.297Z</time></trkpt><trkpt lat="46.1745182" lon="11.2003381"><ele>1017.0</ele><time>2026-05-01T20:57:09.313Z</time></trkpt><trkpt lat="46.1745972" lon="11.2002993"><ele>1019.0</ele><time>2026-05-01T20:57:10.302Z</time></trkpt><trkpt lat="46.1746621" lon="11.2002621"><ele>1021.0</ele><time>2026-05-01T20:57:11.318Z</time></trkpt><trkpt lat="46.1747225" lon="11.2002275"><ele>1023.0</ele><time>2026-05-01T20:57:12.323Z</time></trkpt><trkpt lat="46.1748299" lon="11.2001712"><ele>1024.8</ele><time>2026-05-01T20:57:14.322Z</time></trkpt><trkpt lat="46.174953" lon="11.200116"><ele>1026.6</ele><time>2026-05-01T20:57:16.314Z</time></trkpt><trkpt lat="46.1750238" lon="11.200077"><ele>1028.4</ele><time>2026-05-01T20:57:17.306Z</time></trkpt><trkpt lat="46.1750964" lon="11.2000296"><ele>1030.2</ele><time>2026-05-01T20:57:18.288Z</time></trkpt><trkpt lat="46.1751717" lon="11.199966"><ele>1032.0</ele><time>2026-05-01T20:57:19.303Z</time></trkpt><trkpt lat="46.1752432" lon="11.1999132"><ele>1032.0</ele><time>2026-05-01T20:57:20.308Z</time></trkpt><trkpt lat="46.1753175" lon="11.1998657"><ele>1032.0</ele><time>2026-05-01T20:57:21.397Z</time></trkpt><trkpt lat="46.1753773" lon="11.199822"><ele>1032.0</ele><time>2026-05-01T20:57:22.318Z</time></trkpt><trkpt lat="46.1754462" lon="11.1997583"><ele>1032.0</ele><time>2026-05-01T20:57:23.288Z</time></trkpt><trkpt lat="46.1755078" lon="11.1996924"><ele>1032.0</ele><time>2026-05-01T20:57:24.279Z</time></trkpt><trkpt lat="46.1755641" lon="11.1996343"><ele>1032.0</ele><time>2026-05-01T20:57:25.288Z</time></trkpt><trkpt lat="46.1756133" lon="11.1995417"><ele>1033.4</ele><time>2026-05-01T20:57:26.3Z</time></trkpt><trkpt lat="46.1756664" lon="11.1994565"><ele>1034.8000000000002</ele><time>2026-05-01T20:57:27.333Z</time></trkpt><trkpt lat="46.1757444" lon="11.1993123"><ele>1036.2</ele><time>2026-05-01T20:57:29.282Z</time></trkpt><trkpt lat="46.1757901" lon="11.1992195"><ele>1037.6000000000001</ele><time>2026-05-01T20:57:30.269Z</time></trkpt><trkpt lat="46.1758314" lon="11.1991376"><ele>1039.0</ele><time>2026-05-01T20:57:31.257Z</time></trkpt><trkpt lat="46.1758855" lon="11.1989802"><ele>1033.5</ele><time>2026-05-01T20:57:33.269Z</time></trkpt><trkpt lat="46.1759652" lon="11.1988358"><ele>1028.0</ele><time>2026-05-01T20:57:35.402Z</time></trkpt><trkpt lat="46.1760564" lon="11.19875"><ele>1022.5</ele><time>2026-05-01T20:57:37.291Z</time></trkpt><trkpt lat="46.1761494" lon="11.1987314"><ele>1017.0</ele><time>2026-05-01T20:57:38.286Z</time></trkpt><trkpt lat="46.1762839" lon="11.1986828"><ele>1017.0</ele><time>2026-05-01T20:57:40.295Z</time></trkpt><trkpt lat="46.1763649" lon="11.1986594"><ele>1016.9999999999999</ele><time>2026-05-01T20:57:41.298Z</time></trkpt><trkpt lat="46.176443" lon="11.1986707"><ele>1017.0</ele><time>2026-05-01T20:57:42.336Z</time></trkpt><trkpt lat="46.1765195" lon="11.1986833"><ele>1017.0</ele><time>2026-05-01T20:57:43.296Z</time></trkpt><trkpt lat="46.1765816" lon="11.1987037"><ele>1016.9999999999999</ele><time>2026-05-01T20:57:44.295Z</time></trkpt><trkpt lat="46.1766518" lon="11.1987321"><ele>1017.0</ele><time>2026-05-01T20:57:45.309Z</time></trkpt><trkpt lat="46.1767223" lon="11.1987672"><ele>1017.0</ele><time>2026-05-01T20:57:46.296Z</time></trkpt><trkpt lat="46.17678" lon="11.1988054"><ele>1023.25</ele><time>2026-05-01T20:57:47.323Z</time></trkpt><trkpt lat="46.1768826" lon="11.1989027"><ele>1029.5</ele><time>2026-05-01T20:57:49.418Z</time></trkpt><trkpt lat="46.1769775" lon="11.198976"><ele>1035.75</ele><time>2026-05-01T20:57:51.292Z</time></trkpt><trkpt lat="46.1770975" lon="11.1990197"><ele>1042.0</ele><time>2026-05-01T20:57:53.349Z</time></trkpt><trkpt lat="46.1772283" lon="11.1990597"><ele>1043.6666666666665</ele><time>2026-05-01T20:57:55.323Z</time></trkpt><trkpt lat="46.1772947" lon="11.1990882"><ele>1045.3333333333333</ele><time>2026-05-01T20:57:56.319Z</time></trkpt><trkpt lat="46.1773919" lon="11.1991067"><ele>1047.0</ele><time>2026-05-01T20:57:58.313Z</time></trkpt><trkpt lat="46.1774821" lon="11.1991026"><ele>1048.6666666666667</ele><time>2026-05-01T20:58:00.337Z</time></trkpt><trkpt lat="46.1775818" lon="11.1990452"><ele>1050.3333333333335</ele><time>2026-05-01T20:58:02.361Z</time></trkpt><trkpt lat="46.1776508" lon="11.1990003"><ele>1052.0</ele><time>2026-05-01T20:58:03.306Z</time></trkpt><trkpt lat="46.1777197" lon="11.1989423"><ele>1052.0</ele><time>2026-05-01T20:58:04.307Z</time></trkpt><trkpt lat="46.1777854" lon="11.1988788"><ele>1052.0</ele><time>2026-05-01T20:58:05.315Z</time></trkpt><trkpt lat="46.1778497" lon="11.198812"><ele>1052.0</ele><time>2026-05-01T20:58:06.263Z</time></trkpt><trkpt lat="46.1779284" lon="11.1987307"><ele>1052.0</ele><time>2026-05-01T20:58:07.284Z</time></trkpt><trkpt lat="46.1779995" lon="11.1986574"><ele>1052.0</ele><time>2026-05-01T20:58:08.263Z</time></trkpt><trkpt lat="46.178062" lon="11.198584"><ele>1052.0</ele><time>2026-05-01T20:58:09.271Z</time></trkpt><trkpt lat="46.1781173" lon="11.1985189"><ele>1052.0</ele><time>2026-05-01T20:58:10.274Z</time></trkpt><trkpt lat="46.178183" lon="11.1984561"><ele>1052.0</ele><time>2026-05-01T20:58:11.274Z</time></trkpt><trkpt lat="46.1782473" lon="11.1983831"><ele>1052.0</ele><time>2026-05-01T20:58:12.287Z</time></trkpt><trkpt lat="46.1783172" lon="11.1983288"><ele>1052.0</ele><time>2026-05-01T20:58:13.284Z</time></trkpt><trkpt lat="46.1783926" lon="11.1982633"><ele>1052.0</ele><time>2026-05-01T20:58:14.31Z</time></trkpt><trkpt lat="46.1784646" lon="11.1982137"><ele>1052.0</ele><time>2026-05-01T20:58:15.269Z</time></trkpt><trkpt lat="46.1785409" lon="11.1981599"><ele>1052.0</ele><time>2026-05-01T20:58:16.29Z</time></trkpt><trkpt lat="46.1785974" lon="11.1981131"><ele>1052.0</ele><time>2026-05-01T20:58:17.295Z</time></trkpt><trkpt lat="46.1786679" lon="11.1980773"><ele>1052.0</ele><time>2026-05-01T20:58:18.301Z</time></trkpt><trkpt lat="46.1787434" lon="11.1980386"><ele>1052.0</ele><time>2026-05-01T20:58:19.268Z</time></trkpt><trkpt lat="46.1788169" lon="11.1979996"><ele>1052.0</ele><time>2026-05-01T20:58:20.283Z</time></trkpt><trkpt lat="46.1788826" lon="11.1979517"><ele>1052.0</ele><time>2026-05-01T20:58:21.256Z</time></trkpt><trkpt lat="46.1789605" lon="11.1978936"><ele>1054.8333333333335</ele><time>2026-05-01T20:58:22.29Z</time></trkpt><trkpt lat="46.1790227" lon="11.1978447"><ele>1057.6666666666667</ele><time>2026-05-01T20:58:23.292Z</time></trkpt><trkpt lat="46.1791261" lon="11.1977474"><ele>1060.5</ele><time>2026-05-01T20:58:25.277Z</time></trkpt><trkpt lat="46.1791993" lon="11.1976699"><ele>1063.3333333333333</ele><time>2026-05-01T20:58:26.276Z</time></trkpt><trkpt lat="46.1792601" lon="11.1975795"><ele>1066.1666666666665</ele><time>2026-05-01T20:58:27.277Z</time></trkpt><trkpt lat="46.1792986" lon="11.1975023"><ele>1069.0</ele><time>2026-05-01T20:58:28.275Z</time></trkpt><trkpt lat="46.1793179" lon="11.1974003"><ele>1069.3333333333333</ele><time>2026-05-01T20:58:29.284Z</time></trkpt><trkpt lat="46.1793542" lon="11.1972977"><ele>1069.6666666666665</ele><time>2026-05-01T20:58:30.284Z</time></trkpt><trkpt lat="46.1793856" lon="11.1971934"><ele>1070.0</ele><time>2026-05-01T20:58:31.274Z</time></trkpt><trkpt lat="46.1794079" lon="11.1970978"><ele>1070.3333333333333</ele><time>2026-05-01T20:58:32.291Z</time></trkpt><trkpt lat="46.1794261" lon="11.1970084"><ele>1070.6666666666667</ele><time>2026-05-01T20:58:33.299Z</time></trkpt><trkpt lat="46.1794367" lon="11.1969145"><ele>1071.0</ele><time>2026-05-01T20:58:34.513Z</time></trkpt><trkpt lat="46.1794741" lon="11.196782"><ele>1071.0</ele><time>2026-05-01T20:58:36.317Z</time></trkpt><trkpt lat="46.1795356" lon="11.1966765"><ele>1071.0</ele><time>2026-05-01T20:58:38.441Z</time></trkpt><trkpt lat="46.1796323" lon="11.1965796"><ele>1071.0</ele><time>2026-05-01T20:58:40.313Z</time></trkpt><trkpt lat="46.1796851" lon="11.1965276"><ele>1071.0</ele><time>2026-05-01T20:58:41.343Z</time></trkpt><trkpt lat="46.1797747" lon="11.1964442"><ele>1071.0</ele><time>2026-05-01T20:58:43.321Z</time></trkpt><trkpt lat="46.1798275" lon="11.1963864"><ele>1071.6</ele><time>2026-05-01T20:58:44.33Z</time></trkpt><trkpt lat="46.1799203" lon="11.1962875"><ele>1072.1999999999998</ele><time>2026-05-01T20:58:46.313Z</time></trkpt><trkpt lat="46.1800308" lon="11.1962254"><ele>1072.8000000000002</ele><time>2026-05-01T20:58:48.323Z</time></trkpt><trkpt lat="46.1801227" lon="11.1961743"><ele>1073.4</ele><time>2026-05-01T20:58:50.287Z</time></trkpt><trkpt lat="46.1802176" lon="11.1961329"><ele>1074.0</ele><time>2026-05-01T20:58:52.342Z</time></trkpt><trkpt lat="46.180316" lon="11.196072"><ele>1074.0</ele><time>2026-05-01T20:58:54.356Z</time></trkpt><trkpt lat="46.1804167" lon="11.1959863"><ele>1074.0</ele><time>2026-05-01T20:58:56.289Z</time></trkpt><trkpt lat="46.1805002" lon="11.1959208"><ele>1074.0</ele><time>2026-05-01T20:58:58.313Z</time></trkpt><trkpt lat="46.1805862" lon="11.1958384"><ele>1074.0</ele><time>2026-05-01T20:59:00.32Z</time></trkpt><trkpt lat="46.1806707" lon="11.1957658"><ele>1074.0</ele><time>2026-05-01T20:59:02.335Z</time></trkpt><trkpt lat="46.1807639" lon="11.1956967"><ele>1071.8333333333333</ele><time>2026-05-01T20:59:04.346Z</time></trkpt><trkpt lat="46.1808518" lon="11.1956343"><ele>1069.6666666666667</ele><time>2026-05-01T20:59:06.537Z</time></trkpt><trkpt lat="46.1809211" lon="11.1955916"><ele>1067.5</ele><time>2026-05-01T20:59:08.312Z</time></trkpt><trkpt lat="46.1809972" lon="11.1955453"><ele>1065.3333333333335</ele><time>2026-05-01T20:59:10.306Z</time></trkpt><trkpt lat="46.1811044" lon="11.1955308"><ele>1063.1666666666667</ele><time>2026-05-01T20:59:12.276Z</time></trkpt><trkpt lat="46.1811778" lon="11.1955263"><ele>1061.0</ele><time>2026-05-01T20:59:13.277Z</time></trkpt><trkpt lat="46.1812521" lon="11.1955103"><ele>1061.0</ele><time>2026-05-01T20:59:14.276Z</time></trkpt><trkpt lat="46.1813291" lon="11.1954573"><ele>1061.0</ele><time>2026-05-01T20:59:15.276Z</time></trkpt><trkpt lat="46.1813923" lon="11.1953907"><ele>1061.0</ele><time>2026-05-01T20:59:16.285Z</time></trkpt><trkpt lat="46.1815157" lon="11.1952519"><ele>1061.0</ele><time>2026-05-01T20:59:18.313Z</time></trkpt><trkpt lat="46.1815875" lon="11.1951834"><ele>1061.0</ele><time>2026-05-01T20:59:19.287Z</time></trkpt><trkpt lat="46.181651" lon="11.1951118"><ele>1061.3333333333335</ele><time>2026-05-01T20:59:20.267Z</time></trkpt><trkpt lat="46.1817052" lon="11.1950389"><ele>1061.6666666666667</ele><time>2026-05-01T20:59:21.261Z</time></trkpt><trkpt lat="46.1817752" lon="11.1949514"><ele>1062.0</ele><time>2026-05-01T20:59:22.269Z</time></trkpt><trkpt lat="46.1818308" lon="11.1948818"><ele>1062.3333333333333</ele><time>2026-05-01T20:59:23.283Z</time></trkpt><trkpt lat="46.1818805" lon="11.1948224"><ele>1062.6666666666665</ele><time>2026-05-01T20:59:24.271Z</time></trkpt><trkpt lat="46.1819219" lon="11.1947512"><ele>1063.0</ele><time>2026-05-01T20:59:25.269Z</time></trkpt><trkpt lat="46.1819793" lon="11.1946697"><ele>1064.8</ele><time>2026-05-01T20:59:26.263Z</time></trkpt><trkpt lat="46.1820408" lon="11.1945922"><ele>1066.6</ele><time>2026-05-01T20:59:27.255Z</time></trkpt><trkpt lat="46.1820912" lon="11.1945148"><ele>1068.4</ele><time>2026-05-01T20:59:28.281Z</time></trkpt><trkpt lat="46.1821371" lon="11.1944452"><ele>1070.2</ele><time>2026-05-01T20:59:29.268Z</time></trkpt><trkpt lat="46.1822143" lon="11.1943247"><ele>1072.0</ele><time>2026-05-01T20:59:31.282Z</time></trkpt><trkpt lat="46.1822933" lon="11.1941876"><ele>1071.2</ele><time>2026-05-01T20:59:33.297Z</time></trkpt><trkpt lat="46.1823615" lon="11.1940295"><ele>1070.4</ele><time>2026-05-01T20:59:35.281Z</time></trkpt><trkpt lat="46.1824365" lon="11.1939158"><ele>1069.6</ele><time>2026-05-01T20:59:37.278Z</time></trkpt><trkpt lat="46.182528" lon="11.1938006"><ele>1068.8</ele><time>2026-05-01T20:59:39.273Z</time></trkpt><trkpt lat="46.1825785" lon="11.1937253"><ele>1068.0</ele><time>2026-05-01T20:59:41.281Z</time></trkpt><trkpt lat="46.1826597" lon="11.1936489"><ele>1068.0</ele><time>2026-05-01T20:59:43.277Z</time></trkpt><trkpt lat="46.1827141" lon="11.1935883"><ele>1068.0</ele><time>2026-05-01T20:59:44.27Z</time></trkpt><trkpt lat="46.1827704" lon="11.193525"><ele>1068.0</ele><time>2026-05-01T20:59:45.259Z</time></trkpt><trkpt lat="46.1828272" lon="11.1934538"><ele>1068.0</ele><time>2026-05-01T20:59:46.248Z</time></trkpt><trkpt lat="46.1828855" lon="11.1933677"><ele>1068.0</ele><time>2026-05-01T20:59:47.291Z</time></trkpt><trkpt lat="46.1829312" lon="11.1933006"><ele>1068.0</ele><time>2026-05-01T20:59:48.268Z</time></trkpt><trkpt lat="46.183006" lon="11.193163"><ele>1068.6</ele><time>2026-05-01T20:59:50.28Z</time></trkpt><trkpt lat="46.1830781" lon="11.1930614"><ele>1069.1999999999998</ele><time>2026-05-01T20:59:52.311Z</time></trkpt><trkpt lat="46.1831389" lon="11.1929682"><ele>1069.8</ele><time>2026-05-01T20:59:54.268Z</time></trkpt><trkpt lat="46.1832173" lon="11.1928626"><ele>1070.3999999999999</ele><time>2026-05-01T20:59:56.286Z</time></trkpt><trkpt lat="46.1832897" lon="11.1927688"><ele>1071.0</ele><time>2026-05-01T20:59:58.273Z</time></trkpt><trkpt lat="46.1833588" lon="11.1926409"><ele>1069.6</ele><time>2026-05-01T21:00:00.299Z</time></trkpt><trkpt lat="46.1834347" lon="11.1925503"><ele>1068.1999999999998</ele><time>2026-05-01T21:00:02.317Z</time></trkpt><trkpt lat="46.1835156" lon="11.1924589"><ele>1066.8000000000002</ele><time>2026-05-01T21:00:04.321Z</time></trkpt><trkpt lat="46.1835957" lon="11.1923493"><ele>1065.4</ele><time>2026-05-01T21:00:06.338Z</time></trkpt><trkpt lat="46.1836519" lon="11.1922221"><ele>1064.0</ele><time>2026-05-01T21:00:08.325Z</time></trkpt><trkpt lat="46.1837136" lon="11.1920753"><ele>1063.5</ele><time>2026-05-01T21:00:10.351Z</time></trkpt><trkpt lat="46.1837856" lon="11.1919225"><ele>1063.0</ele><time>2026-05-01T21:00:12.344Z</time></trkpt><trkpt lat="46.1838257" lon="11.1918383"><ele>1062.5</ele><time>2026-05-01T21:00:13.306Z</time></trkpt><trkpt lat="46.1838691" lon="11.1917553"><ele>1062.0</ele><time>2026-05-01T21:00:14.321Z</time></trkpt><trkpt lat="46.183913" lon="11.1916851"><ele>1061.5</ele><time>2026-05-01T21:00:15.308Z</time></trkpt><trkpt lat="46.1839647" lon="11.1916241"><ele>1061.0</ele><time>2026-05-01T21:00:16.312Z</time></trkpt><trkpt lat="46.1840174" lon="11.1915645"><ele>1058.3999999999999</ele><time>2026-05-01T21:00:17.311Z</time></trkpt><trkpt lat="46.1841155" lon="11.1914458"><ele>1055.8</ele><time>2026-05-01T21:00:19.331Z</time></trkpt><trkpt lat="46.1841678" lon="11.1913787"><ele>1053.1999999999998</ele><time>2026-05-01T21:00:20.316Z</time></trkpt><trkpt lat="46.1842197" lon="11.1913224"><ele>1050.6</ele><time>2026-05-01T21:00:21.351Z</time></trkpt><trkpt lat="46.184317" lon="11.1912324"><ele>1048.0</ele><time>2026-05-01T21:00:23.307Z</time></trkpt><trkpt lat="46.1844271" lon="11.1911548"><ele>1048.0</ele><time>2026-05-01T21:00:25.321Z</time></trkpt><trkpt lat="46.1845347" lon="11.1910808"><ele>1048.0</ele><time>2026-05-01T21:00:27.31Z</time></trkpt><trkpt lat="46.1846326" lon="11.1910272"><ele>1048.0</ele><time>2026-05-01T21:00:29.276Z</time></trkpt><trkpt lat="46.1847265" lon="11.190951"><ele>1048.0</ele><time>2026-05-01T21:00:31.303Z</time></trkpt><trkpt lat="46.1848305" lon="11.1908759"><ele>1048.0</ele><time>2026-05-01T21:00:33.341Z</time></trkpt><trkpt lat="46.1849165" lon="11.1908013"><ele>1047.4</ele><time>2026-05-01T21:00:35.321Z</time></trkpt><trkpt lat="46.1850007" lon="11.1907605"><ele>1046.8</ele><time>2026-05-01T21:00:37.323Z</time></trkpt><trkpt lat="46.1851016" lon="11.1907252"><ele>1046.2</ele><time>2026-05-01T21:00:39.357Z</time></trkpt><trkpt lat="46.1851675" lon="11.1906605"><ele>1045.6</ele><time>2026-05-01T21:00:41.273Z</time></trkpt><trkpt lat="46.1852305" lon="11.1905442"><ele>1045.0</ele><time>2026-05-01T21:00:43.292Z</time></trkpt><trkpt lat="46.1853071" lon="11.1903968"><ele>1043.2</ele><time>2026-05-01T21:00:45.353Z</time></trkpt><trkpt lat="46.1853808" lon="11.1902595"><ele>1041.4</ele><time>2026-05-01T21:00:47.305Z</time></trkpt><trkpt lat="46.1854432" lon="11.1901425"><ele>1039.6</ele><time>2026-05-01T21:00:49.325Z</time></trkpt><trkpt lat="46.1855047" lon="11.1900396"><ele>1037.8</ele><time>2026-05-01T21:00:51.342Z</time></trkpt><trkpt lat="46.1856016" lon="11.1899301"><ele>1036.0</ele><time>2026-05-01T21:00:53.323Z</time></trkpt><trkpt lat="46.1856866" lon="11.1898623"><ele>1033.6</ele><time>2026-05-01T21:00:55.318Z</time></trkpt><trkpt lat="46.1857787" lon="11.1898077"><ele>1031.1999999999998</ele><time>2026-05-01T21:00:57.314Z</time></trkpt><trkpt lat="46.1858631" lon="11.1897344"><ele>1028.8000000000002</ele><time>2026-05-01T21:00:59.328Z</time></trkpt><trkpt lat="46.1859153" lon="11.1896828"><ele>1026.4</ele><time>2026-05-01T21:01:00.335Z</time></trkpt><trkpt lat="46.1860069" lon="11.1895716"><ele>1024.0</ele><time>2026-05-01T21:01:02.477Z</time></trkpt><trkpt lat="46.1860666" lon="11.1894976"><ele>1024.0</ele><time>2026-05-01T21:01:04.302Z</time></trkpt><trkpt lat="46.1861178" lon="11.1893973"><ele>1024.0</ele><time>2026-05-01T21:01:06.323Z</time></trkpt><trkpt lat="46.1861505" lon="11.1892766"><ele>1024.0</ele><time>2026-05-01T21:01:08.336Z</time></trkpt><trkpt lat="46.1861877" lon="11.1891467"><ele>1024.0</ele><time>2026-05-01T21:01:10.313Z</time></trkpt><trkpt lat="46.1862502" lon="11.1890361"><ele>1024.0</ele><time>2026-05-01T21:01:12.428Z</time></trkpt><trkpt lat="46.1863181" lon="11.1889811"><ele>1024.1666666666665</ele><time>2026-05-01T21:01:14.313Z</time></trkpt><trkpt lat="46.1863875" lon="11.1889354"><ele>1024.3333333333333</ele><time>2026-05-01T21:01:16.31Z</time></trkpt><trkpt lat="46.1864761" lon="11.1889197"><ele>1024.5</ele><time>2026-05-01T21:01:19.311Z</time></trkpt><trkpt lat="46.186556" lon="11.1889957"><ele>1024.6666666666667</ele><time>2026-05-01T21:01:21.304Z</time></trkpt><trkpt lat="46.1866437" lon="11.1890613"><ele>1024.8333333333335</ele><time>2026-05-01T21:01:23.309Z</time></trkpt><trkpt lat="46.1867011" lon="11.1891059"><ele>1025.0</ele><time>2026-05-01T21:01:25.307Z</time></trkpt><trkpt lat="46.1867939" lon="11.1891393"><ele>1025.0</ele><time>2026-05-01T21:01:34.42Z</time></trkpt><trkpt lat="46.1868829" lon="11.1891186"><ele>1025.0</ele><time>2026-05-01T21:01:37.317Z</time></trkpt><trkpt lat="46.1869512" lon="11.1890913"><ele>1025.0</ele><time>2026-05-01T21:01:39.307Z</time></trkpt><trkpt lat="46.1870073" lon="11.1890261"><ele>1025.0</ele><time>2026-05-01T21:01:43.28Z</time></trkpt><trkpt lat="46.1870693" lon="11.1890081"><ele>1025.0</ele><time>2026-05-01T21:03:19.28Z</time></trkpt><trkpt lat="46.1871454" lon="11.1889425"><ele>1025.0</ele><time>2026-05-01T21:03:22.284Z</time></trkpt><trkpt lat="46.1872086" lon="11.1889031"><ele>1025.0</ele><time>2026-05-01T21:03:24.281Z</time></trkpt><trkpt lat="46.1872669" lon="11.1888384"><ele>1025.0</ele><time>2026-05-01T21:03:26.283Z</time></trkpt><trkpt lat="46.1873352" lon="11.1887515"><ele>1025.0</ele><time>2026-05-01T21:03:28.311Z</time></trkpt><trkpt lat="46.18741" lon="11.1886686"><ele>1025.0</ele><time>2026-05-01T21:03:30.293Z</time></trkpt><trkpt lat="46.1874906" lon="11.1885849"><ele>1025.0</ele><time>2026-05-01T21:03:32.306Z</time></trkpt><trkpt lat="46.1875955" lon="11.1884965"><ele>1025.5</ele><time>2026-05-01T21:03:34.29Z</time></trkpt><trkpt lat="46.1876966" lon="11.1884312"><ele>1026.0</ele><time>2026-05-01T21:03:36.343Z</time></trkpt><trkpt lat="46.187856" lon="11.18842"><ele>1026.5</ele><time>2026-05-01T21:03:40.361Z</time></trkpt><trkpt lat="46.1879359" lon="11.1884064"><ele>1027.0</ele><time>2026-05-01T21:03:42.377Z</time></trkpt><trkpt lat="46.1880361" lon="11.1883619"><ele>1027.0</ele><time>2026-05-01T21:03:44.366Z</time></trkpt><trkpt lat="46.1881002" lon="11.1883053"><ele>1027.0</ele><time>2026-05-01T21:03:46.367Z</time></trkpt><trkpt lat="46.1881776" lon="11.1882191"><ele>1027.0</ele><time>2026-05-01T21:03:48.346Z</time></trkpt><trkpt lat="46.1882578" lon="11.1881088"><ele>1027.0</ele><time>2026-05-01T21:03:50.366Z</time></trkpt><trkpt lat="46.188316" lon="11.1879742"><ele>1027.0</ele><time>2026-05-01T21:03:52.345Z</time></trkpt><trkpt lat="46.1883371" lon="11.1878282"><ele>1025.0</ele><time>2026-05-01T21:03:54.382Z</time></trkpt><trkpt lat="46.1883318" lon="11.187677"><ele>1023.0</ele><time>2026-05-01T21:03:56.379Z</time></trkpt><trkpt lat="46.1883356" lon="11.1875178"><ele>1021.0</ele><time>2026-05-01T21:03:58.365Z</time></trkpt><trkpt lat="46.1883343" lon="11.1873943"><ele>1019.0</ele><time>2026-05-01T21:04:00.368Z</time></trkpt><trkpt lat="46.1884352" lon="11.1871855"><ele>1017.8000000000001</ele><time>2026-05-01T21:04:03.4Z</time></trkpt><trkpt lat="46.1885147" lon="11.1870429"><ele>1016.6000000000001</ele><time>2026-05-01T21:04:05.421Z</time></trkpt><trkpt lat="46.1885879" lon="11.1868937"><ele>1015.4</ele><time>2026-05-01T21:04:07.471Z</time></trkpt><trkpt lat="46.1886068" lon="11.1867623"><ele>1014.2</ele><time>2026-05-01T21:04:09.401Z</time></trkpt><trkpt lat="46.1886235" lon="11.1866176"><ele>1013.0</ele><time>2026-05-01T21:04:11.388Z</time></trkpt><trkpt lat="46.1886358" lon="11.1864808"><ele>1012.1666666666667</ele><time>2026-05-01T21:04:13.379Z</time></trkpt><trkpt lat="46.1886457" lon="11.1863428"><ele>1011.3333333333334</ele><time>2026-05-01T21:04:15.371Z</time></trkpt><trkpt lat="46.1886531" lon="11.1862519"><ele>1010.5</ele><time>2026-05-01T21:04:17.413Z</time></trkpt><trkpt lat="46.1887008" lon="11.1861641"><ele>1009.6666666666667</ele><time>2026-05-01T21:04:19.38Z</time></trkpt><trkpt lat="46.1887666" lon="11.1861141"><ele>1008.8333333333334</ele><time>2026-05-01T21:04:21.376Z</time></trkpt><trkpt lat="46.1888391" lon="11.1860734"><ele>1008.0</ele><time>2026-05-01T21:04:23.396Z</time></trkpt><trkpt lat="46.1889554" lon="11.1860813"><ele>1008.0</ele><time>2026-05-01T21:04:26.384Z</time></trkpt><trkpt lat="46.1890259" lon="11.1861224"><ele>1008.0</ele><time>2026-05-01T21:04:28.407Z</time></trkpt><trkpt lat="46.1891" lon="11.186158"><ele>1008.0</ele><time>2026-05-01T21:04:31.368Z</time></trkpt><trkpt lat="46.1890692" lon="11.1860548"><ele>1008.0</ele><time>2026-05-01T21:04:36.308Z</time></trkpt><trkpt lat="46.1890035" lon="11.1859855"><ele>1008.0</ele><time>2026-05-01T21:04:38.343Z</time></trkpt><trkpt lat="46.188927" lon="11.1859273"><ele>1008.0</ele><time>2026-05-01T21:04:40.315Z</time></trkpt><trkpt lat="46.1888593" lon="11.1858775"><ele>1008.0</ele><time>2026-05-01T21:04:42.341Z</time></trkpt><trkpt lat="46.1887716" lon="11.1858015"><ele>1008.0</ele><time>2026-05-01T21:04:44.309Z</time></trkpt><trkpt lat="46.1886759" lon="11.1857272"><ele>1008.0</ele><time>2026-05-01T21:04:46.312Z</time></trkpt><trkpt lat="46.1885729" lon="11.1856926"><ele>1008.0</ele><time>2026-05-01T21:04:48.318Z</time></trkpt><trkpt lat="46.1884793" lon="11.1857054"><ele>1008.0</ele><time>2026-05-01T21:04:50.321Z</time></trkpt><trkpt lat="46.1883865" lon="11.1856771"><ele>1008.4</ele><time>2026-05-01T21:04:52.295Z</time></trkpt><trkpt lat="46.1882929" lon="11.1856061"><ele>1008.8</ele><time>2026-05-01T21:04:54.302Z</time></trkpt><trkpt lat="46.1882249" lon="11.1855584"><ele>1009.2</ele><time>2026-05-01T21:04:55.315Z</time></trkpt><trkpt lat="46.1881268" lon="11.1854694"><ele>1009.6</ele><time>2026-05-01T21:04:57.304Z</time></trkpt><trkpt lat="46.1880748" lon="11.1854091"><ele>1010.0</ele><time>2026-05-01T21:04:58.342Z</time></trkpt><trkpt lat="46.1879936" lon="11.1852928"><ele>1009.2</ele><time>2026-05-01T21:05:00.33Z</time></trkpt><trkpt lat="46.1879565" lon="11.1852173"><ele>1008.4</ele><time>2026-05-01T21:05:01.321Z</time></trkpt><trkpt lat="46.187896" lon="11.1850858"><ele>1007.5999999999999</ele><time>2026-05-01T21:05:03.323Z</time></trkpt><trkpt lat="46.1878379" lon="11.18497"><ele>1006.8</ele><time>2026-05-01T21:05:05.339Z</time></trkpt><trkpt lat="46.1877635" lon="11.1848812"><ele>1006.0</ele><time>2026-05-01T21:05:07.359Z</time></trkpt><trkpt lat="46.1876873" lon="11.184818"><ele>1004.9999999999999</ele><time>2026-05-01T21:05:09.315Z</time></trkpt><trkpt lat="46.1876008" lon="11.1847353"><ele>1004.0</ele><time>2026-05-01T21:05:12.299Z</time></trkpt><trkpt lat="46.1875967" lon="11.1846272"><ele>1003.0</ele><time>2026-05-01T21:05:15.314Z</time></trkpt><trkpt lat="46.1876295" lon="11.1845473"><ele>1002.0</ele><time>2026-05-01T21:05:17.32Z</time></trkpt><trkpt lat="46.1876855" lon="11.1844645"><ele>1000.9999999999999</ele><time>2026-05-01T21:05:19.324Z</time></trkpt><trkpt lat="46.1877595" lon="11.1843693"><ele>1000.0</ele><time>2026-05-01T21:05:21.32Z</time></trkpt><trkpt lat="46.1878243" lon="11.1842763"><ele>1000.0</ele><time>2026-05-01T21:05:23.351Z</time></trkpt><trkpt lat="46.1879008" lon="11.1841765"><ele>1000.0</ele><time>2026-05-01T21:05:25.352Z</time></trkpt><trkpt lat="46.1879493" lon="11.1840763"><ele>1000.0</ele><time>2026-05-01T21:05:27.32Z</time></trkpt><trkpt lat="46.1879505" lon="11.1839466"><ele>1000.0</ele><time>2026-05-01T21:05:29.309Z</time></trkpt><trkpt lat="46.1879273" lon="11.183807"><ele>1000.0</ele><time>2026-05-01T21:05:31.336Z</time></trkpt><trkpt lat="46.1879403" lon="11.1836849"><ele>1000.8</ele><time>2026-05-01T21:05:33.315Z</time></trkpt><trkpt lat="46.1880334" lon="11.1835587"><ele>1001.6</ele><time>2026-05-01T21:05:36.294Z</time></trkpt><trkpt lat="46.1881183" lon="11.1835194"><ele>1002.4000000000001</ele><time>2026-05-01T21:05:38.308Z</time></trkpt><trkpt lat="46.1882109" lon="11.1834761"><ele>1003.2</ele><time>2026-05-01T21:05:40.355Z</time></trkpt><trkpt lat="46.1882959" lon="11.1834259"><ele>1004.0</ele><time>2026-05-01T21:05:42.298Z</time></trkpt><trkpt lat="46.1883703" lon="11.1833693"><ele>1004.0000000000001</ele><time>2026-05-01T21:05:44.28Z</time></trkpt><trkpt lat="46.1884441" lon="11.1833146"><ele>1004.0</ele><time>2026-05-01T21:05:46.277Z</time></trkpt><trkpt lat="46.1885093" lon="11.1832255"><ele>1004.0</ele><time>2026-05-01T21:05:48.286Z</time></trkpt><trkpt lat="46.1885506" lon="11.1831021"><ele>1004.0</ele><time>2026-05-01T21:05:50.266Z</time></trkpt><trkpt lat="46.1886144" lon="11.1830106"><ele>1004.0000000000001</ele><time>2026-05-01T21:05:52.263Z</time></trkpt><trkpt lat="46.1886916" lon="11.1829653"><ele>1004.0</ele><time>2026-05-01T21:05:54.401Z</time></trkpt><trkpt lat="46.1887717" lon="11.1829595"><ele>1004.2</ele><time>2026-05-01T21:05:56.254Z</time></trkpt><trkpt lat="46.1888652" lon="11.182997"><ele>1004.4000000000001</ele><time>2026-05-01T21:05:58.287Z</time></trkpt><trkpt lat="46.1889798" lon="11.1830271"><ele>1004.6</ele><time>2026-05-01T21:06:00.377Z</time></trkpt><trkpt lat="46.1890681" lon="11.1830019"><ele>1004.8</ele><time>2026-05-01T21:06:02.291Z</time></trkpt><trkpt lat="46.1891419" lon="11.1829548"><ele>1005.0</ele><time>2026-05-01T21:06:04.263Z</time></trkpt><trkpt lat="46.1892249" lon="11.1829249"><ele>1005.0</ele><time>2026-05-01T21:06:06.255Z</time></trkpt><trkpt lat="46.1893185" lon="11.1829135"><ele>1005.0</ele><time>2026-05-01T21:06:08.29Z</time></trkpt><trkpt lat="46.1894401" lon="11.1829132"><ele>1005.0</ele><time>2026-05-01T21:06:10.279Z</time></trkpt><trkpt lat="46.1895295" lon="11.1829047"><ele>1005.0</ele><time>2026-05-01T21:06:12.264Z</time></trkpt><trkpt lat="46.1897663" lon="11.1830109"><ele>1002.4</ele><time>2026-05-01T21:06:18.297Z</time></trkpt><trkpt lat="46.1898811" lon="11.183094"><ele>999.8</ele><time>2026-05-01T21:06:21.33Z</time></trkpt><trkpt lat="46.1899777" lon="11.1831301"><ele>997.2</ele><time>2026-05-01T21:06:23.351Z</time></trkpt><trkpt lat="46.190061" lon="11.1830955"><ele>994.6</ele><time>2026-05-01T21:06:25.355Z</time></trkpt><trkpt lat="46.1901315" lon="11.183027"><ele>992.0</ele><time>2026-05-01T21:06:27.318Z</time></trkpt><trkpt lat="46.1901585" lon="11.1829415"><ele>992.0</ele><time>2026-05-01T21:06:30.318Z</time></trkpt><trkpt lat="46.1901274" lon="11.1828251"><ele>992.0</ele><time>2026-05-01T21:06:32.323Z</time></trkpt><trkpt lat="46.1900918" lon="11.1827006"><ele>992.0</ele><time>2026-05-01T21:06:34.325Z</time></trkpt><trkpt lat="46.1900441" lon="11.1825846"><ele>992.0</ele><time>2026-05-01T21:06:36.374Z</time></trkpt><trkpt lat="46.1899703" lon="11.1824499"><ele>992.0</ele><time>2026-05-01T21:06:38.343Z</time></trkpt><trkpt lat="46.1899316" lon="11.1823764"><ele>990.2</ele><time>2026-05-01T21:06:39.335Z</time></trkpt><trkpt lat="46.1898502" lon="11.1822335"><ele>988.4000000000001</ele><time>2026-05-01T21:06:41.343Z</time></trkpt><trkpt lat="46.1898057" lon="11.182154"><ele>986.5999999999999</ele><time>2026-05-01T21:06:42.34Z</time></trkpt><trkpt lat="46.1897542" lon="11.1820418"><ele>984.8</ele><time>2026-05-01T21:06:43.368Z</time></trkpt><trkpt lat="46.1897516" lon="11.1819108"><ele>983.0</ele><time>2026-05-01T21:06:45.323Z</time></trkpt><trkpt lat="46.1897758" lon="11.1817934"><ele>983.0</ele><time>2026-05-01T21:06:47.326Z</time></trkpt><trkpt lat="46.1898457" lon="11.1817021"><ele>983.0</ele><time>2026-05-01T21:06:49.336Z</time></trkpt><trkpt lat="46.1899323" lon="11.1816483"><ele>983.0</ele><time>2026-05-01T21:06:51.331Z</time></trkpt><trkpt lat="46.1900289" lon="11.1816611"><ele>983.0</ele><time>2026-05-01T21:06:53.324Z</time></trkpt><trkpt lat="46.1901238" lon="11.181692"><ele>983.0</ele><time>2026-05-01T21:06:55.322Z</time></trkpt><trkpt lat="46.1902391" lon="11.1817046"><ele>983.0</ele><time>2026-05-01T21:06:57.32Z</time></trkpt><trkpt lat="46.1903443" lon="11.181673"><ele>983.0</ele><time>2026-05-01T21:06:59.336Z</time></trkpt><trkpt lat="46.1904335" lon="11.1816141"><ele>983.0</ele><time>2026-05-01T21:07:01.364Z</time></trkpt><trkpt lat="46.1904859" lon="11.1815273"><ele>983.0</ele><time>2026-05-01T21:07:03.314Z</time></trkpt><trkpt lat="46.1905182" lon="11.181431"><ele>983.0</ele><time>2026-05-01T21:07:05.344Z</time></trkpt><trkpt lat="46.1905966" lon="11.1813662"><ele>982.0</ele><time>2026-05-01T21:07:07.456Z</time></trkpt><trkpt lat="46.1906828" lon="11.1813116"><ele>981.0</ele><time>2026-05-01T21:07:09.335Z</time></trkpt><trkpt lat="46.1907571" lon="11.1812762"><ele>980.0</ele><time>2026-05-01T21:07:11.281Z</time></trkpt><trkpt lat="46.1908136" lon="11.1811545"><ele>979.0</ele><time>2026-05-01T21:07:15.314Z</time></trkpt><trkpt lat="46.1908441" lon="11.1810229"><ele>978.0</ele><time>2026-05-01T21:07:17.316Z</time></trkpt><trkpt lat="46.1908597" lon="11.1808813"><ele>978.4</ele><time>2026-05-01T21:07:19.317Z</time></trkpt><trkpt lat="46.1908185" lon="11.1806668"><ele>978.8</ele><time>2026-05-01T21:07:22.329Z</time></trkpt><trkpt lat="46.1907703" lon="11.1805127"><ele>979.2</ele><time>2026-05-01T21:07:24.264Z</time></trkpt><trkpt lat="46.1907355" lon="11.1804242"><ele>979.6</ele><time>2026-05-01T21:07:25.256Z</time></trkpt><trkpt lat="46.1906964" lon="11.1803502"><ele>980.0</ele><time>2026-05-01T21:07:26.273Z</time></trkpt><trkpt lat="46.1905957" lon="11.1802759"><ele>978.2</ele><time>2026-05-01T21:07:28.273Z</time></trkpt><trkpt lat="46.1904921" lon="11.1802039"><ele>976.4</ele><time>2026-05-01T21:07:30.252Z</time></trkpt><trkpt lat="46.1904081" lon="11.1801266"><ele>974.5999999999999</ele><time>2026-05-01T21:07:32.28Z</time></trkpt><trkpt lat="46.1903401" lon="11.1800304"><ele>972.8</ele><time>2026-05-01T21:07:34.259Z</time></trkpt><trkpt lat="46.1902741" lon="11.1798985"><ele>971.0</ele><time>2026-05-01T21:07:36.247Z</time></trkpt><trkpt lat="46.1902276" lon="11.1797699"><ele>970.4</ele><time>2026-05-01T21:07:38.262Z</time></trkpt><trkpt lat="46.1901986" lon="11.1796194"><ele>969.8</ele><time>2026-05-01T21:07:40.286Z</time></trkpt><trkpt lat="46.1901885" lon="11.1794888"><ele>969.1999999999999</ele><time>2026-05-01T21:07:42.397Z</time></trkpt><trkpt lat="46.1902183" lon="11.1793781"><ele>968.5999999999999</ele><time>2026-05-01T21:07:44.288Z</time></trkpt><trkpt lat="46.1902738" lon="11.1792386"><ele>968.0</ele><time>2026-05-01T21:07:46.256Z</time></trkpt><trkpt lat="46.1903439" lon="11.1791401"><ele>968.0</ele><time>2026-05-01T21:07:47.269Z</time></trkpt><trkpt lat="46.1904015" lon="11.1790824"><ele>968.0</ele><time>2026-05-01T21:07:48.367Z</time></trkpt><trkpt lat="46.1905127" lon="11.1790675"><ele>968.0</ele><time>2026-05-01T21:07:50.287Z</time></trkpt><trkpt lat="46.1905889" lon="11.1790603"><ele>968.0</ele><time>2026-05-01T21:07:51.293Z</time></trkpt><trkpt lat="46.190658" lon="11.1790491"><ele>968.0</ele><time>2026-05-01T21:07:52.307Z</time></trkpt><trkpt lat="46.1907967" lon="11.179037"><ele>969.6666666666667</ele><time>2026-05-01T21:07:54.321Z</time></trkpt><trkpt lat="46.1908721" lon="11.1790398"><ele>971.3333333333334</ele><time>2026-05-01T21:07:55.291Z</time></trkpt><trkpt lat="46.190941" lon="11.1790398"><ele>973.0</ele><time>2026-05-01T21:07:56.306Z</time></trkpt><trkpt lat="46.1910109" lon="11.179044"><ele>974.6666666666667</ele><time>2026-05-01T21:07:57.294Z</time></trkpt><trkpt lat="46.1911038" lon="11.1790684"><ele>976.3333333333334</ele><time>2026-05-01T21:07:59.276Z</time></trkpt><trkpt lat="46.1912092" lon="11.1791375"><ele>978.0</ele><time>2026-05-01T21:08:01.291Z</time></trkpt><trkpt lat="46.1913324" lon="11.179216"><ele>978.0</ele><time>2026-05-01T21:08:03.3Z</time></trkpt><trkpt lat="46.1914416" lon="11.1792833"><ele>978.0</ele><time>2026-05-01T21:08:05.289Z</time></trkpt><trkpt lat="46.1915502" lon="11.179348"><ele>978.0</ele><time>2026-05-01T21:08:07.268Z</time></trkpt><trkpt lat="46.1916599" lon="11.1794156"><ele>978.0</ele><time>2026-05-01T21:08:09.279Z</time></trkpt><trkpt lat="46.1917617" lon="11.1794937"><ele>978.8</ele><time>2026-05-01T21:08:11.265Z</time></trkpt><trkpt lat="46.1918426" lon="11.1795662"><ele>979.5999999999999</ele><time>2026-05-01T21:08:13.261Z</time></trkpt><trkpt lat="46.1919055" lon="11.1796136"><ele>980.4000000000001</ele><time>2026-05-01T21:08:14.533Z</time></trkpt><trkpt lat="46.1919929" lon="11.1796602"><ele>981.2</ele><time>2026-05-01T21:08:16.281Z</time></trkpt><trkpt lat="46.192095" lon="11.1797123"><ele>982.0</ele><time>2026-05-01T21:08:18.318Z</time></trkpt><trkpt lat="46.192201" lon="11.1797773"><ele>982.0</ele><time>2026-05-01T21:08:20.348Z</time></trkpt><trkpt lat="46.1922978" lon="11.1798497"><ele>982.0</ele><time>2026-05-01T21:08:22.321Z</time></trkpt><trkpt lat="46.1923789" lon="11.1799334"><ele>982.0</ele><time>2026-05-01T21:08:24.323Z</time></trkpt><trkpt lat="46.1924506" lon="11.1800239"><ele>982.0</ele><time>2026-05-01T21:08:26.316Z</time></trkpt><trkpt lat="46.1925127" lon="11.1801172"><ele>982.0</ele><time>2026-05-01T21:08:28.291Z</time></trkpt><trkpt lat="46.1925659" lon="11.1802251"><ele>982.0</ele><time>2026-05-01T21:08:30.433Z</time></trkpt><trkpt lat="46.1926354" lon="11.1803183"><ele>982.0</ele><time>2026-05-01T21:08:32.324Z</time></trkpt><trkpt lat="46.192725" lon="11.1804293"><ele>982.0</ele><time>2026-05-01T21:08:34.318Z</time></trkpt><trkpt lat="46.1928177" lon="11.1805066"><ele>982.0</ele><time>2026-05-01T21:08:36.418Z</time></trkpt><trkpt lat="46.1929275" lon="11.1805721"><ele>982.0</ele><time>2026-05-01T21:08:38.318Z</time></trkpt><trkpt lat="46.1930237" lon="11.1806365"><ele>984.0</ele><time>2026-05-01T21:08:40.325Z</time></trkpt><trkpt lat="46.1931206" lon="11.1807032"><ele>986.0</ele><time>2026-05-01T21:08:42.319Z</time></trkpt><trkpt lat="46.1932293" lon="11.1807532"><ele>988.0</ele><time>2026-05-01T21:08:44.321Z</time></trkpt><trkpt lat="46.1933289" lon="11.1808115"><ele>990.0</ele><time>2026-05-01T21:08:46.27Z</time></trkpt><trkpt lat="46.1934346" lon="11.1808643"><ele>992.0</ele><time>2026-05-01T21:08:48.302Z</time></trkpt><trkpt lat="46.1934958" lon="11.180896"><ele>987.4000000000001</ele><time>2026-05-01T21:08:49.382Z</time></trkpt><trkpt lat="46.1935882" lon="11.1809385"><ele>982.8000000000001</ele><time>2026-05-01T21:08:51.311Z</time></trkpt><trkpt lat="46.1936971" lon="11.1809801"><ele>978.2</ele><time>2026-05-01T21:08:53.323Z</time></trkpt><trkpt lat="46.1937758" lon="11.1810469"><ele>973.6</ele><time>2026-05-01T21:08:55.308Z</time></trkpt><trkpt lat="46.1938292" lon="11.1811531"><ele>969.0</ele><time>2026-05-01T21:08:57.289Z</time></trkpt><trkpt lat="46.1938901" lon="11.1812949"><ele>969.0</ele><time>2026-05-01T21:08:59.313Z</time></trkpt><trkpt lat="46.193959" lon="11.1814205"><ele>969.0</ele><time>2026-05-01T21:09:01.321Z</time></trkpt><trkpt lat="46.1940085" lon="11.1814869"><ele>969.0</ele><time>2026-05-01T21:09:03.318Z</time></trkpt><trkpt lat="46.1940861" lon="11.1815639"><ele>969.0</ele><time>2026-05-01T21:09:06.319Z</time></trkpt><trkpt lat="46.1941659" lon="11.1816051"><ele>969.0</ele><time>2026-05-01T21:09:08.309Z</time></trkpt><trkpt lat="46.1942286" lon="11.1816458"><ele>969.0</ele><time>2026-05-01T21:09:10.324Z</time></trkpt><trkpt lat="46.1942971" lon="11.1817112"><ele>967.0</ele><time>2026-05-01T21:09:12.288Z</time></trkpt><trkpt lat="46.194379" lon="11.1817903"><ele>965.0</ele><time>2026-05-01T21:09:14.299Z</time></trkpt><trkpt lat="46.1944511" lon="11.1818287"><ele>963.0</ele><time>2026-05-01T21:09:16.288Z</time></trkpt><trkpt lat="46.1945195" lon="11.1819113"><ele>961.0</ele><time>2026-05-01T21:09:19.289Z</time></trkpt><trkpt lat="46.1945633" lon="11.1819972"><ele>959.0</ele><time>2026-05-01T21:09:21.27Z</time></trkpt><trkpt lat="46.1946243" lon="11.1821031"><ele>957.0</ele><time>2026-05-01T21:09:23.292Z</time></trkpt><trkpt lat="46.1946936" lon="11.1821885"><ele>957.0</ele><time>2026-05-01T21:09:25.31Z</time></trkpt><trkpt lat="46.1947529" lon="11.1822397"><ele>957.0</ele><time>2026-05-01T21:09:27.294Z</time></trkpt><trkpt lat="46.1948176" lon="11.1823137"><ele>957.0</ele><time>2026-05-01T21:09:29.327Z</time></trkpt><trkpt lat="46.1948827" lon="11.1823994"><ele>957.0</ele><time>2026-05-01T21:09:31.274Z</time></trkpt><trkpt lat="46.1948891" lon="11.1825109"><ele>957.0</ele><time>2026-05-01T21:09:34.324Z</time></trkpt><trkpt lat="46.1948741" lon="11.1826229"><ele>957.0</ele><time>2026-05-01T21:09:36.284Z</time></trkpt><trkpt lat="46.1948845" lon="11.1827445"><ele>956.6666666666666</ele><time>2026-05-01T21:09:39.405Z</time></trkpt><trkpt lat="46.1949299" lon="11.1828383"><ele>956.3333333333333</ele><time>2026-05-01T21:09:42.329Z</time></trkpt><trkpt lat="46.1949833" lon="11.1829223"><ele>956.0</ele><time>2026-05-01T21:09:44.301Z</time></trkpt><trkpt lat="46.1950627" lon="11.1829872"><ele>955.6666666666666</ele><time>2026-05-01T21:09:47.282Z</time></trkpt><trkpt lat="46.1951353" lon="11.1830171"><ele>955.3333333333333</ele><time>2026-05-01T21:09:49.277Z</time></trkpt><trkpt lat="46.1952158" lon="11.1830461"><ele>955.0</ele><time>2026-05-01T21:09:51.258Z</time></trkpt><trkpt lat="46.195293" lon="11.1830573"><ele>954.9999999999999</ele><time>2026-05-01T21:09:53.304Z</time></trkpt><trkpt lat="46.1953598" lon="11.1830519"><ele>955.0</ele><time>2026-05-01T21:09:55.276Z</time></trkpt><trkpt lat="46.1954483" lon="11.183047"><ele>954.9999999999999</ele><time>2026-05-01T21:09:58.27Z</time></trkpt><trkpt lat="46.195523" lon="11.183028"><ele>954.9999999999999</ele><time>2026-05-01T21:10:00.256Z</time></trkpt><trkpt lat="46.1955911" lon="11.1829919"><ele>955.0</ele><time>2026-05-01T21:10:03.283Z</time></trkpt><trkpt lat="46.1956092" lon="11.1828834"><ele>954.9999999999999</ele><time>2026-05-01T21:10:07.281Z</time></trkpt><trkpt lat="46.1956065" lon="11.182785"><ele>954.9999999999999</ele><time>2026-05-01T21:10:11.272Z</time></trkpt><trkpt lat="46.1956372" lon="11.1826661"><ele>954.9999999999999</ele><time>2026-05-01T21:10:15.282Z</time></trkpt><trkpt lat="46.1956586" lon="11.1825765"><ele>955.0</ele><time>2026-05-01T21:10:17.289Z</time></trkpt><trkpt lat="46.1956599" lon="11.1824656"><ele>954.9999999999999</ele><time>2026-05-01T21:10:19.302Z</time></trkpt><trkpt lat="46.1956681" lon="11.1823743"><ele>954.9999999999999</ele><time>2026-05-01T21:10:21.292Z</time></trkpt><trkpt lat="46.1956891" lon="11.1822676"><ele>955.0</ele><time>2026-05-01T21:10:23.293Z</time></trkpt><trkpt lat="46.1957158" lon="11.1821807"><ele>954.9999999999999</ele><time>2026-05-01T21:10:25.282Z</time></trkpt><trkpt lat="46.1957273" lon="11.1820572"><ele>954.9999999999999</ele><time>2026-05-01T21:10:27.277Z</time></trkpt><trkpt lat="46.1957389" lon="11.1819363"><ele>955.1666666666666</ele><time>2026-05-01T21:10:29.277Z</time></trkpt><trkpt lat="46.1957386" lon="11.1818407"><ele>955.3333333333333</ele><time>2026-05-01T21:10:31.312Z</time></trkpt><trkpt lat="46.1957262" lon="11.1816922"><ele>955.5</ele><time>2026-05-01T21:10:33.301Z</time></trkpt><trkpt lat="46.1957126" lon="11.1815824"><ele>955.6666666666667</ele><time>2026-05-01T21:10:35.286Z</time></trkpt><trkpt lat="46.195708" lon="11.1814729"><ele>955.8333333333334</ele><time>2026-05-01T21:10:37.303Z</time></trkpt><trkpt lat="46.1956856" lon="11.1813619"><ele>956.0</ele><time>2026-05-01T21:10:39.283Z</time></trkpt><trkpt lat="46.1956501" lon="11.1812493"><ele>955.1666666666667</ele><time>2026-05-01T21:10:41.31Z</time></trkpt><trkpt lat="46.1956442" lon="11.1811456"><ele>954.3333333333334</ele><time>2026-05-01T21:10:43.313Z</time></trkpt><trkpt lat="46.1956326" lon="11.1810179"><ele>953.5</ele><time>2026-05-01T21:10:46.305Z</time></trkpt><trkpt lat="46.1956321" lon="11.1808904"><ele>952.6666666666667</ele><time>2026-05-01T21:10:49.277Z</time></trkpt><trkpt lat="46.1956829" lon="11.1808141"><ele>951.8333333333334</ele><time>2026-05-01T21:10:52.294Z</time></trkpt><trkpt lat="46.1957664" lon="11.1807779"><ele>951.0</ele><time>2026-05-01T21:10:55.282Z</time></trkpt><trkpt lat="46.1958351" lon="11.180768"><ele>951.0</ele><time>2026-05-01T21:10:57.29Z</time></trkpt><trkpt lat="46.1959073" lon="11.1807086"><ele>951.0</ele><time>2026-05-01T21:11:00.275Z</time></trkpt><trkpt lat="46.1958894" lon="11.1806"><ele>951.0</ele><time>2026-05-01T21:11:03.277Z</time></trkpt><trkpt lat="46.1958161" lon="11.1805155"><ele>951.0</ele><time>2026-05-01T21:11:06.307Z</time></trkpt><trkpt lat="46.1957259" lon="11.1804126"><ele>951.0</ele><time>2026-05-01T21:11:09.283Z</time></trkpt><trkpt lat="46.1956757" lon="11.1803319"><ele>951.0</ele><time>2026-05-01T21:11:11.285Z</time></trkpt><trkpt lat="46.1956437" lon="11.1802131"><ele>950.6666666666666</ele><time>2026-05-01T21:11:14.295Z</time></trkpt><trkpt lat="46.1956268" lon="11.1801122"><ele>950.3333333333333</ele><time>2026-05-01T21:11:16.332Z</time></trkpt><trkpt lat="46.1956101" lon="11.1799917"><ele>950.0</ele><time>2026-05-01T21:11:19.285Z</time></trkpt><trkpt lat="46.1956129" lon="11.1798771"><ele>949.6666666666666</ele><time>2026-05-01T21:11:23.305Z</time></trkpt><trkpt lat="46.1956154" lon="11.1797547"><ele>949.3333333333333</ele><time>2026-05-01T21:11:26.292Z</time></trkpt><trkpt lat="46.1956402" lon="11.1796693"><ele>949.0</ele><time>2026-05-01T21:11:28.282Z</time></trkpt><trkpt lat="46.1956979" lon="11.1796036"><ele>949.0</ele><time>2026-05-01T21:11:30.288Z</time></trkpt><trkpt lat="46.1958044" lon="11.1795268"><ele>949.0000000000001</ele><time>2026-05-01T21:11:32.284Z</time></trkpt><trkpt lat="46.1958838" lon="11.1794712"><ele>949.0000000000001</ele><time>2026-05-01T21:11:34.285Z</time></trkpt><trkpt lat="46.1959675" lon="11.1794291"><ele>949.0</ele><time>2026-05-01T21:11:36.288Z</time></trkpt><trkpt lat="46.1960693" lon="11.1793898"><ele>949.0</ele><time>2026-05-01T21:11:38.297Z</time></trkpt><trkpt lat="46.1961667" lon="11.1793521"><ele>949.0</ele><time>2026-05-01T21:11:40.29Z</time></trkpt><trkpt lat="46.1963225" lon="11.179363"><ele>949.0</ele><time>2026-05-01T21:11:44.302Z</time></trkpt><trkpt lat="46.1964356" lon="11.1794022"><ele>949.0</ele><time>2026-05-01T21:11:46.306Z</time></trkpt><trkpt lat="46.1965334" lon="11.1794241"><ele>949.0</ele><time>2026-05-01T21:11:48.291Z</time></trkpt><trkpt lat="46.1966223" lon="11.179441"><ele>949.4000000000001</ele><time>2026-05-01T21:11:50.3Z</time></trkpt><trkpt lat="46.1967016" lon="11.1794514"><ele>949.8000000000001</ele><time>2026-05-01T21:11:52.274Z</time></trkpt><trkpt lat="46.1967904" lon="11.1794468"><ele>950.1999999999999</ele><time>2026-05-01T21:11:54.271Z</time></trkpt><trkpt lat="46.1968842" lon="11.1794429"><ele>950.5999999999999</ele><time>2026-05-01T21:11:56.271Z</time></trkpt><trkpt lat="46.196967" lon="11.1794617"><ele>951.0</ele><time>2026-05-01T21:11:58.255Z</time></trkpt><trkpt lat="46.1970761" lon="11.1794753"><ele>951.0</ele><time>2026-05-01T21:12:00.288Z</time></trkpt><trkpt lat="46.1971395" lon="11.1795044"><ele>950.9999999999999</ele><time>2026-05-01T21:12:01.41Z</time></trkpt><trkpt lat="46.1972435" lon="11.1795673"><ele>950.9999999999999</ele><time>2026-05-01T21:12:03.287Z</time></trkpt><trkpt lat="46.1973708" lon="11.1796266"><ele>951.0</ele><time>2026-05-01T21:12:05.291Z</time></trkpt><trkpt lat="46.1974641" lon="11.1796741"><ele>951.0</ele><time>2026-05-01T21:12:07.266Z</time></trkpt><trkpt lat="46.1975233" lon="11.179708"><ele>950.5</ele><time>2026-05-01T21:12:09.288Z</time></trkpt><trkpt lat="46.1975899" lon="11.1797718"><ele>950.0</ele><time>2026-05-01T21:12:11.301Z</time></trkpt><trkpt lat="46.1976532" lon="11.179902"><ele>949.5</ele><time>2026-05-01T21:12:14.283Z</time></trkpt><trkpt lat="46.1977006" lon="11.179982"><ele>949.0</ele><time>2026-05-01T21:12:15.298Z</time></trkpt><trkpt lat="46.1977445" lon="11.180061"><ele>948.5</ele><time>2026-05-01T21:12:16.29Z</time></trkpt><trkpt lat="46.1977862" lon="11.1801328"><ele>948.0</ele><time>2026-05-01T21:12:17.299Z</time></trkpt><trkpt lat="46.1978437" lon="11.1802716"><ele>949.4</ele><time>2026-05-01T21:12:19.392Z</time></trkpt><trkpt lat="46.1978764" lon="11.1804115"><ele>950.8</ele><time>2026-05-01T21:12:21.286Z</time></trkpt><trkpt lat="46.1978921" lon="11.1805778"><ele>952.2</ele><time>2026-05-01T21:12:23.28Z</time></trkpt><trkpt lat="46.1978979" lon="11.1807015"><ele>953.6</ele><time>2026-05-01T21:12:25.28Z</time></trkpt><trkpt lat="46.1979233" lon="11.1808156"><ele>955.0</ele><time>2026-05-01T21:12:27.296Z</time></trkpt><trkpt lat="46.1979788" lon="11.1809481"><ele>955.0</ele><time>2026-05-01T21:12:29.292Z</time></trkpt><trkpt lat="46.1980854" lon="11.1810691"><ele>955.0</ele><time>2026-05-01T21:12:31.287Z</time></trkpt><trkpt lat="46.1981616" lon="11.1812134"><ele>955.0</ele><time>2026-05-01T21:12:33.27Z</time></trkpt><trkpt lat="46.1981936" lon="11.1812947"><ele>955.0</ele><time>2026-05-01T21:12:34.302Z</time></trkpt><trkpt lat="46.1982507" lon="11.1814336"><ele>955.0</ele><time>2026-05-01T21:12:36.348Z</time></trkpt><trkpt lat="46.1983179" lon="11.1815553"><ele>955.0</ele><time>2026-05-01T21:12:38.325Z</time></trkpt><trkpt lat="46.1983872" lon="11.1816498"><ele>955.0</ele><time>2026-05-01T21:12:40.271Z</time></trkpt><trkpt lat="46.1984606" lon="11.1817418"><ele>955.0</ele><time>2026-05-01T21:12:42.292Z</time></trkpt><trkpt lat="46.198555" lon="11.1818981"><ele>955.0</ele><time>2026-05-01T21:12:45.28Z</time></trkpt><trkpt lat="46.1986155" lon="11.1820129"><ele>955.0</ele><time>2026-05-01T21:12:47.296Z</time></trkpt><trkpt lat="46.1987025" lon="11.1821443"><ele>954.9999999999999</ele><time>2026-05-01T21:12:49.28Z</time></trkpt><trkpt lat="46.1987737" lon="11.1822518"><ele>955.0</ele><time>2026-05-01T21:12:51.312Z</time></trkpt><trkpt lat="46.1988366" lon="11.1823623"><ele>955.0</ele><time>2026-05-01T21:12:53.324Z</time></trkpt><trkpt lat="46.1988889" lon="11.1824499"><ele>955.0</ele><time>2026-05-01T21:12:55.28Z</time></trkpt><trkpt lat="46.1989475" lon="11.1825241"><ele>954.9999999999999</ele><time>2026-05-01T21:12:58.3Z</time></trkpt><trkpt lat="46.1989832" lon="11.1825993"><ele>955.0</ele><time>2026-05-01T21:13:10.291Z</time></trkpt><trkpt lat="46.1990404" lon="11.1826392"><ele>955.1666666666666</ele><time>2026-05-01T21:13:17.495Z</time></trkpt><trkpt lat="46.1991185" lon="11.1826939"><ele>955.3333333333333</ele><time>2026-05-01T21:13:21.272Z</time></trkpt><trkpt lat="46.1991777" lon="11.1827369"><ele>955.5</ele><time>2026-05-01T21:13:23.29Z</time></trkpt><trkpt lat="46.1992374" lon="11.1827928"><ele>955.6666666666667</ele><time>2026-05-01T21:13:26.291Z</time></trkpt><trkpt lat="46.1992899" lon="11.1828957"><ele>955.8333333333334</ele><time>2026-05-01T21:13:29.318Z</time></trkpt><trkpt lat="46.1993379" lon="11.1830139"><ele>956.0</ele><time>2026-05-01T21:13:31.329Z</time></trkpt><trkpt lat="46.1993681" lon="11.1831699"><ele>956.5999999999999</ele><time>2026-05-01T21:13:33.283Z</time></trkpt><trkpt lat="46.1994028" lon="11.1833651"><ele>957.1999999999999</ele><time>2026-05-01T21:13:35.313Z</time></trkpt><trkpt lat="46.1994052" lon="11.183471"><ele>957.8000000000001</ele><time>2026-05-01T21:13:36.336Z</time></trkpt><trkpt lat="46.1994104" lon="11.1835766"><ele>958.4000000000001</ele><time>2026-05-01T21:13:37.32Z</time></trkpt><trkpt lat="46.1994127" lon="11.1836727"><ele>959.0</ele><time>2026-05-01T21:13:38.33Z</time></trkpt><trkpt lat="46.1994156" lon="11.1838362"><ele>959.0</ele><time>2026-05-01T21:13:40.31Z</time></trkpt><trkpt lat="46.1993928" lon="11.1840019"><ele>959.0000000000001</ele><time>2026-05-01T21:13:42.316Z</time></trkpt><trkpt lat="46.199363" lon="11.1841377"><ele>959.0000000000001</ele><time>2026-05-01T21:13:44.302Z</time></trkpt><trkpt lat="46.1993365" lon="11.1842547"><ele>959.0</ele><time>2026-05-01T21:13:47.309Z</time></trkpt><trkpt lat="46.1993205" lon="11.1843585"><ele>959.0</ele><time>2026-05-01T21:13:50.327Z</time></trkpt><trkpt lat="46.1993367" lon="11.1844764"><ele>958.6</ele><time>2026-05-01T21:13:54.313Z</time></trkpt><trkpt lat="46.1994965" lon="11.1845417"><ele>958.2</ele><time>2026-05-01T21:13:59.296Z</time></trkpt><trkpt lat="46.1995744" lon="11.1845899"><ele>957.8000000000001</ele><time>2026-05-01T21:14:01.297Z</time></trkpt><trkpt lat="46.1996399" lon="11.1846545"><ele>957.4000000000001</ele><time>2026-05-01T21:14:03.312Z</time></trkpt><trkpt lat="46.1996991" lon="11.1847154"><ele>957.0</ele><time>2026-05-01T21:14:05.317Z</time></trkpt><trkpt lat="46.1997331" lon="11.1847997"><ele>957.75</ele><time>2026-05-01T21:14:07.32Z</time></trkpt><trkpt lat="46.1997488" lon="11.1849314"><ele>958.5</ele><time>2026-05-01T21:14:09.322Z</time></trkpt><trkpt lat="46.1997343" lon="11.1850818"><ele>959.25</ele><time>2026-05-01T21:14:11.323Z</time></trkpt><trkpt lat="46.1997027" lon="11.1853061"><ele>960.0</ele><time>2026-05-01T21:14:13.328Z</time></trkpt><trkpt lat="46.1997234" lon="11.185443"><ele>960.0</ele><time>2026-05-01T21:14:15.355Z</time></trkpt><trkpt lat="46.1997459" lon="11.1856049"><ele>960.0</ele><time>2026-05-01T21:14:17.321Z</time></trkpt><trkpt lat="46.1997481" lon="11.1857975"><ele>960.0</ele><time>2026-05-01T21:14:19.329Z</time></trkpt><trkpt lat="46.1997639" lon="11.1859626"><ele>960.0</ele><time>2026-05-01T21:14:21.363Z</time></trkpt><trkpt lat="46.19976" lon="11.1861174"><ele>961.0</ele><time>2026-05-01T21:14:23.334Z</time></trkpt><trkpt lat="46.1997781" lon="11.1862483"><ele>962.0</ele><time>2026-05-01T21:14:25.335Z</time></trkpt><trkpt lat="46.1998169" lon="11.1863609"><ele>963.0</ele><time>2026-05-01T21:14:27.446Z</time></trkpt><trkpt lat="46.1998639" lon="11.1864812"><ele>964.0</ele><time>2026-05-01T21:14:29.334Z</time></trkpt><trkpt lat="46.1998994" lon="11.1866188"><ele>965.0</ele><time>2026-05-01T21:14:31.351Z</time></trkpt><trkpt lat="46.1999293" lon="11.1867574"><ele>966.1666666666667</ele><time>2026-05-01T21:14:33.304Z</time></trkpt><trkpt lat="46.1999486" lon="11.1868583"><ele>967.3333333333334</ele><time>2026-05-01T21:14:35.314Z</time></trkpt><trkpt lat="46.1999792" lon="11.1869923"><ele>968.5</ele><time>2026-05-01T21:14:37.336Z</time></trkpt><trkpt lat="46.2000103" lon="11.1871256"><ele>969.6666666666667</ele><time>2026-05-01T21:14:39.354Z</time></trkpt><trkpt lat="46.200025" lon="11.1872296"><ele>970.8333333333334</ele><time>2026-05-01T21:14:41.352Z</time></trkpt><trkpt lat="46.2000085" lon="11.1873618"><ele>972.0</ele><time>2026-05-01T21:14:43.283Z</time></trkpt><trkpt lat="46.1999948" lon="11.1874921"><ele>973.0</ele><time>2026-05-01T21:14:45.284Z</time></trkpt><trkpt lat="46.1999584" lon="11.1876121"><ele>974.0</ele><time>2026-05-01T21:14:47.292Z</time></trkpt><trkpt lat="46.1999127" lon="11.1876964"><ele>975.0</ele><time>2026-05-01T21:14:49.274Z</time></trkpt><trkpt lat="46.1998428" lon="11.1877654"><ele>976.0</ele><time>2026-05-01T21:14:51.29Z</time></trkpt><trkpt lat="46.1997472" lon="11.1878568"><ele>977.0</ele><time>2026-05-01T21:14:53.283Z</time></trkpt><trkpt lat="46.199697" lon="11.1879219"><ele>978.0</ele><time>2026-05-01T21:14:54.293Z</time></trkpt><trkpt lat="46.1996116" lon="11.1880344"><ele>978.0</ele><time>2026-05-01T21:14:56.287Z</time></trkpt><trkpt lat="46.1995414" lon="11.1881597"><ele>978.0</ele><time>2026-05-01T21:14:58.273Z</time></trkpt><trkpt lat="46.1995159" lon="11.188254"><ele>978.0</ele><time>2026-05-01T21:15:00.289Z</time></trkpt><trkpt lat="46.1995072" lon="11.1883636"><ele>978.0</ele><time>2026-05-01T21:15:02.29Z</time></trkpt><trkpt lat="46.1995333" lon="11.1884769"><ele>978.0</ele><time>2026-05-01T21:15:04.29Z</time></trkpt><trkpt lat="46.1995932" lon="11.1885327"><ele>978.0</ele><time>2026-05-01T21:15:06.282Z</time></trkpt><trkpt lat="46.1996859" lon="11.1885674"><ele>979.4</ele><time>2026-05-01T21:15:09.316Z</time></trkpt><trkpt lat="46.1997827" lon="11.1885476"><ele>980.8</ele><time>2026-05-01T21:15:11.268Z</time></trkpt><trkpt lat="46.1998745" lon="11.188528"><ele>982.2</ele><time>2026-05-01T21:15:13.294Z</time></trkpt><trkpt lat="46.1999828" lon="11.1885535"><ele>983.6</ele><time>2026-05-01T21:15:15.314Z</time></trkpt><trkpt lat="46.2000794" lon="11.1886091"><ele>985.0</ele><time>2026-05-01T21:15:17.302Z</time></trkpt><trkpt lat="46.2001171" lon="11.1887455"><ele>985.8</ele><time>2026-05-01T21:15:20.327Z</time></trkpt><trkpt lat="46.2000919" lon="11.1888742"><ele>986.6</ele><time>2026-05-01T21:15:22.34Z</time></trkpt><trkpt lat="46.2000871" lon="11.1890169"><ele>987.4000000000001</ele><time>2026-05-01T21:15:24.335Z</time></trkpt><trkpt lat="46.2000318" lon="11.1891285"><ele>988.2</ele><time>2026-05-01T21:15:26.3Z</time></trkpt><trkpt lat="46.1999346" lon="11.1892511"><ele>989.0</ele><time>2026-05-01T21:15:28.336Z</time></trkpt><trkpt lat="46.1998872" lon="11.1893331"><ele>990.1666666666667</ele><time>2026-05-01T21:15:29.353Z</time></trkpt><trkpt lat="46.1998276" lon="11.1894314"><ele>991.3333333333334</ele><time>2026-05-01T21:15:31.457Z</time></trkpt><trkpt lat="46.1997777" lon="11.1895338"><ele>992.5</ele><time>2026-05-01T21:15:34.336Z</time></trkpt><trkpt lat="46.1997201" lon="11.1895737"><ele>993.6666666666667</ele><time>2026-05-01T21:15:37.353Z</time></trkpt><trkpt lat="46.1996279" lon="11.1895902"><ele>994.8333333333334</ele><time>2026-05-01T21:15:39.365Z</time></trkpt><trkpt lat="46.1995241" lon="11.189606"><ele>996.0</ele><time>2026-05-01T21:15:42.364Z</time></trkpt><trkpt lat="46.1994311" lon="11.1896763"><ele>996.0</ele><time>2026-05-01T21:15:44.329Z</time></trkpt><trkpt lat="46.1993467" lon="11.1897368"><ele>996.0</ele><time>2026-05-01T21:15:46.35Z</time></trkpt><trkpt lat="46.1992612" lon="11.189763"><ele>996.0</ele><time>2026-05-01T21:15:48.368Z</time></trkpt><trkpt lat="46.1991462" lon="11.1897818"><ele>996.0</ele><time>2026-05-01T21:15:50.33Z</time></trkpt><trkpt lat="46.1990769" lon="11.1897999"><ele>996.0</ele><time>2026-05-01T21:15:51.312Z</time></trkpt><trkpt lat="46.1990122" lon="11.18982"><ele>996.0</ele><time>2026-05-01T21:15:52.303Z</time></trkpt><trkpt lat="46.1989481" lon="11.1898408"><ele>996.1999999999999</ele><time>2026-05-01T21:15:53.331Z</time></trkpt><trkpt lat="46.1988746" lon="11.1898822"><ele>996.3999999999999</ele><time>2026-05-01T21:15:54.334Z</time></trkpt><trkpt lat="46.1988128" lon="11.1899021"><ele>996.6</ele><time>2026-05-01T21:15:55.317Z</time></trkpt><trkpt lat="46.1987223" lon="11.1898872"><ele>996.8</ele><time>2026-05-01T21:15:57.32Z</time></trkpt><trkpt lat="46.1986325" lon="11.1898502"><ele>997.0</ele><time>2026-05-01T21:15:59.327Z</time></trkpt><trkpt lat="46.1985103" lon="11.1897848"><ele>996.9999999999999</ele><time>2026-05-01T21:16:01.364Z</time></trkpt><trkpt lat="46.1984543" lon="11.1897421"><ele>997.0</ele><time>2026-05-01T21:16:02.314Z</time></trkpt><trkpt lat="46.198353" lon="11.1896981"><ele>997.0</ele><time>2026-05-01T21:16:04.332Z</time></trkpt><trkpt lat="46.1982569" lon="11.1897157"><ele>997.0</ele><time>2026-05-01T21:16:06.346Z</time></trkpt><trkpt lat="46.1981927" lon="11.1897609"><ele>996.9999999999999</ele><time>2026-05-01T21:16:07.407Z</time></trkpt><trkpt lat="46.1980934" lon="11.1898319"><ele>997.0</ele><time>2026-05-01T21:16:09.345Z</time></trkpt><trkpt lat="46.1979732" lon="11.1898454"><ele>998.4000000000001</ele><time>2026-05-01T21:16:11.316Z</time></trkpt><trkpt lat="46.1978531" lon="11.1898268"><ele>999.8000000000001</ele><time>2026-05-01T21:16:13.331Z</time></trkpt><trkpt lat="46.1977472" lon="11.189826"><ele>1001.2</ele><time>2026-05-01T21:16:15.339Z</time></trkpt><trkpt lat="46.1976392" lon="11.1898398"><ele>1002.6</ele><time>2026-05-01T21:16:17.361Z</time></trkpt><trkpt lat="46.1975748" lon="11.1898485"><ele>1004.0</ele><time>2026-05-01T21:16:18.332Z</time></trkpt><trkpt lat="46.1975064" lon="11.1898595"><ele>1004.8333333333334</ele><time>2026-05-01T21:16:19.362Z</time></trkpt><trkpt lat="46.1974322" lon="11.1898655"><ele>1005.6666666666667</ele><time>2026-05-01T21:16:20.329Z</time></trkpt><trkpt lat="46.19736" lon="11.1898757"><ele>1006.5</ele><time>2026-05-01T21:16:21.331Z</time></trkpt><trkpt lat="46.1972899" lon="11.1898894"><ele>1007.3333333333333</ele><time>2026-05-01T21:16:22.32Z</time></trkpt><trkpt lat="46.1971987" lon="11.1899134"><ele>1008.1666666666666</ele><time>2026-05-01T21:16:24.313Z</time></trkpt><trkpt lat="46.1971208" lon="11.189935"><ele>1009.0</ele><time>2026-05-01T21:16:26.325Z</time></trkpt><trkpt lat="46.1970594" lon="11.189966"><ele>1010.3333333333333</ele><time>2026-05-01T21:16:27.337Z</time></trkpt><trkpt lat="46.1969959" lon="11.1899901"><ele>1011.6666666666666</ele><time>2026-05-01T21:16:28.37Z</time></trkpt><trkpt lat="46.1968688" lon="11.1900344"><ele>1013.0</ele><time>2026-05-01T21:16:30.352Z</time></trkpt><trkpt lat="46.1968035" lon="11.1900623"><ele>1014.3333333333333</ele><time>2026-05-01T21:16:31.338Z</time></trkpt><trkpt lat="46.1966983" lon="11.1901445"><ele>1015.6666666666666</ele><time>2026-05-01T21:16:33.325Z</time></trkpt><trkpt lat="46.1966443" lon="11.1901977"><ele>1017.0</ele><time>2026-05-01T21:16:34.321Z</time></trkpt><trkpt lat="46.1965769" lon="11.1902658"><ele>1017.0</ele><time>2026-05-01T21:16:35.329Z</time></trkpt><trkpt lat="46.1965181" lon="11.1903386"><ele>1016.9999999999999</ele><time>2026-05-01T21:16:36.327Z</time></trkpt><trkpt lat="46.1964682" lon="11.1904138"><ele>1017.0</ele><time>2026-05-01T21:16:37.34Z</time></trkpt><trkpt lat="46.1964168" lon="11.190481"><ele>1017.0</ele><time>2026-05-01T21:16:38.344Z</time></trkpt><trkpt lat="46.1963628" lon="11.1905438"><ele>1016.9999999999999</ele><time>2026-05-01T21:16:39.371Z</time></trkpt><trkpt lat="46.1963084" lon="11.1906066"><ele>1017.0</ele><time>2026-05-01T21:16:40.326Z</time></trkpt><trkpt lat="46.1962454" lon="11.1906756"><ele>1017.0</ele><time>2026-05-01T21:16:41.342Z</time></trkpt><trkpt lat="46.1961892" lon="11.1907343"><ele>1018.4285714285713</ele><time>2026-05-01T21:16:42.307Z</time></trkpt><trkpt lat="46.196128" lon="11.1908043"><ele>1019.8571428571428</ele><time>2026-05-01T21:16:43.293Z</time></trkpt><trkpt lat="46.1960666" lon="11.1908859"><ele>1021.2857142857142</ele><time>2026-05-01T21:16:44.333Z</time></trkpt><trkpt lat="46.1960078" lon="11.1909547"><ele>1022.7142857142858</ele><time>2026-05-01T21:16:45.289Z</time></trkpt><trkpt lat="46.1959491" lon="11.1910148"><ele>1024.1428571428573</ele><time>2026-05-01T21:16:46.298Z</time></trkpt><trkpt lat="46.1958919" lon="11.1910778"><ele>1025.5714285714287</ele><time>2026-05-01T21:16:47.325Z</time></trkpt><trkpt lat="46.1958408" lon="11.1911411"><ele>1027.0</ele><time>2026-05-01T21:16:48.304Z</time></trkpt><trkpt lat="46.1957895" lon="11.1912087"><ele>1027.0</ele><time>2026-05-01T21:16:49.291Z</time></trkpt><trkpt lat="46.1957333" lon="11.1912801"><ele>1027.0</ele><time>2026-05-01T21:16:50.294Z</time></trkpt><trkpt lat="46.1956884" lon="11.1913629"><ele>1027.0</ele><time>2026-05-01T21:16:51.287Z</time></trkpt><trkpt lat="46.1956585" lon="11.191455"><ele>1027.0</ele><time>2026-05-01T21:16:52.3Z</time></trkpt><trkpt lat="46.195632" lon="11.1915422"><ele>1027.0</ele><time>2026-05-01T21:16:53.289Z</time></trkpt><trkpt lat="46.1956039" lon="11.1916303"><ele>1027.0</ele><time>2026-05-01T21:16:54.292Z</time></trkpt><trkpt lat="46.195573" lon="11.1917104"><ele>1027.0</ele><time>2026-05-01T21:16:55.292Z</time></trkpt><trkpt lat="46.1955021" lon="11.1918515"><ele>1028.75</ele><time>2026-05-01T21:16:57.31Z</time></trkpt><trkpt lat="46.1954172" lon="11.19197"><ele>1030.5</ele><time>2026-05-01T21:16:59.276Z</time></trkpt><trkpt lat="46.1953429" lon="11.1921118"><ele>1032.25</ele><time>2026-05-01T21:17:01.309Z</time></trkpt><trkpt lat="46.1952653" lon="11.1922166"><ele>1034.0</ele><time>2026-05-01T21:17:03.304Z</time></trkpt><trkpt lat="46.1951849" lon="11.1923243"><ele>1032.5</ele><time>2026-05-01T21:17:05.287Z</time></trkpt><trkpt lat="46.1951298" lon="11.1923765"><ele>1031.0</ele><time>2026-05-01T21:17:06.294Z</time></trkpt><trkpt lat="46.1950399" lon="11.1924615"><ele>1029.5</ele><time>2026-05-01T21:17:08.287Z</time></trkpt><trkpt lat="46.1949623" lon="11.1925529"><ele>1028.0</ele><time>2026-05-01T21:17:10.272Z</time></trkpt><trkpt lat="46.194895" lon="11.1926151"><ele>1026.5</ele><time>2026-05-01T21:17:12.287Z</time></trkpt><trkpt lat="46.1948165" lon="11.1926707"><ele>1025.0</ele><time>2026-05-01T21:17:14.29Z</time></trkpt><trkpt lat="46.1947304" lon="11.1927477"><ele>1025.0</ele><time>2026-05-01T21:17:16.302Z</time></trkpt><trkpt lat="46.1946244" lon="11.1927829"><ele>1025.0</ele><time>2026-05-01T21:17:18.274Z</time></trkpt><trkpt lat="46.1945503" lon="11.1927933"><ele>1025.0</ele><time>2026-05-01T21:17:19.306Z</time></trkpt><trkpt lat="46.1944798" lon="11.19279"><ele>1025.0</ele><time>2026-05-01T21:17:20.286Z</time></trkpt><trkpt lat="46.1944241" lon="11.1927368"><ele>1025.0</ele><time>2026-05-01T21:17:21.275Z</time></trkpt><trkpt lat="46.1943793" lon="11.1926698"><ele>1025.0</ele><time>2026-05-01T21:17:22.298Z</time></trkpt><trkpt lat="46.1942994" lon="11.192512"><ele>1025.0</ele><time>2026-05-01T21:17:24.293Z</time></trkpt><trkpt lat="46.194261" lon="11.1923464"><ele>1025.0</ele><time>2026-05-01T21:17:26.294Z</time></trkpt><trkpt lat="46.194245" lon="11.1922456"><ele>1025.0</ele><time>2026-05-01T21:17:27.323Z</time></trkpt><trkpt lat="46.1942219" lon="11.1921581"><ele>1025.0</ele><time>2026-05-01T21:17:28.297Z</time></trkpt><trkpt lat="46.1941707" lon="11.1920209"><ele>1025.0</ele><time>2026-05-01T21:17:30.298Z</time></trkpt><trkpt lat="46.1940809" lon="11.1919176"><ele>1026.6666666666667</ele><time>2026-05-01T21:17:32.304Z</time></trkpt><trkpt lat="46.1939954" lon="11.1918181"><ele>1028.3333333333335</ele><time>2026-05-01T21:17:34.301Z</time></trkpt><trkpt lat="46.1939403" lon="11.1917684"><ele>1030.0</ele><time>2026-05-01T21:17:36.297Z</time></trkpt><trkpt lat="46.1939073" lon="11.1916836"><ele>1031.6666666666667</ele><time>2026-05-01T21:18:00.278Z</time></trkpt><trkpt lat="46.1939166" lon="11.1917767"><ele>1033.3333333333333</ele><time>2026-05-01T21:18:40.282Z</time></trkpt><trkpt lat="46.1939908" lon="11.1918455"><ele>1035.0</ele><time>2026-05-01T21:18:43.292Z</time></trkpt><trkpt lat="46.1940455" lon="11.1919007"><ele>1035.0</ele><time>2026-05-01T21:18:45.321Z</time></trkpt><trkpt lat="46.1941109" lon="11.1919444"><ele>1035.0</ele><time>2026-05-01T21:18:47.339Z</time></trkpt><trkpt lat="46.1941718" lon="11.1919959"><ele>1035.0</ele><time>2026-05-01T21:18:49.296Z</time></trkpt><trkpt lat="46.1942247" lon="11.1920702"><ele>1035.0</ele><time>2026-05-01T21:18:51.33Z</time></trkpt><trkpt lat="46.1942569" lon="11.1921696"><ele>1035.0</ele><time>2026-05-01T21:18:53.294Z</time></trkpt><trkpt lat="46.1942696" lon="11.1922859"><ele>1035.0</ele><time>2026-05-01T21:18:55.326Z</time></trkpt><trkpt lat="46.1942741" lon="11.1923962"><ele>1033.5714285714284</ele><time>2026-05-01T21:18:57.331Z</time></trkpt><trkpt lat="46.1942792" lon="11.1924914"><ele>1032.142857142857</ele><time>2026-05-01T21:18:59.312Z</time></trkpt><trkpt lat="46.1942921" lon="11.1926066"><ele>1030.7142857142858</ele><time>2026-05-01T21:19:01.297Z</time></trkpt><trkpt lat="46.1943263" lon="11.1927069"><ele>1029.2857142857142</ele><time>2026-05-01T21:19:03.322Z</time></trkpt><trkpt lat="46.1943877" lon="11.1927698"><ele>1027.857142857143</ele><time>2026-05-01T21:19:05.322Z</time></trkpt><trkpt lat="46.194455" lon="11.1927999"><ele>1026.4285714285713</ele><time>2026-05-01T21:19:07.303Z</time></trkpt><trkpt lat="46.1945255" lon="11.1928106"><ele>1025.0</ele><time>2026-05-01T21:19:10.304Z</time></trkpt><trkpt lat="46.1945954" lon="11.1927774"><ele>1024.9999999999998</ele><time>2026-05-01T21:19:42.314Z</time></trkpt><trkpt lat="46.1946867" lon="11.1927752"><ele>1025.0</ele><time>2026-05-01T21:19:45.318Z</time></trkpt><trkpt lat="46.194732" lon="11.1927063"><ele>1025.0</ele><time>2026-05-01T21:19:50.307Z</time></trkpt><trkpt lat="46.1946659" lon="11.1927328"><ele>1025.0</ele><time>2026-05-01T21:19:53.373Z</time></trkpt><trkpt lat="46.1946282" lon="11.1928224"><ele>1025.0</ele><time>2026-05-01T21:19:58.289Z</time></trkpt><trkpt lat="46.1945602" lon="11.1928727"><ele>1024.9999999999998</ele><time>2026-05-01T21:20:28.295Z</time></trkpt><trkpt lat="46.1945079" lon="11.1929252"><ele>1025.0</ele><time>2026-05-01T21:20:30.291Z</time></trkpt><trkpt lat="46.1944521" lon="11.19298"><ele>1024.9999999999998</ele><time>2026-05-01T21:20:32.283Z</time></trkpt><trkpt lat="46.1943913" lon="11.1930347"><ele>1025.0</ele><time>2026-05-01T21:20:34.302Z</time></trkpt><trkpt lat="46.1943318" lon="11.1930783"><ele>1025.0</ele><time>2026-05-01T21:20:36.297Z</time></trkpt><trkpt lat="46.1942766" lon="11.1931262"><ele>1025.0</ele><time>2026-05-01T21:20:38.31Z</time></trkpt><trkpt lat="46.194217" lon="11.1931707"><ele>1025.0</ele><time>2026-05-01T21:20:40.296Z</time></trkpt><trkpt lat="46.1941568" lon="11.19322"><ele>1024.9999999999998</ele><time>2026-05-01T21:20:42.316Z</time></trkpt><trkpt lat="46.1940793" lon="11.1932627"><ele>1025.0</ele><time>2026-05-01T21:20:44.304Z</time></trkpt><trkpt lat="46.1940051" lon="11.1932732"><ele>1024.5</ele><time>2026-05-01T21:20:46.279Z</time></trkpt><trkpt lat="46.1939333" lon="11.1932821"><ele>1024.0</ele><time>2026-05-01T21:20:48.305Z</time></trkpt><trkpt lat="46.1938521" lon="11.1933064"><ele>1023.5</ele><time>2026-05-01T21:20:50.287Z</time></trkpt><trkpt lat="46.1937775" lon="11.1933358"><ele>1023.0</ele><time>2026-05-01T21:20:52.303Z</time></trkpt><trkpt lat="46.1937015" lon="11.1933608"><ele>1022.5000000000001</ele><time>2026-05-01T21:20:54.292Z</time></trkpt><trkpt lat="46.1936207" lon="11.1934113"><ele>1022.0</ele><time>2026-05-01T21:20:56.306Z</time></trkpt><trkpt lat="46.1935636" lon="11.1934791"><ele>1022.0</ele><time>2026-05-01T21:20:58.297Z</time></trkpt><trkpt lat="46.19349" lon="11.1935713"><ele>1022.0</ele><time>2026-05-01T21:21:00.27Z</time></trkpt><trkpt lat="46.193428" lon="11.193653"><ele>1022.0</ele><time>2026-05-01T21:21:02.277Z</time></trkpt><trkpt lat="46.1933559" lon="11.1937483"><ele>1022.0</ele><time>2026-05-01T21:21:04.285Z</time></trkpt><trkpt lat="46.1933039" lon="11.1938393"><ele>1022.0</ele><time>2026-05-01T21:21:06.319Z</time></trkpt><trkpt lat="46.1932225" lon="11.193947"><ele>1021.3333333333334</ele><time>2026-05-01T21:21:08.31Z</time></trkpt><trkpt lat="46.1931577" lon="11.1940467"><ele>1020.6666666666667</ele><time>2026-05-01T21:21:10.281Z</time></trkpt><trkpt lat="46.1930703" lon="11.1941586"><ele>1020.0</ele><time>2026-05-01T21:21:13.294Z</time></trkpt><trkpt lat="46.1930087" lon="11.194224"><ele>1019.3333333333333</ele><time>2026-05-01T21:21:15.291Z</time></trkpt><trkpt lat="46.192956" lon="11.194282"><ele>1018.6666666666666</ele><time>2026-05-01T21:21:17.299Z</time></trkpt><trkpt lat="46.192908" lon="11.1943409"><ele>1018.0</ele><time>2026-05-01T21:21:19.302Z</time></trkpt><trkpt lat="46.1928079" lon="11.1944346"><ele>1017.9999999999999</ele><time>2026-05-01T21:21:22.312Z</time></trkpt><trkpt lat="46.192738" lon="11.1944866"><ele>1018.0</ele><time>2026-05-01T21:21:24.292Z</time></trkpt><trkpt lat="46.1926641" lon="11.1945311"><ele>1018.0</ele><time>2026-05-01T21:21:26.283Z</time></trkpt><trkpt lat="46.1925651" lon="11.1945607"><ele>1018.0</ele><time>2026-05-01T21:21:28.307Z</time></trkpt><trkpt lat="46.192474" lon="11.1945802"><ele>1017.9999999999999</ele><time>2026-05-01T21:21:30.295Z</time></trkpt><trkpt lat="46.1923881" lon="11.1946232"><ele>1018.0</ele><time>2026-05-01T21:21:32.292Z</time></trkpt><trkpt lat="46.1923122" lon="11.1946846"><ele>1015.8333333333333</ele><time>2026-05-01T21:21:34.285Z</time></trkpt><trkpt lat="46.1922476" lon="11.1947335"><ele>1013.6666666666666</ele><time>2026-05-01T21:21:36.3Z</time></trkpt><trkpt lat="46.1921706" lon="11.1947869"><ele>1011.5</ele><time>2026-05-01T21:21:38.326Z</time></trkpt><trkpt lat="46.1920888" lon="11.1948407"><ele>1009.3333333333333</ele><time>2026-05-01T21:21:40.308Z</time></trkpt><trkpt lat="46.1920172" lon="11.1949192"><ele>1007.1666666666666</ele><time>2026-05-01T21:21:42.302Z</time></trkpt><trkpt lat="46.1919381" lon="11.1949922"><ele>1005.0</ele><time>2026-05-01T21:21:44.294Z</time></trkpt><trkpt lat="46.191814" lon="11.1951024"><ele>1000.8333333333334</ele><time>2026-05-01T21:21:47.311Z</time></trkpt><trkpt lat="46.1917623" lon="11.1951892"><ele>996.6666666666667</ele><time>2026-05-01T21:21:49.307Z</time></trkpt><trkpt lat="46.1917375" lon="11.1952817"><ele>992.5</ele><time>2026-05-01T21:21:51.293Z</time></trkpt><trkpt lat="46.1917321" lon="11.1954001"><ele>988.3333333333334</ele><time>2026-05-01T21:21:54.346Z</time></trkpt><trkpt lat="46.1917552" lon="11.1955403"><ele>984.1666666666667</ele><time>2026-05-01T21:21:56.314Z</time></trkpt><trkpt lat="46.1917882" lon="11.195661"><ele>980.0</ele><time>2026-05-01T21:21:58.302Z</time></trkpt><trkpt lat="46.1918221" lon="11.1957801"><ele>978.5000000000001</ele><time>2026-05-01T21:22:01.296Z</time></trkpt><trkpt lat="46.1918603" lon="11.1958831"><ele>977.0</ele><time>2026-05-01T21:22:03.306Z</time></trkpt><trkpt lat="46.1918695" lon="11.1960143"><ele>975.5</ele><time>2026-05-01T21:22:05.326Z</time></trkpt><trkpt lat="46.1918598" lon="11.1961149"><ele>974.0</ele><time>2026-05-01T21:22:07.29Z</time></trkpt><trkpt lat="46.1918185" lon="11.1962152"><ele>972.5000000000001</ele><time>2026-05-01T21:22:09.29Z</time></trkpt><trkpt lat="46.1917505" lon="11.1963032"><ele>971.0</ele><time>2026-05-01T21:22:11.305Z</time></trkpt><trkpt lat="46.1916841" lon="11.1963944"><ele>972.1666666666667</ele><time>2026-05-01T21:22:13.284Z</time></trkpt><trkpt lat="46.1916451" lon="11.1965092"><ele>973.3333333333334</ele><time>2026-05-01T21:22:15.29Z</time></trkpt><trkpt lat="46.1916105" lon="11.1966059"><ele>974.5</ele><time>2026-05-01T21:22:17.31Z</time></trkpt><trkpt lat="46.1915699" lon="11.1966827"><ele>975.6666666666667</ele><time>2026-05-01T21:22:19.309Z</time></trkpt><trkpt lat="46.1915184" lon="11.196755"><ele>976.8333333333334</ele><time>2026-05-01T21:23:31.29Z</time></trkpt><trkpt lat="46.1914534" lon="11.1968592"><ele>978.0</ele><time>2026-05-01T21:23:34.33Z</time></trkpt><trkpt lat="46.1913772" lon="11.1969627"><ele>974.2</ele><time>2026-05-01T21:23:36.293Z</time></trkpt><trkpt lat="46.1912933" lon="11.197079"><ele>970.4</ele><time>2026-05-01T21:23:38.289Z</time></trkpt><trkpt lat="46.1912432" lon="11.1971398"><ele>966.6000000000001</ele><time>2026-05-01T21:23:39.297Z</time></trkpt><trkpt lat="46.191184" lon="11.1972117"><ele>962.8000000000001</ele><time>2026-05-01T21:23:40.419Z</time></trkpt><trkpt lat="46.1910764" lon="11.1973371"><ele>959.0</ele><time>2026-05-01T21:23:42.317Z</time></trkpt><trkpt lat="46.1910189" lon="11.1974039"><ele>959.0000000000001</ele><time>2026-05-01T21:23:43.295Z</time></trkpt><trkpt lat="46.1909606" lon="11.197473"><ele>959.0</ele><time>2026-05-01T21:23:44.304Z</time></trkpt><trkpt lat="46.1909075" lon="11.1975412"><ele>959.0</ele><time>2026-05-01T21:23:45.307Z</time></trkpt><trkpt lat="46.1908526" lon="11.1976089"><ele>959.0</ele><time>2026-05-01T21:23:46.302Z</time></trkpt><trkpt lat="46.1907932" lon="11.1976794"><ele>959.0000000000001</ele><time>2026-05-01T21:23:47.318Z</time></trkpt><trkpt lat="46.1907316" lon="11.1977529"><ele>959.0</ele><time>2026-05-01T21:23:48.325Z</time></trkpt><trkpt lat="46.1906713" lon="11.1978253"><ele>956.1666666666667</ele><time>2026-05-01T21:23:49.292Z</time></trkpt><trkpt lat="46.1906073" lon="11.1979023"><ele>953.3333333333334</ele><time>2026-05-01T21:23:50.307Z</time></trkpt><trkpt lat="46.1905399" lon="11.1979802"><ele>950.5</ele><time>2026-05-01T21:23:51.309Z</time></trkpt><trkpt lat="46.190471" lon="11.1980577"><ele>947.6666666666667</ele><time>2026-05-01T21:23:52.309Z</time></trkpt><trkpt lat="46.1904092" lon="11.1981315"><ele>944.8333333333334</ele><time>2026-05-01T21:23:53.292Z</time></trkpt><trkpt lat="46.1903427" lon="11.1982028"><ele>942.0</ele><time>2026-05-01T21:23:54.3Z</time></trkpt><trkpt lat="46.1902726" lon="11.1982663"><ele>942.0</ele><time>2026-05-01T21:23:55.329Z</time></trkpt><trkpt lat="46.1902021" lon="11.198321"><ele>942.0</ele><time>2026-05-01T21:23:56.312Z</time></trkpt><trkpt lat="46.1901182" lon="11.1983783"><ele>942.0</ele><time>2026-05-01T21:23:57.346Z</time></trkpt><trkpt lat="46.1900371" lon="11.1984305"><ele>942.0</ele><time>2026-05-01T21:23:58.285Z</time></trkpt><trkpt lat="46.1899444" lon="11.1984812"><ele>942.0</ele><time>2026-05-01T21:23:59.297Z</time></trkpt><trkpt lat="46.1898511" lon="11.1985239"><ele>938.5</ele><time>2026-05-01T21:24:00.296Z</time></trkpt><trkpt lat="46.1897579" lon="11.1985634"><ele>935.0</ele><time>2026-05-01T21:24:01.307Z</time></trkpt><trkpt lat="46.1896638" lon="11.1986008"><ele>931.5</ele><time>2026-05-01T21:24:02.337Z</time></trkpt><trkpt lat="46.1895683" lon="11.1986426"><ele>928.0</ele><time>2026-05-01T21:24:03.406Z</time></trkpt><trkpt lat="46.1893999" lon="11.1987166"><ele>928.0</ele><time>2026-05-01T21:24:05.303Z</time></trkpt><trkpt lat="46.1893111" lon="11.1987558"><ele>928.0</ele><time>2026-05-01T21:24:06.305Z</time></trkpt><trkpt lat="46.1892219" lon="11.1987928"><ele>928.0</ele><time>2026-05-01T21:24:07.303Z</time></trkpt><trkpt lat="46.1891341" lon="11.198828"><ele>928.0</ele><time>2026-05-01T21:24:08.306Z</time></trkpt><trkpt lat="46.1890472" lon="11.1988649"><ele>928.0</ele><time>2026-05-01T21:24:09.298Z</time></trkpt><trkpt lat="46.1889605" lon="11.1989084"><ele>927.8</ele><time>2026-05-01T21:24:10.312Z</time></trkpt><trkpt lat="46.1888772" lon="11.1989561"><ele>927.5999999999999</ele><time>2026-05-01T21:24:11.319Z</time></trkpt><trkpt lat="46.188796" lon="11.1990137"><ele>927.4000000000001</ele><time>2026-05-01T21:24:12.334Z</time></trkpt><trkpt lat="46.1887143" lon="11.1990777"><ele>927.2</ele><time>2026-05-01T21:24:13.329Z</time></trkpt><trkpt lat="46.1886316" lon="11.1991431"><ele>927.0</ele><time>2026-05-01T21:24:14.317Z</time></trkpt><trkpt lat="46.1885549" lon="11.1991992"><ele>927.0</ele><time>2026-05-01T21:24:15.334Z</time></trkpt><trkpt lat="46.1884913" lon="11.1992408"><ele>927.0</ele><time>2026-05-01T21:24:16.328Z</time></trkpt><trkpt lat="46.1883958" lon="11.1993084"><ele>927.0</ele><time>2026-05-01T21:24:18.355Z</time></trkpt><trkpt lat="46.1883341" lon="11.1993582"><ele>927.0</ele><time>2026-05-01T21:24:22.394Z</time></trkpt><trkpt lat="46.1882712" lon="11.1994316"><ele>927.0</ele><time>2026-05-01T21:24:53.411Z</time></trkpt><trkpt lat="46.1881594" lon="11.1995189"><ele>925.5</ele><time>2026-05-01T21:24:55.428Z</time></trkpt><trkpt lat="46.188091" lon="11.1995705"><ele>924.0</ele><time>2026-05-01T21:24:56.427Z</time></trkpt><trkpt lat="46.1880212" lon="11.1996307"><ele>922.5</ele><time>2026-05-01T21:24:57.416Z</time></trkpt><trkpt lat="46.1879442" lon="11.1996946"><ele>921.0</ele><time>2026-05-01T21:24:58.446Z</time></trkpt><trkpt lat="46.1878737" lon="11.1997509"><ele>919.5</ele><time>2026-05-01T21:24:59.411Z</time></trkpt><trkpt lat="46.1877999" lon="11.199804"><ele>918.0</ele><time>2026-05-01T21:25:00.404Z</time></trkpt><trkpt lat="46.1877283" lon="11.1998578"><ele>917.8333333333334</ele><time>2026-05-01T21:25:01.427Z</time></trkpt><trkpt lat="46.1876567" lon="11.1999113"><ele>917.6666666666667</ele><time>2026-05-01T21:25:02.396Z</time></trkpt><trkpt lat="46.1875773" lon="11.1999694"><ele>917.5</ele><time>2026-05-01T21:25:03.452Z</time></trkpt><trkpt lat="46.1875032" lon="11.2000133"><ele>917.3333333333334</ele><time>2026-05-01T21:25:04.404Z</time></trkpt><trkpt lat="46.1874184" lon="11.2000583"><ele>917.1666666666667</ele><time>2026-05-01T21:25:05.428Z</time></trkpt><trkpt lat="46.18734" lon="11.2000994"><ele>917.0</ele><time>2026-05-01T21:25:06.407Z</time></trkpt><trkpt lat="46.1872502" lon="11.2001568"><ele>915.6</ele><time>2026-05-01T21:25:07.419Z</time></trkpt><trkpt lat="46.1871624" lon="11.2002223"><ele>914.2</ele><time>2026-05-01T21:25:08.388Z</time></trkpt><trkpt lat="46.1870729" lon="11.2003029"><ele>912.8</ele><time>2026-05-01T21:25:09.407Z</time></trkpt><trkpt lat="46.1869976" lon="11.2003921"><ele>911.4</ele><time>2026-05-01T21:25:10.432Z</time></trkpt><trkpt lat="46.1869224" lon="11.2004929"><ele>910.0</ele><time>2026-05-01T21:25:11.438Z</time></trkpt><trkpt lat="46.1868499" lon="11.2005958"><ele>909.75</ele><time>2026-05-01T21:25:12.426Z</time></trkpt><trkpt lat="46.1867748" lon="11.2007146"><ele>909.5</ele><time>2026-05-01T21:25:13.438Z</time></trkpt><trkpt lat="46.1867002" lon="11.2008424"><ele>909.25</ele><time>2026-05-01T21:25:14.436Z</time></trkpt><trkpt lat="46.1866242" lon="11.2009696"><ele>909.0</ele><time>2026-05-01T21:25:15.442Z</time></trkpt><trkpt lat="46.1865494" lon="11.2010859"><ele>906.0</ele><time>2026-05-01T21:25:16.407Z</time></trkpt><trkpt lat="46.1864703" lon="11.2012048"><ele>903.0000000000001</ele><time>2026-05-01T21:25:17.41Z</time></trkpt><trkpt lat="46.1863941" lon="11.201318"><ele>900.0000000000001</ele><time>2026-05-01T21:25:18.427Z</time></trkpt><trkpt lat="46.1863155" lon="11.201423"><ele>897.0</ele><time>2026-05-01T21:25:19.433Z</time></trkpt><trkpt lat="46.1862381" lon="11.2015193"><ele>894.0</ele><time>2026-05-01T21:25:20.396Z</time></trkpt><trkpt lat="46.1861504" lon="11.2016182"><ele>893.2</ele><time>2026-05-01T21:25:21.467Z</time></trkpt><trkpt lat="46.1860741" lon="11.2017075"><ele>892.4000000000001</ele><time>2026-05-01T21:25:22.441Z</time></trkpt><trkpt lat="46.1859936" lon="11.2018013"><ele>891.6</ele><time>2026-05-01T21:25:23.437Z</time></trkpt><trkpt lat="46.1859223" lon="11.201894"><ele>890.8</ele><time>2026-05-01T21:25:24.399Z</time></trkpt><trkpt lat="46.1858473" lon="11.2019936"><ele>890.0</ele><time>2026-05-01T21:25:25.43Z</time></trkpt><trkpt lat="46.1857741" lon="11.2020973"><ele>890.0</ele><time>2026-05-01T21:25:26.461Z</time></trkpt><trkpt lat="46.1857045" lon="11.2021935"><ele>890.0</ele><time>2026-05-01T21:25:27.447Z</time></trkpt><trkpt lat="46.1856254" lon="11.2022979"><ele>890.0</ele><time>2026-05-01T21:25:28.557Z</time></trkpt><trkpt lat="46.1854841" lon="11.2024658"><ele>890.0</ele><time>2026-05-01T21:25:30.402Z</time></trkpt><trkpt lat="46.1854017" lon="11.2025544"><ele>885.4</ele><time>2026-05-01T21:25:31.408Z</time></trkpt><trkpt lat="46.1853139" lon="11.2026363"><ele>880.8</ele><time>2026-05-01T21:25:32.356Z</time></trkpt><trkpt lat="46.1852225" lon="11.202717"><ele>876.2</ele><time>2026-05-01T21:25:33.366Z</time></trkpt><trkpt lat="46.1851368" lon="11.2027949"><ele>871.6</ele><time>2026-05-01T21:25:34.336Z</time></trkpt><trkpt lat="46.1850435" lon="11.2028811"><ele>867.0</ele><time>2026-05-01T21:25:35.391Z</time></trkpt><trkpt lat="46.1849594" lon="11.2029635"><ele>867.0</ele><time>2026-05-01T21:25:36.356Z</time></trkpt><trkpt lat="46.1848676" lon="11.2030474"><ele>867.0</ele><time>2026-05-01T21:25:37.394Z</time></trkpt><trkpt lat="46.1847876" lon="11.2031258"><ele>867.0</ele><time>2026-05-01T21:25:38.329Z</time></trkpt><trkpt lat="46.1847004" lon="11.2032134"><ele>867.0</ele><time>2026-05-01T21:25:39.358Z</time></trkpt><trkpt lat="46.184619" lon="11.2033041"><ele>867.0</ele><time>2026-05-01T21:25:40.355Z</time></trkpt><trkpt lat="46.1845394" lon="11.2033983"><ele>863.8</ele><time>2026-05-01T21:25:41.373Z</time></trkpt><trkpt lat="46.1844656" lon="11.2034868"><ele>860.6</ele><time>2026-05-01T21:25:42.335Z</time></trkpt><trkpt lat="46.1843868" lon="11.2035865"><ele>857.4</ele><time>2026-05-01T21:25:43.389Z</time></trkpt><trkpt lat="46.1843241" lon="11.2036866"><ele>854.1999999999999</ele><time>2026-05-01T21:25:44.365Z</time></trkpt><trkpt lat="46.1842728" lon="11.203809"><ele>851.0</ele><time>2026-05-01T21:25:45.373Z</time></trkpt><trkpt lat="46.184239" lon="11.2039388"><ele>853.5999999999999</ele><time>2026-05-01T21:25:46.353Z</time></trkpt><trkpt lat="46.184225" lon="11.2040681"><ele>856.2</ele><time>2026-05-01T21:25:47.339Z</time></trkpt><trkpt lat="46.1842137" lon="11.204181"><ele>858.8000000000001</ele><time>2026-05-01T21:25:48.295Z</time></trkpt><trkpt lat="46.1841481" lon="11.2042975"><ele>861.4000000000001</ele><time>2026-05-01T21:25:50.285Z</time></trkpt><trkpt lat="46.1840075" lon="11.2043158"><ele>864.0</ele><time>2026-05-01T21:25:52.288Z</time></trkpt><trkpt lat="46.1838962" lon="11.2043454"><ele>855.75</ele><time>2026-05-01T21:25:53.296Z</time></trkpt><trkpt lat="46.1837879" lon="11.2043828"><ele>847.5</ele><time>2026-05-01T21:25:54.348Z</time></trkpt><trkpt lat="46.1836869" lon="11.2044414"><ele>839.25</ele><time>2026-05-01T21:25:55.279Z</time></trkpt><trkpt lat="46.1835679" lon="11.2045351"><ele>831.0</ele><time>2026-05-01T21:25:56.332Z</time></trkpt><trkpt lat="46.1834576" lon="11.204644"><ele>831.0</ele><time>2026-05-01T21:25:57.291Z</time></trkpt><trkpt lat="46.183348" lon="11.204764"><ele>831.0</ele><time>2026-05-01T21:25:58.32Z</time></trkpt><trkpt lat="46.18325" lon="11.2048859"><ele>831.0</ele><time>2026-05-01T21:25:59.319Z</time></trkpt><trkpt lat="46.1831658" lon="11.2049993"><ele>831.0</ele><time>2026-05-01T21:26:00.338Z</time></trkpt><trkpt lat="46.1831036" lon="11.2051058"><ele>830.0</ele><time>2026-05-01T21:26:01.305Z</time></trkpt><trkpt lat="46.1830272" lon="11.2052209"><ele>829.0</ele><time>2026-05-01T21:26:02.284Z</time></trkpt><trkpt lat="46.1829609" lon="11.2053389"><ele>828.0</ele><time>2026-05-01T21:26:03.297Z</time></trkpt><trkpt lat="46.1828931" lon="11.205461"><ele>827.0</ele><time>2026-05-01T21:26:04.316Z</time></trkpt><trkpt lat="46.1828209" lon="11.2055791"><ele>826.0</ele><time>2026-05-01T21:26:05.313Z</time></trkpt><trkpt lat="46.1827509" lon="11.205697"><ele>826.0</ele><time>2026-05-01T21:26:06.312Z</time></trkpt><trkpt lat="46.1826747" lon="11.2058084"><ele>826.0</ele><time>2026-05-01T21:26:07.346Z</time></trkpt><trkpt lat="46.1825996" lon="11.2059087"><ele>826.0</ele><time>2026-05-01T21:26:08.305Z</time></trkpt><trkpt lat="46.1825206" lon="11.2060142"><ele>826.0</ele><time>2026-05-01T21:26:09.316Z</time></trkpt><trkpt lat="46.1824509" lon="11.2061158"><ele>826.0</ele><time>2026-05-01T21:26:10.27Z</time></trkpt><trkpt lat="46.1823739" lon="11.2062263"><ele>823.5999999999999</ele><time>2026-05-01T21:26:11.308Z</time></trkpt><trkpt lat="46.1823046" lon="11.2063342"><ele>821.2</ele><time>2026-05-01T21:26:12.302Z</time></trkpt><trkpt lat="46.1822334" lon="11.2064358"><ele>818.8</ele><time>2026-05-01T21:26:13.3Z</time></trkpt><trkpt lat="46.1821608" lon="11.2065405"><ele>816.4000000000001</ele><time>2026-05-01T21:26:14.308Z</time></trkpt><trkpt lat="46.1820907" lon="11.2066443"><ele>814.0</ele><time>2026-05-01T21:26:15.317Z</time></trkpt><trkpt lat="46.1820239" lon="11.2067432"><ele>812.6</ele><time>2026-05-01T21:26:16.284Z</time></trkpt><trkpt lat="46.1819533" lon="11.2068506"><ele>811.2</ele><time>2026-05-01T21:26:17.325Z</time></trkpt><trkpt lat="46.1818842" lon="11.2069603"><ele>809.8000000000001</ele><time>2026-05-01T21:26:18.363Z</time></trkpt><trkpt lat="46.1818208" lon="11.2070513"><ele>808.4000000000001</ele><time>2026-05-01T21:26:19.314Z</time></trkpt><trkpt lat="46.1817574" lon="11.2071354"><ele>807.0</ele><time>2026-05-01T21:26:20.332Z</time></trkpt><trkpt lat="46.1817025" lon="11.2072061"><ele>807.0</ele><time>2026-05-01T21:26:21.32Z</time></trkpt><trkpt lat="46.1816502" lon="11.2072735"><ele>807.0</ele><time>2026-05-01T21:26:22.288Z</time></trkpt><trkpt lat="46.1815931" lon="11.2073448"><ele>807.0</ele><time>2026-05-01T21:26:23.286Z</time></trkpt><trkpt lat="46.1815314" lon="11.2074147"><ele>807.0</ele><time>2026-05-01T21:26:24.3Z</time></trkpt><trkpt lat="46.1814694" lon="11.2074824"><ele>807.0</ele><time>2026-05-01T21:26:25.285Z</time></trkpt><trkpt lat="46.1814061" lon="11.2075564"><ele>807.0</ele><time>2026-05-01T21:26:26.286Z</time></trkpt><trkpt lat="46.181343" lon="11.2076345"><ele>805.1666666666666</ele><time>2026-05-01T21:26:27.306Z</time></trkpt><trkpt lat="46.1812779" lon="11.207713"><ele>803.3333333333333</ele><time>2026-05-01T21:26:28.331Z</time></trkpt><trkpt lat="46.1812183" lon="11.2077908"><ele>801.5</ele><time>2026-05-01T21:26:29.306Z</time></trkpt><trkpt lat="46.181157" lon="11.2078668"><ele>799.6666666666666</ele><time>2026-05-01T21:26:30.296Z</time></trkpt><trkpt lat="46.1811013" lon="11.2079356"><ele>797.8333333333333</ele><time>2026-05-01T21:26:31.297Z</time></trkpt><trkpt lat="46.1810095" lon="11.2080475"><ele>796.0</ele><time>2026-05-01T21:26:33.308Z</time></trkpt><trkpt lat="46.1809356" lon="11.2081513"><ele>796.8333333333333</ele><time>2026-05-01T21:26:35.294Z</time></trkpt><trkpt lat="46.1808947" lon="11.2082535"><ele>797.6666666666666</ele><time>2026-05-01T21:26:37.302Z</time></trkpt><trkpt lat="46.1808661" lon="11.2083369"><ele>798.5</ele><time>2026-05-01T21:26:39.284Z</time></trkpt><trkpt lat="46.1808087" lon="11.2084642"><ele>799.3333333333333</ele><time>2026-05-01T21:26:41.293Z</time></trkpt><trkpt lat="46.1807617" lon="11.2085446"><ele>800.1666666666666</ele><time>2026-05-01T21:26:42.276Z</time></trkpt><trkpt lat="46.1807127" lon="11.2086372"><ele>801.0</ele><time>2026-05-01T21:26:43.308Z</time></trkpt><trkpt lat="46.1806698" lon="11.2087153"><ele>798.5</ele><time>2026-05-01T21:26:44.282Z</time></trkpt><trkpt lat="46.1806186" lon="11.2088155"><ele>796.0</ele><time>2026-05-01T21:26:45.361Z</time></trkpt><trkpt lat="46.1805736" lon="11.2089166"><ele>793.5</ele><time>2026-05-01T21:26:46.288Z</time></trkpt><trkpt lat="46.1805256" lon="11.2090357"><ele>791.0</ele><time>2026-05-01T21:26:47.292Z</time></trkpt><trkpt lat="46.1804854" lon="11.2091542"><ele>788.5</ele><time>2026-05-01T21:26:48.315Z</time></trkpt><trkpt lat="46.1804522" lon="11.2092544"><ele>786.0</ele><time>2026-05-01T21:26:49.265Z</time></trkpt><trkpt lat="46.1804163" lon="11.2093545"><ele>785.0</ele><time>2026-05-01T21:26:50.325Z</time></trkpt><trkpt lat="46.1803818" lon="11.2094321"><ele>784.0</ele><time>2026-05-01T21:26:51.322Z</time></trkpt><trkpt lat="46.1803281" lon="11.2096271"><ele>783.0</ele><time>2026-05-01T21:26:53.3Z</time></trkpt><trkpt lat="46.1802916" lon="11.2097221"><ele>782.0</ele><time>2026-05-01T21:26:54.29Z</time></trkpt><trkpt lat="46.1802654" lon="11.2098545"><ele>781.0</ele><time>2026-05-01T21:26:55.354Z</time></trkpt><trkpt lat="46.1802463" lon="11.2099756"><ele>783.3333333333333</ele><time>2026-05-01T21:26:56.3Z</time></trkpt><trkpt lat="46.1802219" lon="11.210086"><ele>785.6666666666666</ele><time>2026-05-01T21:26:57.317Z</time></trkpt><trkpt lat="46.1801993" lon="11.2101988"><ele>788.0</ele><time>2026-05-01T21:26:58.322Z</time></trkpt><trkpt lat="46.1801575" lon="11.2103742"><ele>790.3333333333333</ele><time>2026-05-01T21:27:00.304Z</time></trkpt><trkpt lat="46.1801454" lon="11.2104824"><ele>792.6666666666666</ele><time>2026-05-01T21:27:01.315Z</time></trkpt><trkpt lat="46.1801382" lon="11.2105952"><ele>795.0</ele><time>2026-05-01T21:27:02.332Z</time></trkpt><trkpt lat="46.1801271" lon="11.2107626"><ele>792.1666666666666</ele><time>2026-05-01T21:27:04.319Z</time></trkpt><trkpt lat="46.1800743" lon="11.210879"><ele>789.3333333333333</ele><time>2026-05-01T21:27:06.3Z</time></trkpt><trkpt lat="46.1799928" lon="11.2109152"><ele>786.5</ele><time>2026-05-01T21:27:08.309Z</time></trkpt><trkpt lat="46.1799171" lon="11.2108936"><ele>783.6666666666666</ele><time>2026-05-01T21:27:10.287Z</time></trkpt><trkpt lat="46.1798393" lon="11.2109044"><ele>780.8333333333333</ele><time>2026-05-01T21:27:12.297Z</time></trkpt><trkpt lat="46.1797701" lon="11.2110279"><ele>778.0</ele><time>2026-05-01T21:27:14.314Z</time></trkpt><trkpt lat="46.1797233" lon="11.2110955"><ele>778.0</ele><time>2026-05-01T21:27:15.304Z</time></trkpt><trkpt lat="46.1796682" lon="11.21115"><ele>778.0</ele><time>2026-05-01T21:27:16.309Z</time></trkpt><trkpt lat="46.1795568" lon="11.211239"><ele>778.0</ele><time>2026-05-01T21:27:18.32Z</time></trkpt><trkpt lat="46.1795011" lon="11.2112841"><ele>778.0</ele><time>2026-05-01T21:27:19.316Z</time></trkpt><trkpt lat="46.1793953" lon="11.2113668"><ele>778.0</ele><time>2026-05-01T21:27:21.397Z</time></trkpt><trkpt lat="46.1792885" lon="11.2114524"><ele>777.6666666666666</ele><time>2026-05-01T21:27:23.342Z</time></trkpt><trkpt lat="46.179185" lon="11.2115656"><ele>777.3333333333333</ele><time>2026-05-01T21:27:25.292Z</time></trkpt><trkpt lat="46.1791302" lon="11.2116594"><ele>777.0</ele><time>2026-05-01T21:27:26.298Z</time></trkpt><trkpt lat="46.1790695" lon="11.2117361"><ele>776.6666666666667</ele><time>2026-05-01T21:27:27.316Z</time></trkpt><trkpt lat="46.1790136" lon="11.2118225"><ele>776.3333333333334</ele><time>2026-05-01T21:27:28.31Z</time></trkpt><trkpt lat="46.1789692" lon="11.2119004"><ele>776.0</ele><time>2026-05-01T21:27:29.291Z</time></trkpt><trkpt lat="46.178918" lon="11.2119905"><ele>776.0</ele><time>2026-05-01T21:27:30.323Z</time></trkpt><trkpt lat="46.1788693" lon="11.2120814"><ele>776.0</ele><time>2026-05-01T21:27:31.314Z</time></trkpt><trkpt lat="46.1788152" lon="11.2121602"><ele>776.0</ele><time>2026-05-01T21:27:32.309Z</time></trkpt><trkpt lat="46.1787634" lon="11.2122295"><ele>776.0</ele><time>2026-05-01T21:27:33.308Z</time></trkpt><trkpt lat="46.1787116" lon="11.2123019"><ele>776.0</ele><time>2026-05-01T21:27:34.307Z</time></trkpt><trkpt lat="46.1786599" lon="11.2123651"><ele>776.0</ele><time>2026-05-01T21:27:35.323Z</time></trkpt><trkpt lat="46.1786077" lon="11.2124355"><ele>776.0</ele><time>2026-05-01T21:27:36.317Z</time></trkpt><trkpt lat="46.1785541" lon="11.2125203"><ele>780.1666666666667</ele><time>2026-05-01T21:27:37.345Z</time></trkpt><trkpt lat="46.178504" lon="11.2126035"><ele>784.3333333333334</ele><time>2026-05-01T21:27:38.327Z</time></trkpt><trkpt lat="46.1784639" lon="11.2126843"><ele>788.5</ele><time>2026-05-01T21:27:39.294Z</time></trkpt><trkpt lat="46.1784369" lon="11.2127691"><ele>792.6666666666667</ele><time>2026-05-01T21:27:40.299Z</time></trkpt><trkpt lat="46.178404" lon="11.2129363"><ele>796.8333333333334</ele><time>2026-05-01T21:27:42.309Z</time></trkpt><trkpt lat="46.1783842" lon="11.2130417"><ele>801.0</ele><time>2026-05-01T21:27:43.401Z</time></trkpt><trkpt lat="46.1783677" lon="11.2131375"><ele>805.1666666666666</ele><time>2026-05-01T21:27:44.327Z</time></trkpt><trkpt lat="46.1783592" lon="11.2132431"><ele>809.3333333333333</ele><time>2026-05-01T21:27:45.34Z</time></trkpt><trkpt lat="46.1783489" lon="11.2133989"><ele>813.5</ele><time>2026-05-01T21:27:47.311Z</time></trkpt><trkpt lat="46.1783203" lon="11.2134872"><ele>817.6666666666666</ele><time>2026-05-01T21:27:48.32Z</time></trkpt><trkpt lat="46.1782983" lon="11.2135775"><ele>821.8333333333333</ele><time>2026-05-01T21:27:49.336Z</time></trkpt><trkpt lat="46.1782688" lon="11.2137478"><ele>826.0</ele><time>2026-05-01T21:27:51.315Z</time></trkpt><trkpt lat="46.1782915" lon="11.213928"><ele>828.9999999999999</ele><time>2026-05-01T21:27:53.306Z</time></trkpt><trkpt lat="46.1782972" lon="11.2140205"><ele>832.0</ele><time>2026-05-01T21:27:54.321Z</time></trkpt><trkpt lat="46.1782959" lon="11.2141147"><ele>835.0</ele><time>2026-05-01T21:27:55.294Z</time></trkpt><trkpt lat="46.1782903" lon="11.2142462"><ele>838.0</ele><time>2026-05-01T21:27:56.39Z</time></trkpt><trkpt lat="46.1782834" lon="11.2143384"><ele>840.9999999999999</ele><time>2026-05-01T21:27:57.319Z</time></trkpt><trkpt lat="46.1782603" lon="11.2144988"><ele>844.0</ele><time>2026-05-01T21:27:59.273Z</time></trkpt><trkpt lat="46.1782296" lon="11.2146139"><ele>844.0</ele><time>2026-05-01T21:28:00.311Z</time></trkpt><trkpt lat="46.1781934" lon="11.2147375"><ele>844.0</ele><time>2026-05-01T21:28:01.314Z</time></trkpt><trkpt lat="46.1781514" lon="11.2148978"><ele>844.0</ele><time>2026-05-01T21:28:02.303Z</time></trkpt><trkpt lat="46.1781122" lon="11.2150417"><ele>844.0</ele><time>2026-05-01T21:28:03.329Z</time></trkpt><trkpt lat="46.178055" lon="11.2151859"><ele>844.0</ele><time>2026-05-01T21:28:04.634Z</time></trkpt><trkpt lat="46.1779951" lon="11.2153314"><ele>841.0</ele><time>2026-05-01T21:28:06.292Z</time></trkpt><trkpt lat="46.1779575" lon="11.2154315"><ele>838.0</ele><time>2026-05-01T21:28:07.312Z</time></trkpt><trkpt lat="46.1779117" lon="11.2155352"><ele>835.0</ele><time>2026-05-01T21:28:08.311Z</time></trkpt><trkpt lat="46.1778722" lon="11.2156233"><ele>832.0</ele><time>2026-05-01T21:28:09.324Z</time></trkpt><trkpt lat="46.1778392" lon="11.2157039"><ele>829.0</ele><time>2026-05-01T21:28:10.352Z</time></trkpt><trkpt lat="46.1778098" lon="11.215792"><ele>826.0</ele><time>2026-05-01T21:28:11.299Z</time></trkpt><trkpt lat="46.1777811" lon="11.2158732"><ele>823.0</ele><time>2026-05-01T21:28:12.293Z</time></trkpt><trkpt lat="46.1777626" lon="11.2159693"><ele>823.0</ele><time>2026-05-01T21:28:13.322Z</time></trkpt><trkpt lat="46.1777314" lon="11.2161154"><ele>823.0</ele><time>2026-05-01T21:28:15.317Z</time></trkpt><trkpt lat="46.1777469" lon="11.2162377"><ele>823.0</ele><time>2026-05-01T21:28:17.309Z</time></trkpt><trkpt lat="46.1777845" lon="11.21639"><ele>823.0</ele><time>2026-05-01T21:28:19.307Z</time></trkpt><trkpt lat="46.1778304" lon="11.2165186"><ele>823.0</ele><time>2026-05-01T21:28:21.316Z</time></trkpt><trkpt lat="46.1778664" lon="11.2165955"><ele>823.6666666666666</ele><time>2026-05-01T21:28:22.346Z</time></trkpt><trkpt lat="46.1779104" lon="11.2166681"><ele>824.3333333333333</ele><time>2026-05-01T21:28:23.374Z</time></trkpt><trkpt lat="46.1779573" lon="11.2167513"><ele>825.0</ele><time>2026-05-01T21:28:24.373Z</time></trkpt><trkpt lat="46.1780065" lon="11.2168211"><ele>825.6666666666667</ele><time>2026-05-01T21:28:25.328Z</time></trkpt><trkpt lat="46.1780871" lon="11.2169337"><ele>826.3333333333334</ele><time>2026-05-01T21:28:27.321Z</time></trkpt><trkpt lat="46.178171" lon="11.2170129"><ele>827.0</ele><time>2026-05-01T21:28:29.36Z</time></trkpt><trkpt lat="46.1782598" lon="11.2170979"><ele>832.8</ele><time>2026-05-01T21:28:31.353Z</time></trkpt><trkpt lat="46.178349" lon="11.2171837"><ele>838.6</ele><time>2026-05-01T21:28:33.389Z</time></trkpt><trkpt lat="46.178418" lon="11.2172425"><ele>844.3999999999999</ele><time>2026-05-01T21:28:35.343Z</time></trkpt><trkpt lat="46.1785016" lon="11.2172784"><ele>850.1999999999999</ele><time>2026-05-01T21:28:37.338Z</time></trkpt><trkpt lat="46.178599" lon="11.2173014"><ele>856.0</ele><time>2026-05-01T21:28:39.344Z</time></trkpt><trkpt lat="46.1786834" lon="11.2173295"><ele>855.9999999999999</ele><time>2026-05-01T21:28:41.337Z</time></trkpt><trkpt lat="46.1787769" lon="11.2173519"><ele>856.0</ele><time>2026-05-01T21:28:43.33Z</time></trkpt><trkpt lat="46.1788616" lon="11.2173685"><ele>856.0</ele><time>2026-05-01T21:28:45.331Z</time></trkpt><trkpt lat="46.1789434" lon="11.2173848"><ele>856.0</ele><time>2026-05-01T21:28:47.327Z</time></trkpt><trkpt lat="46.1790195" lon="11.2174187"><ele>855.9999999999999</ele><time>2026-05-01T21:28:49.352Z</time></trkpt><trkpt lat="46.1790735" lon="11.2175095"><ele>856.0</ele><time>2026-05-01T21:28:52.351Z</time></trkpt><trkpt lat="46.179104" lon="11.2176488"><ele>858.0000000000001</ele><time>2026-05-01T21:28:55.365Z</time></trkpt><trkpt lat="46.1791316" lon="11.2177417"><ele>860.0</ele><time>2026-05-01T21:28:57.326Z</time></trkpt><trkpt lat="46.1791482" lon="11.2178458"><ele>862.0</ele><time>2026-05-01T21:28:59.355Z</time></trkpt><trkpt lat="46.1791667" lon="11.217967"><ele>864.0</ele><time>2026-05-01T21:29:01.34Z</time></trkpt><trkpt lat="46.1791746" lon="11.2180572"><ele>866.0</ele><time>2026-05-01T21:29:03.332Z</time></trkpt><trkpt lat="46.1791886" lon="11.218169"><ele>868.0000000000001</ele><time>2026-05-01T21:29:05.322Z</time></trkpt><trkpt lat="46.1791986" lon="11.2182612"><ele>870.0</ele><time>2026-05-01T21:29:06.319Z</time></trkpt><trkpt lat="46.1792141" lon="11.2183761"><ele>870.0</ele><time>2026-05-01T21:29:08.328Z</time></trkpt><trkpt lat="46.1792113" lon="11.2184824"><ele>870.0</ele><time>2026-05-01T21:29:10.327Z</time></trkpt><trkpt lat="46.1792236" lon="11.2186003"><ele>870.0</ele><time>2026-05-01T21:29:12.315Z</time></trkpt><trkpt lat="46.1792338" lon="11.2187252"><ele>870.0</ele><time>2026-05-01T21:29:15.339Z</time></trkpt><trkpt lat="46.1792315" lon="11.2188385"><ele>870.0</ele><time>2026-05-01T21:29:17.347Z</time></trkpt><trkpt lat="46.1792391" lon="11.2189815"><ele>870.0</ele><time>2026-05-01T21:29:19.325Z</time></trkpt><trkpt lat="46.1792365" lon="11.219121"><ele>870.0</ele><time>2026-05-01T21:29:21.318Z</time></trkpt><trkpt lat="46.1792121" lon="11.219263"><ele>870.0</ele><time>2026-05-01T21:29:24.32Z</time></trkpt><trkpt lat="46.1791783" lon="11.2193774"><ele>870.0</ele><time>2026-05-01T21:29:26.361Z</time></trkpt><trkpt lat="46.1791603" lon="11.2195003"><ele>870.0</ele><time>2026-05-01T21:29:28.338Z</time></trkpt><trkpt lat="46.1791561" lon="11.2196225"><ele>870.0</ele><time>2026-05-01T21:29:30.322Z</time></trkpt><trkpt lat="46.179152" lon="11.2197403"><ele>870.0</ele><time>2026-05-01T21:29:32.31Z</time></trkpt><trkpt lat="46.1791545" lon="11.2198557"><ele>870.0</ele><time>2026-05-01T21:29:34.29Z</time></trkpt><trkpt lat="46.179188" lon="11.2199959"><ele>870.0</ele><time>2026-05-01T21:29:36.321Z</time></trkpt><trkpt lat="46.1792088" lon="11.2201102"><ele>870.0</ele><time>2026-05-01T21:29:37.329Z</time></trkpt><trkpt lat="46.1792314" lon="11.2202157"><ele>870.0</ele><time>2026-05-01T21:29:38.314Z</time></trkpt><trkpt lat="46.1792582" lon="11.2203034"><ele>870.0</ele><time>2026-05-01T21:29:39.308Z</time></trkpt><trkpt lat="46.1792815" lon="11.220402"><ele>870.0</ele><time>2026-05-01T21:29:40.303Z</time></trkpt><trkpt lat="46.1793159" lon="11.2205212"><ele>873.6</ele><time>2026-05-01T21:29:42.296Z</time></trkpt><trkpt lat="46.1793549" lon="11.2206744"><ele>877.2</ele><time>2026-05-01T21:29:44.322Z</time></trkpt><trkpt lat="46.1793822" lon="11.2208366"><ele>880.8</ele><time>2026-05-01T21:29:46.336Z</time></trkpt><trkpt lat="46.1794014" lon="11.2209757"><ele>884.4</ele><time>2026-05-01T21:29:48.319Z</time></trkpt><trkpt lat="46.1794355" lon="11.2211092"><ele>888.0</ele><time>2026-05-01T21:29:50.433Z</time></trkpt><trkpt lat="46.1794764" lon="11.221212"><ele>888.0</ele><time>2026-05-01T21:29:52.343Z</time></trkpt><trkpt lat="46.179535" lon="11.2213288"><ele>888.0</ele><time>2026-05-01T21:29:54.309Z</time></trkpt><trkpt lat="46.17959" lon="11.2214296"><ele>888.0</ele><time>2026-05-01T21:29:56.313Z</time></trkpt><trkpt lat="46.1796573" lon="11.2215596"><ele>888.0</ele><time>2026-05-01T21:29:58.304Z</time></trkpt><trkpt lat="46.1797226" lon="11.2216651"><ele>888.0</ele><time>2026-05-01T21:30:00.302Z</time></trkpt><trkpt lat="46.179768" lon="11.2217298"><ele>894.8</ele><time>2026-05-01T21:30:01.304Z</time></trkpt><trkpt lat="46.1798504" lon="11.2218454"><ele>901.5999999999999</ele><time>2026-05-01T21:30:03.297Z</time></trkpt><trkpt lat="46.1799499" lon="11.2219771"><ele>908.4000000000001</ele><time>2026-05-01T21:30:05.374Z</time></trkpt><trkpt lat="46.1800268" lon="11.2220584"><ele>915.2</ele><time>2026-05-01T21:30:07.333Z</time></trkpt><trkpt lat="46.1800951" lon="11.2221165"><ele>922.0</ele><time>2026-05-01T21:30:09.332Z</time></trkpt><trkpt lat="46.1801521" lon="11.2221665"><ele>921.9999999999999</ele><time>2026-05-01T21:30:10.301Z</time></trkpt><trkpt lat="46.1802242" lon="11.2222269"><ele>922.0</ele><time>2026-05-01T21:30:11.309Z</time></trkpt><trkpt lat="46.1803067" lon="11.2222915"><ele>922.0</ele><time>2026-05-01T21:30:12.317Z</time></trkpt><trkpt lat="46.1803848" lon="11.2223459"><ele>922.0</ele><time>2026-05-01T21:30:13.311Z</time></trkpt><trkpt lat="46.1804707" lon="11.2224081"><ele>921.9999999999999</ele><time>2026-05-01T21:30:14.322Z</time></trkpt><trkpt lat="46.1805314" lon="11.2224448"><ele>922.0</ele><time>2026-05-01T21:30:15.306Z</time></trkpt><trkpt lat="46.1806002" lon="11.2224954"><ele>921.8333333333333</ele><time>2026-05-01T21:30:16.312Z</time></trkpt><trkpt lat="46.180672" lon="11.2225235"><ele>921.6666666666666</ele><time>2026-05-01T21:30:17.305Z</time></trkpt><trkpt lat="46.1807872" lon="11.2225768"><ele>921.5</ele><time>2026-05-01T21:30:19.287Z</time></trkpt><trkpt lat="46.1808652" lon="11.2226107"><ele>921.3333333333333</ele><time>2026-05-01T21:30:20.314Z</time></trkpt><trkpt lat="46.1809349" lon="11.2226379"><ele>921.1666666666666</ele><time>2026-05-01T21:30:21.288Z</time></trkpt><trkpt lat="46.1810246" lon="11.2226945"><ele>921.0</ele><time>2026-05-01T21:30:22.313Z</time></trkpt><trkpt lat="46.1811009" lon="11.2227433"><ele>921.0</ele><time>2026-05-01T21:30:23.328Z</time></trkpt><trkpt lat="46.1811684" lon="11.2227877"><ele>921.0</ele><time>2026-05-01T21:30:24.338Z</time></trkpt><trkpt lat="46.1812328" lon="11.2228267"><ele>921.0</ele><time>2026-05-01T21:30:25.308Z</time></trkpt><trkpt lat="46.1812993" lon="11.2228618"><ele>921.0</ele><time>2026-05-01T21:30:26.32Z</time></trkpt><trkpt lat="46.1813798" lon="11.2228968"><ele>921.0</ele><time>2026-05-01T21:30:27.298Z</time></trkpt><trkpt lat="46.1814678" lon="11.2229324"><ele>921.0</ele><time>2026-05-01T21:30:28.319Z</time></trkpt><trkpt lat="46.1815509" lon="11.2229626"><ele>924.5</ele><time>2026-05-01T21:30:29.294Z</time></trkpt><trkpt lat="46.1816429" lon="11.2229918"><ele>928.0</ele><time>2026-05-01T21:30:30.297Z</time></trkpt><trkpt lat="46.181734" lon="11.2230219"><ele>931.5</ele><time>2026-05-01T21:30:31.32Z</time></trkpt><trkpt lat="46.1818128" lon="11.2230446"><ele>935.0</ele><time>2026-05-01T21:30:32.28Z</time></trkpt><trkpt lat="46.181898" lon="11.2230667"><ele>938.5</ele><time>2026-05-01T21:30:33.331Z</time></trkpt><trkpt lat="46.1819696" lon="11.2230773"><ele>942.0</ele><time>2026-05-01T21:30:34.276Z</time></trkpt><trkpt lat="46.1820483" lon="11.2230947"><ele>942.0</ele><time>2026-05-01T21:30:35.31Z</time></trkpt><trkpt lat="46.1821165" lon="11.2231085"><ele>942.0</ele><time>2026-05-01T21:30:36.309Z</time></trkpt><trkpt lat="46.1821888" lon="11.2231259"><ele>942.0</ele><time>2026-05-01T21:30:37.312Z</time></trkpt><trkpt lat="46.1822742" lon="11.2231451"><ele>942.0</ele><time>2026-05-01T21:30:38.35Z</time></trkpt><trkpt lat="46.1823507" lon="11.2231565"><ele>942.0</ele><time>2026-05-01T21:30:39.301Z</time></trkpt><trkpt lat="46.1824264" lon="11.2231645"><ele>942.0</ele><time>2026-05-01T21:30:40.31Z</time></trkpt><trkpt lat="46.1825015" lon="11.2231636"><ele>936.4000000000001</ele><time>2026-05-01T21:30:41.294Z</time></trkpt><trkpt lat="46.1825903" lon="11.22316"><ele>930.8000000000001</ele><time>2026-05-01T21:30:42.309Z</time></trkpt><trkpt lat="46.1826726" lon="11.2231576"><ele>925.2</ele><time>2026-05-01T21:30:43.299Z</time></trkpt><trkpt lat="46.1827547" lon="11.2231617"><ele>919.6</ele><time>2026-05-01T21:30:44.312Z</time></trkpt><trkpt lat="46.1828304" lon="11.2231578"><ele>914.0</ele><time>2026-05-01T21:30:45.317Z</time></trkpt><trkpt lat="46.1829578" lon="11.2231596"><ele>914.0000000000001</ele><time>2026-05-01T21:30:47.334Z</time></trkpt><trkpt lat="46.1830298" lon="11.2231688"><ele>914.0</ele><time>2026-05-01T21:30:48.307Z</time></trkpt><trkpt lat="46.1830931" lon="11.2231755"><ele>914.0000000000001</ele><time>2026-05-01T21:30:49.275Z</time></trkpt><trkpt lat="46.1831643" lon="11.2231847"><ele>914.0000000000001</ele><time>2026-05-01T21:30:50.287Z</time></trkpt><trkpt lat="46.1832517" lon="11.2232034"><ele>914.0</ele><time>2026-05-01T21:30:51.294Z</time></trkpt><trkpt lat="46.1833291" lon="11.2232409"><ele>914.0000000000001</ele><time>2026-05-01T21:30:52.293Z</time></trkpt><trkpt lat="46.1833902" lon="11.2232786"><ele>914.0000000000001</ele><time>2026-05-01T21:30:53.358Z</time></trkpt><trkpt lat="46.1834847" lon="11.2233541"><ele>916.8333333333334</ele><time>2026-05-01T21:30:55.306Z</time></trkpt><trkpt lat="46.1835973" lon="11.2233735"><ele>919.6666666666667</ele><time>2026-05-01T21:30:57.291Z</time></trkpt><trkpt lat="46.1836608" lon="11.2233715"><ele>922.5</ele><time>2026-05-01T21:30:58.297Z</time></trkpt><trkpt lat="46.1837253" lon="11.2233711"><ele>925.3333333333333</ele><time>2026-05-01T21:30:59.3Z</time></trkpt><trkpt lat="46.1838023" lon="11.2233765"><ele>928.1666666666666</ele><time>2026-05-01T21:31:00.299Z</time></trkpt><trkpt lat="46.1838845" lon="11.2233833"><ele>931.0</ele><time>2026-05-01T21:31:01.309Z</time></trkpt><trkpt lat="46.1839642" lon="11.2233883"><ele>933.0</ele><time>2026-05-01T21:31:02.342Z</time></trkpt><trkpt lat="46.1840314" lon="11.2233917"><ele>935.0</ele><time>2026-05-01T21:31:03.286Z</time></trkpt><trkpt lat="46.1841044" lon="11.2233971"><ele>937.0</ele><time>2026-05-01T21:31:04.295Z</time></trkpt><trkpt lat="46.1841797" lon="11.223402"><ele>939.0</ele><time>2026-05-01T21:31:05.289Z</time></trkpt><trkpt lat="46.1842567" lon="11.2234023"><ele>941.0</ele><time>2026-05-01T21:31:06.285Z</time></trkpt><trkpt lat="46.184332" lon="11.2234038"><ele>943.0</ele><time>2026-05-01T21:31:07.285Z</time></trkpt><trkpt lat="46.1844007" lon="11.2233998"><ele>945.0</ele><time>2026-05-01T21:31:08.283Z</time></trkpt><trkpt lat="46.1844652" lon="11.2233895"><ele>945.0</ele><time>2026-05-01T21:31:09.282Z</time></trkpt><trkpt lat="46.1845737" lon="11.2233847"><ele>945.0</ele><time>2026-05-01T21:31:11.31Z</time></trkpt><trkpt lat="46.1846423" lon="11.223371"><ele>945.0</ele><time>2026-05-01T21:31:12.304Z</time></trkpt><trkpt lat="46.1847168" lon="11.2233535"><ele>945.0</ele><time>2026-05-01T21:31:13.292Z</time></trkpt><trkpt lat="46.1847912" lon="11.2233386"><ele>945.0</ele><time>2026-05-01T21:31:14.295Z</time></trkpt><trkpt lat="46.1848585" lon="11.2233261"><ele>945.0</ele><time>2026-05-01T21:31:15.296Z</time></trkpt><trkpt lat="46.1849281" lon="11.2233149"><ele>945.6</ele><time>2026-05-01T21:31:16.299Z</time></trkpt><trkpt lat="46.1850357" lon="11.2233077"><ele>946.2</ele><time>2026-05-01T21:31:18.294Z</time></trkpt><trkpt lat="46.1851258" lon="11.2233088"><ele>946.8</ele><time>2026-05-01T21:31:20.277Z</time></trkpt><trkpt lat="46.1852078" lon="11.2233121"><ele>947.4</ele><time>2026-05-01T21:31:22.279Z</time></trkpt><trkpt lat="46.1853271" lon="11.2233199"><ele>948.0</ele><time>2026-05-01T21:31:24.286Z</time></trkpt><trkpt lat="46.1854348" lon="11.2233256"><ele>948.0</ele><time>2026-05-01T21:31:26.288Z</time></trkpt><trkpt lat="46.1855475" lon="11.2233232"><ele>948.0</ele><time>2026-05-01T21:31:28.283Z</time></trkpt><trkpt lat="46.185656" lon="11.2232824"><ele>948.0</ele><time>2026-05-01T21:31:30.29Z</time></trkpt><trkpt lat="46.1857633" lon="11.2232307"><ele>948.0</ele><time>2026-05-01T21:31:32.284Z</time></trkpt><trkpt lat="46.1858418" lon="11.2231936"><ele>948.0</ele><time>2026-05-01T21:31:34.299Z</time></trkpt><trkpt lat="46.1859141" lon="11.2231698"><ele>952.8</ele><time>2026-05-01T21:31:36.302Z</time></trkpt><trkpt lat="46.1860223" lon="11.2231346"><ele>957.5999999999999</ele><time>2026-05-01T21:31:38.294Z</time></trkpt><trkpt lat="46.1861161" lon="11.223109"><ele>962.4000000000001</ele><time>2026-05-01T21:31:40.282Z</time></trkpt><trkpt lat="46.1862469" lon="11.2230513"><ele>967.2</ele><time>2026-05-01T21:31:42.312Z</time></trkpt><trkpt lat="46.1863073" lon="11.2229928"><ele>972.0</ele><time>2026-05-01T21:31:43.31Z</time></trkpt><trkpt lat="46.1863884" lon="11.2229487"><ele>972.0</ele><time>2026-05-01T21:31:44.338Z</time></trkpt><trkpt lat="46.1864679" lon="11.2229182"><ele>972.0</ele><time>2026-05-01T21:31:45.301Z</time></trkpt><trkpt lat="46.186535" lon="11.2228913"><ele>972.0</ele><time>2026-05-01T21:31:46.301Z</time></trkpt><trkpt lat="46.1866081" lon="11.222868"><ele>972.0</ele><time>2026-05-01T21:31:47.289Z</time></trkpt><trkpt lat="46.1866723" lon="11.2228479"><ele>972.0</ele><time>2026-05-01T21:31:48.31Z</time></trkpt><trkpt lat="46.1867746" lon="11.2227933"><ele>972.0</ele><time>2026-05-01T21:31:50.33Z</time></trkpt><trkpt lat="46.1868783" lon="11.2227122"><ele>971.5</ele><time>2026-05-01T21:31:52.31Z</time></trkpt><trkpt lat="46.1869397" lon="11.222676"><ele>971.0</ele><time>2026-05-01T21:31:53.31Z</time></trkpt><trkpt lat="46.1870322" lon="11.2225628"><ele>970.5</ele><time>2026-05-01T21:31:55.296Z</time></trkpt><trkpt lat="46.1870953" lon="11.2225002"><ele>970.0</ele><time>2026-05-01T21:31:56.327Z</time></trkpt><trkpt lat="46.1871548" lon="11.2224473"><ele>969.5</ele><time>2026-05-01T21:31:57.324Z</time></trkpt><trkpt lat="46.1872164" lon="11.2224073"><ele>969.0</ele><time>2026-05-01T21:31:58.298Z</time></trkpt><trkpt lat="46.1872783" lon="11.222372"><ele>968.9999999999999</ele><time>2026-05-01T21:31:59.32Z</time></trkpt><trkpt lat="46.1873362" lon="11.2223256"><ele>969.0</ele><time>2026-05-01T21:32:00.302Z</time></trkpt><trkpt lat="46.1874003" lon="11.2222729"><ele>968.9999999999999</ele><time>2026-05-01T21:32:01.349Z</time></trkpt><trkpt lat="46.1874653" lon="11.2222282"><ele>968.9999999999999</ele><time>2026-05-01T21:32:02.312Z</time></trkpt><trkpt lat="46.1875257" lon="11.2221711"><ele>969.0</ele><time>2026-05-01T21:32:03.306Z</time></trkpt><trkpt lat="46.187582" lon="11.2221188"><ele>968.9999999999999</ele><time>2026-05-01T21:32:04.301Z</time></trkpt><trkpt lat="46.1876363" lon="11.2220513"><ele>968.9999999999999</ele><time>2026-05-01T21:32:05.302Z</time></trkpt><trkpt lat="46.1876896" lon="11.2219942"><ele>970.5</ele><time>2026-05-01T21:32:06.298Z</time></trkpt><trkpt lat="46.1877598" lon="11.2219261"><ele>972.0</ele><time>2026-05-01T21:32:07.326Z</time></trkpt><trkpt lat="46.1878186" lon="11.2218706"><ele>973.5</ele><time>2026-05-01T21:32:08.297Z</time></trkpt><trkpt lat="46.1878758" lon="11.221829"><ele>975.0</ele><time>2026-05-01T21:32:09.297Z</time></trkpt><trkpt lat="46.1879326" lon="11.2217853"><ele>976.5</ele><time>2026-05-01T21:32:10.318Z</time></trkpt><trkpt lat="46.1879991" lon="11.2217403"><ele>978.0</ele><time>2026-05-01T21:32:11.306Z</time></trkpt><trkpt lat="46.1881135" lon="11.2216508"><ele>976.0</ele><time>2026-05-01T21:32:13.316Z</time></trkpt><trkpt lat="46.1881846" lon="11.2215935"><ele>974.0</ele><time>2026-05-01T21:32:14.311Z</time></trkpt><trkpt lat="46.1882474" lon="11.2215311"><ele>972.0</ele><time>2026-05-01T21:32:15.301Z</time></trkpt><trkpt lat="46.1883026" lon="11.2214801"><ele>970.0</ele><time>2026-05-01T21:32:16.3Z</time></trkpt><trkpt lat="46.1884152" lon="11.2213781"><ele>968.0</ele><time>2026-05-01T21:32:18.289Z</time></trkpt><trkpt lat="46.1884888" lon="11.2213114"><ele>966.0</ele><time>2026-05-01T21:32:19.279Z</time></trkpt><trkpt lat="46.1885492" lon="11.2212564"><ele>971.6666666666666</ele><time>2026-05-01T21:32:20.281Z</time></trkpt><trkpt lat="46.1886197" lon="11.2211669"><ele>977.3333333333333</ele><time>2026-05-01T21:32:22.278Z</time></trkpt><trkpt lat="46.1886857" lon="11.2210498"><ele>983.0</ele><time>2026-05-01T21:32:24.287Z</time></trkpt><trkpt lat="46.1887186" lon="11.2209694"><ele>988.6666666666666</ele><time>2026-05-01T21:32:25.303Z</time></trkpt><trkpt lat="46.1887591" lon="11.2208838"><ele>994.3333333333333</ele><time>2026-05-01T21:32:26.31Z</time></trkpt><trkpt lat="46.1888136" lon="11.2207932"><ele>1000.0</ele><time>2026-05-01T21:32:27.3Z</time></trkpt><trkpt lat="46.1888772" lon="11.2206849"><ele>998.9999999999999</ele><time>2026-05-01T21:32:28.357Z</time></trkpt><trkpt lat="46.1889213" lon="11.2206009"><ele>998.0</ele><time>2026-05-01T21:32:29.305Z</time></trkpt><trkpt lat="46.1889647" lon="11.2205099"><ele>997.0</ele><time>2026-05-01T21:32:30.336Z</time></trkpt><trkpt lat="46.1890043" lon="11.2204204"><ele>996.0</ele><time>2026-05-01T21:32:31.298Z</time></trkpt><trkpt lat="46.1890511" lon="11.2203174"><ele>994.9999999999999</ele><time>2026-05-01T21:32:32.294Z</time></trkpt><trkpt lat="46.1890933" lon="11.2202012"><ele>994.0</ele><time>2026-05-01T21:32:33.328Z</time></trkpt><trkpt lat="46.1891334" lon="11.2201069"><ele>993.9999999999999</ele><time>2026-05-01T21:32:34.31Z</time></trkpt><trkpt lat="46.1891804" lon="11.2199957"><ele>994.0</ele><time>2026-05-01T21:32:35.371Z</time></trkpt><trkpt lat="46.1892251" lon="11.2198965"><ele>994.0</ele><time>2026-05-01T21:32:36.402Z</time></trkpt><trkpt lat="46.1892577" lon="11.2198151"><ele>994.0</ele><time>2026-05-01T21:32:37.312Z</time></trkpt><trkpt lat="46.1892993" lon="11.2197166"><ele>993.9999999999999</ele><time>2026-05-01T21:32:38.343Z</time></trkpt><trkpt lat="46.189329" lon="11.2196161"><ele>994.0</ele><time>2026-05-01T21:32:39.304Z</time></trkpt><trkpt lat="46.1893477" lon="11.2194893"><ele>998.5</ele><time>2026-05-01T21:32:40.302Z</time></trkpt><trkpt lat="46.189364" lon="11.2193769"><ele>1003.0</ele><time>2026-05-01T21:32:41.343Z</time></trkpt><trkpt lat="46.1893731" lon="11.2192687"><ele>1007.5</ele><time>2026-05-01T21:32:42.339Z</time></trkpt><trkpt lat="46.1894193" lon="11.2191517"><ele>1012.0</ele><time>2026-05-01T21:32:44.337Z</time></trkpt><trkpt lat="46.189564" lon="11.2193858"><ele>1012.0</ele><time>2026-05-01T21:32:53.302Z</time></trkpt><trkpt lat="46.1895607" lon="11.2195231"><ele>1012.0</ele><time>2026-05-01T21:32:55.291Z</time></trkpt><trkpt lat="46.1895834" lon="11.2196871"><ele>1012.0</ele><time>2026-05-01T21:32:57.309Z</time></trkpt><trkpt lat="46.1895826" lon="11.2198352"><ele>1012.0</ele><time>2026-05-01T21:32:59.308Z</time></trkpt><trkpt lat="46.1895618" lon="11.2199754"><ele>1012.0</ele><time>2026-05-01T21:33:01.305Z</time></trkpt><trkpt lat="46.1895505" lon="11.2201044"><ele>1008.9999999999999</ele><time>2026-05-01T21:33:03.315Z</time></trkpt><trkpt lat="46.1895366" lon="11.2201932"><ele>1006.0</ele><time>2026-05-01T21:33:04.332Z</time></trkpt><trkpt lat="46.1895158" lon="11.2203321"><ele>1003.0</ele><time>2026-05-01T21:33:06.294Z</time></trkpt><trkpt lat="46.1895254" lon="11.2205058"><ele>1000.0</ele><time>2026-05-01T21:33:08.315Z</time></trkpt><trkpt lat="46.1895489" lon="11.220621"><ele>996.9999999999999</ele><time>2026-05-01T21:33:10.29Z</time></trkpt><trkpt lat="46.1895812" lon="11.2207193"><ele>994.0</ele><time>2026-05-01T21:33:12.296Z</time></trkpt><trkpt lat="46.1896441" lon="11.220858"><ele>990.4000000000001</ele><time>2026-05-01T21:33:14.296Z</time></trkpt><trkpt lat="46.18969" lon="11.2210165"><ele>986.8000000000001</ele><time>2026-05-01T21:33:16.298Z</time></trkpt><trkpt lat="46.189716" lon="11.2211822"><ele>983.1999999999999</ele><time>2026-05-01T21:33:18.305Z</time></trkpt><trkpt lat="46.1897242" lon="11.2212771"><ele>979.5999999999999</ele><time>2026-05-01T21:33:20.313Z</time></trkpt><trkpt lat="46.1897558" lon="11.2213745"><ele>976.0</ele><time>2026-05-01T21:33:22.324Z</time></trkpt><trkpt lat="46.1898142" lon="11.2215377"><ele>978.1999999999999</ele><time>2026-05-01T21:33:24.299Z</time></trkpt><trkpt lat="46.1898619" lon="11.2216465"><ele>980.3999999999999</ele><time>2026-05-01T21:33:26.294Z</time></trkpt><trkpt lat="46.1899162" lon="11.2216957"><ele>982.6</ele><time>2026-05-01T21:33:28.3Z</time></trkpt><trkpt lat="46.1900084" lon="11.2217488"><ele>984.8</ele><time>2026-05-01T21:33:30.287Z</time></trkpt><trkpt lat="46.1900709" lon="11.221797"><ele>987.0</ele><time>2026-05-01T21:33:32.314Z</time></trkpt><trkpt lat="46.1901772" lon="11.2219032"><ele>987.0</ele><time>2026-05-01T21:33:34.291Z</time></trkpt><trkpt lat="46.1902172" lon="11.2219736"><ele>987.0</ele><time>2026-05-01T21:33:35.286Z</time></trkpt><trkpt lat="46.1902678" lon="11.2220451"><ele>987.0</ele><time>2026-05-01T21:33:36.289Z</time></trkpt><trkpt lat="46.1903284" lon="11.2221323"><ele>987.0</ele><time>2026-05-01T21:33:37.303Z</time></trkpt><trkpt lat="46.1903787" lon="11.2221935"><ele>987.0</ele><time>2026-05-01T21:33:38.309Z</time></trkpt><trkpt lat="46.1904645" lon="11.2222844"><ele>987.0</ele><time>2026-05-01T21:33:40.307Z</time></trkpt><trkpt lat="46.1905374" lon="11.2223664"><ele>986.3333333333334</ele><time>2026-05-01T21:33:42.291Z</time></trkpt><trkpt lat="46.1905796" lon="11.2224362"><ele>985.6666666666667</ele><time>2026-05-01T21:33:43.334Z</time></trkpt><trkpt lat="46.1905241" lon="11.2225075"><ele>985.0</ele><time>2026-05-01T21:33:46.302Z</time></trkpt><trkpt lat="46.1904333" lon="11.2225393"><ele>984.3333333333334</ele><time>2026-05-01T21:33:48.295Z</time></trkpt><trkpt lat="46.1903301" lon="11.2225871"><ele>983.6666666666667</ele><time>2026-05-01T21:33:50.316Z</time></trkpt><trkpt lat="46.1902327" lon="11.2226254"><ele>983.0</ele><time>2026-05-01T21:33:52.309Z</time></trkpt><trkpt lat="46.1901568" lon="11.222659"><ele>983.0</ele><time>2026-05-01T21:33:53.411Z</time></trkpt><trkpt lat="46.1900945" lon="11.2227556"><ele>983.0</ele><time>2026-05-01T21:33:55.327Z</time></trkpt><trkpt lat="46.190078" lon="11.2229615"><ele>983.0</ele><time>2026-05-01T21:33:57.336Z</time></trkpt><trkpt lat="46.190105" lon="11.2230942"><ele>983.0</ele><time>2026-05-01T21:33:58.322Z</time></trkpt><trkpt lat="46.190073" lon="11.2231831"><ele>983.0</ele><time>2026-05-01T21:33:59.37Z</time></trkpt><trkpt lat="46.1900781" lon="11.2233523"><ele>980.8</ele><time>2026-05-01T21:34:01.387Z</time></trkpt><trkpt lat="46.1900491" lon="11.2235183"><ele>978.5999999999999</ele><time>2026-05-01T21:34:03.365Z</time></trkpt><trkpt lat="46.1899698" lon="11.2236634"><ele>976.4000000000001</ele><time>2026-05-01T21:34:05.33Z</time></trkpt><trkpt lat="46.1898976" lon="11.2237052"><ele>974.2</ele><time>2026-05-01T21:34:07.341Z</time></trkpt><trkpt lat="46.1897951" lon="11.2237863"><ele>972.0</ele><time>2026-05-01T21:34:09.367Z</time></trkpt><trkpt lat="46.1897125" lon="11.223839"><ele>972.0</ele><time>2026-05-01T21:34:11.324Z</time></trkpt><trkpt lat="46.1896532" lon="11.2238716"><ele>972.0</ele><time>2026-05-01T21:34:13.332Z</time></trkpt><trkpt lat="46.1896037" lon="11.2239317"><ele>972.0</ele><time>2026-05-01T21:34:21.345Z</time></trkpt><trkpt lat="46.1895429" lon="11.2239578"><ele>972.0</ele><time>2026-05-01T21:34:33.322Z</time></trkpt><trkpt lat="46.1894795" lon="11.2239713"><ele>972.0</ele><time>2026-05-01T21:34:56.296Z</time></trkpt><trkpt lat="46.1894241" lon="11.2240422"><ele>972.0</ele><time>2026-05-01T21:35:03.306Z</time></trkpt><trkpt lat="46.1893537" lon="11.2241287"><ele>972.0</ele><time>2026-05-01T21:35:06.326Z</time></trkpt><trkpt lat="46.1892782" lon="11.2241865"><ele>975.0</ele><time>2026-05-01T21:35:08.314Z</time></trkpt><trkpt lat="46.1891839" lon="11.224277"><ele>978.0</ele><time>2026-05-01T21:35:10.378Z</time></trkpt><trkpt lat="46.1891333" lon="11.2243461"><ele>981.0</ele><time>2026-05-01T21:35:12.404Z</time></trkpt><trkpt lat="46.1890669" lon="11.2244294"><ele>984.0</ele><time>2026-05-01T21:35:14.424Z</time></trkpt><trkpt lat="46.1890106" lon="11.2244974"><ele>987.0</ele><time>2026-05-01T21:35:16.313Z</time></trkpt><trkpt lat="46.1889803" lon="11.2246038"><ele>990.0</ele><time>2026-05-01T21:35:19.317Z</time></trkpt><trkpt lat="46.1889408" lon="11.224689"><ele>986.2</ele><time>2026-05-01T21:35:20.35Z</time></trkpt><trkpt lat="46.1888709" lon="11.2248045"><ele>982.4</ele><time>2026-05-01T21:35:22.355Z</time></trkpt><trkpt lat="46.188803" lon="11.2249288"><ele>978.5999999999999</ele><time>2026-05-01T21:35:24.375Z</time></trkpt><trkpt lat="46.1887565" lon="11.2250668"><ele>974.8</ele><time>2026-05-01T21:35:26.327Z</time></trkpt><trkpt lat="46.1886967" lon="11.2251588"><ele>971.0</ele><time>2026-05-01T21:35:28.336Z</time></trkpt><trkpt lat="46.1886397" lon="11.2252733"><ele>971.0000000000001</ele><time>2026-05-01T21:35:30.36Z</time></trkpt><trkpt lat="46.1885753" lon="11.2254134"><ele>971.0</ele><time>2026-05-01T21:35:32.379Z</time></trkpt><trkpt lat="46.1885318" lon="11.2255713"><ele>971.0</ele><time>2026-05-01T21:35:34.331Z</time></trkpt><trkpt lat="46.1884985" lon="11.2256543"><ele>971.0</ele><time>2026-05-01T21:35:35.333Z</time></trkpt><trkpt lat="46.1884728" lon="11.2257428"><ele>971.0000000000001</ele><time>2026-05-01T21:35:36.342Z</time></trkpt><trkpt lat="46.1884464" lon="11.2258277"><ele>971.0</ele><time>2026-05-01T21:35:37.35Z</time></trkpt><trkpt lat="46.1884059" lon="11.2259964"><ele>976.5999999999999</ele><time>2026-05-01T21:35:39.365Z</time></trkpt><trkpt lat="46.1883808" lon="11.2261436"><ele>982.1999999999999</ele><time>2026-05-01T21:35:41.336Z</time></trkpt><trkpt lat="46.1883509" lon="11.2262399"><ele>987.8000000000001</ele><time>2026-05-01T21:35:42.359Z</time></trkpt><trkpt lat="46.1883255" lon="11.226339"><ele>993.4000000000001</ele><time>2026-05-01T21:35:43.384Z</time></trkpt><trkpt lat="46.1882882" lon="11.2264625"><ele>999.0</ele><time>2026-05-01T21:35:45.386Z</time></trkpt><trkpt lat="46.1881882" lon="11.2267013"><ele>999.8333333333334</ele><time>2026-05-01T21:35:48.381Z</time></trkpt><trkpt lat="46.1881446" lon="11.2267837"><ele>1000.6666666666667</ele><time>2026-05-01T21:35:49.355Z</time></trkpt><trkpt lat="46.1881031" lon="11.2268538"><ele>1001.5</ele><time>2026-05-01T21:35:50.341Z</time></trkpt><trkpt lat="46.1880378" lon="11.2269943"><ele>1002.3333333333334</ele><time>2026-05-01T21:35:52.341Z</time></trkpt><trkpt lat="46.1880136" lon="11.2270792"><ele>1003.1666666666667</ele><time>2026-05-01T21:35:53.333Z</time></trkpt><trkpt lat="46.1879776" lon="11.2272179"><ele>1004.0</ele><time>2026-05-01T21:35:55.334Z</time></trkpt><trkpt lat="46.1879645" lon="11.2273244"><ele>1008.4000000000001</ele><time>2026-05-01T21:35:56.39Z</time></trkpt><trkpt lat="46.1879529" lon="11.227415"><ele>1012.8000000000001</ele><time>2026-05-01T21:35:57.381Z</time></trkpt><trkpt lat="46.1879309" lon="11.2275598"><ele>1017.1999999999999</ele><time>2026-05-01T21:35:59.374Z</time></trkpt><trkpt lat="46.1879286" lon="11.2277267"><ele>1021.5999999999999</ele><time>2026-05-01T21:36:01.4Z</time></trkpt><trkpt lat="46.187955" lon="11.2278727"><ele>1026.0</ele><time>2026-05-01T21:36:03.407Z</time></trkpt><trkpt lat="46.188007" lon="11.2279891"><ele>1026.0</ele><time>2026-05-01T21:36:05.399Z</time></trkpt><trkpt lat="46.1880679" lon="11.2280531"><ele>1026.0</ele><time>2026-05-01T21:36:06.382Z</time></trkpt><trkpt lat="46.1881204" lon="11.2281731"><ele>1026.0</ele><time>2026-05-01T21:36:08.351Z</time></trkpt><trkpt lat="46.1881797" lon="11.2283068"><ele>1026.0</ele><time>2026-05-01T21:36:10.337Z</time></trkpt><trkpt lat="46.1882566" lon="11.2283102"><ele>1026.0</ele><time>2026-05-01T21:36:13.346Z</time></trkpt><trkpt lat="46.1883295" lon="11.228257"><ele>1026.0</ele><time>2026-05-01T21:36:15.451Z</time></trkpt><trkpt lat="46.1883608" lon="11.2281167"><ele>1033.3999999999999</ele><time>2026-05-01T21:36:17.364Z</time></trkpt><trkpt lat="46.1883946" lon="11.2279773"><ele>1040.8</ele><time>2026-05-01T21:36:19.347Z</time></trkpt><trkpt lat="46.1884433" lon="11.22787"><ele>1048.1999999999998</ele><time>2026-05-01T21:36:21.35Z</time></trkpt><trkpt lat="46.1885006" lon="11.2277632"><ele>1055.6</ele><time>2026-05-01T21:36:23.382Z</time></trkpt><trkpt lat="46.1885663" lon="11.2276527"><ele>1063.0</ele><time>2026-05-01T21:36:25.505Z</time></trkpt><trkpt lat="46.188652" lon="11.2275278"><ele>1063.0</ele><time>2026-05-01T21:36:27.392Z</time></trkpt><trkpt lat="46.1887339" lon="11.2274319"><ele>1063.0</ele><time>2026-05-01T21:36:29.398Z</time></trkpt><trkpt lat="46.1888116" lon="11.2273629"><ele>1063.0</ele><time>2026-05-01T21:36:31.37Z</time></trkpt><trkpt lat="46.1889289" lon="11.2273067"><ele>1063.0</ele><time>2026-05-01T21:36:33.361Z</time></trkpt><trkpt lat="46.1890318" lon="11.2272252"><ele>1063.0</ele><time>2026-05-01T21:36:35.384Z</time></trkpt><trkpt lat="46.1890827" lon="11.2271679"><ele>1063.5</ele><time>2026-05-01T21:36:36.355Z</time></trkpt><trkpt lat="46.1891308" lon="11.2271032"><ele>1064.0</ele><time>2026-05-01T21:36:37.373Z</time></trkpt><trkpt lat="46.189213" lon="11.2269736"><ele>1064.5</ele><time>2026-05-01T21:36:39.383Z</time></trkpt><trkpt lat="46.1892581" lon="11.2269016"><ele>1065.0</ele><time>2026-05-01T21:36:40.349Z</time></trkpt><trkpt lat="46.1893058" lon="11.2268297"><ele>1065.5</ele><time>2026-05-01T21:36:41.354Z</time></trkpt><trkpt lat="46.1893507" lon="11.226762"><ele>1066.0</ele><time>2026-05-01T21:36:42.381Z</time></trkpt><trkpt lat="46.1894513" lon="11.2266603"><ele>1066.0</ele><time>2026-05-01T21:36:44.369Z</time></trkpt><trkpt lat="46.1895583" lon="11.2265848"><ele>1066.0</ele><time>2026-05-01T21:36:46.364Z</time></trkpt><trkpt lat="46.1896215" lon="11.2265551"><ele>1066.0</ele><time>2026-05-01T21:36:47.349Z</time></trkpt><trkpt lat="46.1896899" lon="11.2265265"><ele>1066.0</ele><time>2026-05-01T21:36:48.363Z</time></trkpt><trkpt lat="46.1897567" lon="11.2264973"><ele>1066.0</ele><time>2026-05-01T21:36:49.367Z</time></trkpt><trkpt lat="46.1898235" lon="11.2264693"><ele>1066.0</ele><time>2026-05-01T21:36:50.35Z</time></trkpt><trkpt lat="46.189937" lon="11.2264334"><ele>1066.8333333333333</ele><time>2026-05-01T21:36:52.365Z</time></trkpt><trkpt lat="46.1900052" lon="11.2264085"><ele>1067.6666666666665</ele><time>2026-05-01T21:36:53.39Z</time></trkpt><trkpt lat="46.1900703" lon="11.2263814"><ele>1068.5</ele><time>2026-05-01T21:36:54.339Z</time></trkpt><trkpt lat="46.1901383" lon="11.2263484"><ele>1069.3333333333333</ele><time>2026-05-01T21:36:55.358Z</time></trkpt><trkpt lat="46.1902654" lon="11.2262888"><ele>1070.1666666666667</ele><time>2026-05-01T21:36:57.349Z</time></trkpt><trkpt lat="46.1903298" lon="11.226243"><ele>1071.0</ele><time>2026-05-01T21:36:58.351Z</time></trkpt><trkpt lat="46.1904018" lon="11.2261973"><ele>1071.0</ele><time>2026-05-01T21:36:59.367Z</time></trkpt><trkpt lat="46.1904744" lon="11.2261637"><ele>1071.0</ele><time>2026-05-01T21:37:00.365Z</time></trkpt><trkpt lat="46.1905459" lon="11.2261268"><ele>1071.0</ele><time>2026-05-01T21:37:01.366Z</time></trkpt><trkpt lat="46.1906126" lon="11.2260935"><ele>1071.0</ele><time>2026-05-01T21:37:02.35Z</time></trkpt><trkpt lat="46.190713" lon="11.2260102"><ele>1071.0</ele><time>2026-05-01T21:37:04.364Z</time></trkpt><trkpt lat="46.1908081" lon="11.2259208"><ele>1077.2</ele><time>2026-05-01T21:37:06.383Z</time></trkpt><trkpt lat="46.1908911" lon="11.2258297"><ele>1083.3999999999999</ele><time>2026-05-01T21:37:09.331Z</time></trkpt><trkpt lat="46.1909771" lon="11.2257596"><ele>1089.6</ele><time>2026-05-01T21:37:11.364Z</time></trkpt><trkpt lat="46.1910775" lon="11.2257425"><ele>1095.8</ele><time>2026-05-01T21:37:13.343Z</time></trkpt><trkpt lat="46.191188" lon="11.2257281"><ele>1102.0</ele><time>2026-05-01T21:37:15.363Z</time></trkpt><trkpt lat="46.1912493" lon="11.2257051"><ele>1102.0</ele><time>2026-05-01T21:37:16.381Z</time></trkpt><trkpt lat="46.1913707" lon="11.2257023"><ele>1102.0</ele><time>2026-05-01T21:37:18.4Z</time></trkpt><trkpt lat="46.1914756" lon="11.2256723"><ele>1102.0</ele><time>2026-05-01T21:37:20.322Z</time></trkpt><trkpt lat="46.1915778" lon="11.2256198"><ele>1102.0</ele><time>2026-05-01T21:37:22.337Z</time></trkpt><trkpt lat="46.1916664" lon="11.2255922"><ele>1102.0</ele><time>2026-05-01T21:37:24.407Z</time></trkpt><trkpt lat="46.1917623" lon="11.2255876"><ele>1099.2</ele><time>2026-05-01T21:37:26.386Z</time></trkpt><trkpt lat="46.1918824" lon="11.2255742"><ele>1096.4</ele><time>2026-05-01T21:37:28.355Z</time></trkpt><trkpt lat="46.1919782" lon="11.225546"><ele>1093.6</ele><time>2026-05-01T21:37:30.376Z</time></trkpt><trkpt lat="46.1920604" lon="11.2254913"><ele>1090.8</ele><time>2026-05-01T21:37:32.389Z</time></trkpt><trkpt lat="46.192159" lon="11.2254183"><ele>1088.0</ele><time>2026-05-01T21:37:34.381Z</time></trkpt><trkpt lat="46.1922485" lon="11.2253359"><ele>1092.6</ele><time>2026-05-01T21:37:36.346Z</time></trkpt><trkpt lat="46.1923614" lon="11.2252388"><ele>1097.1999999999998</ele><time>2026-05-01T21:37:38.365Z</time></trkpt><trkpt lat="46.1924443" lon="11.225192"><ele>1101.8</ele><time>2026-05-01T21:37:39.373Z</time></trkpt><trkpt lat="46.1925087" lon="11.2251494"><ele>1106.3999999999999</ele><time>2026-05-01T21:37:40.373Z</time></trkpt><trkpt lat="46.1926048" lon="11.2250922"><ele>1111.0</ele><time>2026-05-01T21:37:41.388Z</time></trkpt><trkpt lat="46.1927082" lon="11.2250024"><ele>1111.0</ele><time>2026-05-01T21:37:43.373Z</time></trkpt><trkpt lat="46.1928132" lon="11.2249212"><ele>1111.0</ele><time>2026-05-01T21:37:45.372Z</time></trkpt><trkpt lat="46.1929058" lon="11.2248279"><ele>1111.0</ele><time>2026-05-01T21:37:47.354Z</time></trkpt><trkpt lat="46.1929546" lon="11.2247675"><ele>1111.0</ele><time>2026-05-01T21:37:48.391Z</time></trkpt><trkpt lat="46.1930107" lon="11.2246961"><ele>1111.0</ele><time>2026-05-01T21:37:49.345Z</time></trkpt><trkpt lat="46.1930763" lon="11.2245748"><ele>1111.5</ele><time>2026-05-01T21:37:51.32Z</time></trkpt><trkpt lat="46.1931344" lon="11.2244773"><ele>1112.0</ele><time>2026-05-01T21:37:53.327Z</time></trkpt><trkpt lat="46.1931892" lon="11.2243402"><ele>1112.5</ele><time>2026-05-01T21:37:54.384Z</time></trkpt><trkpt lat="46.1932645" lon="11.2242657"><ele>1113.0</ele><time>2026-05-01T21:37:55.361Z</time></trkpt><trkpt lat="46.193318" lon="11.2241961"><ele>1113.5</ele><time>2026-05-01T21:37:56.337Z</time></trkpt><trkpt lat="46.1933689" lon="11.2241308"><ele>1114.0</ele><time>2026-05-01T21:37:57.379Z</time></trkpt><trkpt lat="46.1934333" lon="11.2240472"><ele>1112.3333333333333</ele><time>2026-05-01T21:37:59.38Z</time></trkpt><trkpt lat="46.1934836" lon="11.2239699"><ele>1110.6666666666665</ele><time>2026-05-01T21:38:01.362Z</time></trkpt><trkpt lat="46.1935507" lon="11.2239095"><ele>1109.0</ele><time>2026-05-01T21:38:03.378Z</time></trkpt><trkpt lat="46.1936155" lon="11.2238607"><ele>1107.3333333333333</ele><time>2026-05-01T21:38:06.337Z</time></trkpt><trkpt lat="46.1937143" lon="11.2238231"><ele>1105.6666666666667</ele><time>2026-05-01T21:38:21.376Z</time></trkpt><trkpt lat="46.1937966" lon="11.2237721"><ele>1104.0</ele><time>2026-05-01T21:38:23.339Z</time></trkpt><trkpt lat="46.1938676" lon="11.2237109"><ele>1104.0</ele><time>2026-05-01T21:38:25.346Z</time></trkpt><trkpt lat="46.1939395" lon="11.2236399"><ele>1104.0</ele><time>2026-05-01T21:38:27.339Z</time></trkpt><trkpt lat="46.1940169" lon="11.2235591"><ele>1104.0</ele><time>2026-05-01T21:38:28.353Z</time></trkpt><trkpt lat="46.1940713" lon="11.2235"><ele>1104.0</ele><time>2026-05-01T21:38:29.366Z</time></trkpt><trkpt lat="46.1941233" lon="11.2234478"><ele>1104.0</ele><time>2026-05-01T21:38:30.381Z</time></trkpt><trkpt lat="46.194243" lon="11.2233722"><ele>1104.0</ele><time>2026-05-01T21:38:32.364Z</time></trkpt><trkpt lat="46.1943127" lon="11.2233573"><ele>1107.8</ele><time>2026-05-01T21:38:34.384Z</time></trkpt><trkpt lat="46.1943835" lon="11.2233375"><ele>1111.6000000000001</ele><time>2026-05-01T21:38:36.402Z</time></trkpt><trkpt lat="46.1944726" lon="11.2233149"><ele>1115.4</ele><time>2026-05-01T21:38:38.363Z</time></trkpt><trkpt lat="46.1945732" lon="11.2232829"><ele>1119.2</ele><time>2026-05-01T21:38:40.347Z</time></trkpt><trkpt lat="46.194654" lon="11.2232163"><ele>1123.0</ele><time>2026-05-01T21:38:42.344Z</time></trkpt><trkpt lat="46.1947343" lon="11.2231343"><ele>1123.0</ele><time>2026-05-01T21:38:44.369Z</time></trkpt><trkpt lat="46.1948177" lon="11.2230472"><ele>1123.0</ele><time>2026-05-01T21:38:46.323Z</time></trkpt><trkpt lat="46.1948908" lon="11.2229578"><ele>1123.0</ele><time>2026-05-01T21:38:48.323Z</time></trkpt><trkpt lat="46.1949679" lon="11.2228599"><ele>1123.0</ele><time>2026-05-01T21:38:50.32Z</time></trkpt><trkpt lat="46.1950328" lon="11.2228111"><ele>1123.0</ele><time>2026-05-01T21:38:52.338Z</time></trkpt><trkpt lat="46.1950201" lon="11.2229475"><ele>1128.2</ele><time>2026-05-01T21:38:55.361Z</time></trkpt><trkpt lat="46.1950096" lon="11.2230825"><ele>1133.4</ele><time>2026-05-01T21:38:57.331Z</time></trkpt><trkpt lat="46.1950011" lon="11.2232007"><ele>1138.6000000000001</ele><time>2026-05-01T21:38:59.336Z</time></trkpt><trkpt lat="46.1949897" lon="11.2233432"><ele>1143.8</ele><time>2026-05-01T21:39:01.358Z</time></trkpt><trkpt lat="46.1949768" lon="11.2234863"><ele>1149.0</ele><time>2026-05-01T21:39:03.344Z</time></trkpt><trkpt lat="46.1949605" lon="11.223612"><ele>1150.4</ele><time>2026-05-01T21:39:05.348Z</time></trkpt><trkpt lat="46.1949494" lon="11.2237167"><ele>1151.8000000000002</ele><time>2026-05-01T21:39:07.372Z</time></trkpt><trkpt lat="46.1949453" lon="11.2238344"><ele>1153.1999999999998</ele><time>2026-05-01T21:39:09.34Z</time></trkpt><trkpt lat="46.1949464" lon="11.2239674"><ele>1154.6</ele><time>2026-05-01T21:39:11.349Z</time></trkpt><trkpt lat="46.1949463" lon="11.2241602"><ele>1156.0</ele><time>2026-05-01T21:39:13.341Z</time></trkpt><trkpt lat="46.194944" lon="11.2242652"><ele>1157.6</ele><time>2026-05-01T21:39:14.349Z</time></trkpt><trkpt lat="46.1949243" lon="11.2244246"><ele>1159.1999999999998</ele><time>2026-05-01T21:39:16.301Z</time></trkpt><trkpt lat="46.1949104" lon="11.2245756"><ele>1160.8000000000002</ele><time>2026-05-01T21:39:18.321Z</time></trkpt><trkpt lat="46.1948917" lon="11.224746"><ele>1162.4</ele><time>2026-05-01T21:39:20.327Z</time></trkpt><trkpt lat="46.1948491" lon="11.2248735"><ele>1164.0</ele><time>2026-05-01T21:39:22.357Z</time></trkpt><trkpt lat="46.1947977" lon="11.2250233"><ele>1159.75</ele><time>2026-05-01T21:39:24.355Z</time></trkpt><trkpt lat="46.1947434" lon="11.2251626"><ele>1155.5</ele><time>2026-05-01T21:39:26.334Z</time></trkpt><trkpt lat="46.1946829" lon="11.2253037"><ele>1151.25</ele><time>2026-05-01T21:39:28.38Z</time></trkpt><trkpt lat="46.1946338" lon="11.2254535"><ele>1147.0</ele><time>2026-05-01T21:39:30.355Z</time></trkpt><trkpt lat="46.194588" lon="11.2256029"><ele>1150.6666666666665</ele><time>2026-05-01T21:39:32.458Z</time></trkpt><trkpt lat="46.1945589" lon="11.2256909"><ele>1154.3333333333333</ele><time>2026-05-01T21:39:34.365Z</time></trkpt><trkpt lat="46.1945186" lon="11.2257945"><ele>1158.0</ele><time>2026-05-01T21:39:37.355Z</time></trkpt><trkpt lat="46.1945407" lon="11.225942"><ele>1161.6666666666667</ele><time>2026-05-01T21:39:41.339Z</time></trkpt><trkpt lat="46.1945865" lon="11.2260838"><ele>1165.3333333333335</ele><time>2026-05-01T21:39:44.355Z</time></trkpt><trkpt lat="46.1946061" lon="11.2261835"><ele>1169.0</ele><time>2026-05-01T21:39:45.376Z</time></trkpt><trkpt lat="46.1946257" lon="11.2263617"><ele>1172.0</ele><time>2026-05-01T21:39:47.348Z</time></trkpt><trkpt lat="46.1946467" lon="11.2265279"><ele>1175.0</ele><time>2026-05-01T21:39:49.359Z</time></trkpt><trkpt lat="46.1946736" lon="11.2266775"><ele>1178.0</ele><time>2026-05-01T21:39:51.364Z</time></trkpt><trkpt lat="46.1946698" lon="11.2268049"><ele>1181.0</ele><time>2026-05-01T21:39:53.617Z</time></trkpt><trkpt lat="46.1946508" lon="11.2269328"><ele>1184.0</ele><time>2026-05-01T21:39:55.341Z</time></trkpt><trkpt lat="46.1946107" lon="11.2270153"><ele>1184.0</ele><time>2026-05-01T21:39:57.341Z</time></trkpt><trkpt lat="46.1945358" lon="11.2271237"><ele>1184.0</ele><time>2026-05-01T21:39:59.351Z</time></trkpt><trkpt lat="46.1944581" lon="11.2272049"><ele>1184.0</ele><time>2026-05-01T21:40:01.367Z</time></trkpt><trkpt lat="46.1943667" lon="11.2272767"><ele>1184.0</ele><time>2026-05-01T21:40:03.39Z</time></trkpt><trkpt lat="46.194279" lon="11.2273357"><ele>1184.0</ele><time>2026-05-01T21:40:05.343Z</time></trkpt><trkpt lat="46.1942181" lon="11.2273681"><ele>1186.8333333333335</ele><time>2026-05-01T21:40:06.374Z</time></trkpt><trkpt lat="46.1941395" lon="11.227414"><ele>1189.6666666666667</ele><time>2026-05-01T21:40:08.358Z</time></trkpt><trkpt lat="46.1940825" lon="11.2274692"><ele>1192.5</ele><time>2026-05-01T21:40:10.385Z</time></trkpt><trkpt lat="46.1940432" lon="11.2275606"><ele>1195.3333333333333</ele><time>2026-05-01T21:40:13.361Z</time></trkpt><trkpt lat="46.1940903" lon="11.2276672"><ele>1198.1666666666665</ele><time>2026-05-01T21:40:16.333Z</time></trkpt><trkpt lat="46.1941193" lon="11.2277592"><ele>1201.0</ele><time>2026-05-01T21:40:18.349Z</time></trkpt><trkpt lat="46.1941404" lon="11.2278528"><ele>1201.0</ele><time>2026-05-01T21:40:21.345Z</time></trkpt><trkpt lat="46.1941879" lon="11.2279251"><ele>1201.0</ele><time>2026-05-01T21:40:23.357Z</time></trkpt><trkpt lat="46.1942573" lon="11.228009"><ele>1201.0</ele><time>2026-05-01T21:40:25.401Z</time></trkpt><trkpt lat="46.1943202" lon="11.2280811"><ele>1201.0</ele><time>2026-05-01T21:40:27.352Z</time></trkpt><trkpt lat="46.194422" lon="11.2281321"><ele>1201.0</ele><time>2026-05-01T21:40:30.39Z</time></trkpt><trkpt lat="46.1944911" lon="11.2281866"><ele>1201.0</ele><time>2026-05-01T21:40:32.356Z</time></trkpt><trkpt lat="46.1945713" lon="11.2282225"><ele>1203.6</ele><time>2026-05-01T21:40:34.351Z</time></trkpt><trkpt lat="46.1946472" lon="11.228289"><ele>1206.1999999999998</ele><time>2026-05-01T21:40:36.353Z</time></trkpt><trkpt lat="46.1947401" lon="11.2283613"><ele>1208.8000000000002</ele><time>2026-05-01T21:40:38.36Z</time></trkpt><trkpt lat="46.1948594" lon="11.2284295"><ele>1211.4</ele><time>2026-05-01T21:40:40.351Z</time></trkpt><trkpt lat="46.1949713" lon="11.2284994"><ele>1214.0</ele><time>2026-05-01T21:40:42.37Z</time></trkpt><trkpt lat="46.195033" lon="11.2285392"><ele>1216.5</ele><time>2026-05-01T21:40:43.365Z</time></trkpt><trkpt lat="46.1951259" lon="11.2286059"><ele>1219.0</ele><time>2026-05-01T21:40:45.45Z</time></trkpt><trkpt lat="46.1952003" lon="11.2286754"><ele>1221.5</ele><time>2026-05-01T21:40:47.374Z</time></trkpt><trkpt lat="46.1952646" lon="11.2287157"><ele>1224.0</ele><time>2026-05-01T21:40:49.351Z</time></trkpt><trkpt lat="46.1953666" lon="11.2287182"><ele>1226.5</ele><time>2026-05-01T21:40:51.359Z</time></trkpt><trkpt lat="46.1954337" lon="11.2287176"><ele>1229.0</ele><time>2026-05-01T21:40:52.355Z</time></trkpt><trkpt lat="46.1955018" lon="11.2287149"><ele>1229.0</ele><time>2026-05-01T21:40:53.371Z</time></trkpt><trkpt lat="46.195566" lon="11.2287108"><ele>1229.0</ele><time>2026-05-01T21:40:54.375Z</time></trkpt><trkpt lat="46.1956535" lon="11.2286903"><ele>1229.0</ele><time>2026-05-01T21:40:56.348Z</time></trkpt><trkpt lat="46.1957565" lon="11.2286491"><ele>1229.0</ele><time>2026-05-01T21:40:58.337Z</time></trkpt><trkpt lat="46.1958841" lon="11.2286524"><ele>1229.0</ele><time>2026-05-01T21:41:00.361Z</time></trkpt><trkpt lat="46.1960047" lon="11.2286613"><ele>1232.6666666666667</ele><time>2026-05-01T21:41:02.364Z</time></trkpt><trkpt lat="46.1961094" lon="11.2286347"><ele>1236.3333333333335</ele><time>2026-05-01T21:41:04.337Z</time></trkpt><trkpt lat="46.196195" lon="11.2285929"><ele>1240.0</ele><time>2026-05-01T21:41:06.382Z</time></trkpt><trkpt lat="46.1962594" lon="11.2285567"><ele>1243.6666666666667</ele><time>2026-05-01T21:41:07.368Z</time></trkpt><trkpt lat="46.1963223" lon="11.2285105"><ele>1247.3333333333333</ele><time>2026-05-01T21:41:08.365Z</time></trkpt><trkpt lat="46.1964117" lon="11.2284344"><ele>1251.0</ele><time>2026-05-01T21:41:10.34Z</time></trkpt><trkpt lat="46.1964793" lon="11.2283631"><ele>1252.3999999999999</ele><time>2026-05-01T21:41:12.352Z</time></trkpt><trkpt lat="46.1965532" lon="11.2282807"><ele>1253.8</ele><time>2026-05-01T21:41:13.579Z</time></trkpt><trkpt lat="46.1966425" lon="11.2281882"><ele>1255.1999999999998</ele><time>2026-05-01T21:41:15.368Z</time></trkpt><trkpt lat="46.1967423" lon="11.2281022"><ele>1256.6</ele><time>2026-05-01T21:41:17.337Z</time></trkpt><trkpt lat="46.1967978" lon="11.2280548"><ele>1258.0</ele><time>2026-05-01T21:41:18.375Z</time></trkpt><trkpt lat="46.1968578" lon="11.2279947"><ele>1260.6</ele><time>2026-05-01T21:41:19.36Z</time></trkpt><trkpt lat="46.1969124" lon="11.2279344"><ele>1263.1999999999998</ele><time>2026-05-01T21:41:20.352Z</time></trkpt><trkpt lat="46.1970037" lon="11.2278592"><ele>1265.8</ele><time>2026-05-01T21:41:22.341Z</time></trkpt><trkpt lat="46.197096" lon="11.2277395"><ele>1268.3999999999999</ele><time>2026-05-01T21:41:24.347Z</time></trkpt><trkpt lat="46.1971508" lon="11.227672"><ele>1271.0</ele><time>2026-05-01T21:41:25.354Z</time></trkpt><trkpt lat="46.1972347" lon="11.2275718"><ele>1271.0</ele><time>2026-05-01T21:41:27.355Z</time></trkpt><trkpt lat="46.1973135" lon="11.2274677"><ele>1271.0</ele><time>2026-05-01T21:41:29.371Z</time></trkpt><trkpt lat="46.1973933" lon="11.2273696"><ele>1271.0</ele><time>2026-05-01T21:41:31.388Z</time></trkpt><trkpt lat="46.1974892" lon="11.2272925"><ele>1271.0</ele><time>2026-05-01T21:41:33.424Z</time></trkpt><trkpt lat="46.1975698" lon="11.2272194"><ele>1271.0</ele><time>2026-05-01T21:41:35.387Z</time></trkpt><trkpt lat="46.197644" lon="11.227129"><ele>1270.5</ele><time>2026-05-01T21:41:37.371Z</time></trkpt><trkpt lat="46.1977113" lon="11.2270238"><ele>1270.0</ele><time>2026-05-01T21:41:39.362Z</time></trkpt><trkpt lat="46.1977771" lon="11.2269121"><ele>1269.5</ele><time>2026-05-01T21:41:41.367Z</time></trkpt><trkpt lat="46.1978359" lon="11.2268147"><ele>1269.0</ele><time>2026-05-01T21:41:43.366Z</time></trkpt><trkpt lat="46.1978838" lon="11.2267472"><ele>1268.5</ele><time>2026-05-01T21:41:45.375Z</time></trkpt><trkpt lat="46.1979428" lon="11.2266764"><ele>1268.0</ele><time>2026-05-01T21:41:47.392Z</time></trkpt><trkpt lat="46.1980198" lon="11.2265874"><ele>1268.0</ele><time>2026-05-01T21:41:49.368Z</time></trkpt><trkpt lat="46.1981069" lon="11.2265036"><ele>1268.0</ele><time>2026-05-01T21:41:51.352Z</time></trkpt><trkpt lat="46.1981986" lon="11.2263898"><ele>1268.0</ele><time>2026-05-01T21:41:53.365Z</time></trkpt><trkpt lat="46.1982757" lon="11.2263282"><ele>1268.0</ele><time>2026-05-01T21:41:55.368Z</time></trkpt><trkpt lat="46.1983479" lon="11.2262815"><ele>1268.0</ele><time>2026-05-01T21:41:57.404Z</time></trkpt><trkpt lat="46.1984376" lon="11.226228"><ele>1267.0</ele><time>2026-05-01T21:41:59.356Z</time></trkpt><trkpt lat="46.1985377" lon="11.2261438"><ele>1266.0</ele><time>2026-05-01T21:42:01.365Z</time></trkpt><trkpt lat="46.1986237" lon="11.2260725"><ele>1265.0</ele><time>2026-05-01T21:42:03.374Z</time></trkpt><trkpt lat="46.1987024" lon="11.226"><ele>1264.0</ele><time>2026-05-01T21:42:05.386Z</time></trkpt><trkpt lat="46.1987771" lon="11.2259393"><ele>1263.0</ele><time>2026-05-01T21:42:07.338Z</time></trkpt><trkpt lat="46.1988767" lon="11.2258474"><ele>1263.0</ele><time>2026-05-01T21:42:09.359Z</time></trkpt><trkpt lat="46.1989375" lon="11.2257941"><ele>1263.0</ele><time>2026-05-01T21:42:10.349Z</time></trkpt><trkpt lat="46.1989926" lon="11.2257423"><ele>1263.0</ele><time>2026-05-01T21:42:11.416Z</time></trkpt><trkpt lat="46.1990612" lon="11.2256815"><ele>1263.0</ele><time>2026-05-01T21:42:13.344Z</time></trkpt><trkpt lat="46.1991357" lon="11.2256025"><ele>1263.0</ele><time>2026-05-01T21:42:15.365Z</time></trkpt><trkpt lat="46.1992001" lon="11.2255389"><ele>1263.0</ele><time>2026-05-01T21:42:17.368Z</time></trkpt><trkpt lat="46.1992608" lon="11.2254784"><ele>1264.8</ele><time>2026-05-01T21:42:19.35Z</time></trkpt><trkpt lat="46.1993234" lon="11.2254097"><ele>1266.6</ele><time>2026-05-01T21:42:21.347Z</time></trkpt><trkpt lat="46.1993793" lon="11.2253174"><ele>1268.4</ele><time>2026-05-01T21:42:23.363Z</time></trkpt><trkpt lat="46.199447" lon="11.2252156"><ele>1270.2</ele><time>2026-05-01T21:42:25.386Z</time></trkpt><trkpt lat="46.1995197" lon="11.2251163"><ele>1272.0</ele><time>2026-05-01T21:42:27.348Z</time></trkpt><trkpt lat="46.1996174" lon="11.2250147"><ele>1272.0</ele><time>2026-05-01T21:42:29.351Z</time></trkpt><trkpt lat="46.1997014" lon="11.2249411"><ele>1272.0</ele><time>2026-05-01T21:42:31.367Z</time></trkpt><trkpt lat="46.1997655" lon="11.2248706"><ele>1272.0</ele><time>2026-05-01T21:42:33.354Z</time></trkpt><trkpt lat="46.199809" lon="11.2247902"><ele>1272.0</ele><time>2026-05-01T21:42:36.357Z</time></trkpt><trkpt lat="46.1998571" lon="11.2247234"><ele>1272.0</ele><time>2026-05-01T21:42:38.348Z</time></trkpt><trkpt lat="46.1999307" lon="11.2246544"><ele>1272.0</ele><time>2026-05-01T21:42:41.352Z</time></trkpt><trkpt lat="46.1999922" lon="11.2245877"><ele>1271.3333333333333</ele><time>2026-05-01T21:42:43.371Z</time></trkpt><trkpt lat="46.2000466" lon="11.2245024"><ele>1270.6666666666667</ele><time>2026-05-01T21:42:45.361Z</time></trkpt><trkpt lat="46.2001182" lon="11.2244069"><ele>1270.0</ele><time>2026-05-01T21:42:47.366Z</time></trkpt><trkpt lat="46.200203" lon="11.2243452"><ele>1269.3333333333335</ele><time>2026-05-01T21:42:50.36Z</time></trkpt><trkpt lat="46.2002765" lon="11.2243346"><ele>1268.6666666666667</ele><time>2026-05-01T21:42:53.318Z</time></trkpt><trkpt lat="46.2003273" lon="11.2243982"><ele>1268.0</ele><time>2026-05-01T21:42:56.353Z</time></trkpt><trkpt lat="46.2003732" lon="11.2245121"><ele>1268.0</ele><time>2026-05-01T21:42:59.355Z</time></trkpt><trkpt lat="46.2004146" lon="11.2245846"><ele>1268.0</ele><time>2026-05-01T21:43:02.355Z</time></trkpt><trkpt lat="46.2004487" lon="11.2246992"><ele>1268.0</ele><time>2026-05-01T21:43:05.398Z</time></trkpt><trkpt lat="46.2003616" lon="11.2247759"><ele>1268.0</ele><time>2026-05-01T21:43:10.359Z</time></trkpt><trkpt lat="46.2002918" lon="11.2248235"><ele>1268.0</ele><time>2026-05-01T21:43:12.368Z</time></trkpt><trkpt lat="46.200233" lon="11.2248683"><ele>1268.0</ele><time>2026-05-01T21:43:14.361Z</time></trkpt><trkpt lat="46.2001759" lon="11.2249306"><ele>1265.3333333333335</ele><time>2026-05-01T21:43:16.385Z</time></trkpt><trkpt lat="46.2001252" lon="11.2249854"><ele>1262.6666666666667</ele><time>2026-05-01T21:43:18.348Z</time></trkpt><trkpt lat="46.2000603" lon="11.2250615"><ele>1260.0</ele><time>2026-05-01T21:43:21.343Z</time></trkpt><trkpt lat="46.2000004" lon="11.2251459"><ele>1257.3333333333333</ele><time>2026-05-01T21:43:24.336Z</time></trkpt><trkpt lat="46.1999583" lon="11.2252445"><ele>1254.6666666666665</ele><time>2026-05-01T21:43:26.472Z</time></trkpt><trkpt lat="46.199904" lon="11.2253173"><ele>1252.0</ele><time>2026-05-01T21:43:29.358Z</time></trkpt><trkpt lat="46.1999109" lon="11.2254172"><ele>1252.0</ele><time>2026-05-01T21:43:32.352Z</time></trkpt><trkpt lat="46.1999303" lon="11.2255385"><ele>1252.0</ele><time>2026-05-01T21:43:34.395Z</time></trkpt><trkpt lat="46.1998918" lon="11.2256298"><ele>1252.0</ele><time>2026-05-01T21:43:36.369Z</time></trkpt><trkpt lat="46.1998459" lon="11.225712"><ele>1252.0</ele><time>2026-05-01T21:43:38.367Z</time></trkpt><trkpt lat="46.1997951" lon="11.2258177"><ele>1252.0</ele><time>2026-05-01T21:43:40.342Z</time></trkpt><trkpt lat="46.1997417" lon="11.225878"><ele>1252.0</ele><time>2026-05-01T21:43:42.416Z</time></trkpt><trkpt lat="46.199705" lon="11.2259861"><ele>1252.5</ele><time>2026-05-01T21:43:44.387Z</time></trkpt><trkpt lat="46.1996856" lon="11.226079"><ele>1253.0</ele><time>2026-05-01T21:43:46.364Z</time></trkpt><trkpt lat="46.199686" lon="11.2262035"><ele>1253.5</ele><time>2026-05-01T21:43:48.347Z</time></trkpt><trkpt lat="46.1996983" lon="11.2263135"><ele>1254.0</ele><time>2026-05-01T21:43:50.372Z</time></trkpt><trkpt lat="46.1997131" lon="11.2264328"><ele>1254.5</ele><time>2026-05-01T21:43:52.376Z</time></trkpt><trkpt lat="46.1996918" lon="11.2265582"><ele>1255.0</ele><time>2026-05-01T21:43:54.331Z</time></trkpt><trkpt lat="46.1996298" lon="11.2266848"><ele>1252.6</ele><time>2026-05-01T21:43:57.351Z</time></trkpt><trkpt lat="46.1995626" lon="11.2268427"><ele>1250.2</ele><time>2026-05-01T21:43:59.352Z</time></trkpt><trkpt lat="46.199528" lon="11.2269704"><ele>1247.8</ele><time>2026-05-01T21:44:01.355Z</time></trkpt><trkpt lat="46.1995053" lon="11.2270833"><ele>1245.4</ele><time>2026-05-01T21:44:03.358Z</time></trkpt><trkpt lat="46.199477" lon="11.2272048"><ele>1243.0</ele><time>2026-05-01T21:44:05.361Z</time></trkpt><trkpt lat="46.1994282" lon="11.2273551"><ele>1239.8</ele><time>2026-05-01T21:44:07.389Z</time></trkpt><trkpt lat="46.1993864" lon="11.2274517"><ele>1236.6</ele><time>2026-05-01T21:44:09.369Z</time></trkpt><trkpt lat="46.1993244" lon="11.2275327"><ele>1233.4</ele><time>2026-05-01T21:44:11.349Z</time></trkpt><trkpt lat="46.1992399" lon="11.2276274"><ele>1230.2</ele><time>2026-05-01T21:44:13.364Z</time></trkpt><trkpt lat="46.1991629" lon="11.2277347"><ele>1227.0</ele><time>2026-05-01T21:44:15.369Z</time></trkpt><trkpt lat="46.1991083" lon="11.2278768"><ele>1227.0</ele><time>2026-05-01T21:44:17.359Z</time></trkpt><trkpt lat="46.1990451" lon="11.2279776"><ele>1227.0</ele><time>2026-05-01T21:44:19.361Z</time></trkpt><trkpt lat="46.1989722" lon="11.2280973"><ele>1227.0</ele><time>2026-05-01T21:44:21.322Z</time></trkpt><trkpt lat="46.1989211" lon="11.2281762"><ele>1227.0</ele><time>2026-05-01T21:44:23.311Z</time></trkpt><trkpt lat="46.1988758" lon="11.2282573"><ele>1227.0</ele><time>2026-05-01T21:44:26.296Z</time></trkpt><trkpt lat="46.1988434" lon="11.2283384"><ele>1227.0</ele><time>2026-05-01T21:44:29.326Z</time></trkpt><trkpt lat="46.1989229" lon="11.2283017"><ele>1221.6</ele><time>2026-05-01T21:44:33.346Z</time></trkpt><trkpt lat="46.1990584" lon="11.2282146"><ele>1216.2</ele><time>2026-05-01T21:44:36.335Z</time></trkpt><trkpt lat="46.1991329" lon="11.228169"><ele>1210.8</ele><time>2026-05-01T21:44:38.374Z</time></trkpt><trkpt lat="46.1992106" lon="11.228151"><ele>1205.4</ele><time>2026-05-01T21:44:40.355Z</time></trkpt><trkpt lat="46.1993109" lon="11.2281726"><ele>1200.0</ele><time>2026-05-01T21:44:42.345Z</time></trkpt><trkpt lat="46.1994074" lon="11.2282407"><ele>1199.9999999999998</ele><time>2026-05-01T21:44:44.334Z</time></trkpt><trkpt lat="46.1994799" lon="11.228288"><ele>1200.0</ele><time>2026-05-01T21:44:45.38Z</time></trkpt><trkpt lat="46.1995407" lon="11.2283222"><ele>1200.0</ele><time>2026-05-01T21:44:46.347Z</time></trkpt><trkpt lat="46.1996085" lon="11.228323"><ele>1200.0</ele><time>2026-05-01T21:44:47.316Z</time></trkpt><trkpt lat="46.1996894" lon="11.2283348"><ele>1200.0</ele><time>2026-05-01T21:44:49.333Z</time></trkpt><trkpt lat="46.1997581" lon="11.2282952"><ele>1199.9999999999998</ele><time>2026-05-01T21:44:51.35Z</time></trkpt><trkpt lat="46.1998137" lon="11.2282277"><ele>1200.0</ele><time>2026-05-01T21:44:53.337Z</time></trkpt><trkpt lat="46.1998833" lon="11.228187"><ele>1201.0</ele><time>2026-05-01T21:44:55.336Z</time></trkpt><trkpt lat="46.199952" lon="11.2281578"><ele>1202.0</ele><time>2026-05-01T21:44:57.391Z</time></trkpt><trkpt lat="46.2000186" lon="11.2281098"><ele>1203.0</ele><time>2026-05-01T21:44:59.362Z</time></trkpt><trkpt lat="46.2000868" lon="11.2280608"><ele>1204.0</ele><time>2026-05-01T21:45:01.347Z</time></trkpt><trkpt lat="46.200156" lon="11.227992"><ele>1205.0</ele><time>2026-05-01T21:45:03.362Z</time></trkpt><trkpt lat="46.2002335" lon="11.2279121"><ele>1206.0</ele><time>2026-05-01T21:45:05.367Z</time></trkpt><trkpt lat="46.2003184" lon="11.227812"><ele>1206.0</ele><time>2026-05-01T21:45:07.435Z</time></trkpt><trkpt lat="46.2004112" lon="11.2277034"><ele>1206.0</ele><time>2026-05-01T21:45:09.369Z</time></trkpt><trkpt lat="46.200462" lon="11.2276444"><ele>1206.0</ele><time>2026-05-01T21:45:10.364Z</time></trkpt><trkpt lat="46.2005155" lon="11.2275934"><ele>1206.0</ele><time>2026-05-01T21:45:11.37Z</time></trkpt><trkpt lat="46.2006104" lon="11.2274726"><ele>1206.0</ele><time>2026-05-01T21:45:13.349Z</time></trkpt><trkpt lat="46.2006966" lon="11.2273728"><ele>1204.3999999999999</ele><time>2026-05-01T21:45:15.353Z</time></trkpt><trkpt lat="46.200786" lon="11.2272667"><ele>1202.8</ele><time>2026-05-01T21:45:17.364Z</time></trkpt><trkpt lat="46.2008672" lon="11.2271961"><ele>1201.1999999999998</ele><time>2026-05-01T21:45:19.332Z</time></trkpt><trkpt lat="46.2009585" lon="11.2271276"><ele>1199.6</ele><time>2026-05-01T21:45:21.319Z</time></trkpt><trkpt lat="46.201038" lon="11.2270582"><ele>1198.0</ele><time>2026-05-01T21:45:23.32Z</time></trkpt><trkpt lat="46.2010962" lon="11.2269992"><ele>1198.0</ele><time>2026-05-01T21:45:25.329Z</time></trkpt><trkpt lat="46.2011646" lon="11.2269461"><ele>1198.0</ele><time>2026-05-01T21:45:27.321Z</time></trkpt><trkpt lat="46.2012523" lon="11.2268764"><ele>1198.0</ele><time>2026-05-01T21:45:29.315Z</time></trkpt><trkpt lat="46.2013088" lon="11.2268361"><ele>1198.0</ele><time>2026-05-01T21:45:30.317Z</time></trkpt><trkpt lat="46.2014186" lon="11.2267699"><ele>1198.0</ele><time>2026-05-01T21:45:32.313Z</time></trkpt><trkpt lat="46.2015124" lon="11.2267136"><ele>1191.6</ele><time>2026-05-01T21:45:34.305Z</time></trkpt><trkpt lat="46.2015839" lon="11.2266625"><ele>1185.1999999999998</ele><time>2026-05-01T21:45:36.323Z</time></trkpt><trkpt lat="46.2016594" lon="11.2266095"><ele>1178.8</ele><time>2026-05-01T21:45:38.303Z</time></trkpt><trkpt lat="46.2017381" lon="11.2265541"><ele>1172.3999999999999</ele><time>2026-05-01T21:45:40.289Z</time></trkpt><trkpt lat="46.2019273" lon="11.226558"><ele>1166.0</ele><time>2026-05-01T21:45:45.368Z</time></trkpt><trkpt lat="46.2020637" lon="11.22657"><ele>1166.0</ele><time>2026-05-01T21:45:48.373Z</time></trkpt><trkpt lat="46.2021333" lon="11.2265903"><ele>1166.0</ele><time>2026-05-01T21:45:50.335Z</time></trkpt><trkpt lat="46.2022208" lon="11.2266033"><ele>1166.0</ele><time>2026-05-01T21:45:53.384Z</time></trkpt><trkpt lat="46.2022895" lon="11.2266127"><ele>1166.0</ele><time>2026-05-01T21:45:55.35Z</time></trkpt><trkpt lat="46.2023583" lon="11.2266483"><ele>1166.0</ele><time>2026-05-01T21:45:57.292Z</time></trkpt><trkpt lat="46.2024323" lon="11.2267211"><ele>1166.0</ele><time>2026-05-01T21:45:59.314Z</time></trkpt><trkpt lat="46.2025204" lon="11.2268033"><ele>1162.6</ele><time>2026-05-01T21:46:01.348Z</time></trkpt><trkpt lat="46.2025997" lon="11.2269027"><ele>1159.1999999999998</ele><time>2026-05-01T21:46:03.362Z</time></trkpt><trkpt lat="46.202669" lon="11.2270296"><ele>1155.8000000000002</ele><time>2026-05-01T21:46:05.37Z</time></trkpt><trkpt lat="46.2027163" lon="11.2271072"><ele>1152.4</ele><time>2026-05-01T21:46:07.361Z</time></trkpt><trkpt lat="46.2027816" lon="11.2271868"><ele>1149.0</ele><time>2026-05-01T21:46:09.362Z</time></trkpt><trkpt lat="46.2028503" lon="11.2272582"><ele>1146.142857142857</ele><time>2026-05-01T21:46:11.355Z</time></trkpt><trkpt lat="46.2028867" lon="11.2273353"><ele>1143.2857142857142</ele><time>2026-05-01T21:46:13.334Z</time></trkpt><trkpt lat="46.2028582" lon="11.2274243"><ele>1140.4285714285713</ele><time>2026-05-01T21:46:17.38Z</time></trkpt><trkpt lat="46.202788" lon="11.2274856"><ele>1137.5714285714284</ele><time>2026-05-01T21:46:19.357Z</time></trkpt><trkpt lat="46.2027185" lon="11.2275291"><ele>1134.7142857142856</ele><time>2026-05-01T21:46:21.365Z</time></trkpt><trkpt lat="46.2026435" lon="11.2275614"><ele>1131.857142857143</ele><time>2026-05-01T21:46:23.343Z</time></trkpt><trkpt lat="46.2025782" lon="11.2275954"><ele>1129.0</ele><time>2026-05-01T21:46:24.356Z</time></trkpt><trkpt lat="46.2025176" lon="11.2276362"><ele>1129.0</ele><time>2026-05-01T21:46:25.344Z</time></trkpt><trkpt lat="46.2024153" lon="11.2277363"><ele>1129.0</ele><time>2026-05-01T21:46:27.343Z</time></trkpt><trkpt lat="46.2023194" lon="11.2278521"><ele>1129.0</ele><time>2026-05-01T21:46:29.377Z</time></trkpt><trkpt lat="46.2022382" lon="11.2279627"><ele>1129.0</ele><time>2026-05-01T21:46:31.355Z</time></trkpt><trkpt lat="46.2021685" lon="11.2280571"><ele>1128.0</ele><time>2026-05-01T21:46:33.361Z</time></trkpt><trkpt lat="46.2021379" lon="11.2281589"><ele>1127.0</ele><time>2026-05-01T21:46:35.366Z</time></trkpt><trkpt lat="46.2021104" lon="11.2282851"><ele>1126.0</ele><time>2026-05-01T21:46:37.396Z</time></trkpt><trkpt lat="46.2020598" lon="11.228436"><ele>1125.0</ele><time>2026-05-01T21:46:40.355Z</time></trkpt><trkpt lat="46.2020127" lon="11.2285316"><ele>1124.0</ele><time>2026-05-01T21:46:42.319Z</time></trkpt><trkpt lat="46.201965" lon="11.2286058"><ele>1123.0</ele><time>2026-05-01T21:46:44.294Z</time></trkpt><trkpt lat="46.2019444" lon="11.2286941"><ele>1123.0</ele><time>2026-05-01T21:46:47.322Z</time></trkpt><trkpt lat="46.201986" lon="11.2288057"><ele>1123.0</ele><time>2026-05-01T21:46:50.346Z</time></trkpt><trkpt lat="46.2020658" lon="11.2288488"><ele>1123.0</ele><time>2026-05-01T21:46:53.34Z</time></trkpt><trkpt lat="46.2021482" lon="11.2288303"><ele>1123.0</ele><time>2026-05-01T21:46:55.357Z</time></trkpt><trkpt lat="46.2022417" lon="11.2288121"><ele>1123.0</ele><time>2026-05-01T21:46:57.354Z</time></trkpt><trkpt lat="46.202308" lon="11.2288112"><ele>1123.0</ele><time>2026-05-01T21:46:58.333Z</time></trkpt><trkpt lat="46.2024211" lon="11.22881"><ele>1119.0</ele><time>2026-05-01T21:47:00.349Z</time></trkpt><trkpt lat="46.202611" lon="11.2288167"><ele>1115.0</ele><time>2026-05-01T21:47:04.353Z</time></trkpt><trkpt lat="46.2027175" lon="11.2288132"><ele>1111.0</ele><time>2026-05-01T21:47:06.353Z</time></trkpt><trkpt lat="46.2028106" lon="11.2287903"><ele>1107.0</ele><time>2026-05-01T21:47:08.355Z</time></trkpt><trkpt lat="46.202893" lon="11.2287651"><ele>1107.0</ele><time>2026-05-01T21:47:10.353Z</time></trkpt><trkpt lat="46.20297" lon="11.2287462"><ele>1107.0</ele><time>2026-05-01T21:47:12.347Z</time></trkpt><trkpt lat="46.2031129" lon="11.2287812"><ele>1107.0</ele><time>2026-05-01T21:47:15.4Z</time></trkpt><trkpt lat="46.2032101" lon="11.2288554"><ele>1107.0</ele><time>2026-05-01T21:47:17.361Z</time></trkpt><trkpt lat="46.2033053" lon="11.2289362"><ele>1107.0</ele><time>2026-05-01T21:47:19.359Z</time></trkpt><trkpt lat="46.2033763" lon="11.228996"><ele>1102.0</ele><time>2026-05-01T21:47:20.389Z</time></trkpt><trkpt lat="46.2034358" lon="11.2290598"><ele>1097.0</ele><time>2026-05-01T21:47:21.378Z</time></trkpt><trkpt lat="46.2035326" lon="11.229157"><ele>1092.0</ele><time>2026-05-01T21:47:23.371Z</time></trkpt><trkpt lat="46.2036185" lon="11.2292241"><ele>1087.0</ele><time>2026-05-01T21:47:25.356Z</time></trkpt><trkpt lat="46.2037391" lon="11.2292929"><ele>1082.0</ele><time>2026-05-01T21:47:27.374Z</time></trkpt><trkpt lat="46.2038001" lon="11.2293362"><ele>1082.0</ele><time>2026-05-01T21:47:28.404Z</time></trkpt><trkpt lat="46.2039066" lon="11.22939"><ele>1082.0</ele><time>2026-05-01T21:47:30.361Z</time></trkpt><trkpt lat="46.2040097" lon="11.2294463"><ele>1082.0</ele><time>2026-05-01T21:47:32.374Z</time></trkpt><trkpt lat="46.204081" lon="11.2294753"><ele>1082.0</ele><time>2026-05-01T21:47:34.342Z</time></trkpt><trkpt lat="46.2041536" lon="11.2295611"><ele>1082.0</ele><time>2026-05-01T21:47:36.342Z</time></trkpt><trkpt lat="46.2042244" lon="11.2296413"><ele>1083.2</ele><time>2026-05-01T21:47:38.366Z</time></trkpt><trkpt lat="46.2043258" lon="11.2296848"><ele>1084.4</ele><time>2026-05-01T21:47:40.369Z</time></trkpt><trkpt lat="46.2043899" lon="11.2297088"><ele>1085.6</ele><time>2026-05-01T21:47:41.362Z</time></trkpt><trkpt lat="46.204511" lon="11.229767"><ele>1086.8</ele><time>2026-05-01T21:47:43.35Z</time></trkpt><trkpt lat="46.2046248" lon="11.2297858"><ele>1088.0</ele><time>2026-05-01T21:47:45.338Z</time></trkpt><trkpt lat="46.2047237" lon="11.2297589"><ele>1087.6</ele><time>2026-05-01T21:47:47.345Z</time></trkpt><trkpt lat="46.2048342" lon="11.2297079"><ele>1087.1999999999998</ele><time>2026-05-01T21:47:49.332Z</time></trkpt><trkpt lat="46.2048949" lon="11.2296752"><ele>1086.8</ele><time>2026-05-01T21:47:50.354Z</time></trkpt><trkpt lat="46.2050056" lon="11.2296375"><ele>1086.3999999999999</ele><time>2026-05-01T21:47:52.333Z</time></trkpt><trkpt lat="46.2051148" lon="11.2296082"><ele>1086.0</ele><time>2026-05-01T21:47:54.335Z</time></trkpt><trkpt lat="46.2051821" lon="11.2295985"><ele>1086.0</ele><time>2026-05-01T21:47:55.321Z</time></trkpt><trkpt lat="46.2053015" lon="11.2295895"><ele>1086.0</ele><time>2026-05-01T21:47:57.388Z</time></trkpt><trkpt lat="46.2054032" lon="11.2295715"><ele>1086.0</ele><time>2026-05-01T21:47:59.367Z</time></trkpt><trkpt lat="46.2054959" lon="11.2295657"><ele>1086.0</ele><time>2026-05-01T21:48:01.329Z</time></trkpt><trkpt lat="46.2055908" lon="11.2295545"><ele>1086.0</ele><time>2026-05-01T21:48:03.336Z</time></trkpt><trkpt lat="46.2056544" lon="11.2294908"><ele>1082.6</ele><time>2026-05-01T21:48:05.359Z</time></trkpt><trkpt lat="46.2057447" lon="11.2294162"><ele>1079.1999999999998</ele><time>2026-05-01T21:48:07.357Z</time></trkpt><trkpt lat="46.2058644" lon="11.229316"><ele>1075.8000000000002</ele><time>2026-05-01T21:48:09.314Z</time></trkpt><trkpt lat="46.2059566" lon="11.229237"><ele>1072.4</ele><time>2026-05-01T21:48:10.315Z</time></trkpt><trkpt lat="46.2060372" lon="11.2291583"><ele>1069.0</ele><time>2026-05-01T21:48:11.321Z</time></trkpt><trkpt lat="46.2061438" lon="11.2290547"><ele>1071.0</ele><time>2026-05-01T21:48:12.341Z</time></trkpt><trkpt lat="46.206258" lon="11.2289365"><ele>1073.0</ele><time>2026-05-01T21:48:13.354Z</time></trkpt><trkpt lat="46.2063498" lon="11.2288275"><ele>1075.0</ele><time>2026-05-01T21:48:14.376Z</time></trkpt><trkpt lat="46.2064205" lon="11.2287394"><ele>1077.0</ele><time>2026-05-01T21:48:15.359Z</time></trkpt><trkpt lat="46.2064838" lon="11.2286687"><ele>1079.0</ele><time>2026-05-01T21:48:16.386Z</time></trkpt><trkpt lat="46.2065592" lon="11.2285745"><ele>1079.0</ele><time>2026-05-01T21:48:17.333Z</time></trkpt><trkpt lat="46.2066479" lon="11.2284552"><ele>1079.0</ele><time>2026-05-01T21:48:18.445Z</time></trkpt><trkpt lat="46.2067266" lon="11.228339"><ele>1079.0</ele><time>2026-05-01T21:48:19.364Z</time></trkpt><trkpt lat="46.206813" lon="11.2282184"><ele>1079.0</ele><time>2026-05-01T21:48:20.37Z</time></trkpt><trkpt lat="46.2069042" lon="11.2281011"><ele>1088.6000000000001</ele><time>2026-05-01T21:48:21.392Z</time></trkpt><trkpt lat="46.2069715" lon="11.2280172"><ele>1098.2</ele><time>2026-05-01T21:48:22.356Z</time></trkpt><trkpt lat="46.2070356" lon="11.2279366"><ele>1107.8000000000002</ele><time>2026-05-01T21:48:23.397Z</time></trkpt><trkpt lat="46.2071061" lon="11.2278553"><ele>1117.4</ele><time>2026-05-01T21:48:24.346Z</time></trkpt><trkpt lat="46.2071873" lon="11.2277576"><ele>1127.0</ele><time>2026-05-01T21:48:25.368Z</time></trkpt><trkpt lat="46.2072704" lon="11.2276489"><ele>1125.75</ele><time>2026-05-01T21:48:26.335Z</time></trkpt><trkpt lat="46.2073554" lon="11.227524"><ele>1124.5</ele><time>2026-05-01T21:48:27.377Z</time></trkpt><trkpt lat="46.2074354" lon="11.2273985"><ele>1123.25</ele><time>2026-05-01T21:48:28.375Z</time></trkpt><trkpt lat="46.207512" lon="11.227278"><ele>1122.0</ele><time>2026-05-01T21:48:29.362Z</time></trkpt><trkpt lat="46.2075881" lon="11.2271643"><ele>1122.0</ele><time>2026-05-01T21:48:30.353Z</time></trkpt><trkpt lat="46.2076689" lon="11.2270483"><ele>1122.0</ele><time>2026-05-01T21:48:31.362Z</time></trkpt><trkpt lat="46.207767" lon="11.2269147"><ele>1122.0</ele><time>2026-05-01T21:48:32.373Z</time></trkpt><trkpt lat="46.2078785" lon="11.2267588"><ele>1122.0</ele><time>2026-05-01T21:48:33.367Z</time></trkpt><trkpt lat="46.2079981" lon="11.2265809"><ele>1123.4</ele><time>2026-05-01T21:48:34.389Z</time></trkpt><trkpt lat="46.2080834" lon="11.2264472"><ele>1124.8000000000002</ele><time>2026-05-01T21:48:35.353Z</time></trkpt><trkpt lat="46.2081579" lon="11.2263426"><ele>1126.2</ele><time>2026-05-01T21:48:36.403Z</time></trkpt><trkpt lat="46.2082183" lon="11.2262615"><ele>1127.6000000000001</ele><time>2026-05-01T21:48:37.374Z</time></trkpt><trkpt lat="46.2082704" lon="11.2261833"><ele>1129.0</ele><time>2026-05-01T21:48:38.383Z</time></trkpt><trkpt lat="46.2083276" lon="11.2261057"><ele>1129.0</ele><time>2026-05-01T21:48:39.366Z</time></trkpt><trkpt lat="46.2083874" lon="11.2260294"><ele>1129.0</ele><time>2026-05-01T21:48:40.335Z</time></trkpt><trkpt lat="46.2084456" lon="11.2259472"><ele>1129.0</ele><time>2026-05-01T21:48:41.357Z</time></trkpt><trkpt lat="46.2085009" lon="11.2258718"><ele>1129.0</ele><time>2026-05-01T21:48:42.361Z</time></trkpt><trkpt lat="46.2085874" lon="11.2257396"><ele>1129.0</ele><time>2026-05-01T21:48:44.374Z</time></trkpt><trkpt lat="46.2086352" lon="11.2256588"><ele>1129.0</ele><time>2026-05-01T21:48:45.35Z</time></trkpt><trkpt lat="46.2086903" lon="11.2255719"><ele>1130.6666666666665</ele><time>2026-05-01T21:48:46.355Z</time></trkpt><trkpt lat="46.2087592" lon="11.2254832"><ele>1132.3333333333333</ele><time>2026-05-01T21:48:47.364Z</time></trkpt><trkpt lat="46.2088226" lon="11.2254136"><ele>1134.0</ele><time>2026-05-01T21:48:48.339Z</time></trkpt><trkpt lat="46.2088839" lon="11.2253499"><ele>1135.6666666666667</ele><time>2026-05-01T21:48:49.344Z</time></trkpt><trkpt lat="46.2089819" lon="11.2252464"><ele>1137.3333333333335</ele><time>2026-05-01T21:48:51.326Z</time></trkpt><trkpt lat="46.2090348" lon="11.2251928"><ele>1139.0</ele><time>2026-05-01T21:48:52.325Z</time></trkpt><trkpt lat="46.209089" lon="11.2251336"><ele>1139.0</ele><time>2026-05-01T21:48:53.307Z</time></trkpt><trkpt lat="46.2091468" lon="11.225072"><ele>1139.0</ele><time>2026-05-01T21:48:54.344Z</time></trkpt><trkpt lat="46.2092144" lon="11.2249923"><ele>1139.0</ele><time>2026-05-01T21:48:55.326Z</time></trkpt><trkpt lat="46.2092853" lon="11.2249107"><ele>1139.0</ele><time>2026-05-01T21:48:56.313Z</time></trkpt><trkpt lat="46.2093479" lon="11.224836"><ele>1139.0</ele><time>2026-05-01T21:48:57.298Z</time></trkpt><trkpt lat="46.2094088" lon="11.2247624"><ele>1139.0</ele><time>2026-05-01T21:48:58.343Z</time></trkpt><trkpt lat="46.2094747" lon="11.2246976"><ele>1143.6666666666667</ele><time>2026-05-01T21:48:59.299Z</time></trkpt><trkpt lat="46.2095426" lon="11.2246271"><ele>1148.3333333333335</ele><time>2026-05-01T21:49:00.324Z</time></trkpt><trkpt lat="46.2096039" lon="11.2245653"><ele>1153.0</ele><time>2026-05-01T21:49:01.331Z</time></trkpt><trkpt lat="46.2097242" lon="11.2244901"><ele>1157.6666666666667</ele><time>2026-05-01T21:49:03.328Z</time></trkpt><trkpt lat="46.2097829" lon="11.2244539"><ele>1162.3333333333333</ele><time>2026-05-01T21:49:04.319Z</time></trkpt><trkpt lat="46.2098451" lon="11.2244131"><ele>1167.0</ele><time>2026-05-01T21:49:05.324Z</time></trkpt><trkpt lat="46.2099171" lon="11.2243658"><ele>1167.0</ele><time>2026-05-01T21:49:06.32Z</time></trkpt><trkpt lat="46.2099819" lon="11.2243208"><ele>1167.0</ele><time>2026-05-01T21:49:07.333Z</time></trkpt><trkpt lat="46.2100939" lon="11.2242416"><ele>1167.0</ele><time>2026-05-01T21:49:09.307Z</time></trkpt><trkpt lat="46.2101589" lon="11.2241904"><ele>1167.0</ele><time>2026-05-01T21:49:10.294Z</time></trkpt><trkpt lat="46.210234" lon="11.2241276"><ele>1167.0</ele><time>2026-05-01T21:49:11.307Z</time></trkpt><trkpt lat="46.210294" lon="11.224079"><ele>1167.0</ele><time>2026-05-01T21:49:12.288Z</time></trkpt><trkpt lat="46.2103469" lon="11.2240251"><ele>1167.0</ele><time>2026-05-01T21:49:13.327Z</time></trkpt><trkpt lat="46.2104382" lon="11.2239703"><ele>1167.0</ele><time>2026-05-01T21:49:15.32Z</time></trkpt><trkpt lat="46.2105299" lon="11.2239888"><ele>1167.0</ele><time>2026-05-01T21:49:17.308Z</time></trkpt><trkpt lat="46.2106182" lon="11.2240298"><ele>1167.0</ele><time>2026-05-01T21:49:19.326Z</time></trkpt><trkpt lat="46.2105797" lon="11.2241819"><ele>1167.0</ele><time>2026-05-01T21:49:22.326Z</time></trkpt><trkpt lat="46.2105455" lon="11.2242603"><ele>1167.0</ele><time>2026-05-01T21:49:23.306Z</time></trkpt><trkpt lat="46.210508" lon="11.224372"><ele>1167.0</ele><time>2026-05-01T21:49:24.348Z</time></trkpt><trkpt lat="46.2104722" lon="11.2244971"><ele>1167.0</ele><time>2026-05-01T21:49:25.369Z</time></trkpt><trkpt lat="46.2104366" lon="11.2246295"><ele>1167.0</ele><time>2026-05-01T21:49:26.379Z</time></trkpt><trkpt lat="46.2104155" lon="11.2247496"><ele>1167.0</ele><time>2026-05-01T21:49:27.36Z</time></trkpt><trkpt lat="46.2103988" lon="11.2248477"><ele>1167.0</ele><time>2026-05-01T21:49:28.374Z</time></trkpt><trkpt lat="46.210379" lon="11.2249621"><ele>1162.6666666666667</ele><time>2026-05-01T21:49:29.365Z</time></trkpt><trkpt lat="46.210359" lon="11.2250687"><ele>1158.3333333333333</ele><time>2026-05-01T21:49:30.357Z</time></trkpt><trkpt lat="46.210345" lon="11.2251682"><ele>1154.0</ele><time>2026-05-01T21:49:31.342Z</time></trkpt><trkpt lat="46.2103235" lon="11.2252932"><ele>1149.6666666666665</ele><time>2026-05-01T21:49:32.356Z</time></trkpt><trkpt lat="46.2102989" lon="11.2254082"><ele>1145.3333333333333</ele><time>2026-05-01T21:49:33.357Z</time></trkpt><trkpt lat="46.2102748" lon="11.2255098"><ele>1141.0</ele><time>2026-05-01T21:49:34.352Z</time></trkpt><trkpt lat="46.2102586" lon="11.2256057"><ele>1141.0</ele><time>2026-05-01T21:49:35.351Z</time></trkpt><trkpt lat="46.2102443" lon="11.2257057"><ele>1141.0</ele><time>2026-05-01T21:49:36.356Z</time></trkpt><trkpt lat="46.2102414" lon="11.2258119"><ele>1141.0</ele><time>2026-05-01T21:49:37.344Z</time></trkpt><trkpt lat="46.2102344" lon="11.2259304"><ele>1141.0</ele><time>2026-05-01T21:49:38.388Z</time></trkpt><trkpt lat="46.210239" lon="11.2260746"><ele>1141.0</ele><time>2026-05-01T21:49:39.338Z</time></trkpt><trkpt lat="46.210233" lon="11.2262023"><ele>1141.0</ele><time>2026-05-01T21:49:40.351Z</time></trkpt><trkpt lat="46.2102276" lon="11.2263291"><ele>1141.0</ele><time>2026-05-01T21:49:41.349Z</time></trkpt><trkpt lat="46.2102468" lon="11.2264668"><ele>1141.0</ele><time>2026-05-01T21:49:42.353Z</time></trkpt><trkpt lat="46.2102577" lon="11.2265818"><ele>1141.0</ele><time>2026-05-01T21:49:43.346Z</time></trkpt><trkpt lat="46.2102604" lon="11.2266867"><ele>1141.0</ele><time>2026-05-01T21:49:44.365Z</time></trkpt><trkpt lat="46.2102696" lon="11.2267774"><ele>1141.0</ele><time>2026-05-01T21:49:45.453Z</time></trkpt><trkpt lat="46.2102868" lon="11.2269571"><ele>1141.0</ele><time>2026-05-01T21:49:47.394Z</time></trkpt><trkpt lat="46.2103066" lon="11.2270785"><ele>1142.8333333333333</ele><time>2026-05-01T21:49:48.394Z</time></trkpt><trkpt lat="46.2103283" lon="11.2271715"><ele>1144.6666666666665</ele><time>2026-05-01T21:49:49.367Z</time></trkpt><trkpt lat="46.2103576" lon="11.2272629"><ele>1146.5</ele><time>2026-05-01T21:49:50.347Z</time></trkpt><trkpt lat="46.2104207" lon="11.2273989"><ele>1148.3333333333333</ele><time>2026-05-01T21:49:52.356Z</time></trkpt><trkpt lat="46.2104975" lon="11.2274679"><ele>1150.1666666666667</ele><time>2026-05-01T21:49:54.376Z</time></trkpt><trkpt lat="46.2105702" lon="11.2274798"><ele>1152.0</ele><time>2026-05-01T21:49:56.358Z</time></trkpt><trkpt lat="46.2106841" lon="11.2274663"><ele>1159.6</ele><time>2026-05-01T21:49:58.345Z</time></trkpt><trkpt lat="46.2107763" lon="11.2274762"><ele>1167.2</ele><time>2026-05-01T21:50:00.353Z</time></trkpt><trkpt lat="46.2108112" lon="11.2275545"><ele>1174.8</ele><time>2026-05-01T21:50:02.358Z</time></trkpt><trkpt lat="46.2108778" lon="11.2276432"><ele>1182.4</ele><time>2026-05-01T21:50:04.356Z</time></trkpt><trkpt lat="46.2109381" lon="11.2276995"><ele>1190.0</ele><time>2026-05-01T21:50:06.448Z</time></trkpt><trkpt lat="46.2110768" lon="11.2277303"><ele>1190.0</ele><time>2026-05-01T21:50:08.397Z</time></trkpt><trkpt lat="46.211144" lon="11.2277506"><ele>1190.0</ele><time>2026-05-01T21:50:09.369Z</time></trkpt><trkpt lat="46.2112699" lon="11.2277989"><ele>1190.0</ele><time>2026-05-01T21:50:11.363Z</time></trkpt><trkpt lat="46.2113364" lon="11.2278422"><ele>1190.0</ele><time>2026-05-01T21:50:12.377Z</time></trkpt><trkpt lat="46.2114172" lon="11.2278807"><ele>1190.0</ele><time>2026-05-01T21:50:13.341Z</time></trkpt><trkpt lat="46.2114911" lon="11.2279069"><ele>1190.0</ele><time>2026-05-01T21:50:14.381Z</time></trkpt><trkpt lat="46.2115716" lon="11.2279209"><ele>1193.4285714285713</ele><time>2026-05-01T21:50:15.37Z</time></trkpt><trkpt lat="46.2116391" lon="11.2279402"><ele>1196.857142857143</ele><time>2026-05-01T21:50:16.362Z</time></trkpt><trkpt lat="46.2117057" lon="11.2279596"><ele>1200.2857142857142</ele><time>2026-05-01T21:50:17.349Z</time></trkpt><trkpt lat="46.211773" lon="11.2279878"><ele>1203.7142857142858</ele><time>2026-05-01T21:50:18.324Z</time></trkpt><trkpt lat="46.2118544" lon="11.228009"><ele>1207.142857142857</ele><time>2026-05-01T21:50:19.409Z</time></trkpt><trkpt lat="46.2119357" lon="11.2280264"><ele>1210.5714285714284</ele><time>2026-05-01T21:50:20.367Z</time></trkpt><trkpt lat="46.2120088" lon="11.2280393"><ele>1214.0</ele><time>2026-05-01T21:50:21.397Z</time></trkpt><trkpt lat="46.21214" lon="11.2280535"><ele>1214.0</ele><time>2026-05-01T21:50:23.354Z</time></trkpt><trkpt lat="46.2122099" lon="11.2280487"><ele>1214.0</ele><time>2026-05-01T21:50:24.354Z</time></trkpt><trkpt lat="46.2123376" lon="11.2280507"><ele>1214.0</ele><time>2026-05-01T21:50:26.354Z</time></trkpt><trkpt lat="46.212445" lon="11.2280613"><ele>1214.0</ele><time>2026-05-01T21:50:28.351Z</time></trkpt><trkpt lat="46.2124026" lon="11.2282055"><ele>1214.0</ele><time>2026-05-01T21:50:33.357Z</time></trkpt><trkpt lat="46.2123561" lon="11.2282802"><ele>1209.0</ele><time>2026-05-01T21:50:34.346Z</time></trkpt><trkpt lat="46.2122936" lon="11.2284153"><ele>1204.0</ele><time>2026-05-01T21:50:36.334Z</time></trkpt><trkpt lat="46.2122576" lon="11.228492"><ele>1199.0</ele><time>2026-05-01T21:50:37.364Z</time></trkpt><trkpt lat="46.2122233" lon="11.2285806"><ele>1194.0</ele><time>2026-05-01T21:50:38.41Z</time></trkpt><trkpt lat="46.2121902" lon="11.2286663"><ele>1189.0</ele><time>2026-05-01T21:50:39.352Z</time></trkpt><trkpt lat="46.2121555" lon="11.2287529"><ele>1184.0</ele><time>2026-05-01T21:50:40.363Z</time></trkpt><trkpt lat="46.2120937" lon="11.2288918"><ele>1184.0</ele><time>2026-05-01T21:50:42.355Z</time></trkpt><trkpt lat="46.2120493" lon="11.2289597"><ele>1184.0</ele><time>2026-05-01T21:50:43.325Z</time></trkpt><trkpt lat="46.2119975" lon="11.2290265"><ele>1184.0</ele><time>2026-05-01T21:50:44.298Z</time></trkpt><trkpt lat="46.2119239" lon="11.2290953"><ele>1184.0</ele><time>2026-05-01T21:50:45.327Z</time></trkpt><trkpt lat="46.2118622" lon="11.2291758"><ele>1184.0</ele><time>2026-05-01T21:50:46.324Z</time></trkpt><trkpt lat="46.2117991" lon="11.2292605"><ele>1184.0</ele><time>2026-05-01T21:50:47.327Z</time></trkpt><trkpt lat="46.2117415" lon="11.2293384"><ele>1182.5</ele><time>2026-05-01T21:50:48.324Z</time></trkpt><trkpt lat="46.2116884" lon="11.2294102"><ele>1181.0</ele><time>2026-05-01T21:50:49.324Z</time></trkpt><trkpt lat="46.211637" lon="11.2294787"><ele>1179.5</ele><time>2026-05-01T21:50:50.325Z</time></trkpt><trkpt lat="46.2115818" lon="11.2295539"><ele>1178.0</ele><time>2026-05-01T21:50:51.347Z</time></trkpt><trkpt lat="46.2115184" lon="11.2296415"><ele>1176.5</ele><time>2026-05-01T21:50:52.378Z</time></trkpt><trkpt lat="46.2114637" lon="11.2297218"><ele>1175.0</ele><time>2026-05-01T21:50:53.306Z</time></trkpt><trkpt lat="46.211417" lon="11.2298005"><ele>1172.0</ele><time>2026-05-01T21:50:54.344Z</time></trkpt><trkpt lat="46.2113782" lon="11.2298731"><ele>1169.0</ele><time>2026-05-01T21:50:55.307Z</time></trkpt><trkpt lat="46.2113356" lon="11.229953"><ele>1166.0</ele><time>2026-05-01T21:50:56.321Z</time></trkpt><trkpt lat="46.2112963" lon="11.2300301"><ele>1163.0</ele><time>2026-05-01T21:50:57.335Z</time></trkpt><trkpt lat="46.2112543" lon="11.2301109"><ele>1160.0</ele><time>2026-05-01T21:50:58.366Z</time></trkpt><trkpt lat="46.2112168" lon="11.23019"><ele>1157.0</ele><time>2026-05-01T21:50:59.363Z</time></trkpt><trkpt lat="46.2112671" lon="11.2303701"><ele>1157.0</ele><time>2026-05-01T21:51:01.36Z</time></trkpt><trkpt lat="46.211266" lon="11.2305291"><ele>1157.0</ele><time>2026-05-01T21:51:03.368Z</time></trkpt><trkpt lat="46.2112955" lon="11.2306476"><ele>1157.0</ele><time>2026-05-01T21:51:05.337Z</time></trkpt><trkpt lat="46.2113362" lon="11.2307886"><ele>1157.0</ele><time>2026-05-01T21:51:07.335Z</time></trkpt><trkpt lat="46.2113476" lon="11.2308827"><ele>1157.0</ele><time>2026-05-01T21:51:08.387Z</time></trkpt><trkpt lat="46.2113553" lon="11.230975"><ele>1157.0</ele><time>2026-05-01T21:51:09.346Z</time></trkpt><trkpt lat="46.2113416" lon="11.2310685"><ele>1160.6666666666667</ele><time>2026-05-01T21:51:10.524Z</time></trkpt><trkpt lat="46.2112775" lon="11.2312031"><ele>1164.3333333333335</ele><time>2026-05-01T21:51:12.361Z</time></trkpt><trkpt lat="46.2112384" lon="11.2312862"><ele>1168.0</ele><time>2026-05-01T21:51:13.322Z</time></trkpt><trkpt lat="46.2111856" lon="11.2313712"><ele>1171.6666666666667</ele><time>2026-05-01T21:51:14.329Z</time></trkpt><trkpt lat="46.2111363" lon="11.2314657"><ele>1175.3333333333333</ele><time>2026-05-01T21:51:15.332Z</time></trkpt><trkpt lat="46.211094" lon="11.2315498"><ele>1179.0</ele><time>2026-05-01T21:51:16.318Z</time></trkpt><trkpt lat="46.2110336" lon="11.2316367"><ele>1181.0</ele><time>2026-05-01T21:51:17.334Z</time></trkpt><trkpt lat="46.2109768" lon="11.2317108"><ele>1183.0</ele><time>2026-05-01T21:51:18.339Z</time></trkpt><trkpt lat="46.2108855" lon="11.2318206"><ele>1185.0</ele><time>2026-05-01T21:51:20.331Z</time></trkpt><trkpt lat="46.2107931" lon="11.231945"><ele>1187.0</ele><time>2026-05-01T21:51:22.344Z</time></trkpt><trkpt lat="46.2107409" lon="11.23202"><ele>1189.0</ele><time>2026-05-01T21:51:23.367Z</time></trkpt><trkpt lat="46.2106897" lon="11.2320859"><ele>1188.857142857143</ele><time>2026-05-01T21:51:24.34Z</time></trkpt><trkpt lat="46.2106389" lon="11.2321599"><ele>1188.7142857142858</ele><time>2026-05-01T21:51:25.356Z</time></trkpt><trkpt lat="46.2105864" lon="11.23223"><ele>1188.5714285714287</ele><time>2026-05-01T21:51:26.323Z</time></trkpt><trkpt lat="46.2105317" lon="11.2322991"><ele>1188.4285714285716</ele><time>2026-05-01T21:51:27.316Z</time></trkpt><trkpt lat="46.2104719" lon="11.2323711"><ele>1188.2857142857144</ele><time>2026-05-01T21:51:28.359Z</time></trkpt><trkpt lat="46.2104119" lon="11.2324278"><ele>1188.142857142857</ele><time>2026-05-01T21:51:29.318Z</time></trkpt><trkpt lat="46.210342" lon="11.2324919"><ele>1188.0</ele><time>2026-05-01T21:51:30.398Z</time></trkpt><trkpt lat="46.2102428" lon="11.2326067"><ele>1188.0</ele><time>2026-05-01T21:51:32.305Z</time></trkpt><trkpt lat="46.2101869" lon="11.2326528"><ele>1188.0</ele><time>2026-05-01T21:51:33.331Z</time></trkpt><trkpt lat="46.2100869" lon="11.232751"><ele>1188.0</ele><time>2026-05-01T21:51:35.346Z</time></trkpt><trkpt lat="46.209989" lon="11.2328645"><ele>1188.0</ele><time>2026-05-01T21:51:37.326Z</time></trkpt><trkpt lat="46.2099418" lon="11.2329284"><ele>1188.0</ele><time>2026-05-01T21:51:38.329Z</time></trkpt><trkpt lat="46.2098925" lon="11.2329935"><ele>1188.0</ele><time>2026-05-01T21:51:39.326Z</time></trkpt><trkpt lat="46.209839" lon="11.2330649"><ele>1186.3333333333333</ele><time>2026-05-01T21:51:40.32Z</time></trkpt><trkpt lat="46.2097978" lon="11.233137"><ele>1184.6666666666667</ele><time>2026-05-01T21:51:41.304Z</time></trkpt><trkpt lat="46.2097391" lon="11.2332844"><ele>1183.0</ele><time>2026-05-01T21:51:43.3Z</time></trkpt><trkpt lat="46.2097082" lon="11.2334233"><ele>1181.3333333333335</ele><time>2026-05-01T21:51:45.338Z</time></trkpt><trkpt lat="46.2096999" lon="11.2335554"><ele>1179.6666666666667</ele><time>2026-05-01T21:51:47.356Z</time></trkpt><trkpt lat="46.2096944" lon="11.2336498"><ele>1178.0</ele><time>2026-05-01T21:51:48.383Z</time></trkpt><trkpt lat="46.2096992" lon="11.2337987"><ele>1178.0</ele><time>2026-05-01T21:51:50.39Z</time></trkpt><trkpt lat="46.2097138" lon="11.2339568"><ele>1178.0</ele><time>2026-05-01T21:51:52.36Z</time></trkpt><trkpt lat="46.2097211" lon="11.2340475"><ele>1178.0</ele><time>2026-05-01T21:51:53.358Z</time></trkpt><trkpt lat="46.2097075" lon="11.2341608"><ele>1178.0</ele><time>2026-05-01T21:51:55.357Z</time></trkpt><trkpt lat="46.2097218" lon="11.234274"><ele>1178.0</ele><time>2026-05-01T21:51:59.369Z</time></trkpt><trkpt lat="46.2097742" lon="11.2343723"><ele>1178.0</ele><time>2026-05-01T21:52:01.348Z</time></trkpt><trkpt lat="46.2098321" lon="11.2345151"><ele>1181.6666666666667</ele><time>2026-05-01T21:52:03.37Z</time></trkpt><trkpt lat="46.2098643" lon="11.2347049"><ele>1185.3333333333335</ele><time>2026-05-01T21:52:05.466Z</time></trkpt><trkpt lat="46.2098511" lon="11.2348403"><ele>1189.0</ele><time>2026-05-01T21:52:07.379Z</time></trkpt><trkpt lat="46.2098332" lon="11.2349355"><ele>1192.6666666666667</ele><time>2026-05-01T21:52:08.359Z</time></trkpt><trkpt lat="46.2098003" lon="11.2350294"><ele>1196.3333333333333</ele><time>2026-05-01T21:52:09.35Z</time></trkpt><trkpt lat="46.209766" lon="11.2351298"><ele>1200.0</ele><time>2026-05-01T21:52:10.336Z</time></trkpt><trkpt lat="46.2097326" lon="11.2352139"><ele>1200.0</ele><time>2026-05-01T21:52:11.32Z</time></trkpt><trkpt lat="46.2097055" lon="11.2352965"><ele>1200.0</ele><time>2026-05-01T21:52:12.331Z</time></trkpt><trkpt lat="46.2096716" lon="11.2353803"><ele>1200.0</ele><time>2026-05-01T21:52:13.324Z</time></trkpt><trkpt lat="46.2096135" lon="11.2355147"><ele>1200.0</ele><time>2026-05-01T21:52:15.318Z</time></trkpt><trkpt lat="46.209572" lon="11.2356232"><ele>1200.0</ele><time>2026-05-01T21:52:17.362Z</time></trkpt><trkpt lat="46.2095782" lon="11.2357406"><ele>1200.0</ele><time>2026-05-01T21:52:19.346Z</time></trkpt><trkpt lat="46.2096438" lon="11.2356752"><ele>1200.0</ele><time>2026-05-01T21:52:22.377Z</time></trkpt><trkpt lat="46.2097391" lon="11.2356117"><ele>1200.0</ele><time>2026-05-01T21:52:24.368Z</time></trkpt><trkpt lat="46.2097886" lon="11.2355535"><ele>1200.0</ele><time>2026-05-01T21:52:25.36Z</time></trkpt><trkpt lat="46.2098829" lon="11.2354508"><ele>1200.0</ele><time>2026-05-01T21:52:27.363Z</time></trkpt><trkpt lat="46.2099916" lon="11.2353695"><ele>1200.0</ele><time>2026-05-01T21:52:29.375Z</time></trkpt><trkpt lat="46.2100508" lon="11.2353339"><ele>1208.0</ele><time>2026-05-01T21:52:30.364Z</time></trkpt><trkpt lat="46.2101696" lon="11.2352357"><ele>1216.0</ele><time>2026-05-01T21:52:32.388Z</time></trkpt><trkpt lat="46.2102255" lon="11.2351725"><ele>1224.0</ele><time>2026-05-01T21:52:33.366Z</time></trkpt><trkpt lat="46.2103232" lon="11.235069"><ele>1232.0</ele><time>2026-05-01T21:52:35.371Z</time></trkpt><trkpt lat="46.2103847" lon="11.2349456"><ele>1240.0</ele><time>2026-05-01T21:52:37.347Z</time></trkpt><trkpt lat="46.2104181" lon="11.2348073"><ele>1240.0</ele><time>2026-05-01T21:52:39.344Z</time></trkpt><trkpt lat="46.2104419" lon="11.234697"><ele>1240.0</ele><time>2026-05-01T21:52:41.375Z</time></trkpt><trkpt lat="46.2105171" lon="11.2348112"><ele>1240.0</ele><time>2026-05-01T21:52:45.377Z</time></trkpt><trkpt lat="46.2105211" lon="11.2349095"><ele>1240.0</ele><time>2026-05-01T21:52:46.365Z</time></trkpt><trkpt lat="46.2105314" lon="11.235022"><ele>1240.0</ele><time>2026-05-01T21:52:47.344Z</time></trkpt><trkpt lat="46.2105358" lon="11.2351269"><ele>1240.0</ele><time>2026-05-01T21:52:48.349Z</time></trkpt><trkpt lat="46.2105267" lon="11.235234"><ele>1240.0</ele><time>2026-05-01T21:52:49.365Z</time></trkpt><trkpt lat="46.2105182" lon="11.235353"><ele>1240.0</ele><time>2026-05-01T21:52:50.351Z</time></trkpt><trkpt lat="46.2105021" lon="11.2354801"><ele>1240.0</ele><time>2026-05-01T21:52:51.451Z</time></trkpt><trkpt lat="46.2104795" lon="11.2357011"><ele>1240.0</ele><time>2026-05-01T21:52:53.344Z</time></trkpt><trkpt lat="46.2104667" lon="11.235794"><ele>1240.0</ele><time>2026-05-01T21:52:54.339Z</time></trkpt><trkpt lat="46.21046" lon="11.2358846"><ele>1242.6</ele><time>2026-05-01T21:52:55.343Z</time></trkpt><trkpt lat="46.2104556" lon="11.2359836"><ele>1245.2</ele><time>2026-05-01T21:52:56.363Z</time></trkpt><trkpt lat="46.2104338" lon="11.2361146"><ele>1247.8</ele><time>2026-05-01T21:52:58.319Z</time></trkpt><trkpt lat="46.2104124" lon="11.2362929"><ele>1250.4</ele><time>2026-05-01T21:53:00.338Z</time></trkpt><trkpt lat="46.2103679" lon="11.2364637"><ele>1253.0</ele><time>2026-05-01T21:53:02.335Z</time></trkpt><trkpt lat="46.210332" lon="11.2365608"><ele>1257.5</ele><time>2026-05-01T21:53:03.346Z</time></trkpt><trkpt lat="46.2103089" lon="11.2366521"><ele>1262.0</ele><time>2026-05-01T21:53:04.364Z</time></trkpt><trkpt lat="46.2102635" lon="11.2367518"><ele>1266.5</ele><time>2026-05-01T21:53:05.398Z</time></trkpt><trkpt lat="46.2102182" lon="11.2368487"><ele>1271.0</ele><time>2026-05-01T21:53:06.357Z</time></trkpt><trkpt lat="46.2101655" lon="11.2369476"><ele>1275.5</ele><time>2026-05-01T21:53:07.401Z</time></trkpt><trkpt lat="46.2101129" lon="11.2370267"><ele>1280.0</ele><time>2026-05-01T21:53:08.357Z</time></trkpt><trkpt lat="46.2100141" lon="11.237167"><ele>1280.0</ele><time>2026-05-01T21:53:10.342Z</time></trkpt><trkpt lat="46.2099698" lon="11.2372675"><ele>1280.0</ele><time>2026-05-01T21:53:11.337Z</time></trkpt><trkpt lat="46.2099148" lon="11.2373375"><ele>1280.0</ele><time>2026-05-01T21:53:12.354Z</time></trkpt><trkpt lat="46.2098723" lon="11.2374212"><ele>1280.0</ele><time>2026-05-01T21:53:13.412Z</time></trkpt><trkpt lat="46.2098356" lon="11.2375271"><ele>1280.0</ele><time>2026-05-01T21:53:14.35Z</time></trkpt><trkpt lat="46.209801" lon="11.23764"><ele>1280.0</ele><time>2026-05-01T21:53:15.389Z</time></trkpt><trkpt lat="46.2097565" lon="11.2377317"><ele>1279.8</ele><time>2026-05-01T21:53:16.368Z</time></trkpt><trkpt lat="46.2097045" lon="11.2378162"><ele>1279.6</ele><time>2026-05-01T21:53:17.37Z</time></trkpt><trkpt lat="46.2096601" lon="11.2379102"><ele>1279.4</ele><time>2026-05-01T21:53:18.371Z</time></trkpt><trkpt lat="46.2096032" lon="11.2380522"><ele>1279.2</ele><time>2026-05-01T21:53:20.395Z</time></trkpt><trkpt lat="46.2096045" lon="11.2381977"><ele>1279.0</ele><time>2026-05-01T21:53:22.408Z</time></trkpt><trkpt lat="46.2096375" lon="11.2383586"><ele>1279.0</ele><time>2026-05-01T21:53:24.397Z</time></trkpt><trkpt lat="46.2096838" lon="11.2385419"><ele>1279.0</ele><time>2026-05-01T21:53:26.38Z</time></trkpt><trkpt lat="46.209713" lon="11.2386259"><ele>1279.0</ele><time>2026-05-01T21:53:27.388Z</time></trkpt><trkpt lat="46.2097451" lon="11.2387605"><ele>1279.0</ele><time>2026-05-01T21:53:29.395Z</time></trkpt><trkpt lat="46.2097937" lon="11.2388726"><ele>1279.0</ele><time>2026-05-01T21:53:32.423Z</time></trkpt><trkpt lat="46.2098316" lon="11.2389587"><ele>1286.0</ele><time>2026-05-01T21:53:33.393Z</time></trkpt><trkpt lat="46.2098736" lon="11.2390905"><ele>1293.0</ele><time>2026-05-01T21:53:34.5Z</time></trkpt><trkpt lat="46.2099296" lon="11.2392898"><ele>1300.0</ele><time>2026-05-01T21:53:36.395Z</time></trkpt><trkpt lat="46.2099745" lon="11.2394027"><ele>1307.0</ele><time>2026-05-01T21:53:37.405Z</time></trkpt><trkpt lat="46.2100142" lon="11.2395078"><ele>1314.0</ele><time>2026-05-01T21:53:40.4Z</time></trkpt><trkpt lat="46.2100984" lon="11.2395669"><ele>1314.0</ele><time>2026-05-01T21:53:42.391Z</time></trkpt><trkpt lat="46.2101896" lon="11.239614"><ele>1314.0</ele><time>2026-05-01T21:53:44.416Z</time></trkpt><trkpt lat="46.2102512" lon="11.2396419"><ele>1314.0</ele><time>2026-05-01T21:53:45.409Z</time></trkpt><trkpt lat="46.2103917" lon="11.2397681"><ele>1314.0</ele><time>2026-05-01T21:53:47.426Z</time></trkpt><trkpt lat="46.2105201" lon="11.2398264"><ele>1314.0</ele><time>2026-05-01T21:53:49.393Z</time></trkpt><trkpt lat="46.2105957" lon="11.2398476"><ele>1314.0</ele><time>2026-05-01T21:53:50.371Z</time></trkpt><trkpt lat="46.2106794" lon="11.2398619"><ele>1314.0</ele><time>2026-05-01T21:53:51.447Z</time></trkpt><trkpt lat="46.2107459" lon="11.2398749"><ele>1314.0</ele><time>2026-05-01T21:53:52.368Z</time></trkpt><trkpt lat="46.210818" lon="11.2398871"><ele>1314.0</ele><time>2026-05-01T21:53:53.42Z</time></trkpt><trkpt lat="46.2108935" lon="11.2398917"><ele>1314.0</ele><time>2026-05-01T21:53:54.445Z</time></trkpt><trkpt lat="46.2109662" lon="11.2398977"><ele>1314.0</ele><time>2026-05-01T21:53:55.397Z</time></trkpt><trkpt lat="46.2110455" lon="11.239906"><ele>1314.0</ele><time>2026-05-01T21:53:56.414Z</time></trkpt><trkpt lat="46.2111167" lon="11.2399144"><ele>1314.0</ele><time>2026-05-01T21:53:57.406Z</time></trkpt><trkpt lat="46.2111816" lon="11.2399157"><ele>1314.0</ele><time>2026-05-01T21:53:58.409Z</time></trkpt><trkpt lat="46.2113074" lon="11.2399229"><ele>1314.0</ele><time>2026-05-01T21:54:00.37Z</time></trkpt><trkpt lat="46.2113751" lon="11.2399224"><ele>1314.0</ele><time>2026-05-01T21:54:01.386Z</time></trkpt><trkpt lat="46.211447" lon="11.2399172"><ele>1314.0</ele><time>2026-05-01T21:54:02.369Z</time></trkpt><trkpt lat="46.2115235" lon="11.2399026"><ele>1314.3333333333333</ele><time>2026-05-01T21:54:03.445Z</time></trkpt><trkpt lat="46.2116006" lon="11.2398858"><ele>1314.6666666666667</ele><time>2026-05-01T21:54:04.373Z</time></trkpt><trkpt lat="46.2116915" lon="11.2398708"><ele>1315.0</ele><time>2026-05-01T21:54:05.383Z</time></trkpt><trkpt lat="46.2117659" lon="11.2398569"><ele>1315.3333333333335</ele><time>2026-05-01T21:54:06.376Z</time></trkpt><trkpt lat="46.211834" lon="11.2398444"><ele>1315.6666666666667</ele><time>2026-05-01T21:54:07.395Z</time></trkpt><trkpt lat="46.2119261" lon="11.2398584"><ele>1316.0</ele><time>2026-05-01T21:54:09.47Z</time></trkpt><trkpt lat="46.2120492" lon="11.2398595"><ele>1316.0</ele><time>2026-05-01T21:54:11.378Z</time></trkpt><trkpt lat="46.2121227" lon="11.2398761"><ele>1316.0</ele><time>2026-05-01T21:54:12.385Z</time></trkpt><trkpt lat="46.2122308" lon="11.2399055"><ele>1316.0</ele><time>2026-05-01T21:54:14.37Z</time></trkpt><trkpt lat="46.2122956" lon="11.2399322"><ele>1316.0</ele><time>2026-05-01T21:54:15.404Z</time></trkpt><trkpt lat="46.2123658" lon="11.2399672"><ele>1316.0</ele><time>2026-05-01T21:54:16.386Z</time></trkpt><trkpt lat="46.2124352" lon="11.2400021"><ele>1316.0</ele><time>2026-05-01T21:54:17.38Z</time></trkpt><trkpt lat="46.212503" lon="11.2400155"><ele>1318.3333333333335</ele><time>2026-05-01T21:54:18.377Z</time></trkpt><trkpt lat="46.2125908" lon="11.2400514"><ele>1320.6666666666667</ele><time>2026-05-01T21:54:19.403Z</time></trkpt><trkpt lat="46.2126599" lon="11.2400687"><ele>1323.0</ele><time>2026-05-01T21:54:20.403Z</time></trkpt><trkpt lat="46.212742" lon="11.2400618"><ele>1325.3333333333333</ele><time>2026-05-01T21:54:21.359Z</time></trkpt><trkpt lat="46.2128155" lon="11.24002"><ele>1327.6666666666665</ele><time>2026-05-01T21:54:22.376Z</time></trkpt><trkpt lat="46.2128776" lon="11.2399939"><ele>1330.0</ele><time>2026-05-01T21:54:23.346Z</time></trkpt><trkpt lat="46.2129367" lon="11.239962"><ele>1330.0</ele><time>2026-05-01T21:54:24.382Z</time></trkpt><trkpt lat="46.2130185" lon="11.2399355"><ele>1330.0</ele><time>2026-05-01T21:54:25.453Z</time></trkpt><trkpt lat="46.2130862" lon="11.2399149"><ele>1330.0</ele><time>2026-05-01T21:54:26.364Z</time></trkpt><trkpt lat="46.2131711" lon="11.2399036"><ele>1330.0</ele><time>2026-05-01T21:54:27.358Z</time></trkpt><trkpt lat="46.2132622" lon="11.2398895"><ele>1330.0</ele><time>2026-05-01T21:54:28.366Z</time></trkpt><trkpt lat="46.2133485" lon="11.2398576"><ele>1330.0</ele><time>2026-05-01T21:54:29.39Z</time></trkpt><trkpt lat="46.2135221" lon="11.2398393"><ele>1331.5</ele><time>2026-05-01T21:54:31.359Z</time></trkpt><trkpt lat="46.2135999" lon="11.2398093"><ele>1333.0</ele><time>2026-05-01T21:54:32.359Z</time></trkpt><trkpt lat="46.2136768" lon="11.2397856"><ele>1334.5</ele><time>2026-05-01T21:54:33.334Z</time></trkpt><trkpt lat="46.213769" lon="11.2397666"><ele>1336.0</ele><time>2026-05-01T21:54:34.391Z</time></trkpt><trkpt lat="46.2138401" lon="11.2397598"><ele>1337.5</ele><time>2026-05-01T21:54:35.305Z</time></trkpt><trkpt lat="46.2139172" lon="11.2397468"><ele>1339.0</ele><time>2026-05-01T21:54:36.326Z</time></trkpt><trkpt lat="46.214015" lon="11.2396997"><ele>1344.75</ele><time>2026-05-01T21:54:38.318Z</time></trkpt><trkpt lat="46.2141207" lon="11.239721"><ele>1350.5</ele><time>2026-05-01T21:54:40.328Z</time></trkpt><trkpt lat="46.2142016" lon="11.2398217"><ele>1356.25</ele><time>2026-05-01T21:54:44.327Z</time></trkpt><trkpt lat="46.2142705" lon="11.2399482"><ele>1362.0</ele><time>2026-05-01T21:54:46.322Z</time></trkpt><trkpt lat="46.2143807" lon="11.2400454"><ele>1362.0</ele><time>2026-05-01T21:54:48.361Z</time></trkpt><trkpt lat="46.2144501" lon="11.2401052"><ele>1362.0</ele><time>2026-05-01T21:54:49.389Z</time></trkpt><trkpt lat="46.214532" lon="11.2401547"><ele>1362.0</ele><time>2026-05-01T21:54:50.398Z</time></trkpt><trkpt lat="46.2146546" lon="11.2401586"><ele>1362.0</ele><time>2026-05-01T21:54:52.389Z</time></trkpt><trkpt lat="46.2147366" lon="11.240126"><ele>1362.0</ele><time>2026-05-01T21:54:53.352Z</time></trkpt><trkpt lat="46.2148197" lon="11.2401049"><ele>1364.6666666666667</ele><time>2026-05-01T21:54:54.381Z</time></trkpt><trkpt lat="46.214896" lon="11.2400766"><ele>1367.3333333333333</ele><time>2026-05-01T21:54:55.39Z</time></trkpt><trkpt lat="46.2149707" lon="11.2400698"><ele>1370.0</ele><time>2026-05-01T21:54:56.378Z</time></trkpt><trkpt lat="46.2150366" lon="11.2400483"><ele>1372.6666666666665</ele><time>2026-05-01T21:54:57.42Z</time></trkpt><trkpt lat="46.2151572" lon="11.2400719"><ele>1375.3333333333333</ele><time>2026-05-01T21:54:59.4Z</time></trkpt><trkpt lat="46.2152214" lon="11.240101"><ele>1378.0</ele><time>2026-05-01T21:55:00.384Z</time></trkpt><trkpt lat="46.2153115" lon="11.2401925"><ele>1378.0</ele><time>2026-05-01T21:55:02.371Z</time></trkpt><trkpt lat="46.2153996" lon="11.2402605"><ele>1378.0</ele><time>2026-05-01T21:55:04.376Z</time></trkpt><trkpt lat="46.2154665" lon="11.2402905"><ele>1378.0</ele><time>2026-05-01T21:55:05.38Z</time></trkpt><trkpt lat="46.2155602" lon="11.2403037"><ele>1378.0</ele><time>2026-05-01T21:55:07.397Z</time></trkpt><trkpt lat="46.2156302" lon="11.2403064"><ele>1378.0</ele><time>2026-05-01T21:55:09.352Z</time></trkpt><trkpt lat="46.2156232" lon="11.2401885"><ele>1378.0</ele><time>2026-05-01T21:55:13.373Z</time></trkpt><trkpt lat="46.2155654" lon="11.2400677"><ele>1378.0</ele><time>2026-05-01T21:55:15.346Z</time></trkpt><trkpt lat="46.2155273" lon="11.2399832"><ele>1378.0</ele><time>2026-05-01T21:55:16.365Z</time></trkpt><trkpt lat="46.2154647" lon="11.2398822"><ele>1378.0</ele><time>2026-05-01T21:55:18.345Z</time></trkpt><trkpt lat="46.2154661" lon="11.239747"><ele>1378.0</ele><time>2026-05-01T21:55:21.358Z</time></trkpt><trkpt lat="46.2155413" lon="11.2396936"><ele>1378.0</ele><time>2026-05-01T21:56:33.336Z</time></trkpt><trkpt lat="46.2155134" lon="11.23961"><ele>1378.0</ele><time>2026-05-01T21:56:45.378Z</time></trkpt><trkpt lat="46.2154746" lon="11.2395381"><ele>1379.5</ele><time>2026-05-01T21:56:59.356Z</time></trkpt><trkpt lat="46.2154905" lon="11.2394374"><ele>1381.0</ele><time>2026-05-01T21:57:06.358Z</time></trkpt><trkpt lat="46.2155217" lon="11.239319"><ele>1382.5</ele><time>2026-05-01T21:57:08.429Z</time></trkpt><trkpt lat="46.2155334" lon="11.2392264"><ele>1384.0</ele><time>2026-05-01T21:57:09.426Z</time></trkpt><trkpt lat="46.2155559" lon="11.2390749"><ele>1385.5</ele><time>2026-05-01T21:57:11.41Z</time></trkpt><trkpt lat="46.2156423" lon="11.2389661"><ele>1387.0</ele><time>2026-05-01T21:57:13.395Z</time></trkpt><trkpt lat="46.2157185" lon="11.2388783"><ele>1389.0</ele><time>2026-05-01T21:57:15.366Z</time></trkpt><trkpt lat="46.2157665" lon="11.2388159"><ele>1391.0</ele><time>2026-05-01T21:57:17.38Z</time></trkpt><trkpt lat="46.215812" lon="11.2387436"><ele>1393.0</ele><time>2026-05-01T21:57:20.374Z</time></trkpt><trkpt lat="46.2158021" lon="11.2386519"><ele>1395.0</ele><time>2026-05-01T21:57:36.366Z</time></trkpt><trkpt lat="46.2157573" lon="11.2385738"><ele>1397.0</ele><time>2026-05-01T21:57:45.391Z</time></trkpt><trkpt lat="46.215693" lon="11.2385531"><ele>1399.0</ele><time>2026-05-01T21:57:57.386Z</time></trkpt><trkpt lat="46.2156249" lon="11.2385992"><ele>1401.0</ele><time>2026-05-01T21:58:00.387Z</time></trkpt><trkpt lat="46.2155792" lon="11.2386699"><ele>1401.0</ele><time>2026-05-01T21:58:02.361Z</time></trkpt><trkpt lat="46.2155376" lon="11.2387996"><ele>1401.0</ele><time>2026-05-01T21:58:05.375Z</time></trkpt><trkpt lat="46.2155267" lon="11.2389151"><ele>1401.0</ele><time>2026-05-01T21:58:07.392Z</time></trkpt><trkpt lat="46.2155143" lon="11.2390609"><ele>1401.0</ele><time>2026-05-01T21:58:09.387Z</time></trkpt><trkpt lat="46.2154985" lon="11.2391681"><ele>1401.0</ele><time>2026-05-01T21:58:12.382Z</time></trkpt><trkpt lat="46.2155032" lon="11.2392658"><ele>1401.0</ele><time>2026-05-01T21:58:14.383Z</time></trkpt><trkpt lat="46.2154905" lon="11.2393785"><ele>1398.1999999999998</ele><time>2026-05-01T21:58:22.373Z</time></trkpt><trkpt lat="46.2154405" lon="11.2394942"><ele>1395.3999999999999</ele><time>2026-05-01T21:58:25.37Z</time></trkpt><trkpt lat="46.2153801" lon="11.2395301"><ele>1392.6</ele><time>2026-05-01T21:58:29.369Z</time></trkpt><trkpt lat="46.215284" lon="11.2395732"><ele>1389.8</ele><time>2026-05-01T21:58:32.405Z</time></trkpt><trkpt lat="46.215178" lon="11.2396346"><ele>1387.0</ele><time>2026-05-01T21:58:34.357Z</time></trkpt><trkpt lat="46.2151048" lon="11.2396999"><ele>1385.5</ele><time>2026-05-01T21:58:35.365Z</time></trkpt><trkpt lat="46.2150569" lon="11.2398017"><ele>1384.0</ele><time>2026-05-01T21:58:36.379Z</time></trkpt><trkpt lat="46.2150038" lon="11.2399038"><ele>1382.5</ele><time>2026-05-01T21:58:37.356Z</time></trkpt><trkpt lat="46.2150944" lon="11.2399284"><ele>1381.0</ele><time>2026-05-01T21:58:41.35Z</time></trkpt><trkpt lat="46.2150606" lon="11.2400555"><ele>1379.5</ele><time>2026-05-01T21:58:44.368Z</time></trkpt><trkpt lat="46.2150808" lon="11.2401682"><ele>1378.0</ele><time>2026-05-01T21:58:46.366Z</time></trkpt><trkpt lat="46.2151106" lon="11.2402571"><ele>1378.0</ele><time>2026-05-01T21:58:48.352Z</time></trkpt><trkpt lat="46.2151621" lon="11.2403278"><ele>1378.0</ele><time>2026-05-01T21:58:51.359Z</time></trkpt><trkpt lat="46.2152358" lon="11.2403589"><ele>1378.0</ele><time>2026-05-01T21:58:53.348Z</time></trkpt><trkpt lat="46.2153225" lon="11.2403782"><ele>1378.0</ele><time>2026-05-01T21:58:55.393Z</time></trkpt><trkpt lat="46.2154005" lon="11.2404"><ele>1378.0</ele><time>2026-05-01T21:58:57.409Z</time></trkpt><trkpt lat="46.2154922" lon="11.2404357"><ele>1378.0</ele><time>2026-05-01T21:58:59.389Z</time></trkpt><trkpt lat="46.215555" lon="11.2404823"><ele>1378.0</ele><time>2026-05-01T21:59:01.401Z</time></trkpt><trkpt lat="46.2156324" lon="11.2405641"><ele>1378.0</ele><time>2026-05-01T21:59:03.368Z</time></trkpt><trkpt lat="46.2157442" lon="11.2406535"><ele>1378.0</ele><time>2026-05-01T21:59:05.399Z</time></trkpt><trkpt lat="46.215818" lon="11.2406974"><ele>1378.0</ele><time>2026-05-01T21:59:06.491Z</time></trkpt><trkpt lat="46.2159412" lon="11.2407546"><ele>1378.0</ele><time>2026-05-01T21:59:08.36Z</time></trkpt><trkpt lat="46.2160623" lon="11.240773"><ele>1378.8000000000002</ele><time>2026-05-01T21:59:10.375Z</time></trkpt><trkpt lat="46.2161987" lon="11.2407852"><ele>1379.6</ele><time>2026-05-01T21:59:12.364Z</time></trkpt><trkpt lat="46.2162868" lon="11.2407973"><ele>1380.4</ele><time>2026-05-01T21:59:13.384Z</time></trkpt><trkpt lat="46.2163776" lon="11.240801"><ele>1381.1999999999998</ele><time>2026-05-01T21:59:14.365Z</time></trkpt><trkpt lat="46.216454" lon="11.2408211"><ele>1382.0</ele><time>2026-05-01T21:59:15.385Z</time></trkpt><trkpt lat="46.2165478" lon="11.2408724"><ele>1386.0</ele><time>2026-05-01T21:59:17.375Z</time></trkpt><trkpt lat="46.2166314" lon="11.2408939"><ele>1390.0</ele><time>2026-05-01T21:59:19.447Z</time></trkpt><trkpt lat="46.2167435" lon="11.2409231"><ele>1394.0</ele><time>2026-05-01T21:59:21.367Z</time></trkpt><trkpt lat="46.2168301" lon="11.2409423"><ele>1398.0</ele><time>2026-05-01T21:59:22.361Z</time></trkpt><trkpt lat="46.2169325" lon="11.2409513"><ele>1402.0</ele><time>2026-05-01T21:59:23.369Z</time></trkpt><trkpt lat="46.2170525" lon="11.2409595"><ele>1402.0</ele><time>2026-05-01T21:59:24.456Z</time></trkpt><trkpt lat="46.2171463" lon="11.2409498"><ele>1402.0</ele><time>2026-05-01T21:59:25.395Z</time></trkpt><trkpt lat="46.2172258" lon="11.240942"><ele>1402.0</ele><time>2026-05-01T21:59:26.38Z</time></trkpt><trkpt lat="46.2173096" lon="11.2409327"><ele>1402.0</ele><time>2026-05-01T21:59:27.472Z</time></trkpt><trkpt lat="46.2173788" lon="11.2409158"><ele>1402.0</ele><time>2026-05-01T21:59:28.464Z</time></trkpt><trkpt lat="46.2174527" lon="11.2408978"><ele>1402.0</ele><time>2026-05-01T21:59:29.388Z</time></trkpt><trkpt lat="46.2176068" lon="11.2409006"><ele>1403.6</ele><time>2026-05-01T21:59:32.352Z</time></trkpt><trkpt lat="46.2177206" lon="11.2408729"><ele>1405.1999999999998</ele><time>2026-05-01T21:59:34.358Z</time></trkpt><trkpt lat="46.2177917" lon="11.2408516"><ele>1406.8</ele><time>2026-05-01T21:59:35.459Z</time></trkpt><trkpt lat="46.2179211" lon="11.2407999"><ele>1408.4</ele><time>2026-05-01T21:59:37.367Z</time></trkpt><trkpt lat="46.2180268" lon="11.2407603"><ele>1410.0</ele><time>2026-05-01T21:59:39.363Z</time></trkpt><trkpt lat="46.2181327" lon="11.2407008"><ele>1410.4</ele><time>2026-05-01T21:59:41.366Z</time></trkpt><trkpt lat="46.2182327" lon="11.2406443"><ele>1410.8</ele><time>2026-05-01T21:59:43.374Z</time></trkpt><trkpt lat="46.2183465" lon="11.2405678"><ele>1411.1999999999998</ele><time>2026-05-01T21:59:45.381Z</time></trkpt><trkpt lat="46.2184083" lon="11.2405191"><ele>1411.6</ele><time>2026-05-01T21:59:46.377Z</time></trkpt><trkpt lat="46.2184665" lon="11.240464"><ele>1412.0</ele><time>2026-05-01T21:59:47.392Z</time></trkpt><trkpt lat="46.2185732" lon="11.240401"><ele>1412.0</ele><time>2026-05-01T21:59:49.375Z</time></trkpt><trkpt lat="46.2186421" lon="11.2403724"><ele>1412.0</ele><time>2026-05-01T21:59:50.368Z</time></trkpt><trkpt lat="46.2187496" lon="11.2403384"><ele>1412.0</ele><time>2026-05-01T21:59:51.381Z</time></trkpt><trkpt lat="46.2188665" lon="11.240305"><ele>1412.0</ele><time>2026-05-01T21:59:52.379Z</time></trkpt><trkpt lat="46.2189564" lon="11.2402592"><ele>1412.0</ele><time>2026-05-01T21:59:53.38Z</time></trkpt><trkpt lat="46.2190438" lon="11.2402245"><ele>1410.5</ele><time>2026-05-01T21:59:54.385Z</time></trkpt><trkpt lat="46.2191278" lon="11.2401703"><ele>1409.0</ele><time>2026-05-01T21:59:55.38Z</time></trkpt><trkpt lat="46.2192019" lon="11.2401043"><ele>1407.5</ele><time>2026-05-01T21:59:56.373Z</time></trkpt><trkpt lat="46.2192473" lon="11.2400378"><ele>1406.0</ele><time>2026-05-01T21:59:57.384Z</time></trkpt><trkpt lat="46.219351" lon="11.2399628"><ele>1404.5</ele><time>2026-05-01T21:59:59.374Z</time></trkpt><trkpt lat="46.2194113" lon="11.2399288"><ele>1403.0</ele><time>2026-05-01T22:00:00.39Z</time></trkpt><trkpt lat="46.2194912" lon="11.2398867"><ele>1402.9999999999998</ele><time>2026-05-01T22:00:01.399Z</time></trkpt><trkpt lat="46.2195692" lon="11.2398367"><ele>1403.0</ele><time>2026-05-01T22:00:02.402Z</time></trkpt><trkpt lat="46.2196435" lon="11.2397945"><ele>1403.0</ele><time>2026-05-01T22:00:03.403Z</time></trkpt><trkpt lat="46.2197047" lon="11.2397654"><ele>1403.0</ele><time>2026-05-01T22:00:04.377Z</time></trkpt><trkpt lat="46.2197742" lon="11.2397298"><ele>1403.0</ele><time>2026-05-01T22:00:05.377Z</time></trkpt><trkpt lat="46.219843" lon="11.2396925"><ele>1402.9999999999998</ele><time>2026-05-01T22:00:06.381Z</time></trkpt><trkpt lat="46.2199072" lon="11.2396614"><ele>1403.0</ele><time>2026-05-01T22:00:07.396Z</time></trkpt><trkpt lat="46.2200093" lon="11.2396122"><ele>1404.8000000000002</ele><time>2026-05-01T22:00:09.371Z</time></trkpt><trkpt lat="46.2201225" lon="11.2395757"><ele>1406.6</ele><time>2026-05-01T22:00:11.39Z</time></trkpt><trkpt lat="46.2202425" lon="11.2395534"><ele>1408.4</ele><time>2026-05-01T22:00:13.364Z</time></trkpt><trkpt lat="46.2203222" lon="11.2395445"><ele>1410.1999999999998</ele><time>2026-05-01T22:00:15.37Z</time></trkpt><trkpt lat="46.2204187" lon="11.2395674"><ele>1412.0</ele><time>2026-05-01T22:00:17.388Z</time></trkpt><trkpt lat="46.2205355" lon="11.2396226"><ele>1412.0</ele><time>2026-05-01T22:00:19.409Z</time></trkpt><trkpt lat="46.2206447" lon="11.239686"><ele>1412.0</ele><time>2026-05-01T22:00:21.372Z</time></trkpt><trkpt lat="46.2207523" lon="11.2397574"><ele>1412.0</ele><time>2026-05-01T22:00:23.358Z</time></trkpt><trkpt lat="46.2208438" lon="11.2398356"><ele>1412.0</ele><time>2026-05-01T22:00:25.393Z</time></trkpt><trkpt lat="46.2209302" lon="11.239928"><ele>1412.3999999999999</ele><time>2026-05-01T22:00:27.386Z</time></trkpt><trkpt lat="46.2210415" lon="11.2399964"><ele>1412.8</ele><time>2026-05-01T22:00:29.379Z</time></trkpt><trkpt lat="46.2211063" lon="11.240023"><ele>1413.2</ele><time>2026-05-01T22:00:30.39Z</time></trkpt><trkpt lat="46.2211736" lon="11.2400476"><ele>1413.6</ele><time>2026-05-01T22:00:31.375Z</time></trkpt><trkpt lat="46.2212806" lon="11.2400741"><ele>1414.0</ele><time>2026-05-01T22:00:32.37Z</time></trkpt><trkpt lat="46.2213851" lon="11.2401056"><ele>1414.0</ele><time>2026-05-01T22:00:33.413Z</time></trkpt><trkpt lat="46.2214777" lon="11.2401146"><ele>1414.0</ele><time>2026-05-01T22:00:34.384Z</time></trkpt><trkpt lat="46.2215402" lon="11.2401259"><ele>1414.0</ele><time>2026-05-01T22:00:35.368Z</time></trkpt><trkpt lat="46.2216446" lon="11.2401602"><ele>1414.0</ele><time>2026-05-01T22:00:37.369Z</time></trkpt><trkpt lat="46.2217563" lon="11.2402309"><ele>1414.0</ele><time>2026-05-01T22:00:39.389Z</time></trkpt><trkpt lat="46.221827" lon="11.2402701"><ele>1414.6666666666665</ele><time>2026-05-01T22:00:40.375Z</time></trkpt><trkpt lat="46.2218984" lon="11.2403066"><ele>1415.3333333333333</ele><time>2026-05-01T22:00:41.384Z</time></trkpt><trkpt lat="46.2219592" lon="11.2403455"><ele>1416.0</ele><time>2026-05-01T22:00:42.522Z</time></trkpt><trkpt lat="46.2220365" lon="11.2403984"><ele>1416.6666666666667</ele><time>2026-05-01T22:00:44.356Z</time></trkpt><trkpt lat="46.2220987" lon="11.2404462"><ele>1417.3333333333335</ele><time>2026-05-01T22:00:46.388Z</time></trkpt><trkpt lat="46.2221653" lon="11.2405078"><ele>1418.0</ele><time>2026-05-01T22:00:48.388Z</time></trkpt><trkpt lat="46.2222162" lon="11.2405849"><ele>1417.4</ele><time>2026-05-01T22:00:50.383Z</time></trkpt><trkpt lat="46.2222502" lon="11.2406914"><ele>1416.8000000000002</ele><time>2026-05-01T22:00:52.396Z</time></trkpt><trkpt lat="46.2222821" lon="11.2408368"><ele>1416.2</ele><time>2026-05-01T22:00:54.396Z</time></trkpt><trkpt lat="46.2223292" lon="11.2410178"><ele>1415.6</ele><time>2026-05-01T22:00:56.365Z</time></trkpt><trkpt lat="46.2223607" lon="11.2410995"><ele>1415.0</ele><time>2026-05-01T22:00:57.397Z</time></trkpt><trkpt lat="46.2224244" lon="11.2411663"><ele>1413.4</ele><time>2026-05-01T22:01:00.371Z</time></trkpt><trkpt lat="46.2225201" lon="11.2412292"><ele>1411.8</ele><time>2026-05-01T22:01:02.388Z</time></trkpt><trkpt lat="46.222604" lon="11.2412362"><ele>1410.1999999999998</ele><time>2026-05-01T22:01:05.391Z</time></trkpt><trkpt lat="46.2226715" lon="11.2411694"><ele>1408.6</ele><time>2026-05-01T22:01:07.368Z</time></trkpt><trkpt lat="46.2227741" lon="11.2410675"><ele>1407.0</ele><time>2026-05-01T22:01:09.38Z</time></trkpt><trkpt lat="46.2228326" lon="11.2410064"><ele>1407.0</ele><time>2026-05-01T22:01:10.422Z</time></trkpt><trkpt lat="46.2228893" lon="11.240961"><ele>1407.0</ele><time>2026-05-01T22:01:11.329Z</time></trkpt><trkpt lat="46.2229518" lon="11.2409121"><ele>1407.0</ele><time>2026-05-01T22:01:12.375Z</time></trkpt><trkpt lat="46.2230278" lon="11.2408696"><ele>1407.0</ele><time>2026-05-01T22:01:14.364Z</time></trkpt><trkpt lat="46.2231047" lon="11.2408436"><ele>1407.0</ele><time>2026-05-01T22:01:16.357Z</time></trkpt><trkpt lat="46.2232131" lon="11.2408665"><ele>1407.0</ele><time>2026-05-01T22:01:18.345Z</time></trkpt><trkpt lat="46.2233198" lon="11.2409422"><ele>1405.25</ele><time>2026-05-01T22:01:20.369Z</time></trkpt><trkpt lat="46.2234282" lon="11.2410417"><ele>1403.5</ele><time>2026-05-01T22:01:22.368Z</time></trkpt><trkpt lat="46.2235241" lon="11.2411341"><ele>1401.75</ele><time>2026-05-01T22:01:24.366Z</time></trkpt><trkpt lat="46.2236224" lon="11.2412226"><ele>1400.0</ele><time>2026-05-01T22:01:26.372Z</time></trkpt><trkpt lat="46.2237116" lon="11.2412987"><ele>1400.0</ele><time>2026-05-01T22:01:28.386Z</time></trkpt><trkpt lat="46.2237957" lon="11.2413703"><ele>1400.0</ele><time>2026-05-01T22:01:30.34Z</time></trkpt><trkpt lat="46.2238886" lon="11.2414388"><ele>1400.0</ele><time>2026-05-01T22:01:32.379Z</time></trkpt><trkpt lat="46.2239517" lon="11.2414648"><ele>1400.0</ele><time>2026-05-01T22:01:33.374Z</time></trkpt><trkpt lat="46.2240725" lon="11.2414996"><ele>1400.0</ele><time>2026-05-01T22:01:35.392Z</time></trkpt><trkpt lat="46.2241881" lon="11.2415322"><ele>1398.142857142857</ele><time>2026-05-01T22:01:37.448Z</time></trkpt><trkpt lat="46.2242712" lon="11.2415547"><ele>1396.2857142857142</ele><time>2026-05-01T22:01:39.39Z</time></trkpt><trkpt lat="46.2243356" lon="11.2415402"><ele>1394.4285714285716</ele><time>2026-05-01T22:01:41.374Z</time></trkpt><trkpt lat="46.2243986" lon="11.2415018"><ele>1392.5714285714284</ele><time>2026-05-01T22:02:00.365Z</time></trkpt><trkpt lat="46.2243463" lon="11.2415728"><ele>1390.7142857142858</ele><time>2026-05-01T22:02:24.336Z</time></trkpt><trkpt lat="46.2242732" lon="11.2416235"><ele>1388.857142857143</ele><time>2026-05-01T22:02:31.361Z</time></trkpt><trkpt lat="46.224213" lon="11.2416665"><ele>1387.0</ele><time>2026-05-01T22:02:33.361Z</time></trkpt><trkpt lat="46.224144" lon="11.2417627"><ele>1387.0</ele><time>2026-05-01T22:02:36.348Z</time></trkpt><trkpt lat="46.2240812" lon="11.2418716"><ele>1387.0</ele><time>2026-05-01T22:02:38.365Z</time></trkpt><trkpt lat="46.224017" lon="11.2419927"><ele>1387.0</ele><time>2026-05-01T22:02:40.359Z</time></trkpt><trkpt lat="46.2239712" lon="11.2421103"><ele>1387.0</ele><time>2026-05-01T22:02:42.355Z</time></trkpt><trkpt lat="46.223935" lon="11.242222"><ele>1387.0</ele><time>2026-05-01T22:02:44.36Z</time></trkpt><trkpt lat="46.2238922" lon="11.2424149"><ele>1384.6</ele><time>2026-05-01T22:02:47.381Z</time></trkpt><trkpt lat="46.2238764" lon="11.2425427"><ele>1382.1999999999998</ele><time>2026-05-01T22:02:49.37Z</time></trkpt><trkpt lat="46.2238447" lon="11.2426899"><ele>1379.8</ele><time>2026-05-01T22:02:51.386Z</time></trkpt><trkpt lat="46.223806" lon="11.2428154"><ele>1377.4</ele><time>2026-05-01T22:02:53.383Z</time></trkpt><trkpt lat="46.2237558" lon="11.2429321"><ele>1375.0</ele><time>2026-05-01T22:02:55.392Z</time></trkpt><trkpt lat="46.2237056" lon="11.2430518"><ele>1376.2</ele><time>2026-05-01T22:02:57.41Z</time></trkpt><trkpt lat="46.2236509" lon="11.2431722"><ele>1377.4</ele><time>2026-05-01T22:02:59.392Z</time></trkpt><trkpt lat="46.2235872" lon="11.2433175"><ele>1378.6</ele><time>2026-05-01T22:03:01.474Z</time></trkpt><trkpt lat="46.2235472" lon="11.2434506"><ele>1379.8</ele><time>2026-05-01T22:03:03.388Z</time></trkpt><trkpt lat="46.2235132" lon="11.2435625"><ele>1381.0</ele><time>2026-05-01T22:03:05.383Z</time></trkpt><trkpt lat="46.223469" lon="11.2436294"><ele>1381.0</ele><time>2026-05-01T22:03:08.413Z</time></trkpt><trkpt lat="46.2234275" lon="11.2437514"><ele>1381.0</ele><time>2026-05-01T22:03:12.369Z</time></trkpt><trkpt lat="46.223411" lon="11.2438724"><ele>1381.0</ele><time>2026-05-01T22:03:14.397Z</time></trkpt><trkpt lat="46.2233845" lon="11.244009"><ele>1381.0</ele><time>2026-05-01T22:03:16.369Z</time></trkpt><trkpt lat="46.2233556" lon="11.2441432"><ele>1381.0</ele><time>2026-05-01T22:03:18.378Z</time></trkpt><trkpt lat="46.2233402" lon="11.2442474"><ele>1381.0</ele><time>2026-05-01T22:03:19.373Z</time></trkpt><trkpt lat="46.2233027" lon="11.2443917"><ele>1381.8</ele><time>2026-05-01T22:03:21.42Z</time></trkpt><trkpt lat="46.2232663" lon="11.2445382"><ele>1382.6</ele><time>2026-05-01T22:03:23.399Z</time></trkpt><trkpt lat="46.2232318" lon="11.2446651"><ele>1383.4</ele><time>2026-05-01T22:03:25.386Z</time></trkpt><trkpt lat="46.223197" lon="11.2447694"><ele>1384.2</ele><time>2026-05-01T22:03:27.398Z</time></trkpt><trkpt lat="46.2231479" lon="11.2448606"><ele>1385.0</ele><time>2026-05-01T22:03:29.417Z</time></trkpt><trkpt lat="46.2230717" lon="11.2449634"><ele>1385.0</ele><time>2026-05-01T22:03:31.409Z</time></trkpt><trkpt lat="46.223012" lon="11.2450941"><ele>1385.0</ele><time>2026-05-01T22:03:33.389Z</time></trkpt><trkpt lat="46.2229257" lon="11.2451787"><ele>1385.0</ele><time>2026-05-01T22:03:35.4Z</time></trkpt><trkpt lat="46.2228348" lon="11.2452768"><ele>1385.0</ele><time>2026-05-01T22:03:37.427Z</time></trkpt><trkpt lat="46.2227567" lon="11.2453696"><ele>1385.0</ele><time>2026-05-01T22:03:39.416Z</time></trkpt><trkpt lat="46.2227033" lon="11.2454391"><ele>1385.0</ele><time>2026-05-01T22:03:41.401Z</time></trkpt><trkpt lat="46.222609" lon="11.2455715"><ele>1385.0</ele><time>2026-05-01T22:03:44.407Z</time></trkpt><trkpt lat="46.2225276" lon="11.2456149"><ele>1385.0</ele><time>2026-05-01T22:03:46.401Z</time></trkpt><trkpt lat="46.2224284" lon="11.2456032"><ele>1385.0</ele><time>2026-05-01T22:03:48.396Z</time></trkpt><trkpt lat="46.2223324" lon="11.2456055"><ele>1385.0</ele><time>2026-05-01T22:03:50.394Z</time></trkpt><trkpt lat="46.2222699" lon="11.24565"><ele>1384.0</ele><time>2026-05-01T22:03:52.407Z</time></trkpt><trkpt lat="46.2222868" lon="11.2457995"><ele>1383.0</ele><time>2026-05-01T22:03:55.385Z</time></trkpt><trkpt lat="46.2223114" lon="11.2459634"><ele>1382.0</ele><time>2026-05-01T22:03:57.385Z</time></trkpt><trkpt lat="46.2223297" lon="11.2461306"><ele>1381.0</ele><time>2026-05-01T22:03:59.376Z</time></trkpt><trkpt lat="46.2223306" lon="11.246288"><ele>1380.0</ele><time>2026-05-01T22:04:01.426Z</time></trkpt><trkpt lat="46.2223423" lon="11.2464278"><ele>1377.2</ele><time>2026-05-01T22:04:03.39Z</time></trkpt><trkpt lat="46.222363" lon="11.2465637"><ele>1374.4</ele><time>2026-05-01T22:04:05.389Z</time></trkpt><trkpt lat="46.2224095" lon="11.2466808"><ele>1371.6</ele><time>2026-05-01T22:04:08.376Z</time></trkpt><trkpt lat="46.2224752" lon="11.2467704"><ele>1368.8</ele><time>2026-05-01T22:04:10.375Z</time></trkpt><trkpt lat="46.2225451" lon="11.2468835"><ele>1366.0</ele><time>2026-05-01T22:04:12.405Z</time></trkpt><trkpt lat="46.2225773" lon="11.247007"><ele>1366.0</ele><time>2026-05-01T22:04:14.374Z</time></trkpt><trkpt lat="46.2225601" lon="11.2471571"><ele>1366.0</ele><time>2026-05-01T22:04:16.382Z</time></trkpt><trkpt lat="46.2225685" lon="11.2472837"><ele>1366.0</ele><time>2026-05-01T22:04:18.375Z</time></trkpt><trkpt lat="46.2225875" lon="11.2474384"><ele>1366.0</ele><time>2026-05-01T22:04:20.52Z</time></trkpt><trkpt lat="46.222617" lon="11.2476124"><ele>1366.0</ele><time>2026-05-01T22:04:22.408Z</time></trkpt><trkpt lat="46.2226521" lon="11.2477826"><ele>1363.5</ele><time>2026-05-01T22:04:24.493Z</time></trkpt><trkpt lat="46.2226821" lon="11.2479526"><ele>1361.0</ele><time>2026-05-01T22:04:26.401Z</time></trkpt><trkpt lat="46.222709" lon="11.2480701"><ele>1358.5</ele><time>2026-05-01T22:04:27.418Z</time></trkpt><trkpt lat="46.2227355" lon="11.2481725"><ele>1356.0</ele><time>2026-05-01T22:04:28.395Z</time></trkpt><trkpt lat="46.2227601" lon="11.248262"><ele>1353.5</ele><time>2026-05-01T22:04:29.413Z</time></trkpt><trkpt lat="46.2227827" lon="11.2483493"><ele>1351.0</ele><time>2026-05-01T22:04:30.379Z</time></trkpt><trkpt lat="46.2228246" lon="11.2485135"><ele>1348.8</ele><time>2026-05-01T22:04:32.338Z</time></trkpt><trkpt lat="46.2228526" lon="11.2486686"><ele>1346.6</ele><time>2026-05-01T22:04:34.35Z</time></trkpt><trkpt lat="46.2228705" lon="11.2488503"><ele>1344.4</ele><time>2026-05-01T22:04:36.363Z</time></trkpt><trkpt lat="46.2228721" lon="11.2490062"><ele>1342.2</ele><time>2026-05-01T22:04:38.349Z</time></trkpt><trkpt lat="46.2228767" lon="11.2491433"><ele>1340.0</ele><time>2026-05-01T22:04:39.406Z</time></trkpt><trkpt lat="46.2228748" lon="11.2492729"><ele>1339.6</ele><time>2026-05-01T22:04:40.355Z</time></trkpt><trkpt lat="46.2228247" lon="11.2494209"><ele>1339.2</ele><time>2026-05-01T22:04:42.544Z</time></trkpt><trkpt lat="46.2227699" lon="11.2495622"><ele>1338.8000000000002</ele><time>2026-05-01T22:04:44.362Z</time></trkpt><trkpt lat="46.222739" lon="11.2496467"><ele>1338.4</ele><time>2026-05-01T22:04:45.389Z</time></trkpt><trkpt lat="46.222692" lon="11.2497449"><ele>1338.0</ele><time>2026-05-01T22:04:47.39Z</time></trkpt><trkpt lat="46.2226394" lon="11.2498397"><ele>1337.25</ele><time>2026-05-01T22:04:49.399Z</time></trkpt><trkpt lat="46.2226003" lon="11.24996"><ele>1336.5</ele><time>2026-05-01T22:04:51.409Z</time></trkpt><trkpt lat="46.222562" lon="11.2501183"><ele>1335.75</ele><time>2026-05-01T22:04:53.414Z</time></trkpt><trkpt lat="46.2225501" lon="11.2502996"><ele>1335.0</ele><time>2026-05-01T22:04:55.412Z</time></trkpt><trkpt lat="46.2225465" lon="11.2504791"><ele>1334.0</ele><time>2026-05-01T22:04:57.416Z</time></trkpt><trkpt lat="46.2225495" lon="11.2506543"><ele>1333.0</ele><time>2026-05-01T22:04:59.392Z</time></trkpt><trkpt lat="46.2225494" lon="11.2507544"><ele>1332.0</ele><time>2026-05-01T22:05:00.454Z</time></trkpt><trkpt lat="46.2225578" lon="11.2509022"><ele>1331.0</ele><time>2026-05-01T22:05:02.384Z</time></trkpt><trkpt lat="46.222541" lon="11.2510276"><ele>1330.0</ele><time>2026-05-01T22:05:04.39Z</time></trkpt><trkpt lat="46.222483" lon="11.2511427"><ele>1330.0</ele><time>2026-05-01T22:05:06.41Z</time></trkpt><trkpt lat="46.2224382" lon="11.2512278"><ele>1330.0</ele><time>2026-05-01T22:05:07.393Z</time></trkpt><trkpt lat="46.2223818" lon="11.2513384"><ele>1330.0</ele><time>2026-05-01T22:05:09.385Z</time></trkpt><trkpt lat="46.2223373" lon="11.2514279"><ele>1330.0</ele><time>2026-05-01T22:05:10.543Z</time></trkpt><trkpt lat="46.2222733" lon="11.2515418"><ele>1330.0</ele><time>2026-05-01T22:05:12.413Z</time></trkpt><trkpt lat="46.2221686" lon="11.2516683"><ele>1325.857142857143</ele><time>2026-05-01T22:05:14.455Z</time></trkpt><trkpt lat="46.2221014" lon="11.2517391"><ele>1321.7142857142858</ele><time>2026-05-01T22:05:15.415Z</time></trkpt><trkpt lat="46.2220401" lon="11.2517925"><ele>1317.5714285714284</ele><time>2026-05-01T22:05:16.408Z</time></trkpt><trkpt lat="46.2219852" lon="11.2518441"><ele>1313.4285714285716</ele><time>2026-05-01T22:05:17.377Z</time></trkpt><trkpt lat="46.2219299" lon="11.2518925"><ele>1309.2857142857142</ele><time>2026-05-01T22:05:18.393Z</time></trkpt><trkpt lat="46.2218691" lon="11.2519466"><ele>1305.142857142857</ele><time>2026-05-01T22:05:19.426Z</time></trkpt><trkpt lat="46.2218029" lon="11.2520029"><ele>1301.0</ele><time>2026-05-01T22:05:20.397Z</time></trkpt><trkpt lat="46.2217119" lon="11.2520782"><ele>1301.0</ele><time>2026-05-01T22:05:22.389Z</time></trkpt><trkpt lat="46.221616" lon="11.2521822"><ele>1301.0</ele><time>2026-05-01T22:05:24.412Z</time></trkpt><trkpt lat="46.2215248" lon="11.2522829"><ele>1301.0</ele><time>2026-05-01T22:05:26.385Z</time></trkpt><trkpt lat="46.221449" lon="11.2524085"><ele>1301.0</ele><time>2026-05-01T22:05:28.428Z</time></trkpt><trkpt lat="46.2214061" lon="11.2524986"><ele>1301.0</ele><time>2026-05-01T22:05:29.547Z</time></trkpt><trkpt lat="46.22135" lon="11.2526568"><ele>1295.3999999999999</ele><time>2026-05-01T22:05:31.499Z</time></trkpt><trkpt lat="46.2213238" lon="11.2527734"><ele>1289.8</ele><time>2026-05-01T22:05:33.417Z</time></trkpt><trkpt lat="46.2213017" lon="11.252911"><ele>1284.1999999999998</ele><time>2026-05-01T22:05:35.406Z</time></trkpt><trkpt lat="46.2212865" lon="11.2530337"><ele>1278.6</ele><time>2026-05-01T22:05:37.401Z</time></trkpt><trkpt lat="46.2213022" lon="11.2531816"><ele>1273.0</ele><time>2026-05-01T22:05:39.398Z</time></trkpt><trkpt lat="46.2213191" lon="11.2533266"><ele>1273.0</ele><time>2026-05-01T22:05:41.421Z</time></trkpt><trkpt lat="46.2213158" lon="11.2534359"><ele>1273.0</ele><time>2026-05-01T22:05:43.377Z</time></trkpt><trkpt lat="46.2212764" lon="11.253537"><ele>1273.0</ele><time>2026-05-01T22:05:45.425Z</time></trkpt><trkpt lat="46.2211877" lon="11.2536039"><ele>1273.0</ele><time>2026-05-01T22:05:47.364Z</time></trkpt><trkpt lat="46.2210844" lon="11.2536672"><ele>1273.0</ele><time>2026-05-01T22:05:49.409Z</time></trkpt><trkpt lat="46.2209722" lon="11.2537092"><ele>1273.0</ele><time>2026-05-01T22:05:51.498Z</time></trkpt><trkpt lat="46.2208751" lon="11.2537569"><ele>1273.0</ele><time>2026-05-01T22:05:53.407Z</time></trkpt><trkpt lat="46.2207854" lon="11.2538054"><ele>1273.0</ele><time>2026-05-01T22:05:55.396Z</time></trkpt><trkpt lat="46.2207058" lon="11.2538937"><ele>1273.0</ele><time>2026-05-01T22:05:57.394Z</time></trkpt><trkpt lat="46.2206207" lon="11.2539833"><ele>1273.0</ele><time>2026-05-01T22:05:59.381Z</time></trkpt><trkpt lat="46.2205668" lon="11.2540528"><ele>1264.8</ele><time>2026-05-01T22:06:00.398Z</time></trkpt><trkpt lat="46.2204893" lon="11.2541619"><ele>1256.6</ele><time>2026-05-01T22:06:02.383Z</time></trkpt><trkpt lat="46.2204287" lon="11.2542783"><ele>1248.4</ele><time>2026-05-01T22:06:04.374Z</time></trkpt><trkpt lat="46.2203441" lon="11.254413"><ele>1240.2</ele><time>2026-05-01T22:06:06.387Z</time></trkpt><trkpt lat="46.2202739" lon="11.2545039"><ele>1232.0</ele><time>2026-05-01T22:06:08.377Z</time></trkpt><trkpt lat="46.2201576" lon="11.2545737"><ele>1232.0</ele><time>2026-05-01T22:06:10.378Z</time></trkpt><trkpt lat="46.2201025" lon="11.2546251"><ele>1232.0</ele><time>2026-05-01T22:06:11.402Z</time></trkpt><trkpt lat="46.2200355" lon="11.2546729"><ele>1232.0</ele><time>2026-05-01T22:06:12.408Z</time></trkpt><trkpt lat="46.2199694" lon="11.2547212"><ele>1232.0</ele><time>2026-05-01T22:06:13.405Z</time></trkpt><trkpt lat="46.2199138" lon="11.2547751"><ele>1232.0</ele><time>2026-05-01T22:06:14.466Z</time></trkpt><trkpt lat="46.2198215" lon="11.2548791"><ele>1232.0</ele><time>2026-05-01T22:06:16.42Z</time></trkpt><trkpt lat="46.2197419" lon="11.2549853"><ele>1226.6</ele><time>2026-05-01T22:06:18.392Z</time></trkpt><trkpt lat="46.2196676" lon="11.2551142"><ele>1221.2</ele><time>2026-05-01T22:06:20.398Z</time></trkpt><trkpt lat="46.2196218" lon="11.2552335"><ele>1215.8</ele><time>2026-05-01T22:06:22.406Z</time></trkpt><trkpt lat="46.2195907" lon="11.2553484"><ele>1210.4</ele><time>2026-05-01T22:06:24.395Z</time></trkpt><trkpt lat="46.2195749" lon="11.255483"><ele>1205.0</ele><time>2026-05-01T22:06:26.417Z</time></trkpt><trkpt lat="46.2195853" lon="11.2555764"><ele>1208.0</ele><time>2026-05-01T22:06:27.374Z</time></trkpt><trkpt lat="46.2195959" lon="11.2556759"><ele>1211.0</ele><time>2026-05-01T22:06:28.38Z</time></trkpt><trkpt lat="46.219593" lon="11.2557892"><ele>1214.0</ele><time>2026-05-01T22:06:29.408Z</time></trkpt><trkpt lat="46.2195869" lon="11.2559629"><ele>1217.0</ele><time>2026-05-01T22:06:31.436Z</time></trkpt><trkpt lat="46.2195754" lon="11.2560581"><ele>1220.0</ele><time>2026-05-01T22:06:32.379Z</time></trkpt><trkpt lat="46.2195562" lon="11.2561701"><ele>1223.0</ele><time>2026-05-01T22:06:33.446Z</time></trkpt><trkpt lat="46.2195375" lon="11.2562637"><ele>1223.0</ele><time>2026-05-01T22:06:34.384Z</time></trkpt><trkpt lat="46.2195205" lon="11.2563748"><ele>1223.0</ele><time>2026-05-01T22:06:35.415Z</time></trkpt><trkpt lat="46.2194922" lon="11.2564725"><ele>1223.0</ele><time>2026-05-01T22:06:36.393Z</time></trkpt><trkpt lat="46.2194572" lon="11.2565632"><ele>1223.0</ele><time>2026-05-01T22:06:37.427Z</time></trkpt><trkpt lat="46.2194159" lon="11.2566612"><ele>1223.0</ele><time>2026-05-01T22:06:38.413Z</time></trkpt><trkpt lat="46.2193752" lon="11.2567557"><ele>1223.0</ele><time>2026-05-01T22:06:39.394Z</time></trkpt><trkpt lat="46.2193026" lon="11.2568832"><ele>1223.0</ele><time>2026-05-01T22:06:41.428Z</time></trkpt><trkpt lat="46.2192562" lon="11.2569559"><ele>1223.0</ele><time>2026-05-01T22:06:42.412Z</time></trkpt><trkpt lat="46.2192011" lon="11.2570299"><ele>1223.0</ele><time>2026-05-01T22:06:43.402Z</time></trkpt><trkpt lat="46.2191507" lon="11.2571012"><ele>1223.0</ele><time>2026-05-01T22:06:44.406Z</time></trkpt><trkpt lat="46.2191128" lon="11.2571843"><ele>1223.0</ele><time>2026-05-01T22:06:45.441Z</time></trkpt><trkpt lat="46.2190625" lon="11.2573048"><ele>1223.0</ele><time>2026-05-01T22:06:47.399Z</time></trkpt><trkpt lat="46.2190236" lon="11.2573851"><ele>1223.0</ele><time>2026-05-01T22:06:48.415Z</time></trkpt><trkpt lat="46.2189654" lon="11.2575318"><ele>1223.0</ele><time>2026-05-01T22:06:50.444Z</time></trkpt><trkpt lat="46.2189273" lon="11.2576948"><ele>1223.0</ele><time>2026-05-01T22:06:52.403Z</time></trkpt><trkpt lat="46.2189024" lon="11.2577944"><ele>1223.0</ele><time>2026-05-01T22:06:53.525Z</time></trkpt><trkpt lat="46.2188634" lon="11.2579482"><ele>1223.0</ele><time>2026-05-01T22:06:55.422Z</time></trkpt><trkpt lat="46.2188203" lon="11.2580812"><ele>1223.0</ele><time>2026-05-01T22:06:57.407Z</time></trkpt><trkpt lat="46.2187945" lon="11.2581964"><ele>1222.8333333333335</ele><time>2026-05-01T22:06:59.41Z</time></trkpt><trkpt lat="46.2187815" lon="11.2582926"><ele>1222.6666666666667</ele><time>2026-05-01T22:07:01.382Z</time></trkpt><trkpt lat="46.2188327" lon="11.2584578"><ele>1222.5</ele><time>2026-05-01T22:07:04.387Z</time></trkpt><trkpt lat="46.2188682" lon="11.2585416"><ele>1222.3333333333333</ele><time>2026-05-01T22:07:07.396Z</time></trkpt><trkpt lat="46.2189475" lon="11.2585866"><ele>1222.1666666666665</ele><time>2026-05-01T22:07:09.422Z</time></trkpt><trkpt lat="46.219039" lon="11.2586367"><ele>1222.0</ele><time>2026-05-01T22:07:11.402Z</time></trkpt><trkpt lat="46.2191351" lon="11.2587084"><ele>1222.0</ele><time>2026-05-01T22:07:13.399Z</time></trkpt><trkpt lat="46.2192221" lon="11.2588109"><ele>1222.0</ele><time>2026-05-01T22:07:15.542Z</time></trkpt><trkpt lat="46.2192744" lon="11.2588961"><ele>1222.0</ele><time>2026-05-01T22:07:17.377Z</time></trkpt><trkpt lat="46.2193195" lon="11.2590169"><ele>1222.0</ele><time>2026-05-01T22:07:19.424Z</time></trkpt><trkpt lat="46.219326" lon="11.259119"><ele>1222.0</ele><time>2026-05-01T22:07:21.44Z</time></trkpt><trkpt lat="46.219299" lon="11.2592109"><ele>1222.0</ele><time>2026-05-01T22:07:23.375Z</time></trkpt><trkpt lat="46.2192323" lon="11.259268"><ele>1218.4</ele><time>2026-05-01T22:07:25.394Z</time></trkpt><trkpt lat="46.2191346" lon="11.2593014"><ele>1214.8000000000002</ele><time>2026-05-01T22:07:27.391Z</time></trkpt><trkpt lat="46.2190399" lon="11.2593097"><ele>1211.2</ele><time>2026-05-01T22:07:29.395Z</time></trkpt><trkpt lat="46.218935" lon="11.2593192"><ele>1207.6000000000001</ele><time>2026-05-01T22:07:31.4Z</time></trkpt><trkpt lat="46.218838" lon="11.2593161"><ele>1204.0</ele><time>2026-05-01T22:07:33.396Z</time></trkpt><trkpt lat="46.2187374" lon="11.2593071"><ele>1201.25</ele><time>2026-05-01T22:07:35.394Z</time></trkpt><trkpt lat="46.2186141" lon="11.2592877"><ele>1198.5</ele><time>2026-05-01T22:07:37.414Z</time></trkpt><trkpt lat="46.2184991" lon="11.2593152"><ele>1195.75</ele><time>2026-05-01T22:07:39.402Z</time></trkpt><trkpt lat="46.2184115" lon="11.259399"><ele>1193.0</ele><time>2026-05-01T22:07:41.419Z</time></trkpt><trkpt lat="46.2183058" lon="11.2594533"><ele>1193.0</ele><time>2026-05-01T22:07:43.417Z</time></trkpt><trkpt lat="46.2182098" lon="11.2594817"><ele>1193.0</ele><time>2026-05-01T22:07:45.42Z</time></trkpt><trkpt lat="46.2180848" lon="11.2595251"><ele>1193.0</ele><time>2026-05-01T22:07:47.414Z</time></trkpt><trkpt lat="46.2180236" lon="11.2595496"><ele>1193.0</ele><time>2026-05-01T22:07:48.406Z</time></trkpt><trkpt lat="46.2179613" lon="11.2595712"><ele>1193.0</ele><time>2026-05-01T22:07:49.392Z</time></trkpt><trkpt lat="46.2178994" lon="11.2595949"><ele>1193.0</ele><time>2026-05-01T22:07:50.411Z</time></trkpt><trkpt lat="46.2178261" lon="11.2596255"><ele>1192.6</ele><time>2026-05-01T22:07:51.5Z</time></trkpt><trkpt lat="46.2177071" lon="11.2596627"><ele>1192.1999999999998</ele><time>2026-05-01T22:07:53.401Z</time></trkpt><trkpt lat="46.2176471" lon="11.2596955"><ele>1191.8</ele><time>2026-05-01T22:07:54.407Z</time></trkpt><trkpt lat="46.2175373" lon="11.2597341"><ele>1191.3999999999999</ele><time>2026-05-01T22:07:56.424Z</time></trkpt><trkpt lat="46.217417" lon="11.2597765"><ele>1191.0</ele><time>2026-05-01T22:07:58.424Z</time></trkpt><trkpt lat="46.217356" lon="11.2598057"><ele>1189.6666666666667</ele><time>2026-05-01T22:07:59.416Z</time></trkpt><trkpt lat="46.2172961" lon="11.2598484"><ele>1188.3333333333333</ele><time>2026-05-01T22:08:00.414Z</time></trkpt><trkpt lat="46.2172068" lon="11.2599211"><ele>1187.0</ele><time>2026-05-01T22:08:02.399Z</time></trkpt><trkpt lat="46.2171425" lon="11.2599998"><ele>1185.6666666666665</ele><time>2026-05-01T22:08:04.395Z</time></trkpt><trkpt lat="46.2170883" lon="11.2600954"><ele>1184.3333333333333</ele><time>2026-05-01T22:08:06.395Z</time></trkpt><trkpt lat="46.2170229" lon="11.2601987"><ele>1183.0</ele><time>2026-05-01T22:08:08.395Z</time></trkpt><trkpt lat="46.2169567" lon="11.2603129"><ele>1183.0</ele><time>2026-05-01T22:08:10.408Z</time></trkpt><trkpt lat="46.2168748" lon="11.260423"><ele>1183.0</ele><time>2026-05-01T22:08:12.453Z</time></trkpt><trkpt lat="46.2168032" lon="11.2605049"><ele>1183.0</ele><time>2026-05-01T22:08:14.387Z</time></trkpt><trkpt lat="46.216732" lon="11.2606136"><ele>1183.0</ele><time>2026-05-01T22:08:16.405Z</time></trkpt><trkpt lat="46.2166322" lon="11.2607265"><ele>1183.0</ele><time>2026-05-01T22:08:18.398Z</time></trkpt><trkpt lat="46.2165676" lon="11.2607952"><ele>1182.6666666666665</ele><time>2026-05-01T22:08:19.393Z</time></trkpt><trkpt lat="46.2165083" lon="11.2608715"><ele>1182.3333333333333</ele><time>2026-05-01T22:08:20.396Z</time></trkpt><trkpt lat="46.2164615" lon="11.2609336"><ele>1182.0</ele><time>2026-05-01T22:08:21.375Z</time></trkpt><trkpt lat="46.2163986" lon="11.261007"><ele>1181.6666666666667</ele><time>2026-05-01T22:08:22.401Z</time></trkpt><trkpt lat="46.2163414" lon="11.2610683"><ele>1181.3333333333335</ele><time>2026-05-01T22:08:23.419Z</time></trkpt><trkpt lat="46.2162343" lon="11.2611589"><ele>1181.0</ele><time>2026-05-01T22:08:25.414Z</time></trkpt><trkpt lat="46.2161847" lon="11.2612232"><ele>1181.0</ele><time>2026-05-01T22:08:26.378Z</time></trkpt><trkpt lat="46.2161216" lon="11.2612868"><ele>1181.0</ele><time>2026-05-01T22:08:27.398Z</time></trkpt><trkpt lat="46.2160568" lon="11.2613401"><ele>1181.0</ele><time>2026-05-01T22:08:28.392Z</time></trkpt><trkpt lat="46.2159455" lon="11.2614107"><ele>1181.0</ele><time>2026-05-01T22:08:30.408Z</time></trkpt><trkpt lat="46.215841" lon="11.2614869"><ele>1181.0</ele><time>2026-05-01T22:08:32.393Z</time></trkpt><trkpt lat="46.2157188" lon="11.2615456"><ele>1174.8333333333335</ele><time>2026-05-01T22:08:34.406Z</time></trkpt><trkpt lat="46.2155968" lon="11.2615962"><ele>1168.6666666666667</ele><time>2026-05-01T22:08:36.407Z</time></trkpt><trkpt lat="46.2155276" lon="11.26161"><ele>1162.5</ele><time>2026-05-01T22:08:37.408Z</time></trkpt><trkpt lat="46.2154581" lon="11.2616295"><ele>1156.3333333333333</ele><time>2026-05-01T22:08:38.384Z</time></trkpt><trkpt lat="46.2153928" lon="11.2616391"><ele>1150.1666666666665</ele><time>2026-05-01T22:08:39.397Z</time></trkpt><trkpt lat="46.2153184" lon="11.2616564"><ele>1144.0</ele><time>2026-05-01T22:08:41.399Z</time></trkpt><trkpt lat="46.2152507" lon="11.2616755"><ele>1144.0</ele><time>2026-05-01T22:08:43.414Z</time></trkpt><trkpt lat="46.2151728" lon="11.261722"><ele>1144.0</ele><time>2026-05-01T22:08:45.405Z</time></trkpt><trkpt lat="46.215089" lon="11.2617526"><ele>1144.0</ele><time>2026-05-01T22:08:47.4Z</time></trkpt><trkpt lat="46.2150092" lon="11.261816"><ele>1144.0</ele><time>2026-05-01T22:08:49.416Z</time></trkpt><trkpt lat="46.2149202" lon="11.261859"><ele>1144.0</ele><time>2026-05-01T22:08:51.408Z</time></trkpt><trkpt lat="46.2148137" lon="11.2618847"><ele>1140.8333333333333</ele><time>2026-05-01T22:08:53.406Z</time></trkpt><trkpt lat="46.2147408" lon="11.2619327"><ele>1137.6666666666665</ele><time>2026-05-01T22:08:55.381Z</time></trkpt><trkpt lat="46.2146725" lon="11.2620061"><ele>1134.5</ele><time>2026-05-01T22:08:58.364Z</time></trkpt><trkpt lat="46.214591" lon="11.262007"><ele>1131.3333333333333</ele><time>2026-05-01T22:09:00.389Z</time></trkpt><trkpt lat="46.2145233" lon="11.2619919"><ele>1128.1666666666667</ele><time>2026-05-01T22:09:01.41Z</time></trkpt><trkpt lat="46.2143964" lon="11.2619698"><ele>1125.0</ele><time>2026-05-01T22:09:03.413Z</time></trkpt><trkpt lat="46.2143295" lon="11.2619528"><ele>1125.0</ele><time>2026-05-01T22:09:04.375Z</time></trkpt><trkpt lat="46.2142604" lon="11.2619363"><ele>1125.0</ele><time>2026-05-01T22:09:05.394Z</time></trkpt><trkpt lat="46.2141347" lon="11.2619043"><ele>1125.0</ele><time>2026-05-01T22:09:07.407Z</time></trkpt><trkpt lat="46.2140059" lon="11.2618874"><ele>1125.0</ele><time>2026-05-01T22:09:09.378Z</time></trkpt><trkpt lat="46.2139405" lon="11.2618816"><ele>1125.0</ele><time>2026-05-01T22:09:10.387Z</time></trkpt><trkpt lat="46.2138734" lon="11.2618791"><ele>1120.5714285714287</ele><time>2026-05-01T22:09:11.39Z</time></trkpt><trkpt lat="46.2138044" lon="11.2618785"><ele>1116.1428571428573</ele><time>2026-05-01T22:09:12.378Z</time></trkpt><trkpt lat="46.2137364" lon="11.2618735"><ele>1111.7142857142858</ele><time>2026-05-01T22:09:13.392Z</time></trkpt><trkpt lat="46.2136734" lon="11.2618686"><ele>1107.2857142857142</ele><time>2026-05-01T22:09:14.388Z</time></trkpt><trkpt lat="46.2136067" lon="11.2618627"><ele>1102.8571428571427</ele><time>2026-05-01T22:09:15.391Z</time></trkpt><trkpt lat="46.2135441" lon="11.2618506"><ele>1098.4285714285713</ele><time>2026-05-01T22:09:16.387Z</time></trkpt><trkpt lat="46.2134777" lon="11.2618345"><ele>1094.0</ele><time>2026-05-01T22:09:17.391Z</time></trkpt><trkpt lat="46.2134153" lon="11.261813"><ele>1094.0</ele><time>2026-05-01T22:09:18.379Z</time></trkpt><trkpt lat="46.2132991" lon="11.2617671"><ele>1094.0</ele><time>2026-05-01T22:09:20.387Z</time></trkpt><trkpt lat="46.2132051" lon="11.2617105"><ele>1094.0</ele><time>2026-05-01T22:09:22.374Z</time></trkpt><trkpt lat="46.2130809" lon="11.2616398"><ele>1094.0</ele><time>2026-05-01T22:09:24.524Z</time></trkpt><trkpt lat="46.2129847" lon="11.2615902"><ele>1090.6666666666667</ele><time>2026-05-01T22:09:26.382Z</time></trkpt><trkpt lat="46.2129252" lon="11.2615588"><ele>1087.3333333333335</ele><time>2026-05-01T22:09:27.41Z</time></trkpt><trkpt lat="46.2128029" lon="11.2615186"><ele>1084.0</ele><time>2026-05-01T22:09:29.399Z</time></trkpt><trkpt lat="46.2127275" lon="11.2615113"><ele>1080.6666666666667</ele><time>2026-05-01T22:09:30.44Z</time></trkpt><trkpt lat="46.2126547" lon="11.2615009"><ele>1077.3333333333333</ele><time>2026-05-01T22:09:31.404Z</time></trkpt><trkpt lat="46.2125645" lon="11.2614828"><ele>1074.0</ele><time>2026-05-01T22:09:33.374Z</time></trkpt><trkpt lat="46.2124892" lon="11.2614303"><ele>1074.0</ele><time>2026-05-01T22:09:35.39Z</time></trkpt><trkpt lat="46.2124539" lon="11.2612934"><ele>1074.0</ele><time>2026-05-01T22:09:38.509Z</time></trkpt><trkpt lat="46.2124499" lon="11.26117"><ele>1074.0</ele><time>2026-05-01T22:09:40.401Z</time></trkpt><trkpt lat="46.2125047" lon="11.2609543"><ele>1074.0</ele><time>2026-05-01T22:09:42.381Z</time></trkpt><trkpt lat="46.2125465" lon="11.2608524"><ele>1074.0</ele><time>2026-05-01T22:09:43.395Z</time></trkpt><trkpt lat="46.2125741" lon="11.2607559"><ele>1072.2</ele><time>2026-05-01T22:09:44.386Z</time></trkpt><trkpt lat="46.2126238" lon="11.2605954"><ele>1070.4</ele><time>2026-05-01T22:09:46.507Z</time></trkpt><trkpt lat="46.2126627" lon="11.2605044"><ele>1068.6</ele><time>2026-05-01T22:09:48.424Z</time></trkpt><trkpt lat="46.21269" lon="11.2604047"><ele>1066.8</ele><time>2026-05-01T22:09:50.384Z</time></trkpt><trkpt lat="46.2126137" lon="11.2604115"><ele>1065.0</ele><time>2026-05-01T22:09:53.414Z</time></trkpt><trkpt lat="46.2125153" lon="11.260482"><ele>1065.0</ele><time>2026-05-01T22:09:55.394Z</time></trkpt><trkpt lat="46.2123751" lon="11.2606069"><ele>1065.0</ele><time>2026-05-01T22:09:58.402Z</time></trkpt><trkpt lat="46.2122855" lon="11.2606469"><ele>1065.0</ele><time>2026-05-01T22:10:00.397Z</time></trkpt><trkpt lat="46.2121902" lon="11.2606992"><ele>1065.0</ele><time>2026-05-01T22:10:02.408Z</time></trkpt><trkpt lat="46.2121149" lon="11.2607265"><ele>1065.0</ele><time>2026-05-01T22:10:03.386Z</time></trkpt><trkpt lat="46.2120531" lon="11.2607508"><ele>1058.6</ele><time>2026-05-01T22:10:04.41Z</time></trkpt><trkpt lat="46.2119723" lon="11.260836"><ele>1052.2</ele><time>2026-05-01T22:10:06.394Z</time></trkpt><trkpt lat="46.2118444" lon="11.2609026"><ele>1045.8</ele><time>2026-05-01T22:10:08.404Z</time></trkpt><trkpt lat="46.2117892" lon="11.2609606"><ele>1039.4</ele><time>2026-05-01T22:10:09.39Z</time></trkpt><trkpt lat="46.2117388" lon="11.2610173"><ele>1033.0</ele><time>2026-05-01T22:10:10.385Z</time></trkpt><trkpt lat="46.2116501" lon="11.2611125"><ele>1033.0</ele><time>2026-05-01T22:10:12.392Z</time></trkpt><trkpt lat="46.211592" lon="11.2612501"><ele>1033.0</ele><time>2026-05-01T22:10:14.397Z</time></trkpt><trkpt lat="46.21159" lon="11.2614008"><ele>1033.0</ele><time>2026-05-01T22:10:16.403Z</time></trkpt><trkpt lat="46.2116056" lon="11.2615528"><ele>1033.0</ele><time>2026-05-01T22:10:18.424Z</time></trkpt><trkpt lat="46.2116423" lon="11.2616418"><ele>1033.0</ele><time>2026-05-01T22:10:19.411Z</time></trkpt><trkpt lat="46.2116652" lon="11.2617356"><ele>1030.6</ele><time>2026-05-01T22:10:20.425Z</time></trkpt><trkpt lat="46.2116853" lon="11.2618719"><ele>1028.1999999999998</ele><time>2026-05-01T22:10:22.401Z</time></trkpt><trkpt lat="46.2117173" lon="11.2620131"><ele>1025.8</ele><time>2026-05-01T22:10:24.427Z</time></trkpt><trkpt lat="46.2117673" lon="11.2621303"><ele>1023.4</ele><time>2026-05-01T22:10:26.396Z</time></trkpt><trkpt lat="46.2118013" lon="11.2622618"><ele>1021.0</ele><time>2026-05-01T22:10:28.416Z</time></trkpt><trkpt lat="46.2118462" lon="11.2623463"><ele>1017.75</ele><time>2026-05-01T22:10:32.427Z</time></trkpt><trkpt lat="46.2118226" lon="11.2624753"><ele>1014.5</ele><time>2026-05-01T22:10:36.42Z</time></trkpt><trkpt lat="46.2117693" lon="11.262621"><ele>1011.25</ele><time>2026-05-01T22:10:38.409Z</time></trkpt><trkpt lat="46.2117334" lon="11.2627487"><ele>1008.0</ele><time>2026-05-01T22:10:40.417Z</time></trkpt><trkpt lat="46.2116932" lon="11.2629753"><ele>1005.8</ele><time>2026-05-01T22:10:43.411Z</time></trkpt><trkpt lat="46.2117369" lon="11.2631374"><ele>1003.5999999999999</ele><time>2026-05-01T22:10:45.412Z</time></trkpt><trkpt lat="46.2117663" lon="11.2632772"><ele>1001.4000000000001</ele><time>2026-05-01T22:10:48.399Z</time></trkpt><trkpt lat="46.2117887" lon="11.2633732"><ele>999.2</ele><time>2026-05-01T22:10:50.429Z</time></trkpt><trkpt lat="46.2118211" lon="11.2634729"><ele>997.0</ele><time>2026-05-01T22:10:52.446Z</time></trkpt><trkpt lat="46.2118439" lon="11.2636013"><ele>996.9999999999999</ele><time>2026-05-01T22:10:54.404Z</time></trkpt><trkpt lat="46.2118638" lon="11.2636996"><ele>997.0</ele><time>2026-05-01T22:10:56.392Z</time></trkpt><trkpt lat="46.2118483" lon="11.2638264"><ele>997.0</ele><time>2026-05-01T22:10:58.412Z</time></trkpt><trkpt lat="46.2118427" lon="11.2639196"><ele>997.0</ele><time>2026-05-01T22:10:59.392Z</time></trkpt><trkpt lat="46.2118627" lon="11.2640448"><ele>996.9999999999999</ele><time>2026-05-01T22:11:01.388Z</time></trkpt><trkpt lat="46.2118993" lon="11.2641758"><ele>997.0</ele><time>2026-05-01T22:11:03.395Z</time></trkpt><trkpt lat="46.2119082" lon="11.264307"><ele>994.2</ele><time>2026-05-01T22:11:05.388Z</time></trkpt><trkpt lat="46.2119624" lon="11.2644342"><ele>991.4000000000001</ele><time>2026-05-01T22:11:06.389Z</time></trkpt><trkpt lat="46.2119747" lon="11.2645585"><ele>988.5999999999999</ele><time>2026-05-01T22:11:07.413Z</time></trkpt><trkpt lat="46.2119968" lon="11.2646474"><ele>985.8</ele><time>2026-05-01T22:11:08.493Z</time></trkpt><trkpt lat="46.2120146" lon="11.2648284"><ele>983.0</ele><time>2026-05-01T22:11:10.426Z</time></trkpt><trkpt lat="46.2120524" lon="11.2649785"><ele>980.3333333333334</ele><time>2026-05-01T22:11:12.399Z</time></trkpt><trkpt lat="46.2120689" lon="11.2651379"><ele>977.6666666666667</ele><time>2026-05-01T22:11:14.371Z</time></trkpt><trkpt lat="46.2120826" lon="11.2652543"><ele>975.0</ele><time>2026-05-01T22:11:15.434Z</time></trkpt><trkpt lat="46.2120904" lon="11.2653571"><ele>972.3333333333333</ele><time>2026-05-01T22:11:16.383Z</time></trkpt><trkpt lat="46.2121013" lon="11.2654757"><ele>969.6666666666666</ele><time>2026-05-01T22:11:17.387Z</time></trkpt><trkpt lat="46.2121176" lon="11.2656118"><ele>967.0</ele><time>2026-05-01T22:11:18.422Z</time></trkpt><trkpt lat="46.2121235" lon="11.2657274"><ele>965.4999999999999</ele><time>2026-05-01T22:11:19.396Z</time></trkpt><trkpt lat="46.2121184" lon="11.2658338"><ele>964.0</ele><time>2026-05-01T22:11:20.439Z</time></trkpt><trkpt lat="46.2120762" lon="11.2660049"><ele>962.5</ele><time>2026-05-01T22:11:22.391Z</time></trkpt><trkpt lat="46.2120393" lon="11.2660876"><ele>961.0</ele><time>2026-05-01T22:11:23.382Z</time></trkpt><trkpt lat="46.2119961" lon="11.2661662"><ele>959.4999999999999</ele><time>2026-05-01T22:11:24.393Z</time></trkpt><trkpt lat="46.2119385" lon="11.2662438"><ele>958.0</ele><time>2026-05-01T22:11:25.4Z</time></trkpt><trkpt lat="46.2118945" lon="11.2663387"><ele>957.9999999999999</ele><time>2026-05-01T22:11:26.431Z</time></trkpt><trkpt lat="46.2118623" lon="11.2664276"><ele>958.0</ele><time>2026-05-01T22:11:27.407Z</time></trkpt><trkpt lat="46.211816" lon="11.2665347"><ele>958.0</ele><time>2026-05-01T22:11:28.418Z</time></trkpt><trkpt lat="46.211781" lon="11.2666331"><ele>958.0</ele><time>2026-05-01T22:11:29.386Z</time></trkpt><trkpt lat="46.2117637" lon="11.2667434"><ele>957.9999999999999</ele><time>2026-05-01T22:11:30.387Z</time></trkpt><trkpt lat="46.2117552" lon="11.266893"><ele>958.0</ele><time>2026-05-01T22:11:32.391Z</time></trkpt><trkpt lat="46.2118205" lon="11.2670024"><ele>955.8</ele><time>2026-05-01T22:11:35.395Z</time></trkpt><trkpt lat="46.2118991" lon="11.2670708"><ele>953.5999999999999</ele><time>2026-05-01T22:11:37.396Z</time></trkpt><trkpt lat="46.2119771" lon="11.2671257"><ele>951.4000000000001</ele><time>2026-05-01T22:11:39.417Z</time></trkpt><trkpt lat="46.2120928" lon="11.267137"><ele>949.2</ele><time>2026-05-01T22:11:42.405Z</time></trkpt><trkpt lat="46.2122153" lon="11.2671263"><ele>947.0</ele><time>2026-05-01T22:11:44.422Z</time></trkpt><trkpt lat="46.21229" lon="11.2671546"><ele>946.0</ele><time>2026-05-01T22:11:46.393Z</time></trkpt><trkpt lat="46.2124017" lon="11.2672289"><ele>945.0</ele><time>2026-05-01T22:11:48.406Z</time></trkpt><trkpt lat="46.2124995" lon="11.2672771"><ele>944.0</ele><time>2026-05-01T22:11:49.4Z</time></trkpt><trkpt lat="46.2125908" lon="11.2673198"><ele>943.0</ele><time>2026-05-01T22:11:50.407Z</time></trkpt><trkpt lat="46.2126546" lon="11.2673637"><ele>942.0</ele><time>2026-05-01T22:11:51.406Z</time></trkpt><trkpt lat="46.2127113" lon="11.2674103"><ele>942.0</ele><time>2026-05-01T22:11:52.417Z</time></trkpt><trkpt lat="46.2127551" lon="11.2674779"><ele>942.0</ele><time>2026-05-01T22:11:53.396Z</time></trkpt><trkpt lat="46.2127883" lon="11.2675804"><ele>942.0</ele><time>2026-05-01T22:11:55.415Z</time></trkpt><trkpt lat="46.2128611" lon="11.26768"><ele>942.0</ele><time>2026-05-01T22:11:57.416Z</time></trkpt><trkpt lat="46.2127944" lon="11.2677701"><ele>942.0</ele><time>2026-05-01T22:11:59.381Z</time></trkpt><trkpt lat="46.2127799" lon="11.2678761"><ele>942.0</ele><time>2026-05-01T22:12:01.375Z</time></trkpt><trkpt lat="46.2128405" lon="11.2679956"><ele>937.0</ele><time>2026-05-01T22:12:03.396Z</time></trkpt><trkpt lat="46.2128971" lon="11.2681222"><ele>932.0</ele><time>2026-05-01T22:12:05.353Z</time></trkpt><trkpt lat="46.2129523" lon="11.2682293"><ele>927.0</ele><time>2026-05-01T22:12:07.476Z</time></trkpt><trkpt lat="46.2129949" lon="11.2683292"><ele>922.0</ele><time>2026-05-01T22:12:09.365Z</time></trkpt><trkpt lat="46.2130495" lon="11.2683989"><ele>917.0</ele><time>2026-05-01T22:12:11.402Z</time></trkpt><trkpt lat="46.2131135" lon="11.2685142"><ele>917.0</ele><time>2026-05-01T22:12:13.422Z</time></trkpt><trkpt lat="46.2131516" lon="11.2686217"><ele>917.0</ele><time>2026-05-01T22:12:16.394Z</time></trkpt><trkpt lat="46.2131776" lon="11.2687644"><ele>917.0</ele><time>2026-05-01T22:12:18.416Z</time></trkpt><trkpt lat="46.2131622" lon="11.2688661"><ele>917.0</ele><time>2026-05-01T22:12:20.38Z</time></trkpt><trkpt lat="46.2131973" lon="11.2689538"><ele>917.0</ele><time>2026-05-01T22:12:21.391Z</time></trkpt><trkpt lat="46.2132822" lon="11.269095"><ele>910.5000000000001</ele><time>2026-05-01T22:12:23.391Z</time></trkpt><trkpt lat="46.2133863" lon="11.2691117"><ele>904.0</ele><time>2026-05-01T22:12:25.398Z</time></trkpt><trkpt lat="46.2134977" lon="11.2690697"><ele>897.5</ele><time>2026-05-01T22:12:27.393Z</time></trkpt><trkpt lat="46.2135697" lon="11.2690425"><ele>891.0</ele><time>2026-05-01T22:12:28.46Z</time></trkpt><trkpt lat="46.2136368" lon="11.2690321"><ele>884.5000000000001</ele><time>2026-05-01T22:12:29.363Z</time></trkpt><trkpt lat="46.2137006" lon="11.2690216"><ele>878.0</ele><time>2026-05-01T22:12:30.358Z</time></trkpt><trkpt lat="46.2138129" lon="11.2689946"><ele>878.0</ele><time>2026-05-01T22:12:32.398Z</time></trkpt><trkpt lat="46.2138914" lon="11.2689661"><ele>878.0</ele><time>2026-05-01T22:12:34.401Z</time></trkpt><trkpt lat="46.213985" lon="11.2689953"><ele>878.0</ele><time>2026-05-01T22:12:36.388Z</time></trkpt><trkpt lat="46.2140584" lon="11.269032"><ele>878.0</ele><time>2026-05-01T22:12:38.379Z</time></trkpt><trkpt lat="46.2141722" lon="11.2690837"><ele>878.0</ele><time>2026-05-01T22:12:40.393Z</time></trkpt><trkpt lat="46.2143336" lon="11.2691417"><ele>877.5000000000001</ele><time>2026-05-01T22:12:42.315Z</time></trkpt><trkpt lat="46.2144351" lon="11.2692254"><ele>877.0</ele><time>2026-05-01T22:12:44.368Z</time></trkpt><trkpt lat="46.2144983" lon="11.2692845"><ele>876.5</ele><time>2026-05-01T22:12:46.405Z</time></trkpt><trkpt lat="46.2146097" lon="11.2693248"><ele>876.0</ele><time>2026-05-01T22:12:49.398Z</time></trkpt><trkpt lat="46.2146778" lon="11.269341"><ele>875.5000000000001</ele><time>2026-05-01T22:12:50.38Z</time></trkpt><trkpt lat="46.2147457" lon="11.2693525"><ele>875.0</ele><time>2026-05-01T22:12:51.355Z</time></trkpt><trkpt lat="46.2148221" lon="11.2693398"><ele>874.3333333333334</ele><time>2026-05-01T22:12:52.366Z</time></trkpt><trkpt lat="46.2148856" lon="11.2693258"><ele>873.6666666666667</ele><time>2026-05-01T22:12:53.375Z</time></trkpt><trkpt lat="46.2149561" lon="11.2693135"><ele>873.0</ele><time>2026-05-01T22:12:54.393Z</time></trkpt><trkpt lat="46.2150599" lon="11.2692755"><ele>872.3333333333333</ele><time>2026-05-01T22:12:56.348Z</time></trkpt><trkpt lat="46.2151154" lon="11.2693517"><ele>871.6666666666666</ele><time>2026-05-01T22:12:58.329Z</time></trkpt><trkpt lat="46.215092" lon="11.2694565"><ele>871.0</ele><time>2026-05-01T22:13:00.349Z</time></trkpt><trkpt lat="46.2150094" lon="11.2695364"><ele>870.9999999999999</ele><time>2026-05-01T22:13:02.354Z</time></trkpt><trkpt lat="46.2149376" lon="11.2696023"><ele>871.0</ele><time>2026-05-01T22:13:04.351Z</time></trkpt><trkpt lat="46.2148514" lon="11.2696569"><ele>871.0</ele><time>2026-05-01T22:13:06.398Z</time></trkpt><trkpt lat="46.2147663" lon="11.2697149"><ele>871.0</ele><time>2026-05-01T22:13:08.448Z</time></trkpt><trkpt lat="46.2147007" lon="11.2697516"><ele>870.9999999999999</ele><time>2026-05-01T22:13:10.376Z</time></trkpt><trkpt lat="46.2146126" lon="11.2697716"><ele>871.0</ele><time>2026-05-01T22:13:13.377Z</time></trkpt><trkpt lat="46.2146724" lon="11.2698045"><ele>835.0</ele><time>2026-05-01T22:13:20.395Z</time></trkpt><trkpt lat="46.214747" lon="11.2698175"><ele>835.0</ele><time>2026-05-01T22:13:25.367Z</time></trkpt><trkpt lat="46.2148146" lon="11.269838"><ele>835.0</ele><time>2026-05-01T22:13:30.348Z</time></trkpt><trkpt lat="46.2148777" lon="11.269856"><ele>823.0</ele><time>2026-05-01T22:13:36.332Z</time></trkpt><trkpt lat="46.2149534" lon="11.2698778"><ele>823.0</ele><time>2026-05-01T22:13:42.379Z</time></trkpt></trkseg></trk></gpx>